<?xml version="1.0" encoding="UTF-8" standalone="no" ?>
<gpx xmlns="http://www.topografix.com/GPX/1/1" xmlns:xsi="http://www.w3.org/2001/XMLSchema-instance" xsi:schemaLocation="http://www.topografix.com/GPX/1/1 http://www.topografix.com/GPX/1/1/gpx.xsd" version="1.1" creator="VisuGPX - https://www.visugpx.com">
  <metadata>
    <name>[BASE Jump] Melkstuhl</name>
    <desc><![CDATA[A n'utiliser qu'avec un parachute.  ]]></desc>
  </metadata>
  <trk>
    <name><![CDATA[Melkshtuhl]]></name>
    <extensions>
      <line xmlns="http://www.topografix.com/GPX/gpx_style/0/2">
        <color>0000FF</color>
        <width>4</width>
      </line>
    </extensions>
    <trkseg>
      <trkpt lat="46.54514" lon="7.90269">
        <ele>958</ele>
        <time>2022-09-21T06:04:58Z</time>
      </trkpt>
      <trkpt lat="46.54513" lon="7.90271">
        <ele>953.77</ele>
        <time>2022-09-21T06:05:00Z</time>
      </trkpt>
      <trkpt lat="46.54512" lon="7.90273">
        <ele>952.97</ele>
        <time>2022-09-21T06:05:02Z</time>
      </trkpt>
      <trkpt lat="46.54511" lon="7.90273">
        <ele>954.43</ele>
        <time>2022-09-21T06:05:03Z</time>
      </trkpt>
      <trkpt lat="46.5451" lon="7.90274">
        <ele>954.9</ele>
        <time>2022-09-21T06:05:04Z</time>
      </trkpt>
      <trkpt lat="46.54509" lon="7.90274">
        <ele>954.81</ele>
        <time>2022-09-21T06:05:05Z</time>
      </trkpt>
      <trkpt lat="46.54508" lon="7.90275">
        <ele>954.78</ele>
        <time>2022-09-21T06:05:06Z</time>
      </trkpt>
      <trkpt lat="46.54507" lon="7.90275">
        <ele>954.92</ele>
        <time>2022-09-21T06:05:07Z</time>
      </trkpt>
      <trkpt lat="46.54506" lon="7.90275">
        <ele>954.84</ele>
        <time>2022-09-21T06:05:08Z</time>
      </trkpt>
      <trkpt lat="46.54505" lon="7.90276">
        <ele>955.51</ele>
        <time>2022-09-21T06:05:09Z</time>
      </trkpt>
      <trkpt lat="46.54503" lon="7.90276">
        <ele>956.43</ele>
        <time>2022-09-21T06:05:11Z</time>
      </trkpt>
      <trkpt lat="46.54501" lon="7.90276">
        <ele>957.19</ele>
        <time>2022-09-21T06:05:13Z</time>
      </trkpt>
      <trkpt lat="46.545" lon="7.90276">
        <ele>956.89</ele>
        <time>2022-09-21T06:05:14Z</time>
      </trkpt>
      <trkpt lat="46.54499" lon="7.90276">
        <ele>956.84</ele>
        <time>2022-09-21T06:05:15Z</time>
      </trkpt>
      <trkpt lat="46.54498" lon="7.90277">
        <ele>958.23</ele>
        <time>2022-09-21T06:05:16Z</time>
      </trkpt>
      <trkpt lat="46.54496" lon="7.90279">
        <ele>958.01</ele>
        <time>2022-09-21T06:05:18Z</time>
      </trkpt>
      <trkpt lat="46.54495" lon="7.9028">
        <ele>958.79</ele>
        <time>2022-09-21T06:05:19Z</time>
      </trkpt>
      <trkpt lat="46.54494" lon="7.90281">
        <ele>959.65</ele>
        <time>2022-09-21T06:05:20Z</time>
      </trkpt>
      <trkpt lat="46.54493" lon="7.90282">
        <ele>960.33</ele>
        <time>2022-09-21T06:05:21Z</time>
      </trkpt>
      <trkpt lat="46.54492" lon="7.90282">
        <ele>960.23</ele>
        <time>2022-09-21T06:05:22Z</time>
      </trkpt>
      <trkpt lat="46.5449" lon="7.90283">
        <ele>960.04</ele>
        <time>2022-09-21T06:05:23Z</time>
      </trkpt>
      <trkpt lat="46.54488" lon="7.90285">
        <ele>960.76</ele>
        <time>2022-09-21T06:05:25Z</time>
      </trkpt>
      <trkpt lat="46.54487" lon="7.90285">
        <ele>960.63</ele>
        <time>2022-09-21T06:05:26Z</time>
      </trkpt>
      <trkpt lat="46.54485" lon="7.90286">
        <ele>960.2</ele>
        <time>2022-09-21T06:05:27Z</time>
      </trkpt>
      <trkpt lat="46.54484" lon="7.90287">
        <ele>959.86</ele>
        <time>2022-09-21T06:05:28Z</time>
      </trkpt>
      <trkpt lat="46.54483" lon="7.90287">
        <ele>959.77</ele>
        <time>2022-09-21T06:05:29Z</time>
      </trkpt>
      <trkpt lat="46.54482" lon="7.90288">
        <ele>960.24</ele>
        <time>2022-09-21T06:05:30Z</time>
      </trkpt>
      <trkpt lat="46.5448" lon="7.90288">
        <ele>959.91</ele>
        <time>2022-09-21T06:05:31Z</time>
      </trkpt>
      <trkpt lat="46.54478" lon="7.90289">
        <ele>960.44</ele>
        <time>2022-09-21T06:05:33Z</time>
      </trkpt>
      <trkpt lat="46.54476" lon="7.90289">
        <ele>960.25</ele>
        <time>2022-09-21T06:05:34Z</time>
      </trkpt>
      <trkpt lat="46.54474" lon="7.9029">
        <ele>962.38</ele>
        <time>2022-09-21T06:05:36Z</time>
      </trkpt>
      <trkpt lat="46.54473" lon="7.90291">
        <ele>962.08</ele>
        <time>2022-09-21T06:05:38Z</time>
      </trkpt>
      <trkpt lat="46.5447" lon="7.90292">
        <ele>962.19</ele>
        <time>2022-09-21T06:05:40Z</time>
      </trkpt>
      <trkpt lat="46.54468" lon="7.90294">
        <ele>962.58</ele>
        <time>2022-09-21T06:05:42Z</time>
      </trkpt>
      <trkpt lat="46.54467" lon="7.90295">
        <ele>963.16</ele>
        <time>2022-09-21T06:05:43Z</time>
      </trkpt>
      <trkpt lat="46.54466" lon="7.90296">
        <ele>962.96</ele>
        <time>2022-09-21T06:05:44Z</time>
      </trkpt>
      <trkpt lat="46.54464" lon="7.90296">
        <ele>964.39</ele>
        <time>2022-09-21T06:05:45Z</time>
      </trkpt>
      <trkpt lat="46.54463" lon="7.90296">
        <ele>964.92</ele>
        <time>2022-09-21T06:05:46Z</time>
      </trkpt>
      <trkpt lat="46.5446" lon="7.90298">
        <ele>964.74</ele>
        <time>2022-09-21T06:05:48Z</time>
      </trkpt>
      <trkpt lat="46.54459" lon="7.90298">
        <ele>965.31</ele>
        <time>2022-09-21T06:05:49Z</time>
      </trkpt>
      <trkpt lat="46.54457" lon="7.90299">
        <ele>965.41</ele>
        <time>2022-09-21T06:05:50Z</time>
      </trkpt>
      <trkpt lat="46.54456" lon="7.90299">
        <ele>966.54</ele>
        <time>2022-09-21T06:05:51Z</time>
      </trkpt>
      <trkpt lat="46.54455" lon="7.903">
        <ele>967.16</ele>
        <time>2022-09-21T06:05:52Z</time>
      </trkpt>
      <trkpt lat="46.54452" lon="7.90301">
        <ele>966.69</ele>
        <time>2022-09-21T06:05:54Z</time>
      </trkpt>
      <trkpt lat="46.54451" lon="7.90301">
        <ele>966.69</ele>
        <time>2022-09-21T06:05:55Z</time>
      </trkpt>
      <trkpt lat="46.54449" lon="7.90302">
        <ele>966.4</ele>
        <time>2022-09-21T06:05:56Z</time>
      </trkpt>
      <trkpt lat="46.54448" lon="7.90303">
        <ele>966.22</ele>
        <time>2022-09-21T06:05:57Z</time>
      </trkpt>
      <trkpt lat="46.54446" lon="7.90304">
        <ele>966.35</ele>
        <time>2022-09-21T06:05:59Z</time>
      </trkpt>
      <trkpt lat="46.54444" lon="7.90305">
        <ele>967.11</ele>
        <time>2022-09-21T06:06:00Z</time>
      </trkpt>
      <trkpt lat="46.54443" lon="7.90307">
        <ele>967.62</ele>
        <time>2022-09-21T06:06:01Z</time>
      </trkpt>
      <trkpt lat="46.54441" lon="7.90308">
        <ele>966.75</ele>
        <time>2022-09-21T06:06:02Z</time>
      </trkpt>
      <trkpt lat="46.5444" lon="7.90309">
        <ele>967.7</ele>
        <time>2022-09-21T06:06:03Z</time>
      </trkpt>
      <trkpt lat="46.54438" lon="7.90309">
        <ele>968.15</ele>
        <time>2022-09-21T06:06:04Z</time>
      </trkpt>
      <trkpt lat="46.54437" lon="7.9031">
        <ele>968.23</ele>
        <time>2022-09-21T06:06:05Z</time>
      </trkpt>
      <trkpt lat="46.54435" lon="7.90311">
        <ele>968.5</ele>
        <time>2022-09-21T06:06:06Z</time>
      </trkpt>
      <trkpt lat="46.54435" lon="7.90311">
        <ele>968.69</ele>
        <time>2022-09-21T06:06:07Z</time>
      </trkpt>
      <trkpt lat="46.54433" lon="7.90313">
        <ele>967.92</ele>
        <time>2022-09-21T06:06:09Z</time>
      </trkpt>
      <trkpt lat="46.54432" lon="7.90314">
        <ele>967.32</ele>
        <time>2022-09-21T06:06:10Z</time>
      </trkpt>
      <trkpt lat="46.54431" lon="7.90315">
        <ele>967.38</ele>
        <time>2022-09-21T06:06:11Z</time>
      </trkpt>
      <trkpt lat="46.54429" lon="7.90316">
        <ele>966.78</ele>
        <time>2022-09-21T06:06:12Z</time>
      </trkpt>
      <trkpt lat="46.54428" lon="7.90316">
        <ele>966.71</ele>
        <time>2022-09-21T06:06:13Z</time>
      </trkpt>
      <trkpt lat="46.54427" lon="7.90316">
        <ele>966.66</ele>
        <time>2022-09-21T06:06:14Z</time>
      </trkpt>
      <trkpt lat="46.54426" lon="7.90317">
        <ele>966.33</ele>
        <time>2022-09-21T06:06:15Z</time>
      </trkpt>
      <trkpt lat="46.54425" lon="7.90318">
        <ele>966.75</ele>
        <time>2022-09-21T06:06:17Z</time>
      </trkpt>
      <trkpt lat="46.54423" lon="7.90319">
        <ele>965.98</ele>
        <time>2022-09-21T06:06:19Z</time>
      </trkpt>
      <trkpt lat="46.54422" lon="7.90321">
        <ele>967.63</ele>
        <time>2022-09-21T06:06:21Z</time>
      </trkpt>
      <trkpt lat="46.5442" lon="7.9032">
        <ele>967.11</ele>
        <time>2022-09-21T06:06:23Z</time>
      </trkpt>
      <trkpt lat="46.54418" lon="7.90321">
        <ele>968.16</ele>
        <time>2022-09-21T06:06:26Z</time>
      </trkpt>
      <trkpt lat="46.54418" lon="7.90322">
        <ele>968.03</ele>
        <time>2022-09-21T06:06:27Z</time>
      </trkpt>
      <trkpt lat="46.54417" lon="7.90323">
        <ele>967.2</ele>
        <time>2022-09-21T06:06:28Z</time>
      </trkpt>
      <trkpt lat="46.54416" lon="7.90324">
        <ele>967.69</ele>
        <time>2022-09-21T06:06:29Z</time>
      </trkpt>
      <trkpt lat="46.54415" lon="7.90324">
        <ele>967.66</ele>
        <time>2022-09-21T06:06:30Z</time>
      </trkpt>
      <trkpt lat="46.54414" lon="7.90325">
        <ele>967.89</ele>
        <time>2022-09-21T06:06:31Z</time>
      </trkpt>
      <trkpt lat="46.54412" lon="7.90325">
        <ele>968.4</ele>
        <time>2022-09-21T06:06:32Z</time>
      </trkpt>
      <trkpt lat="46.54411" lon="7.90326">
        <ele>966.73</ele>
        <time>2022-09-21T06:06:33Z</time>
      </trkpt>
      <trkpt lat="46.5441" lon="7.90327">
        <ele>966.98</ele>
        <time>2022-09-21T06:06:34Z</time>
      </trkpt>
      <trkpt lat="46.54409" lon="7.90328">
        <ele>966.75</ele>
        <time>2022-09-21T06:06:35Z</time>
      </trkpt>
      <trkpt lat="46.54408" lon="7.9033">
        <ele>965.71</ele>
        <time>2022-09-21T06:06:36Z</time>
      </trkpt>
      <trkpt lat="46.54407" lon="7.90331">
        <ele>965.61</ele>
        <time>2022-09-21T06:06:37Z</time>
      </trkpt>
      <trkpt lat="46.54407" lon="7.90332">
        <ele>966.47</ele>
        <time>2022-09-21T06:06:38Z</time>
      </trkpt>
      <trkpt lat="46.54405" lon="7.90333">
        <ele>966.55</ele>
        <time>2022-09-21T06:06:39Z</time>
      </trkpt>
      <trkpt lat="46.54404" lon="7.90334">
        <ele>966.75</ele>
        <time>2022-09-21T06:06:40Z</time>
      </trkpt>
      <trkpt lat="46.54403" lon="7.90335">
        <ele>966.34</ele>
        <time>2022-09-21T06:06:41Z</time>
      </trkpt>
      <trkpt lat="46.54402" lon="7.90336">
        <ele>966.37</ele>
        <time>2022-09-21T06:06:42Z</time>
      </trkpt>
      <trkpt lat="46.54401" lon="7.90336">
        <ele>966.77</ele>
        <time>2022-09-21T06:06:43Z</time>
      </trkpt>
      <trkpt lat="46.544" lon="7.90338">
        <ele>966.4</ele>
        <time>2022-09-21T06:06:44Z</time>
      </trkpt>
      <trkpt lat="46.54399" lon="7.90339">
        <ele>966.84</ele>
        <time>2022-09-21T06:06:45Z</time>
      </trkpt>
      <trkpt lat="46.54398" lon="7.9034">
        <ele>966.93</ele>
        <time>2022-09-21T06:06:46Z</time>
      </trkpt>
      <trkpt lat="46.54397" lon="7.90341">
        <ele>968.2</ele>
        <time>2022-09-21T06:06:47Z</time>
      </trkpt>
      <trkpt lat="46.54396" lon="7.90343">
        <ele>968.5</ele>
        <time>2022-09-21T06:06:48Z</time>
      </trkpt>
      <trkpt lat="46.54396" lon="7.90344">
        <ele>969.22</ele>
        <time>2022-09-21T06:06:49Z</time>
      </trkpt>
      <trkpt lat="46.54394" lon="7.90346">
        <ele>969.88</ele>
        <time>2022-09-21T06:06:51Z</time>
      </trkpt>
      <trkpt lat="46.54394" lon="7.90347">
        <ele>970.5</ele>
        <time>2022-09-21T06:06:52Z</time>
      </trkpt>
      <trkpt lat="46.54393" lon="7.90348">
        <ele>969.83</ele>
        <time>2022-09-21T06:06:53Z</time>
      </trkpt>
      <trkpt lat="46.54393" lon="7.9035">
        <ele>969.79</ele>
        <time>2022-09-21T06:06:54Z</time>
      </trkpt>
      <trkpt lat="46.54393" lon="7.90351">
        <ele>971.08</ele>
        <time>2022-09-21T06:06:55Z</time>
      </trkpt>
      <trkpt lat="46.54392" lon="7.90353">
        <ele>971.38</ele>
        <time>2022-09-21T06:06:56Z</time>
      </trkpt>
      <trkpt lat="46.54392" lon="7.90355">
        <ele>971.71</ele>
        <time>2022-09-21T06:06:57Z</time>
      </trkpt>
      <trkpt lat="46.54392" lon="7.90356">
        <ele>972.21</ele>
        <time>2022-09-21T06:06:58Z</time>
      </trkpt>
      <trkpt lat="46.54391" lon="7.90358">
        <ele>971.11</ele>
        <time>2022-09-21T06:06:59Z</time>
      </trkpt>
      <trkpt lat="46.54391" lon="7.9036">
        <ele>971.79</ele>
        <time>2022-09-21T06:07:00Z</time>
      </trkpt>
      <trkpt lat="46.5439" lon="7.90361">
        <ele>972.31</ele>
        <time>2022-09-21T06:07:01Z</time>
      </trkpt>
      <trkpt lat="46.5439" lon="7.90363">
        <ele>972.06</ele>
        <time>2022-09-21T06:07:02Z</time>
      </trkpt>
      <trkpt lat="46.54389" lon="7.90365">
        <ele>972.69</ele>
        <time>2022-09-21T06:07:03Z</time>
      </trkpt>
      <trkpt lat="46.54389" lon="7.90366">
        <ele>972.67</ele>
        <time>2022-09-21T06:07:04Z</time>
      </trkpt>
      <trkpt lat="46.54388" lon="7.90369">
        <ele>972.61</ele>
        <time>2022-09-21T06:07:05Z</time>
      </trkpt>
      <trkpt lat="46.54386" lon="7.90371">
        <ele>973.07</ele>
        <time>2022-09-21T06:07:06Z</time>
      </trkpt>
      <trkpt lat="46.54385" lon="7.90373">
        <ele>973.24</ele>
        <time>2022-09-21T06:07:07Z</time>
      </trkpt>
      <trkpt lat="46.54385" lon="7.90375">
        <ele>973.22</ele>
        <time>2022-09-21T06:07:08Z</time>
      </trkpt>
      <trkpt lat="46.54384" lon="7.90377">
        <ele>973.81</ele>
        <time>2022-09-21T06:07:09Z</time>
      </trkpt>
      <trkpt lat="46.54384" lon="7.90378">
        <ele>974.73</ele>
        <time>2022-09-21T06:07:10Z</time>
      </trkpt>
      <trkpt lat="46.54383" lon="7.90379">
        <ele>974.1</ele>
        <time>2022-09-21T06:07:11Z</time>
      </trkpt>
      <trkpt lat="46.54382" lon="7.9038">
        <ele>975.54</ele>
        <time>2022-09-21T06:07:12Z</time>
      </trkpt>
      <trkpt lat="46.54382" lon="7.90381">
        <ele>975.59</ele>
        <time>2022-09-21T06:07:13Z</time>
      </trkpt>
      <trkpt lat="46.54381" lon="7.90384">
        <ele>975.38</ele>
        <time>2022-09-21T06:07:15Z</time>
      </trkpt>
      <trkpt lat="46.54381" lon="7.90385">
        <ele>975.27</ele>
        <time>2022-09-21T06:07:16Z</time>
      </trkpt>
      <trkpt lat="46.5438" lon="7.90387">
        <ele>975.7</ele>
        <time>2022-09-21T06:07:18Z</time>
      </trkpt>
      <trkpt lat="46.5438" lon="7.90389">
        <ele>974.52</ele>
        <time>2022-09-21T06:07:19Z</time>
      </trkpt>
      <trkpt lat="46.54379" lon="7.9039">
        <ele>974.13</ele>
        <time>2022-09-21T06:07:20Z</time>
      </trkpt>
      <trkpt lat="46.54379" lon="7.90391">
        <ele>974.27</ele>
        <time>2022-09-21T06:07:21Z</time>
      </trkpt>
      <trkpt lat="46.54379" lon="7.90393">
        <ele>974.47</ele>
        <time>2022-09-21T06:07:22Z</time>
      </trkpt>
      <trkpt lat="46.54379" lon="7.90394">
        <ele>975.12</ele>
        <time>2022-09-21T06:07:23Z</time>
      </trkpt>
      <trkpt lat="46.54378" lon="7.90395">
        <ele>974.58</ele>
        <time>2022-09-21T06:07:24Z</time>
      </trkpt>
      <trkpt lat="46.54378" lon="7.90397">
        <ele>974.09</ele>
        <time>2022-09-21T06:07:25Z</time>
      </trkpt>
      <trkpt lat="46.54378" lon="7.90398">
        <ele>974.18</ele>
        <time>2022-09-21T06:07:26Z</time>
      </trkpt>
      <trkpt lat="46.54377" lon="7.904">
        <ele>974.23</ele>
        <time>2022-09-21T06:07:27Z</time>
      </trkpt>
      <trkpt lat="46.54376" lon="7.90401">
        <ele>974.41</ele>
        <time>2022-09-21T06:07:28Z</time>
      </trkpt>
      <trkpt lat="46.54376" lon="7.90403">
        <ele>973.63</ele>
        <time>2022-09-21T06:07:29Z</time>
      </trkpt>
      <trkpt lat="46.54375" lon="7.90404">
        <ele>973.73</ele>
        <time>2022-09-21T06:07:30Z</time>
      </trkpt>
      <trkpt lat="46.54374" lon="7.90405">
        <ele>974.3</ele>
        <time>2022-09-21T06:07:31Z</time>
      </trkpt>
      <trkpt lat="46.54373" lon="7.90407">
        <ele>973.93</ele>
        <time>2022-09-21T06:07:32Z</time>
      </trkpt>
      <trkpt lat="46.54372" lon="7.90408">
        <ele>974.16</ele>
        <time>2022-09-21T06:07:33Z</time>
      </trkpt>
      <trkpt lat="46.54372" lon="7.9041">
        <ele>974.51</ele>
        <time>2022-09-21T06:07:34Z</time>
      </trkpt>
      <trkpt lat="46.54371" lon="7.90411">
        <ele>973.82</ele>
        <time>2022-09-21T06:07:35Z</time>
      </trkpt>
      <trkpt lat="46.54369" lon="7.90413">
        <ele>973.73</ele>
        <time>2022-09-21T06:07:36Z</time>
      </trkpt>
      <trkpt lat="46.54368" lon="7.90415">
        <ele>972.01</ele>
        <time>2022-09-21T06:07:37Z</time>
      </trkpt>
      <trkpt lat="46.54367" lon="7.90417">
        <ele>972.3</ele>
        <time>2022-09-21T06:07:38Z</time>
      </trkpt>
      <trkpt lat="46.54366" lon="7.90419">
        <ele>972.25</ele>
        <time>2022-09-21T06:07:39Z</time>
      </trkpt>
      <trkpt lat="46.54365" lon="7.90421">
        <ele>972.09</ele>
        <time>2022-09-21T06:07:40Z</time>
      </trkpt>
      <trkpt lat="46.54364" lon="7.90422">
        <ele>970.78</ele>
        <time>2022-09-21T06:07:41Z</time>
      </trkpt>
      <trkpt lat="46.54361" lon="7.90423">
        <ele>969.26</ele>
        <time>2022-09-21T06:07:42Z</time>
      </trkpt>
      <trkpt lat="46.54361" lon="7.90425">
        <ele>968.89</ele>
        <time>2022-09-21T06:07:43Z</time>
      </trkpt>
      <trkpt lat="46.5436" lon="7.90425">
        <ele>968.28</ele>
        <time>2022-09-21T06:07:44Z</time>
      </trkpt>
      <trkpt lat="46.5436" lon="7.90426">
        <ele>970.29</ele>
        <time>2022-09-21T06:07:45Z</time>
      </trkpt>
      <trkpt lat="46.54358" lon="7.90428">
        <ele>970.43</ele>
        <time>2022-09-21T06:07:47Z</time>
      </trkpt>
      <trkpt lat="46.54356" lon="7.90429">
        <ele>969.02</ele>
        <time>2022-09-21T06:07:48Z</time>
      </trkpt>
      <trkpt lat="46.54354" lon="7.90431">
        <ele>968.8</ele>
        <time>2022-09-21T06:07:49Z</time>
      </trkpt>
      <trkpt lat="46.54353" lon="7.90433">
        <ele>968.58</ele>
        <time>2022-09-21T06:07:50Z</time>
      </trkpt>
      <trkpt lat="46.54351" lon="7.90433">
        <ele>970.47</ele>
        <time>2022-09-21T06:07:51Z</time>
      </trkpt>
      <trkpt lat="46.54349" lon="7.90434">
        <ele>969.28</ele>
        <time>2022-09-21T06:07:52Z</time>
      </trkpt>
      <trkpt lat="46.54347" lon="7.90434">
        <ele>969.63</ele>
        <time>2022-09-21T06:07:53Z</time>
      </trkpt>
      <trkpt lat="46.54345" lon="7.90436">
        <ele>971.47</ele>
        <time>2022-09-21T06:07:55Z</time>
      </trkpt>
      <trkpt lat="46.54345" lon="7.90437">
        <ele>971.77</ele>
        <time>2022-09-21T06:07:56Z</time>
      </trkpt>
      <trkpt lat="46.54344" lon="7.90438">
        <ele>971.22</ele>
        <time>2022-09-21T06:07:57Z</time>
      </trkpt>
      <trkpt lat="46.54343" lon="7.90439">
        <ele>972.75</ele>
        <time>2022-09-21T06:07:58Z</time>
      </trkpt>
      <trkpt lat="46.54342" lon="7.90441">
        <ele>968.91</ele>
        <time>2022-09-21T06:08:00Z</time>
      </trkpt>
      <trkpt lat="46.54341" lon="7.90442">
        <ele>969.51</ele>
        <time>2022-09-21T06:08:01Z</time>
      </trkpt>
      <trkpt lat="46.5434" lon="7.90444">
        <ele>970.46</ele>
        <time>2022-09-21T06:08:03Z</time>
      </trkpt>
      <trkpt lat="46.54339" lon="7.90444">
        <ele>967.77</ele>
        <time>2022-09-21T06:08:04Z</time>
      </trkpt>
      <trkpt lat="46.54338" lon="7.90446">
        <ele>968.08</ele>
        <time>2022-09-21T06:08:06Z</time>
      </trkpt>
      <trkpt lat="46.54337" lon="7.90446">
        <ele>967.58</ele>
        <time>2022-09-21T06:08:07Z</time>
      </trkpt>
      <trkpt lat="46.54336" lon="7.90448">
        <ele>967.84</ele>
        <time>2022-09-21T06:08:08Z</time>
      </trkpt>
      <trkpt lat="46.54336" lon="7.90449">
        <ele>967.93</ele>
        <time>2022-09-21T06:08:09Z</time>
      </trkpt>
      <trkpt lat="46.54336" lon="7.9045">
        <ele>968.77</ele>
        <time>2022-09-21T06:08:10Z</time>
      </trkpt>
      <trkpt lat="46.54335" lon="7.90452">
        <ele>971.68</ele>
        <time>2022-09-21T06:08:12Z</time>
      </trkpt>
      <trkpt lat="46.54335" lon="7.90454">
        <ele>973.13</ele>
        <time>2022-09-21T06:08:14Z</time>
      </trkpt>
      <trkpt lat="46.54335" lon="7.90456">
        <ele>973.11</ele>
        <time>2022-09-21T06:08:15Z</time>
      </trkpt>
      <trkpt lat="46.54334" lon="7.90459">
        <ele>972.79</ele>
        <time>2022-09-21T06:08:17Z</time>
      </trkpt>
      <trkpt lat="46.54335" lon="7.9046">
        <ele>972.37</ele>
        <time>2022-09-21T06:08:18Z</time>
      </trkpt>
      <trkpt lat="46.54334" lon="7.90463">
        <ele>972.58</ele>
        <time>2022-09-21T06:08:20Z</time>
      </trkpt>
      <trkpt lat="46.54334" lon="7.90464">
        <ele>971.28</ele>
        <time>2022-09-21T06:08:21Z</time>
      </trkpt>
      <trkpt lat="46.54334" lon="7.90467">
        <ele>972.97</ele>
        <time>2022-09-21T06:08:23Z</time>
      </trkpt>
      <trkpt lat="46.54334" lon="7.90468">
        <ele>972.08</ele>
        <time>2022-09-21T06:08:24Z</time>
      </trkpt>
      <trkpt lat="46.54334" lon="7.90471">
        <ele>971.74</ele>
        <time>2022-09-21T06:08:26Z</time>
      </trkpt>
      <trkpt lat="46.54334" lon="7.90473">
        <ele>970.48</ele>
        <time>2022-09-21T06:08:28Z</time>
      </trkpt>
      <trkpt lat="46.54334" lon="7.90474">
        <ele>971.8</ele>
        <time>2022-09-21T06:08:29Z</time>
      </trkpt>
      <trkpt lat="46.54333" lon="7.90477">
        <ele>971.33</ele>
        <time>2022-09-21T06:08:31Z</time>
      </trkpt>
      <trkpt lat="46.54333" lon="7.90479">
        <ele>970.28</ele>
        <time>2022-09-21T06:08:33Z</time>
      </trkpt>
      <trkpt lat="46.54332" lon="7.90481">
        <ele>969.12</ele>
        <time>2022-09-21T06:08:35Z</time>
      </trkpt>
      <trkpt lat="46.54332" lon="7.90482">
        <ele>970.36</ele>
        <time>2022-09-21T06:08:36Z</time>
      </trkpt>
      <trkpt lat="46.54331" lon="7.90484">
        <ele>971.02</ele>
        <time>2022-09-21T06:08:37Z</time>
      </trkpt>
      <trkpt lat="46.5433" lon="7.90486">
        <ele>972.08</ele>
        <time>2022-09-21T06:08:39Z</time>
      </trkpt>
      <trkpt lat="46.54329" lon="7.90488">
        <ele>973.45</ele>
        <time>2022-09-21T06:08:40Z</time>
      </trkpt>
      <trkpt lat="46.54325" lon="7.9049">
        <ele>972.8</ele>
        <time>2022-09-21T06:08:41Z</time>
      </trkpt>
      <trkpt lat="46.54324" lon="7.90491">
        <ele>971.89</ele>
        <time>2022-09-21T06:08:42Z</time>
      </trkpt>
      <trkpt lat="46.54323" lon="7.90493">
        <ele>971.48</ele>
        <time>2022-09-21T06:08:43Z</time>
      </trkpt>
      <trkpt lat="46.54323" lon="7.90495">
        <ele>972.32</ele>
        <time>2022-09-21T06:08:44Z</time>
      </trkpt>
      <trkpt lat="46.54322" lon="7.90496">
        <ele>973.32</ele>
        <time>2022-09-21T06:08:45Z</time>
      </trkpt>
      <trkpt lat="46.54322" lon="7.90498">
        <ele>974.1</ele>
        <time>2022-09-21T06:08:46Z</time>
      </trkpt>
      <trkpt lat="46.54321" lon="7.905">
        <ele>974.74</ele>
        <time>2022-09-21T06:08:48Z</time>
      </trkpt>
      <trkpt lat="46.5432" lon="7.90502">
        <ele>975.53</ele>
        <time>2022-09-21T06:08:50Z</time>
      </trkpt>
      <trkpt lat="46.54319" lon="7.90504">
        <ele>975.24</ele>
        <time>2022-09-21T06:08:52Z</time>
      </trkpt>
      <trkpt lat="46.54319" lon="7.90506">
        <ele>976.25</ele>
        <time>2022-09-21T06:08:54Z</time>
      </trkpt>
      <trkpt lat="46.54318" lon="7.90507">
        <ele>976.99</ele>
        <time>2022-09-21T06:08:55Z</time>
      </trkpt>
      <trkpt lat="46.54317" lon="7.90509">
        <ele>976.5</ele>
        <time>2022-09-21T06:08:57Z</time>
      </trkpt>
      <trkpt lat="46.54317" lon="7.9051">
        <ele>975.69</ele>
        <time>2022-09-21T06:08:58Z</time>
      </trkpt>
      <trkpt lat="46.54316" lon="7.90512">
        <ele>976.65</ele>
        <time>2022-09-21T06:09:00Z</time>
      </trkpt>
      <trkpt lat="46.54315" lon="7.90514">
        <ele>974.91</ele>
        <time>2022-09-21T06:09:02Z</time>
      </trkpt>
      <trkpt lat="46.54314" lon="7.90516">
        <ele>974.73</ele>
        <time>2022-09-21T06:09:04Z</time>
      </trkpt>
      <trkpt lat="46.54312" lon="7.90517">
        <ele>976.59</ele>
        <time>2022-09-21T06:09:06Z</time>
      </trkpt>
      <trkpt lat="46.54311" lon="7.90519">
        <ele>976.26</ele>
        <time>2022-09-21T06:09:08Z</time>
      </trkpt>
      <trkpt lat="46.5431" lon="7.9052">
        <ele>977.68</ele>
        <time>2022-09-21T06:09:10Z</time>
      </trkpt>
      <trkpt lat="46.54309" lon="7.90521">
        <ele>979.92</ele>
        <time>2022-09-21T06:09:11Z</time>
      </trkpt>
      <trkpt lat="46.54307" lon="7.90523">
        <ele>982.41</ele>
        <time>2022-09-21T06:09:13Z</time>
      </trkpt>
      <trkpt lat="46.54306" lon="7.90524">
        <ele>983.31</ele>
        <time>2022-09-21T06:09:14Z</time>
      </trkpt>
      <trkpt lat="46.54305" lon="7.90524">
        <ele>983.57</ele>
        <time>2022-09-21T06:09:15Z</time>
      </trkpt>
      <trkpt lat="46.54304" lon="7.90525">
        <ele>984.18</ele>
        <time>2022-09-21T06:09:16Z</time>
      </trkpt>
      <trkpt lat="46.54303" lon="7.90526">
        <ele>985.59</ele>
        <time>2022-09-21T06:09:17Z</time>
      </trkpt>
      <trkpt lat="46.54302" lon="7.90527">
        <ele>985.9</ele>
        <time>2022-09-21T06:09:18Z</time>
      </trkpt>
      <trkpt lat="46.543" lon="7.90528">
        <ele>986.21</ele>
        <time>2022-09-21T06:09:19Z</time>
      </trkpt>
      <trkpt lat="46.54298" lon="7.90528">
        <ele>988.58</ele>
        <time>2022-09-21T06:09:20Z</time>
      </trkpt>
      <trkpt lat="46.54297" lon="7.90529">
        <ele>988.25</ele>
        <time>2022-09-21T06:09:21Z</time>
      </trkpt>
      <trkpt lat="46.54294" lon="7.9053">
        <ele>988.79</ele>
        <time>2022-09-21T06:09:23Z</time>
      </trkpt>
      <trkpt lat="46.54292" lon="7.90531">
        <ele>989.17</ele>
        <time>2022-09-21T06:09:25Z</time>
      </trkpt>
      <trkpt lat="46.54289" lon="7.90531">
        <ele>989.52</ele>
        <time>2022-09-21T06:09:27Z</time>
      </trkpt>
      <trkpt lat="46.54288" lon="7.90532">
        <ele>989.59</ele>
        <time>2022-09-21T06:09:28Z</time>
      </trkpt>
      <trkpt lat="46.54286" lon="7.90531">
        <ele>989.28</ele>
        <time>2022-09-21T06:09:29Z</time>
      </trkpt>
      <trkpt lat="46.54284" lon="7.90532">
        <ele>990.03</ele>
        <time>2022-09-21T06:09:30Z</time>
      </trkpt>
      <trkpt lat="46.54282" lon="7.90532">
        <ele>990.17</ele>
        <time>2022-09-21T06:09:31Z</time>
      </trkpt>
      <trkpt lat="46.5428" lon="7.90533">
        <ele>989.41</ele>
        <time>2022-09-21T06:09:33Z</time>
      </trkpt>
      <trkpt lat="46.54278" lon="7.90533">
        <ele>986.34</ele>
        <time>2022-09-21T06:09:35Z</time>
      </trkpt>
      <trkpt lat="46.54277" lon="7.90534">
        <ele>986.98</ele>
        <time>2022-09-21T06:09:36Z</time>
      </trkpt>
      <trkpt lat="46.54276" lon="7.90534">
        <ele>985.77</ele>
        <time>2022-09-21T06:09:37Z</time>
      </trkpt>
      <trkpt lat="46.54275" lon="7.90535">
        <ele>988.31</ele>
        <time>2022-09-21T06:09:39Z</time>
      </trkpt>
      <trkpt lat="46.54274" lon="7.90535">
        <ele>989.05</ele>
        <time>2022-09-21T06:09:40Z</time>
      </trkpt>
      <trkpt lat="46.54273" lon="7.90534">
        <ele>988.3</ele>
        <time>2022-09-21T06:09:41Z</time>
      </trkpt>
      <trkpt lat="46.54271" lon="7.90534">
        <ele>991.2</ele>
        <time>2022-09-21T06:09:43Z</time>
      </trkpt>
      <trkpt lat="46.5427" lon="7.90534">
        <ele>992.91</ele>
        <time>2022-09-21T06:09:45Z</time>
      </trkpt>
      <trkpt lat="46.54269" lon="7.90534">
        <ele>994.51</ele>
        <time>2022-09-21T06:09:46Z</time>
      </trkpt>
      <trkpt lat="46.54267" lon="7.90534">
        <ele>994.5</ele>
        <time>2022-09-21T06:09:48Z</time>
      </trkpt>
      <trkpt lat="46.54266" lon="7.90534">
        <ele>993.62</ele>
        <time>2022-09-21T06:09:49Z</time>
      </trkpt>
      <trkpt lat="46.54265" lon="7.90534">
        <ele>994.36</ele>
        <time>2022-09-21T06:09:50Z</time>
      </trkpt>
      <trkpt lat="46.54264" lon="7.90534">
        <ele>994.11</ele>
        <time>2022-09-21T06:09:51Z</time>
      </trkpt>
      <trkpt lat="46.54263" lon="7.90534">
        <ele>994.03</ele>
        <time>2022-09-21T06:09:52Z</time>
      </trkpt>
      <trkpt lat="46.54261" lon="7.90534">
        <ele>994.4</ele>
        <time>2022-09-21T06:09:53Z</time>
      </trkpt>
      <trkpt lat="46.5426" lon="7.90533">
        <ele>995.71</ele>
        <time>2022-09-21T06:09:54Z</time>
      </trkpt>
      <trkpt lat="46.54259" lon="7.90533">
        <ele>995.57</ele>
        <time>2022-09-21T06:09:55Z</time>
      </trkpt>
      <trkpt lat="46.54258" lon="7.90533">
        <ele>995.32</ele>
        <time>2022-09-21T06:09:56Z</time>
      </trkpt>
      <trkpt lat="46.54257" lon="7.90532">
        <ele>996.33</ele>
        <time>2022-09-21T06:09:57Z</time>
      </trkpt>
      <trkpt lat="46.54256" lon="7.90532">
        <ele>995.8</ele>
        <time>2022-09-21T06:09:58Z</time>
      </trkpt>
      <trkpt lat="46.54255" lon="7.90531">
        <ele>995.71</ele>
        <time>2022-09-21T06:09:59Z</time>
      </trkpt>
      <trkpt lat="46.54252" lon="7.90531">
        <ele>995.93</ele>
        <time>2022-09-21T06:10:01Z</time>
      </trkpt>
      <trkpt lat="46.54251" lon="7.90531">
        <ele>995.78</ele>
        <time>2022-09-21T06:10:02Z</time>
      </trkpt>
      <trkpt lat="46.54249" lon="7.90531">
        <ele>994.68</ele>
        <time>2022-09-21T06:10:03Z</time>
      </trkpt>
      <trkpt lat="46.54248" lon="7.90531">
        <ele>994.92</ele>
        <time>2022-09-21T06:10:04Z</time>
      </trkpt>
      <trkpt lat="46.54246" lon="7.90531">
        <ele>996.84</ele>
        <time>2022-09-21T06:10:05Z</time>
      </trkpt>
      <trkpt lat="46.54245" lon="7.9053">
        <ele>997.45</ele>
        <time>2022-09-21T06:10:06Z</time>
      </trkpt>
      <trkpt lat="46.54243" lon="7.9053">
        <ele>998.07</ele>
        <time>2022-09-21T06:10:07Z</time>
      </trkpt>
      <trkpt lat="46.54241" lon="7.9053">
        <ele>998.18</ele>
        <time>2022-09-21T06:10:08Z</time>
      </trkpt>
      <trkpt lat="46.54239" lon="7.9053">
        <ele>996.92</ele>
        <time>2022-09-21T06:10:09Z</time>
      </trkpt>
      <trkpt lat="46.54237" lon="7.9053">
        <ele>996.38</ele>
        <time>2022-09-21T06:10:10Z</time>
      </trkpt>
      <trkpt lat="46.54235" lon="7.90529">
        <ele>997.77</ele>
        <time>2022-09-21T06:10:11Z</time>
      </trkpt>
      <trkpt lat="46.54233" lon="7.90529">
        <ele>997.45</ele>
        <time>2022-09-21T06:10:12Z</time>
      </trkpt>
      <trkpt lat="46.54231" lon="7.90528">
        <ele>996.75</ele>
        <time>2022-09-21T06:10:13Z</time>
      </trkpt>
      <trkpt lat="46.5423" lon="7.90527">
        <ele>998.41</ele>
        <time>2022-09-21T06:10:14Z</time>
      </trkpt>
      <trkpt lat="46.54229" lon="7.90527">
        <ele>999.18</ele>
        <time>2022-09-21T06:10:15Z</time>
      </trkpt>
      <trkpt lat="46.54228" lon="7.90526">
        <ele>999.99</ele>
        <time>2022-09-21T06:10:16Z</time>
      </trkpt>
      <trkpt lat="46.54226" lon="7.90525">
        <ele>1000.22</ele>
        <time>2022-09-21T06:10:18Z</time>
      </trkpt>
      <trkpt lat="46.54224" lon="7.90524">
        <ele>1001.3</ele>
        <time>2022-09-21T06:10:20Z</time>
      </trkpt>
      <trkpt lat="46.54223" lon="7.90524">
        <ele>1001.92</ele>
        <time>2022-09-21T06:10:21Z</time>
      </trkpt>
      <trkpt lat="46.54222" lon="7.90524">
        <ele>1001.12</ele>
        <time>2022-09-21T06:10:22Z</time>
      </trkpt>
      <trkpt lat="46.5422" lon="7.90524">
        <ele>1001.31</ele>
        <time>2022-09-21T06:10:23Z</time>
      </trkpt>
      <trkpt lat="46.54219" lon="7.90525">
        <ele>1002.53</ele>
        <time>2022-09-21T06:10:24Z</time>
      </trkpt>
      <trkpt lat="46.54217" lon="7.90526">
        <ele>1003.24</ele>
        <time>2022-09-21T06:10:26Z</time>
      </trkpt>
      <trkpt lat="46.54216" lon="7.90527">
        <ele>1001.91</ele>
        <time>2022-09-21T06:10:28Z</time>
      </trkpt>
      <trkpt lat="46.54215" lon="7.90528">
        <ele>1003</ele>
        <time>2022-09-21T06:10:29Z</time>
      </trkpt>
      <trkpt lat="46.54214" lon="7.90529">
        <ele>1003.46</ele>
        <time>2022-09-21T06:10:30Z</time>
      </trkpt>
      <trkpt lat="46.54213" lon="7.9053">
        <ele>1003.55</ele>
        <time>2022-09-21T06:10:31Z</time>
      </trkpt>
      <trkpt lat="46.54212" lon="7.90533">
        <ele>1002.17</ele>
        <time>2022-09-21T06:10:33Z</time>
      </trkpt>
      <trkpt lat="46.54212" lon="7.90534">
        <ele>1003.19</ele>
        <time>2022-09-21T06:10:34Z</time>
      </trkpt>
      <trkpt lat="46.54211" lon="7.90536">
        <ele>1002.51</ele>
        <time>2022-09-21T06:10:35Z</time>
      </trkpt>
      <trkpt lat="46.54209" lon="7.90538">
        <ele>1003.3</ele>
        <time>2022-09-21T06:10:37Z</time>
      </trkpt>
      <trkpt lat="46.54208" lon="7.90539">
        <ele>1003.66</ele>
        <time>2022-09-21T06:10:38Z</time>
      </trkpt>
      <trkpt lat="46.54207" lon="7.90541">
        <ele>1004.35</ele>
        <time>2022-09-21T06:10:39Z</time>
      </trkpt>
      <trkpt lat="46.54207" lon="7.90544">
        <ele>1005.55</ele>
        <time>2022-09-21T06:10:40Z</time>
      </trkpt>
      <trkpt lat="46.54205" lon="7.90548">
        <ele>1005.81</ele>
        <time>2022-09-21T06:10:42Z</time>
      </trkpt>
      <trkpt lat="46.54205" lon="7.9055">
        <ele>1007.32</ele>
        <time>2022-09-21T06:10:43Z</time>
      </trkpt>
      <trkpt lat="46.54205" lon="7.90552">
        <ele>1008.19</ele>
        <time>2022-09-21T06:10:44Z</time>
      </trkpt>
      <trkpt lat="46.54204" lon="7.90554">
        <ele>1009.87</ele>
        <time>2022-09-21T06:10:45Z</time>
      </trkpt>
      <trkpt lat="46.54203" lon="7.90556">
        <ele>1010.33</ele>
        <time>2022-09-21T06:10:47Z</time>
      </trkpt>
      <trkpt lat="46.54201" lon="7.90559">
        <ele>1012.6</ele>
        <time>2022-09-21T06:10:49Z</time>
      </trkpt>
      <trkpt lat="46.54201" lon="7.9056">
        <ele>1015.6</ele>
        <time>2022-09-21T06:10:51Z</time>
      </trkpt>
      <trkpt lat="46.542" lon="7.90562">
        <ele>1017.29</ele>
        <time>2022-09-21T06:10:53Z</time>
      </trkpt>
      <trkpt lat="46.542" lon="7.90564">
        <ele>1016.86</ele>
        <time>2022-09-21T06:10:55Z</time>
      </trkpt>
      <trkpt lat="46.54199" lon="7.90566">
        <ele>1018.54</ele>
        <time>2022-09-21T06:10:57Z</time>
      </trkpt>
      <trkpt lat="46.54197" lon="7.90567">
        <ele>1017.57</ele>
        <time>2022-09-21T06:10:59Z</time>
      </trkpt>
      <trkpt lat="46.54197" lon="7.90569">
        <ele>1018.88</ele>
        <time>2022-09-21T06:11:00Z</time>
      </trkpt>
      <trkpt lat="46.54196" lon="7.9057">
        <ele>1019.55</ele>
        <time>2022-09-21T06:11:01Z</time>
      </trkpt>
      <trkpt lat="46.54195" lon="7.90572">
        <ele>1019.46</ele>
        <time>2022-09-21T06:11:03Z</time>
      </trkpt>
      <trkpt lat="46.54194" lon="7.90574">
        <ele>1019.33</ele>
        <time>2022-09-21T06:11:05Z</time>
      </trkpt>
      <trkpt lat="46.54194" lon="7.90576">
        <ele>1020.5</ele>
        <time>2022-09-21T06:11:08Z</time>
      </trkpt>
      <trkpt lat="46.54193" lon="7.90576">
        <ele>1021.5</ele>
        <time>2022-09-21T06:11:10Z</time>
      </trkpt>
      <trkpt lat="46.54193" lon="7.90578">
        <ele>1020.61</ele>
        <time>2022-09-21T06:11:14Z</time>
      </trkpt>
      <trkpt lat="46.54192" lon="7.9058">
        <ele>1019.59</ele>
        <time>2022-09-21T06:11:16Z</time>
      </trkpt>
      <trkpt lat="46.54193" lon="7.90582">
        <ele>1020.95</ele>
        <time>2022-09-21T06:11:18Z</time>
      </trkpt>
      <trkpt lat="46.54192" lon="7.90584">
        <ele>1021.11</ele>
        <time>2022-09-21T06:11:20Z</time>
      </trkpt>
      <trkpt lat="46.54191" lon="7.90586">
        <ele>1021.61</ele>
        <time>2022-09-21T06:11:22Z</time>
      </trkpt>
      <trkpt lat="46.5419" lon="7.90587">
        <ele>1021.21</ele>
        <time>2022-09-21T06:11:23Z</time>
      </trkpt>
      <trkpt lat="46.54189" lon="7.90588">
        <ele>1020.6</ele>
        <time>2022-09-21T06:11:24Z</time>
      </trkpt>
      <trkpt lat="46.54188" lon="7.90589">
        <ele>1021.46</ele>
        <time>2022-09-21T06:11:25Z</time>
      </trkpt>
      <trkpt lat="46.54188" lon="7.9059">
        <ele>1022.37</ele>
        <time>2022-09-21T06:11:26Z</time>
      </trkpt>
      <trkpt lat="46.54187" lon="7.90591">
        <ele>1022.88</ele>
        <time>2022-09-21T06:11:27Z</time>
      </trkpt>
      <trkpt lat="46.54185" lon="7.90593">
        <ele>1025.01</ele>
        <time>2022-09-21T06:11:29Z</time>
      </trkpt>
      <trkpt lat="46.54184" lon="7.90594">
        <ele>1026.03</ele>
        <time>2022-09-21T06:11:30Z</time>
      </trkpt>
      <trkpt lat="46.54183" lon="7.90595">
        <ele>1026.21</ele>
        <time>2022-09-21T06:11:31Z</time>
      </trkpt>
      <trkpt lat="46.54183" lon="7.90595">
        <ele>1026.45</ele>
        <time>2022-09-21T06:11:32Z</time>
      </trkpt>
      <trkpt lat="46.54182" lon="7.90596">
        <ele>1027.67</ele>
        <time>2022-09-21T06:11:33Z</time>
      </trkpt>
      <trkpt lat="46.54181" lon="7.90597">
        <ele>1028.12</ele>
        <time>2022-09-21T06:11:34Z</time>
      </trkpt>
      <trkpt lat="46.54179" lon="7.90599">
        <ele>1028.03</ele>
        <time>2022-09-21T06:11:36Z</time>
      </trkpt>
      <trkpt lat="46.54178" lon="7.906">
        <ele>1028.17</ele>
        <time>2022-09-21T06:11:37Z</time>
      </trkpt>
      <trkpt lat="46.54177" lon="7.90601">
        <ele>1027.75</ele>
        <time>2022-09-21T06:11:38Z</time>
      </trkpt>
      <trkpt lat="46.54176" lon="7.90602">
        <ele>1027.46</ele>
        <time>2022-09-21T06:11:39Z</time>
      </trkpt>
      <trkpt lat="46.54175" lon="7.90605">
        <ele>1025.95</ele>
        <time>2022-09-21T06:11:41Z</time>
      </trkpt>
      <trkpt lat="46.54174" lon="7.90606">
        <ele>1024.86</ele>
        <time>2022-09-21T06:11:42Z</time>
      </trkpt>
      <trkpt lat="46.54174" lon="7.90607">
        <ele>1024.64</ele>
        <time>2022-09-21T06:11:43Z</time>
      </trkpt>
      <trkpt lat="46.54173" lon="7.90608">
        <ele>1023.9</ele>
        <time>2022-09-21T06:11:44Z</time>
      </trkpt>
      <trkpt lat="46.54172" lon="7.90609">
        <ele>1024.69</ele>
        <time>2022-09-21T06:11:45Z</time>
      </trkpt>
      <trkpt lat="46.54171" lon="7.90611">
        <ele>1024.79</ele>
        <time>2022-09-21T06:11:46Z</time>
      </trkpt>
      <trkpt lat="46.5417" lon="7.90612">
        <ele>1024.42</ele>
        <time>2022-09-21T06:11:47Z</time>
      </trkpt>
      <trkpt lat="46.54169" lon="7.90613">
        <ele>1023.65</ele>
        <time>2022-09-21T06:11:48Z</time>
      </trkpt>
      <trkpt lat="46.54169" lon="7.90615">
        <ele>1023.43</ele>
        <time>2022-09-21T06:11:49Z</time>
      </trkpt>
      <trkpt lat="46.54168" lon="7.90616">
        <ele>1022.63</ele>
        <time>2022-09-21T06:11:50Z</time>
      </trkpt>
      <trkpt lat="46.54167" lon="7.90617">
        <ele>1021.79</ele>
        <time>2022-09-21T06:11:51Z</time>
      </trkpt>
      <trkpt lat="46.54167" lon="7.90618">
        <ele>1020.94</ele>
        <time>2022-09-21T06:11:52Z</time>
      </trkpt>
      <trkpt lat="46.54166" lon="7.90619">
        <ele>1021.24</ele>
        <time>2022-09-21T06:11:53Z</time>
      </trkpt>
      <trkpt lat="46.54166" lon="7.9062">
        <ele>1021.12</ele>
        <time>2022-09-21T06:11:54Z</time>
      </trkpt>
      <trkpt lat="46.54166" lon="7.90623">
        <ele>1020.66</ele>
        <time>2022-09-21T06:11:56Z</time>
      </trkpt>
      <trkpt lat="46.54165" lon="7.90625">
        <ele>1020.36</ele>
        <time>2022-09-21T06:11:58Z</time>
      </trkpt>
      <trkpt lat="46.54164" lon="7.90626">
        <ele>1020.64</ele>
        <time>2022-09-21T06:11:59Z</time>
      </trkpt>
      <trkpt lat="46.54164" lon="7.90627">
        <ele>1019.27</ele>
        <time>2022-09-21T06:12:00Z</time>
      </trkpt>
      <trkpt lat="46.54163" lon="7.90629">
        <ele>1018.63</ele>
        <time>2022-09-21T06:12:01Z</time>
      </trkpt>
      <trkpt lat="46.54162" lon="7.90631">
        <ele>1018.75</ele>
        <time>2022-09-21T06:12:02Z</time>
      </trkpt>
      <trkpt lat="46.54162" lon="7.90632">
        <ele>1016.77</ele>
        <time>2022-09-21T06:12:03Z</time>
      </trkpt>
      <trkpt lat="46.54161" lon="7.90634">
        <ele>1017.66</ele>
        <time>2022-09-21T06:12:04Z</time>
      </trkpt>
      <trkpt lat="46.54161" lon="7.90636">
        <ele>1018.81</ele>
        <time>2022-09-21T06:12:05Z</time>
      </trkpt>
      <trkpt lat="46.54161" lon="7.90638">
        <ele>1017.82</ele>
        <time>2022-09-21T06:12:06Z</time>
      </trkpt>
      <trkpt lat="46.54161" lon="7.9064">
        <ele>1016.62</ele>
        <time>2022-09-21T06:12:07Z</time>
      </trkpt>
      <trkpt lat="46.5416" lon="7.90642">
        <ele>1015.02</ele>
        <time>2022-09-21T06:12:08Z</time>
      </trkpt>
      <trkpt lat="46.5416" lon="7.90643">
        <ele>1017.17</ele>
        <time>2022-09-21T06:12:09Z</time>
      </trkpt>
      <trkpt lat="46.54159" lon="7.90646">
        <ele>1017.77</ele>
        <time>2022-09-21T06:12:11Z</time>
      </trkpt>
      <trkpt lat="46.54159" lon="7.90647">
        <ele>1018.71</ele>
        <time>2022-09-21T06:12:12Z</time>
      </trkpt>
      <trkpt lat="46.54158" lon="7.90649">
        <ele>1019.33</ele>
        <time>2022-09-21T06:12:13Z</time>
      </trkpt>
      <trkpt lat="46.54157" lon="7.90651">
        <ele>1018.31</ele>
        <time>2022-09-21T06:12:14Z</time>
      </trkpt>
      <trkpt lat="46.54157" lon="7.90653">
        <ele>1017.83</ele>
        <time>2022-09-21T06:12:15Z</time>
      </trkpt>
      <trkpt lat="46.54156" lon="7.90654">
        <ele>1017.08</ele>
        <time>2022-09-21T06:12:16Z</time>
      </trkpt>
      <trkpt lat="46.54156" lon="7.90655">
        <ele>1017.58</ele>
        <time>2022-09-21T06:12:17Z</time>
      </trkpt>
      <trkpt lat="46.54156" lon="7.90657">
        <ele>1018.74</ele>
        <time>2022-09-21T06:12:18Z</time>
      </trkpt>
      <trkpt lat="46.54154" lon="7.9066">
        <ele>1017.22</ele>
        <time>2022-09-21T06:12:20Z</time>
      </trkpt>
      <trkpt lat="46.54153" lon="7.90662">
        <ele>1016.4</ele>
        <time>2022-09-21T06:12:22Z</time>
      </trkpt>
      <trkpt lat="46.54152" lon="7.90664">
        <ele>997.61</ele>
        <time>2022-09-21T06:12:24Z</time>
      </trkpt>
      <trkpt lat="46.54151" lon="7.90664">
        <ele>1003.23</ele>
        <time>2022-09-21T06:12:25Z</time>
      </trkpt>
      <trkpt lat="46.5415" lon="7.90665">
        <ele>1007.8</ele>
        <time>2022-09-21T06:12:26Z</time>
      </trkpt>
      <trkpt lat="46.5415" lon="7.90666">
        <ele>1010.52</ele>
        <time>2022-09-21T06:12:27Z</time>
      </trkpt>
      <trkpt lat="46.54148" lon="7.90669">
        <ele>1012.64</ele>
        <time>2022-09-21T06:12:29Z</time>
      </trkpt>
      <trkpt lat="46.54148" lon="7.90671">
        <ele>1012.8</ele>
        <time>2022-09-21T06:12:31Z</time>
      </trkpt>
      <trkpt lat="46.54146" lon="7.90672">
        <ele>1014.54</ele>
        <time>2022-09-21T06:12:33Z</time>
      </trkpt>
      <trkpt lat="46.54146" lon="7.90673">
        <ele>1016.45</ele>
        <time>2022-09-21T06:12:35Z</time>
      </trkpt>
      <trkpt lat="46.54146" lon="7.90676">
        <ele>1017.7</ele>
        <time>2022-09-21T06:12:37Z</time>
      </trkpt>
      <trkpt lat="46.54146" lon="7.90678">
        <ele>1017.96</ele>
        <time>2022-09-21T06:12:39Z</time>
      </trkpt>
      <trkpt lat="46.54146" lon="7.90681">
        <ele>1018.29</ele>
        <time>2022-09-21T06:12:41Z</time>
      </trkpt>
      <trkpt lat="46.54147" lon="7.90681">
        <ele>1023.94</ele>
        <time>2022-09-21T06:12:43Z</time>
      </trkpt>
      <trkpt lat="46.54148" lon="7.90684">
        <ele>1022.61</ele>
        <time>2022-09-21T06:12:46Z</time>
      </trkpt>
      <trkpt lat="46.54149" lon="7.90685">
        <ele>1025.67</ele>
        <time>2022-09-21T06:12:48Z</time>
      </trkpt>
      <trkpt lat="46.54149" lon="7.90686">
        <ele>1024.66</ele>
        <time>2022-09-21T06:12:51Z</time>
      </trkpt>
      <trkpt lat="46.5415" lon="7.90687">
        <ele>1026.69</ele>
        <time>2022-09-21T06:12:55Z</time>
      </trkpt>
      <trkpt lat="46.54149" lon="7.90689">
        <ele>1031.65</ele>
        <time>2022-09-21T06:13:06Z</time>
      </trkpt>
      <trkpt lat="46.54148" lon="7.90691">
        <ele>1032.48</ele>
        <time>2022-09-21T06:13:08Z</time>
      </trkpt>
      <trkpt lat="46.54147" lon="7.90694">
        <ele>1032.11</ele>
        <time>2022-09-21T06:13:10Z</time>
      </trkpt>
      <trkpt lat="46.54148" lon="7.90696">
        <ele>1032.26</ele>
        <time>2022-09-21T06:13:12Z</time>
      </trkpt>
      <trkpt lat="46.54148" lon="7.90697">
        <ele>1033.31</ele>
        <time>2022-09-21T06:13:14Z</time>
      </trkpt>
      <trkpt lat="46.54149" lon="7.90699">
        <ele>1031.44</ele>
        <time>2022-09-21T06:13:16Z</time>
      </trkpt>
      <trkpt lat="46.5415" lon="7.907">
        <ele>1030.72</ele>
        <time>2022-09-21T06:13:18Z</time>
      </trkpt>
      <trkpt lat="46.54152" lon="7.90702">
        <ele>1029.95</ele>
        <time>2022-09-21T06:13:21Z</time>
      </trkpt>
      <trkpt lat="46.54152" lon="7.90703">
        <ele>1030.02</ele>
        <time>2022-09-21T06:13:23Z</time>
      </trkpt>
      <trkpt lat="46.54154" lon="7.90703">
        <ele>1029.17</ele>
        <time>2022-09-21T06:13:28Z</time>
      </trkpt>
      <trkpt lat="46.54156" lon="7.90704">
        <ele>1028.81</ele>
        <time>2022-09-21T06:13:30Z</time>
      </trkpt>
      <trkpt lat="46.54157" lon="7.90705">
        <ele>1028.65</ele>
        <time>2022-09-21T06:13:32Z</time>
      </trkpt>
      <trkpt lat="46.54157" lon="7.90708">
        <ele>1029.75</ele>
        <time>2022-09-21T06:13:34Z</time>
      </trkpt>
      <trkpt lat="46.54158" lon="7.90709">
        <ele>1028.24</ele>
        <time>2022-09-21T06:13:35Z</time>
      </trkpt>
      <trkpt lat="46.54158" lon="7.9071">
        <ele>1027.3</ele>
        <time>2022-09-21T06:13:36Z</time>
      </trkpt>
      <trkpt lat="46.54158" lon="7.90712">
        <ele>1027.19</ele>
        <time>2022-09-21T06:13:37Z</time>
      </trkpt>
      <trkpt lat="46.54159" lon="7.90713">
        <ele>1026.9</ele>
        <time>2022-09-21T06:13:38Z</time>
      </trkpt>
      <trkpt lat="46.54159" lon="7.90715">
        <ele>1027.53</ele>
        <time>2022-09-21T06:13:39Z</time>
      </trkpt>
      <trkpt lat="46.54159" lon="7.90716">
        <ele>1027.68</ele>
        <time>2022-09-21T06:13:40Z</time>
      </trkpt>
      <trkpt lat="46.5416" lon="7.90717">
        <ele>1029.44</ele>
        <time>2022-09-21T06:13:41Z</time>
      </trkpt>
      <trkpt lat="46.5416" lon="7.90719">
        <ele>1030.13</ele>
        <time>2022-09-21T06:13:43Z</time>
      </trkpt>
      <trkpt lat="46.54161" lon="7.9072">
        <ele>1030</ele>
        <time>2022-09-21T06:13:44Z</time>
      </trkpt>
      <trkpt lat="46.54162" lon="7.90721">
        <ele>1029.39</ele>
        <time>2022-09-21T06:13:45Z</time>
      </trkpt>
      <trkpt lat="46.54163" lon="7.90723">
        <ele>1029.68</ele>
        <time>2022-09-21T06:13:47Z</time>
      </trkpt>
      <trkpt lat="46.54164" lon="7.90724">
        <ele>1029.54</ele>
        <time>2022-09-21T06:13:48Z</time>
      </trkpt>
      <trkpt lat="46.54165" lon="7.90726">
        <ele>1030.83</ele>
        <time>2022-09-21T06:13:50Z</time>
      </trkpt>
      <trkpt lat="46.54166" lon="7.90727">
        <ele>1030.5</ele>
        <time>2022-09-21T06:13:52Z</time>
      </trkpt>
      <trkpt lat="46.54166" lon="7.90729">
        <ele>1029.62</ele>
        <time>2022-09-21T06:13:54Z</time>
      </trkpt>
      <trkpt lat="46.54167" lon="7.90731">
        <ele>1030.22</ele>
        <time>2022-09-21T06:13:56Z</time>
      </trkpt>
      <trkpt lat="46.54167" lon="7.90733">
        <ele>1028.3</ele>
        <time>2022-09-21T06:13:58Z</time>
      </trkpt>
      <trkpt lat="46.54168" lon="7.90734">
        <ele>1026.95</ele>
        <time>2022-09-21T06:14:01Z</time>
      </trkpt>
      <trkpt lat="46.5417" lon="7.90736">
        <ele>1027.64</ele>
        <time>2022-09-21T06:14:03Z</time>
      </trkpt>
      <trkpt lat="46.5417" lon="7.90737">
        <ele>1029.17</ele>
        <time>2022-09-21T06:14:05Z</time>
      </trkpt>
      <trkpt lat="46.54171" lon="7.90739">
        <ele>1030.04</ele>
        <time>2022-09-21T06:14:07Z</time>
      </trkpt>
      <trkpt lat="46.54172" lon="7.90741">
        <ele>1031.21</ele>
        <time>2022-09-21T06:14:09Z</time>
      </trkpt>
      <trkpt lat="46.54173" lon="7.90742">
        <ele>1033.77</ele>
        <time>2022-09-21T06:14:11Z</time>
      </trkpt>
      <trkpt lat="46.54175" lon="7.90743">
        <ele>1034.86</ele>
        <time>2022-09-21T06:14:13Z</time>
      </trkpt>
      <trkpt lat="46.54176" lon="7.90745">
        <ele>1034.8</ele>
        <time>2022-09-21T06:14:15Z</time>
      </trkpt>
      <trkpt lat="46.54177" lon="7.90746">
        <ele>1037.51</ele>
        <time>2022-09-21T06:14:17Z</time>
      </trkpt>
      <trkpt lat="46.54178" lon="7.90747">
        <ele>1038.38</ele>
        <time>2022-09-21T06:14:20Z</time>
      </trkpt>
      <trkpt lat="46.54178" lon="7.90749">
        <ele>1040.59</ele>
        <time>2022-09-21T06:14:23Z</time>
      </trkpt>
      <trkpt lat="46.54179" lon="7.90751">
        <ele>1040.02</ele>
        <time>2022-09-21T06:14:25Z</time>
      </trkpt>
      <trkpt lat="46.5418" lon="7.90751">
        <ele>1041.07</ele>
        <time>2022-09-21T06:14:26Z</time>
      </trkpt>
      <trkpt lat="46.54181" lon="7.90752">
        <ele>1041.9</ele>
        <time>2022-09-21T06:14:27Z</time>
      </trkpt>
      <trkpt lat="46.54182" lon="7.90753">
        <ele>1043.71</ele>
        <time>2022-09-21T06:14:29Z</time>
      </trkpt>
      <trkpt lat="46.54184" lon="7.90755">
        <ele>1043.77</ele>
        <time>2022-09-21T06:14:31Z</time>
      </trkpt>
      <trkpt lat="46.54184" lon="7.90756">
        <ele>1045.34</ele>
        <time>2022-09-21T06:14:33Z</time>
      </trkpt>
      <trkpt lat="46.54185" lon="7.90757">
        <ele>1045.09</ele>
        <time>2022-09-21T06:14:35Z</time>
      </trkpt>
      <trkpt lat="46.54186" lon="7.90758">
        <ele>1046.85</ele>
        <time>2022-09-21T06:14:39Z</time>
      </trkpt>
      <trkpt lat="46.54187" lon="7.90758">
        <ele>1048.29</ele>
        <time>2022-09-21T06:14:41Z</time>
      </trkpt>
      <trkpt lat="46.54188" lon="7.9076">
        <ele>1048.66</ele>
        <time>2022-09-21T06:14:42Z</time>
      </trkpt>
      <trkpt lat="46.54188" lon="7.90761">
        <ele>1049.6</ele>
        <time>2022-09-21T06:14:43Z</time>
      </trkpt>
      <trkpt lat="46.54188" lon="7.90763">
        <ele>1050.6</ele>
        <time>2022-09-21T06:14:45Z</time>
      </trkpt>
      <trkpt lat="46.54188" lon="7.90765">
        <ele>1050.64</ele>
        <time>2022-09-21T06:14:47Z</time>
      </trkpt>
      <trkpt lat="46.54187" lon="7.90767">
        <ele>1052.32</ele>
        <time>2022-09-21T06:14:49Z</time>
      </trkpt>
      <trkpt lat="46.54187" lon="7.9077">
        <ele>1051.25</ele>
        <time>2022-09-21T06:14:51Z</time>
      </trkpt>
      <trkpt lat="46.54188" lon="7.90772">
        <ele>1051.47</ele>
        <time>2022-09-21T06:14:53Z</time>
      </trkpt>
      <trkpt lat="46.54189" lon="7.90773">
        <ele>1051.57</ele>
        <time>2022-09-21T06:14:55Z</time>
      </trkpt>
      <trkpt lat="46.5419" lon="7.90774">
        <ele>1051.18</ele>
        <time>2022-09-21T06:14:57Z</time>
      </trkpt>
      <trkpt lat="46.54192" lon="7.90774">
        <ele>1050.19</ele>
        <time>2022-09-21T06:14:59Z</time>
      </trkpt>
      <trkpt lat="46.54193" lon="7.90773">
        <ele>1049</ele>
        <time>2022-09-21T06:15:00Z</time>
      </trkpt>
      <trkpt lat="46.54194" lon="7.90772">
        <ele>1046.31</ele>
        <time>2022-09-21T06:15:01Z</time>
      </trkpt>
      <trkpt lat="46.54196" lon="7.90771">
        <ele>1045.6</ele>
        <time>2022-09-21T06:15:02Z</time>
      </trkpt>
      <trkpt lat="46.54197" lon="7.9077">
        <ele>1045.66</ele>
        <time>2022-09-21T06:15:03Z</time>
      </trkpt>
      <trkpt lat="46.54198" lon="7.90769">
        <ele>1046.22</ele>
        <time>2022-09-21T06:15:04Z</time>
      </trkpt>
      <trkpt lat="46.542" lon="7.90768">
        <ele>1046.55</ele>
        <time>2022-09-21T06:15:05Z</time>
      </trkpt>
      <trkpt lat="46.54201" lon="7.90767">
        <ele>1046.88</ele>
        <time>2022-09-21T06:15:06Z</time>
      </trkpt>
      <trkpt lat="46.54201" lon="7.90768">
        <ele>1048.41</ele>
        <time>2022-09-21T06:15:09Z</time>
      </trkpt>
      <trkpt lat="46.54201" lon="7.90771">
        <ele>1048.26</ele>
        <time>2022-09-21T06:15:11Z</time>
      </trkpt>
      <trkpt lat="46.54201" lon="7.90772">
        <ele>1047.79</ele>
        <time>2022-09-21T06:15:12Z</time>
      </trkpt>
      <trkpt lat="46.54201" lon="7.90773">
        <ele>1047.73</ele>
        <time>2022-09-21T06:15:13Z</time>
      </trkpt>
      <trkpt lat="46.54201" lon="7.90775">
        <ele>1047.65</ele>
        <time>2022-09-21T06:15:15Z</time>
      </trkpt>
      <trkpt lat="46.54203" lon="7.90775">
        <ele>1046.63</ele>
        <time>2022-09-21T06:15:17Z</time>
      </trkpt>
      <trkpt lat="46.54204" lon="7.90775">
        <ele>1047.33</ele>
        <time>2022-09-21T06:15:19Z</time>
      </trkpt>
      <trkpt lat="46.54203" lon="7.90773">
        <ele>1049.54</ele>
        <time>2022-09-21T06:15:22Z</time>
      </trkpt>
      <trkpt lat="46.54204" lon="7.90772">
        <ele>1051.44</ele>
        <time>2022-09-21T06:15:30Z</time>
      </trkpt>
      <trkpt lat="46.54203" lon="7.90772">
        <ele>1050.41</ele>
        <time>2022-09-21T06:15:34Z</time>
      </trkpt>
      <trkpt lat="46.54203" lon="7.90774">
        <ele>1050.63</ele>
        <time>2022-09-21T06:15:45Z</time>
      </trkpt>
      <trkpt lat="46.54203" lon="7.90775">
        <ele>1050.07</ele>
        <time>2022-09-21T06:15:46Z</time>
      </trkpt>
      <trkpt lat="46.54202" lon="7.90777">
        <ele>1050.4</ele>
        <time>2022-09-21T06:15:47Z</time>
      </trkpt>
      <trkpt lat="46.54203" lon="7.90778">
        <ele>1049.82</ele>
        <time>2022-09-21T06:15:48Z</time>
      </trkpt>
      <trkpt lat="46.54204" lon="7.9078">
        <ele>1049.86</ele>
        <time>2022-09-21T06:15:50Z</time>
      </trkpt>
      <trkpt lat="46.54205" lon="7.90782">
        <ele>1049.92</ele>
        <time>2022-09-21T06:15:52Z</time>
      </trkpt>
      <trkpt lat="46.54206" lon="7.90782">
        <ele>1049.47</ele>
        <time>2022-09-21T06:15:53Z</time>
      </trkpt>
      <trkpt lat="46.54206" lon="7.90784">
        <ele>1049.73</ele>
        <time>2022-09-21T06:15:54Z</time>
      </trkpt>
      <trkpt lat="46.54207" lon="7.90785">
        <ele>1049.26</ele>
        <time>2022-09-21T06:15:55Z</time>
      </trkpt>
      <trkpt lat="46.54207" lon="7.90787">
        <ele>1048.71</ele>
        <time>2022-09-21T06:15:56Z</time>
      </trkpt>
      <trkpt lat="46.54208" lon="7.90788">
        <ele>1048.11</ele>
        <time>2022-09-21T06:15:57Z</time>
      </trkpt>
      <trkpt lat="46.54209" lon="7.90789">
        <ele>1048.35</ele>
        <time>2022-09-21T06:15:58Z</time>
      </trkpt>
      <trkpt lat="46.54209" lon="7.9079">
        <ele>1049.01</ele>
        <time>2022-09-21T06:15:59Z</time>
      </trkpt>
      <trkpt lat="46.5421" lon="7.90792">
        <ele>1048.61</ele>
        <time>2022-09-21T06:16:01Z</time>
      </trkpt>
      <trkpt lat="46.54211" lon="7.90793">
        <ele>1048.8</ele>
        <time>2022-09-21T06:16:03Z</time>
      </trkpt>
      <trkpt lat="46.54213" lon="7.90793">
        <ele>1050.22</ele>
        <time>2022-09-21T06:16:05Z</time>
      </trkpt>
      <trkpt lat="46.54214" lon="7.90791">
        <ele>1049.66</ele>
        <time>2022-09-21T06:16:07Z</time>
      </trkpt>
      <trkpt lat="46.54215" lon="7.9079">
        <ele>1046.97</ele>
        <time>2022-09-21T06:16:09Z</time>
      </trkpt>
      <trkpt lat="46.54216" lon="7.9079">
        <ele>1047.08</ele>
        <time>2022-09-21T06:16:12Z</time>
      </trkpt>
      <trkpt lat="46.54217" lon="7.90789">
        <ele>1046.61</ele>
        <time>2022-09-21T06:16:14Z</time>
      </trkpt>
      <trkpt lat="46.54218" lon="7.90788">
        <ele>1047.07</ele>
        <time>2022-09-21T06:16:15Z</time>
      </trkpt>
      <trkpt lat="46.54219" lon="7.90788">
        <ele>1047.48</ele>
        <time>2022-09-21T06:16:16Z</time>
      </trkpt>
      <trkpt lat="46.5422" lon="7.90788">
        <ele>1047.64</ele>
        <time>2022-09-21T06:16:17Z</time>
      </trkpt>
      <trkpt lat="46.54222" lon="7.90788">
        <ele>1047.92</ele>
        <time>2022-09-21T06:16:19Z</time>
      </trkpt>
      <trkpt lat="46.54223" lon="7.90788">
        <ele>1047.69</ele>
        <time>2022-09-21T06:16:21Z</time>
      </trkpt>
      <trkpt lat="46.54225" lon="7.90788">
        <ele>1048.81</ele>
        <time>2022-09-21T06:16:23Z</time>
      </trkpt>
      <trkpt lat="46.54226" lon="7.90788">
        <ele>1050.1</ele>
        <time>2022-09-21T06:16:25Z</time>
      </trkpt>
      <trkpt lat="46.54227" lon="7.90788">
        <ele>1049.44</ele>
        <time>2022-09-21T06:16:27Z</time>
      </trkpt>
      <trkpt lat="46.54229" lon="7.90787">
        <ele>1048.46</ele>
        <time>2022-09-21T06:16:30Z</time>
      </trkpt>
      <trkpt lat="46.5423" lon="7.90787">
        <ele>1049.71</ele>
        <time>2022-09-21T06:16:31Z</time>
      </trkpt>
      <trkpt lat="46.54231" lon="7.90786">
        <ele>1051.15</ele>
        <time>2022-09-21T06:16:32Z</time>
      </trkpt>
      <trkpt lat="46.54232" lon="7.90786">
        <ele>1051.86</ele>
        <time>2022-09-21T06:16:34Z</time>
      </trkpt>
      <trkpt lat="46.54233" lon="7.90787">
        <ele>1051.9</ele>
        <time>2022-09-21T06:16:36Z</time>
      </trkpt>
      <trkpt lat="46.54232" lon="7.90788">
        <ele>1052.74</ele>
        <time>2022-09-21T06:16:39Z</time>
      </trkpt>
      <trkpt lat="46.54233" lon="7.9079">
        <ele>1051.3</ele>
        <time>2022-09-21T06:16:41Z</time>
      </trkpt>
      <trkpt lat="46.54234" lon="7.90791">
        <ele>1051.22</ele>
        <time>2022-09-21T06:16:42Z</time>
      </trkpt>
      <trkpt lat="46.54234" lon="7.90793">
        <ele>1052.01</ele>
        <time>2022-09-21T06:16:43Z</time>
      </trkpt>
      <trkpt lat="46.54236" lon="7.90794">
        <ele>1051.45</ele>
        <time>2022-09-21T06:16:45Z</time>
      </trkpt>
      <trkpt lat="46.54237" lon="7.90795">
        <ele>1052.94</ele>
        <time>2022-09-21T06:16:46Z</time>
      </trkpt>
      <trkpt lat="46.54238" lon="7.90795">
        <ele>1054.56</ele>
        <time>2022-09-21T06:16:48Z</time>
      </trkpt>
      <trkpt lat="46.54238" lon="7.90797">
        <ele>1055.72</ele>
        <time>2022-09-21T06:16:55Z</time>
      </trkpt>
      <trkpt lat="46.54239" lon="7.90799">
        <ele>1057.53</ele>
        <time>2022-09-21T06:16:57Z</time>
      </trkpt>
      <trkpt lat="46.5424" lon="7.908">
        <ele>1058.87</ele>
        <time>2022-09-21T06:16:59Z</time>
      </trkpt>
      <trkpt lat="46.54241" lon="7.90802">
        <ele>1058.97</ele>
        <time>2022-09-21T06:17:01Z</time>
      </trkpt>
      <trkpt lat="46.54241" lon="7.90803">
        <ele>1059.09</ele>
        <time>2022-09-21T06:17:03Z</time>
      </trkpt>
      <trkpt lat="46.54241" lon="7.90806">
        <ele>1059</ele>
        <time>2022-09-21T06:17:05Z</time>
      </trkpt>
      <trkpt lat="46.54241" lon="7.90808">
        <ele>1059.81</ele>
        <time>2022-09-21T06:17:07Z</time>
      </trkpt>
      <trkpt lat="46.54242" lon="7.90809">
        <ele>1060.86</ele>
        <time>2022-09-21T06:17:09Z</time>
      </trkpt>
      <trkpt lat="46.54242" lon="7.90811">
        <ele>1059.26</ele>
        <time>2022-09-21T06:17:14Z</time>
      </trkpt>
      <trkpt lat="46.54243" lon="7.90811">
        <ele>1059.7</ele>
        <time>2022-09-21T06:17:16Z</time>
      </trkpt>
      <trkpt lat="46.54245" lon="7.90811">
        <ele>1060.98</ele>
        <time>2022-09-21T06:17:18Z</time>
      </trkpt>
      <trkpt lat="46.54246" lon="7.9081">
        <ele>1062.72</ele>
        <time>2022-09-21T06:17:20Z</time>
      </trkpt>
      <trkpt lat="46.54246" lon="7.90809">
        <ele>1061.2</ele>
        <time>2022-09-21T06:17:23Z</time>
      </trkpt>
      <trkpt lat="46.54247" lon="7.90809">
        <ele>1062.49</ele>
        <time>2022-09-21T06:17:26Z</time>
      </trkpt>
      <trkpt lat="46.54248" lon="7.90809">
        <ele>1062.16</ele>
        <time>2022-09-21T06:17:28Z</time>
      </trkpt>
      <trkpt lat="46.5425" lon="7.90809">
        <ele>1064.58</ele>
        <time>2022-09-21T06:17:30Z</time>
      </trkpt>
      <trkpt lat="46.54252" lon="7.90808">
        <ele>1065.61</ele>
        <time>2022-09-21T06:17:32Z</time>
      </trkpt>
      <trkpt lat="46.54253" lon="7.90807">
        <ele>1065.34</ele>
        <time>2022-09-21T06:17:34Z</time>
      </trkpt>
      <trkpt lat="46.54254" lon="7.90806">
        <ele>1067.39</ele>
        <time>2022-09-21T06:17:36Z</time>
      </trkpt>
      <trkpt lat="46.54254" lon="7.90805">
        <ele>1068.4</ele>
        <time>2022-09-21T06:17:37Z</time>
      </trkpt>
      <trkpt lat="46.54255" lon="7.90803">
        <ele>1068.56</ele>
        <time>2022-09-21T06:17:39Z</time>
      </trkpt>
      <trkpt lat="46.54256" lon="7.90803">
        <ele>1069.58</ele>
        <time>2022-09-21T06:17:41Z</time>
      </trkpt>
      <trkpt lat="46.54258" lon="7.90804">
        <ele>1071.76</ele>
        <time>2022-09-21T06:17:43Z</time>
      </trkpt>
      <trkpt lat="46.54259" lon="7.90804">
        <ele>1071.93</ele>
        <time>2022-09-21T06:17:44Z</time>
      </trkpt>
      <trkpt lat="46.5426" lon="7.90805">
        <ele>1071.04</ele>
        <time>2022-09-21T06:17:45Z</time>
      </trkpt>
      <trkpt lat="46.54262" lon="7.90806">
        <ele>1072.17</ele>
        <time>2022-09-21T06:17:46Z</time>
      </trkpt>
      <trkpt lat="46.54263" lon="7.90807">
        <ele>1071.96</ele>
        <time>2022-09-21T06:17:47Z</time>
      </trkpt>
      <trkpt lat="46.54264" lon="7.90807">
        <ele>1073.01</ele>
        <time>2022-09-21T06:17:48Z</time>
      </trkpt>
      <trkpt lat="46.54265" lon="7.90807">
        <ele>1073.96</ele>
        <time>2022-09-21T06:17:50Z</time>
      </trkpt>
      <trkpt lat="46.54267" lon="7.90807">
        <ele>1076.85</ele>
        <time>2022-09-21T06:17:53Z</time>
      </trkpt>
      <trkpt lat="46.54267" lon="7.90809">
        <ele>1077.68</ele>
        <time>2022-09-21T06:17:56Z</time>
      </trkpt>
      <trkpt lat="46.54269" lon="7.9081">
        <ele>1077.43</ele>
        <time>2022-09-21T06:17:58Z</time>
      </trkpt>
      <trkpt lat="46.54271" lon="7.90811">
        <ele>1078.69</ele>
        <time>2022-09-21T06:18:00Z</time>
      </trkpt>
      <trkpt lat="46.54272" lon="7.90811">
        <ele>1079.32</ele>
        <time>2022-09-21T06:18:02Z</time>
      </trkpt>
      <trkpt lat="46.54273" lon="7.9081">
        <ele>1079.65</ele>
        <time>2022-09-21T06:18:04Z</time>
      </trkpt>
      <trkpt lat="46.54275" lon="7.9081">
        <ele>1079.48</ele>
        <time>2022-09-21T06:18:06Z</time>
      </trkpt>
      <trkpt lat="46.54275" lon="7.9081">
        <ele>1079.86</ele>
        <time>2022-09-21T06:18:08Z</time>
      </trkpt>
      <trkpt lat="46.54277" lon="7.90811">
        <ele>1081.93</ele>
        <time>2022-09-21T06:18:10Z</time>
      </trkpt>
      <trkpt lat="46.54278" lon="7.90812">
        <ele>1083.06</ele>
        <time>2022-09-21T06:18:12Z</time>
      </trkpt>
      <trkpt lat="46.54279" lon="7.90812">
        <ele>1084.71</ele>
        <time>2022-09-21T06:18:19Z</time>
      </trkpt>
      <trkpt lat="46.5428" lon="7.90812">
        <ele>1086.25</ele>
        <time>2022-09-21T06:18:21Z</time>
      </trkpt>
      <trkpt lat="46.54282" lon="7.90813">
        <ele>1086.09</ele>
        <time>2022-09-21T06:18:23Z</time>
      </trkpt>
      <trkpt lat="46.54282" lon="7.90814">
        <ele>1088.92</ele>
        <time>2022-09-21T06:18:25Z</time>
      </trkpt>
      <trkpt lat="46.54284" lon="7.90814">
        <ele>1088.32</ele>
        <time>2022-09-21T06:18:27Z</time>
      </trkpt>
      <trkpt lat="46.54285" lon="7.90814">
        <ele>1088.28</ele>
        <time>2022-09-21T06:18:30Z</time>
      </trkpt>
      <trkpt lat="46.54286" lon="7.90814">
        <ele>1089</ele>
        <time>2022-09-21T06:18:33Z</time>
      </trkpt>
      <trkpt lat="46.54287" lon="7.90812">
        <ele>1088.41</ele>
        <time>2022-09-21T06:18:37Z</time>
      </trkpt>
      <trkpt lat="46.54289" lon="7.90812">
        <ele>1088.69</ele>
        <time>2022-09-21T06:18:39Z</time>
      </trkpt>
      <trkpt lat="46.54289" lon="7.90811">
        <ele>1089.28</ele>
        <time>2022-09-21T06:18:41Z</time>
      </trkpt>
      <trkpt lat="46.5429" lon="7.90809">
        <ele>1091.3</ele>
        <time>2022-09-21T06:18:43Z</time>
      </trkpt>
      <trkpt lat="46.5429" lon="7.90807">
        <ele>1092.45</ele>
        <time>2022-09-21T06:18:45Z</time>
      </trkpt>
      <trkpt lat="46.54292" lon="7.90807">
        <ele>1093.45</ele>
        <time>2022-09-21T06:18:47Z</time>
      </trkpt>
      <trkpt lat="46.54293" lon="7.90807">
        <ele>1094.63</ele>
        <time>2022-09-21T06:18:49Z</time>
      </trkpt>
      <trkpt lat="46.54294" lon="7.90805">
        <ele>1096.22</ele>
        <time>2022-09-21T06:18:52Z</time>
      </trkpt>
      <trkpt lat="46.54295" lon="7.90804">
        <ele>1095.36</ele>
        <time>2022-09-21T06:18:54Z</time>
      </trkpt>
      <trkpt lat="46.54297" lon="7.90804">
        <ele>1093.57</ele>
        <time>2022-09-21T06:18:56Z</time>
      </trkpt>
      <trkpt lat="46.54298" lon="7.90805">
        <ele>1094.74</ele>
        <time>2022-09-21T06:18:58Z</time>
      </trkpt>
      <trkpt lat="46.54299" lon="7.90806">
        <ele>1097.59</ele>
        <time>2022-09-21T06:19:01Z</time>
      </trkpt>
      <trkpt lat="46.543" lon="7.90806">
        <ele>1098.9</ele>
        <time>2022-09-21T06:19:03Z</time>
      </trkpt>
      <trkpt lat="46.54302" lon="7.90806">
        <ele>1101.05</ele>
        <time>2022-09-21T06:19:05Z</time>
      </trkpt>
      <trkpt lat="46.54303" lon="7.90807">
        <ele>1100.94</ele>
        <time>2022-09-21T06:19:07Z</time>
      </trkpt>
      <trkpt lat="46.54304" lon="7.90808">
        <ele>1101.33</ele>
        <time>2022-09-21T06:19:09Z</time>
      </trkpt>
      <trkpt lat="46.54305" lon="7.90808">
        <ele>1101.07</ele>
        <time>2022-09-21T06:19:11Z</time>
      </trkpt>
      <trkpt lat="46.54306" lon="7.90808">
        <ele>1101.64</ele>
        <time>2022-09-21T06:19:13Z</time>
      </trkpt>
      <trkpt lat="46.54308" lon="7.90809">
        <ele>1101.26</ele>
        <time>2022-09-21T06:19:15Z</time>
      </trkpt>
      <trkpt lat="46.5431" lon="7.90809">
        <ele>1102.09</ele>
        <time>2022-09-21T06:19:17Z</time>
      </trkpt>
      <trkpt lat="46.5431" lon="7.9081">
        <ele>1101.88</ele>
        <time>2022-09-21T06:19:18Z</time>
      </trkpt>
      <trkpt lat="46.54311" lon="7.90811">
        <ele>1102.05</ele>
        <time>2022-09-21T06:19:19Z</time>
      </trkpt>
      <trkpt lat="46.54312" lon="7.90812">
        <ele>1103.19</ele>
        <time>2022-09-21T06:19:21Z</time>
      </trkpt>
      <trkpt lat="46.54314" lon="7.90813">
        <ele>1106.39</ele>
        <time>2022-09-21T06:19:24Z</time>
      </trkpt>
      <trkpt lat="46.54315" lon="7.90813">
        <ele>1107.06</ele>
        <time>2022-09-21T06:19:26Z</time>
      </trkpt>
      <trkpt lat="46.54315" lon="7.90814">
        <ele>1107.33</ele>
        <time>2022-09-21T06:19:28Z</time>
      </trkpt>
      <trkpt lat="46.54314" lon="7.90816">
        <ele>1107.44</ele>
        <time>2022-09-21T06:19:30Z</time>
      </trkpt>
      <trkpt lat="46.54314" lon="7.90818">
        <ele>1106.22</ele>
        <time>2022-09-21T06:19:32Z</time>
      </trkpt>
      <trkpt lat="46.54316" lon="7.9082">
        <ele>1105.85</ele>
        <time>2022-09-21T06:19:34Z</time>
      </trkpt>
      <trkpt lat="46.54317" lon="7.90821">
        <ele>1105.55</ele>
        <time>2022-09-21T06:19:36Z</time>
      </trkpt>
      <trkpt lat="46.54318" lon="7.90822">
        <ele>1107</ele>
        <time>2022-09-21T06:19:38Z</time>
      </trkpt>
      <trkpt lat="46.54319" lon="7.90823">
        <ele>1108.54</ele>
        <time>2022-09-21T06:19:40Z</time>
      </trkpt>
      <trkpt lat="46.5432" lon="7.90824">
        <ele>1110.67</ele>
        <time>2022-09-21T06:19:42Z</time>
      </trkpt>
      <trkpt lat="46.54321" lon="7.90824">
        <ele>1110.26</ele>
        <time>2022-09-21T06:19:44Z</time>
      </trkpt>
      <trkpt lat="46.54322" lon="7.90825">
        <ele>1112.49</ele>
        <time>2022-09-21T06:19:47Z</time>
      </trkpt>
      <trkpt lat="46.54323" lon="7.90826">
        <ele>1113.01</ele>
        <time>2022-09-21T06:19:50Z</time>
      </trkpt>
      <trkpt lat="46.54324" lon="7.90826">
        <ele>1113.96</ele>
        <time>2022-09-21T06:19:52Z</time>
      </trkpt>
      <trkpt lat="46.54325" lon="7.90828">
        <ele>1112.83</ele>
        <time>2022-09-21T06:19:54Z</time>
      </trkpt>
      <trkpt lat="46.54327" lon="7.9083">
        <ele>1112.06</ele>
        <time>2022-09-21T06:19:56Z</time>
      </trkpt>
      <trkpt lat="46.54328" lon="7.90831">
        <ele>1110.24</ele>
        <time>2022-09-21T06:19:57Z</time>
      </trkpt>
      <trkpt lat="46.54328" lon="7.90831">
        <ele>1111.04</ele>
        <time>2022-09-21T06:19:58Z</time>
      </trkpt>
      <trkpt lat="46.5433" lon="7.90833">
        <ele>1112.86</ele>
        <time>2022-09-21T06:20:00Z</time>
      </trkpt>
      <trkpt lat="46.54331" lon="7.90833">
        <ele>1114.69</ele>
        <time>2022-09-21T06:20:02Z</time>
      </trkpt>
      <trkpt lat="46.54332" lon="7.90832">
        <ele>1114.92</ele>
        <time>2022-09-21T06:20:04Z</time>
      </trkpt>
      <trkpt lat="46.54334" lon="7.90832">
        <ele>1114.96</ele>
        <time>2022-09-21T06:20:07Z</time>
      </trkpt>
      <trkpt lat="46.54335" lon="7.90832">
        <ele>1115.85</ele>
        <time>2022-09-21T06:20:09Z</time>
      </trkpt>
      <trkpt lat="46.54336" lon="7.90829">
        <ele>1117.69</ele>
        <time>2022-09-21T06:20:12Z</time>
      </trkpt>
      <trkpt lat="46.54337" lon="7.90827">
        <ele>1119.8</ele>
        <time>2022-09-21T06:20:14Z</time>
      </trkpt>
      <trkpt lat="46.54339" lon="7.90826">
        <ele>1120.67</ele>
        <time>2022-09-21T06:20:17Z</time>
      </trkpt>
      <trkpt lat="46.54341" lon="7.90824">
        <ele>1120.17</ele>
        <time>2022-09-21T06:20:20Z</time>
      </trkpt>
      <trkpt lat="46.54343" lon="7.90823">
        <ele>1119.71</ele>
        <time>2022-09-21T06:20:22Z</time>
      </trkpt>
      <trkpt lat="46.54344" lon="7.90822">
        <ele>1120.63</ele>
        <time>2022-09-21T06:20:24Z</time>
      </trkpt>
      <trkpt lat="46.54346" lon="7.90822">
        <ele>1120.8</ele>
        <time>2022-09-21T06:20:26Z</time>
      </trkpt>
      <trkpt lat="46.54347" lon="7.90822">
        <ele>1122.42</ele>
        <time>2022-09-21T06:20:28Z</time>
      </trkpt>
      <trkpt lat="46.54348" lon="7.90821">
        <ele>1123.89</ele>
        <time>2022-09-21T06:20:30Z</time>
      </trkpt>
      <trkpt lat="46.5435" lon="7.90821">
        <ele>1123.74</ele>
        <time>2022-09-21T06:20:32Z</time>
      </trkpt>
      <trkpt lat="46.54351" lon="7.9082">
        <ele>1125.67</ele>
        <time>2022-09-21T06:20:34Z</time>
      </trkpt>
      <trkpt lat="46.54352" lon="7.9082">
        <ele>1125.27</ele>
        <time>2022-09-21T06:20:36Z</time>
      </trkpt>
      <trkpt lat="46.54353" lon="7.90819">
        <ele>1126.37</ele>
        <time>2022-09-21T06:20:38Z</time>
      </trkpt>
      <trkpt lat="46.54355" lon="7.90819">
        <ele>1125.9</ele>
        <time>2022-09-21T06:20:40Z</time>
      </trkpt>
      <trkpt lat="46.54357" lon="7.90819">
        <ele>1126.78</ele>
        <time>2022-09-21T06:20:42Z</time>
      </trkpt>
      <trkpt lat="46.54358" lon="7.90819">
        <ele>1128.38</ele>
        <time>2022-09-21T06:20:44Z</time>
      </trkpt>
      <trkpt lat="46.54359" lon="7.90819">
        <ele>1128.33</ele>
        <time>2022-09-21T06:20:45Z</time>
      </trkpt>
      <trkpt lat="46.5436" lon="7.90819">
        <ele>1128.74</ele>
        <time>2022-09-21T06:20:46Z</time>
      </trkpt>
      <trkpt lat="46.54361" lon="7.90819">
        <ele>1128.39</ele>
        <time>2022-09-21T06:20:47Z</time>
      </trkpt>
      <trkpt lat="46.54362" lon="7.90819">
        <ele>1128.09</ele>
        <time>2022-09-21T06:20:48Z</time>
      </trkpt>
      <trkpt lat="46.54363" lon="7.90818">
        <ele>1128.65</ele>
        <time>2022-09-21T06:20:49Z</time>
      </trkpt>
      <trkpt lat="46.54365" lon="7.90818">
        <ele>1128.57</ele>
        <time>2022-09-21T06:20:51Z</time>
      </trkpt>
      <trkpt lat="46.54367" lon="7.90818">
        <ele>1129.02</ele>
        <time>2022-09-21T06:20:53Z</time>
      </trkpt>
      <trkpt lat="46.54369" lon="7.90818">
        <ele>1129.36</ele>
        <time>2022-09-21T06:20:54Z</time>
      </trkpt>
      <trkpt lat="46.5437" lon="7.90818">
        <ele>1129.81</ele>
        <time>2022-09-21T06:20:55Z</time>
      </trkpt>
      <trkpt lat="46.54372" lon="7.90818">
        <ele>1130.16</ele>
        <time>2022-09-21T06:20:56Z</time>
      </trkpt>
      <trkpt lat="46.54373" lon="7.90819">
        <ele>1129.96</ele>
        <time>2022-09-21T06:20:57Z</time>
      </trkpt>
      <trkpt lat="46.54374" lon="7.90819">
        <ele>1130.14</ele>
        <time>2022-09-21T06:20:58Z</time>
      </trkpt>
      <trkpt lat="46.54375" lon="7.90818">
        <ele>1130.61</ele>
        <time>2022-09-21T06:20:59Z</time>
      </trkpt>
      <trkpt lat="46.54376" lon="7.90818">
        <ele>1130.17</ele>
        <time>2022-09-21T06:21:00Z</time>
      </trkpt>
      <trkpt lat="46.54377" lon="7.90818">
        <ele>1130.56</ele>
        <time>2022-09-21T06:21:01Z</time>
      </trkpt>
      <trkpt lat="46.54378" lon="7.90818">
        <ele>1131.22</ele>
        <time>2022-09-21T06:21:02Z</time>
      </trkpt>
      <trkpt lat="46.54379" lon="7.90817">
        <ele>1131.25</ele>
        <time>2022-09-21T06:21:03Z</time>
      </trkpt>
      <trkpt lat="46.5438" lon="7.90817">
        <ele>1131.58</ele>
        <time>2022-09-21T06:21:04Z</time>
      </trkpt>
      <trkpt lat="46.54381" lon="7.90817">
        <ele>1132.45</ele>
        <time>2022-09-21T06:21:05Z</time>
      </trkpt>
      <trkpt lat="46.54382" lon="7.90816">
        <ele>1132.36</ele>
        <time>2022-09-21T06:21:06Z</time>
      </trkpt>
      <trkpt lat="46.54383" lon="7.90817">
        <ele>1132.58</ele>
        <time>2022-09-21T06:21:08Z</time>
      </trkpt>
      <trkpt lat="46.54384" lon="7.90818">
        <ele>1133.35</ele>
        <time>2022-09-21T06:21:09Z</time>
      </trkpt>
      <trkpt lat="46.54385" lon="7.90818">
        <ele>1132.89</ele>
        <time>2022-09-21T06:21:10Z</time>
      </trkpt>
      <trkpt lat="46.54387" lon="7.90819">
        <ele>1132.97</ele>
        <time>2022-09-21T06:21:12Z</time>
      </trkpt>
      <trkpt lat="46.54388" lon="7.9082">
        <ele>1131.84</ele>
        <time>2022-09-21T06:21:14Z</time>
      </trkpt>
      <trkpt lat="46.54389" lon="7.90821">
        <ele>1131.19</ele>
        <time>2022-09-21T06:21:15Z</time>
      </trkpt>
      <trkpt lat="46.5439" lon="7.90821">
        <ele>1131.37</ele>
        <time>2022-09-21T06:21:16Z</time>
      </trkpt>
      <trkpt lat="46.54391" lon="7.90821">
        <ele>1130.89</ele>
        <time>2022-09-21T06:21:17Z</time>
      </trkpt>
      <trkpt lat="46.54392" lon="7.90822">
        <ele>1130.91</ele>
        <time>2022-09-21T06:21:18Z</time>
      </trkpt>
      <trkpt lat="46.54393" lon="7.90822">
        <ele>1131.45</ele>
        <time>2022-09-21T06:21:19Z</time>
      </trkpt>
      <trkpt lat="46.54395" lon="7.90822">
        <ele>1131.55</ele>
        <time>2022-09-21T06:21:21Z</time>
      </trkpt>
      <trkpt lat="46.54397" lon="7.90822">
        <ele>1131.33</ele>
        <time>2022-09-21T06:21:23Z</time>
      </trkpt>
      <trkpt lat="46.54398" lon="7.90822">
        <ele>1131.85</ele>
        <time>2022-09-21T06:21:25Z</time>
      </trkpt>
      <trkpt lat="46.544" lon="7.90822">
        <ele>1132.11</ele>
        <time>2022-09-21T06:21:27Z</time>
      </trkpt>
      <trkpt lat="46.54402" lon="7.90823">
        <ele>1131.09</ele>
        <time>2022-09-21T06:21:28Z</time>
      </trkpt>
      <trkpt lat="46.54403" lon="7.90824">
        <ele>1130.93</ele>
        <time>2022-09-21T06:21:29Z</time>
      </trkpt>
      <trkpt lat="46.54405" lon="7.90824">
        <ele>1130.24</ele>
        <time>2022-09-21T06:21:30Z</time>
      </trkpt>
      <trkpt lat="46.54406" lon="7.90825">
        <ele>1130.53</ele>
        <time>2022-09-21T06:21:31Z</time>
      </trkpt>
      <trkpt lat="46.54407" lon="7.90825">
        <ele>1130.66</ele>
        <time>2022-09-21T06:21:32Z</time>
      </trkpt>
      <trkpt lat="46.54408" lon="7.90826">
        <ele>1131.12</ele>
        <time>2022-09-21T06:21:33Z</time>
      </trkpt>
      <trkpt lat="46.5441" lon="7.90827">
        <ele>1131.29</ele>
        <time>2022-09-21T06:21:34Z</time>
      </trkpt>
      <trkpt lat="46.54412" lon="7.9083">
        <ele>1131.45</ele>
        <time>2022-09-21T06:21:35Z</time>
      </trkpt>
      <trkpt lat="46.54412" lon="7.90831">
        <ele>1131.48</ele>
        <time>2022-09-21T06:21:39Z</time>
      </trkpt>
      <trkpt lat="46.54411" lon="7.90832">
        <ele>1132.92</ele>
        <time>2022-09-21T06:21:40Z</time>
      </trkpt>
      <trkpt lat="46.54408" lon="7.90832">
        <ele>1134.06</ele>
        <time>2022-09-21T06:21:42Z</time>
      </trkpt>
      <trkpt lat="46.54407" lon="7.90832">
        <ele>1134.59</ele>
        <time>2022-09-21T06:21:43Z</time>
      </trkpt>
      <trkpt lat="46.54406" lon="7.90833">
        <ele>1134.15</ele>
        <time>2022-09-21T06:21:44Z</time>
      </trkpt>
      <trkpt lat="46.54404" lon="7.90834">
        <ele>1134.77</ele>
        <time>2022-09-21T06:21:47Z</time>
      </trkpt>
      <trkpt lat="46.54403" lon="7.90836">
        <ele>1135.31</ele>
        <time>2022-09-21T06:21:49Z</time>
      </trkpt>
      <trkpt lat="46.54401" lon="7.90837">
        <ele>1136.15</ele>
        <time>2022-09-21T06:21:51Z</time>
      </trkpt>
      <trkpt lat="46.54399" lon="7.90837">
        <ele>1137.64</ele>
        <time>2022-09-21T06:21:53Z</time>
      </trkpt>
      <trkpt lat="46.54398" lon="7.90837">
        <ele>1138.2</ele>
        <time>2022-09-21T06:21:54Z</time>
      </trkpt>
      <trkpt lat="46.54397" lon="7.90837">
        <ele>1138.26</ele>
        <time>2022-09-21T06:21:55Z</time>
      </trkpt>
      <trkpt lat="46.54396" lon="7.90837">
        <ele>1138.7</ele>
        <time>2022-09-21T06:21:56Z</time>
      </trkpt>
      <trkpt lat="46.54394" lon="7.90837">
        <ele>1138.72</ele>
        <time>2022-09-21T06:21:59Z</time>
      </trkpt>
      <trkpt lat="46.54393" lon="7.90838">
        <ele>1138.47</ele>
        <time>2022-09-21T06:22:00Z</time>
      </trkpt>
      <trkpt lat="46.54392" lon="7.90838">
        <ele>1139.66</ele>
        <time>2022-09-21T06:22:01Z</time>
      </trkpt>
      <trkpt lat="46.54391" lon="7.90838">
        <ele>1139.93</ele>
        <time>2022-09-21T06:22:02Z</time>
      </trkpt>
      <trkpt lat="46.54391" lon="7.9084">
        <ele>1138.43</ele>
        <time>2022-09-21T06:22:04Z</time>
      </trkpt>
      <trkpt lat="46.54392" lon="7.90842">
        <ele>1140.28</ele>
        <time>2022-09-21T06:22:06Z</time>
      </trkpt>
      <trkpt lat="46.54393" lon="7.90843">
        <ele>1139.07</ele>
        <time>2022-09-21T06:22:07Z</time>
      </trkpt>
      <trkpt lat="46.54395" lon="7.90844">
        <ele>1140.65</ele>
        <time>2022-09-21T06:22:09Z</time>
      </trkpt>
      <trkpt lat="46.54396" lon="7.90845">
        <ele>1140.41</ele>
        <time>2022-09-21T06:22:11Z</time>
      </trkpt>
      <trkpt lat="46.54397" lon="7.90846">
        <ele>1139.51</ele>
        <time>2022-09-21T06:22:13Z</time>
      </trkpt>
      <trkpt lat="46.54397" lon="7.90847">
        <ele>1140.48</ele>
        <time>2022-09-21T06:22:15Z</time>
      </trkpt>
      <trkpt lat="46.54398" lon="7.90849">
        <ele>1141.06</ele>
        <time>2022-09-21T06:22:17Z</time>
      </trkpt>
      <trkpt lat="46.54399" lon="7.90849">
        <ele>1141.94</ele>
        <time>2022-09-21T06:22:19Z</time>
      </trkpt>
      <trkpt lat="46.544" lon="7.90847">
        <ele>1142.88</ele>
        <time>2022-09-21T06:22:22Z</time>
      </trkpt>
      <trkpt lat="46.54401" lon="7.90846">
        <ele>1144.39</ele>
        <time>2022-09-21T06:22:24Z</time>
      </trkpt>
      <trkpt lat="46.54401" lon="7.90846">
        <ele>1144.8</ele>
        <time>2022-09-21T06:22:26Z</time>
      </trkpt>
      <trkpt lat="46.54402" lon="7.90846">
        <ele>1143.58</ele>
        <time>2022-09-21T06:22:27Z</time>
      </trkpt>
      <trkpt lat="46.54403" lon="7.90847">
        <ele>1142.35</ele>
        <time>2022-09-21T06:22:28Z</time>
      </trkpt>
      <trkpt lat="46.54404" lon="7.90847">
        <ele>1141.9</ele>
        <time>2022-09-21T06:22:29Z</time>
      </trkpt>
      <trkpt lat="46.54406" lon="7.90846">
        <ele>1142.13</ele>
        <time>2022-09-21T06:22:31Z</time>
      </trkpt>
      <trkpt lat="46.54406" lon="7.90845">
        <ele>1142.53</ele>
        <time>2022-09-21T06:22:33Z</time>
      </trkpt>
      <trkpt lat="46.54407" lon="7.90844">
        <ele>1144.09</ele>
        <time>2022-09-21T06:22:36Z</time>
      </trkpt>
      <trkpt lat="46.54407" lon="7.90846">
        <ele>1145.13</ele>
        <time>2022-09-21T06:22:39Z</time>
      </trkpt>
      <trkpt lat="46.54407" lon="7.90848">
        <ele>1143.57</ele>
        <time>2022-09-21T06:22:41Z</time>
      </trkpt>
      <trkpt lat="46.54407" lon="7.90849">
        <ele>1145.29</ele>
        <time>2022-09-21T06:22:43Z</time>
      </trkpt>
      <trkpt lat="46.54406" lon="7.90852">
        <ele>1146.71</ele>
        <time>2022-09-21T06:22:45Z</time>
      </trkpt>
      <trkpt lat="46.54405" lon="7.90853">
        <ele>1146.2</ele>
        <time>2022-09-21T06:22:47Z</time>
      </trkpt>
      <trkpt lat="46.54404" lon="7.90854">
        <ele>1146.69</ele>
        <time>2022-09-21T06:22:48Z</time>
      </trkpt>
      <trkpt lat="46.54403" lon="7.90855">
        <ele>1147.44</ele>
        <time>2022-09-21T06:22:49Z</time>
      </trkpt>
      <trkpt lat="46.54402" lon="7.90855">
        <ele>1147.9</ele>
        <time>2022-09-21T06:22:51Z</time>
      </trkpt>
      <trkpt lat="46.54401" lon="7.90856">
        <ele>1148.97</ele>
        <time>2022-09-21T06:22:53Z</time>
      </trkpt>
      <trkpt lat="46.54399" lon="7.90856">
        <ele>1148.74</ele>
        <time>2022-09-21T06:22:55Z</time>
      </trkpt>
      <trkpt lat="46.54398" lon="7.90858">
        <ele>1147.89</ele>
        <time>2022-09-21T06:22:57Z</time>
      </trkpt>
      <trkpt lat="46.54398" lon="7.9086">
        <ele>1146.67</ele>
        <time>2022-09-21T06:22:59Z</time>
      </trkpt>
      <trkpt lat="46.54397" lon="7.90862">
        <ele>1146.82</ele>
        <time>2022-09-21T06:23:01Z</time>
      </trkpt>
      <trkpt lat="46.54396" lon="7.90864">
        <ele>1147.79</ele>
        <time>2022-09-21T06:23:03Z</time>
      </trkpt>
      <trkpt lat="46.54395" lon="7.90865">
        <ele>1149.53</ele>
        <time>2022-09-21T06:23:05Z</time>
      </trkpt>
      <trkpt lat="46.54394" lon="7.90865">
        <ele>1150.46</ele>
        <time>2022-09-21T06:23:07Z</time>
      </trkpt>
      <trkpt lat="46.54392" lon="7.90866">
        <ele>1150.34</ele>
        <time>2022-09-21T06:23:09Z</time>
      </trkpt>
      <trkpt lat="46.54392" lon="7.90868">
        <ele>1148.96</ele>
        <time>2022-09-21T06:23:11Z</time>
      </trkpt>
      <trkpt lat="46.54392" lon="7.90869">
        <ele>1149.07</ele>
        <time>2022-09-21T06:23:12Z</time>
      </trkpt>
      <trkpt lat="46.54393" lon="7.9087">
        <ele>1149.93</ele>
        <time>2022-09-21T06:23:13Z</time>
      </trkpt>
      <trkpt lat="46.54394" lon="7.9087">
        <ele>1151.13</ele>
        <time>2022-09-21T06:23:14Z</time>
      </trkpt>
      <trkpt lat="46.54396" lon="7.90869">
        <ele>1150.47</ele>
        <time>2022-09-21T06:23:16Z</time>
      </trkpt>
      <trkpt lat="46.54397" lon="7.90869">
        <ele>1150.17</ele>
        <time>2022-09-21T06:23:18Z</time>
      </trkpt>
      <trkpt lat="46.54398" lon="7.9087">
        <ele>1149.61</ele>
        <time>2022-09-21T06:23:20Z</time>
      </trkpt>
      <trkpt lat="46.544" lon="7.90871">
        <ele>1149.98</ele>
        <time>2022-09-21T06:23:22Z</time>
      </trkpt>
      <trkpt lat="46.54401" lon="7.90872">
        <ele>1151.38</ele>
        <time>2022-09-21T06:23:24Z</time>
      </trkpt>
      <trkpt lat="46.54402" lon="7.90873">
        <ele>1150.03</ele>
        <time>2022-09-21T06:23:26Z</time>
      </trkpt>
      <trkpt lat="46.54404" lon="7.90874">
        <ele>1149.44</ele>
        <time>2022-09-21T06:23:28Z</time>
      </trkpt>
      <trkpt lat="46.54405" lon="7.90874">
        <ele>1150.13</ele>
        <time>2022-09-21T06:23:30Z</time>
      </trkpt>
      <trkpt lat="46.54406" lon="7.90873">
        <ele>1150.11</ele>
        <time>2022-09-21T06:23:31Z</time>
      </trkpt>
      <trkpt lat="46.54407" lon="7.90873">
        <ele>1149.62</ele>
        <time>2022-09-21T06:23:32Z</time>
      </trkpt>
      <trkpt lat="46.54409" lon="7.90873">
        <ele>1149.93</ele>
        <time>2022-09-21T06:23:34Z</time>
      </trkpt>
      <trkpt lat="46.5441" lon="7.90873">
        <ele>1149.19</ele>
        <time>2022-09-21T06:23:35Z</time>
      </trkpt>
      <trkpt lat="46.54411" lon="7.90874">
        <ele>1149.57</ele>
        <time>2022-09-21T06:23:36Z</time>
      </trkpt>
      <trkpt lat="46.54412" lon="7.90874">
        <ele>1150.91</ele>
        <time>2022-09-21T06:23:37Z</time>
      </trkpt>
      <trkpt lat="46.54413" lon="7.90874">
        <ele>1151.1</ele>
        <time>2022-09-21T06:23:38Z</time>
      </trkpt>
      <trkpt lat="46.54414" lon="7.90874">
        <ele>1152.23</ele>
        <time>2022-09-21T06:23:40Z</time>
      </trkpt>
      <trkpt lat="46.54416" lon="7.90874">
        <ele>1154.77</ele>
        <time>2022-09-21T06:23:42Z</time>
      </trkpt>
      <trkpt lat="46.54418" lon="7.90874">
        <ele>1155.45</ele>
        <time>2022-09-21T06:23:44Z</time>
      </trkpt>
      <trkpt lat="46.54419" lon="7.90874">
        <ele>1156.17</ele>
        <time>2022-09-21T06:23:46Z</time>
      </trkpt>
      <trkpt lat="46.54421" lon="7.90874">
        <ele>1157.35</ele>
        <time>2022-09-21T06:23:48Z</time>
      </trkpt>
      <trkpt lat="46.54422" lon="7.90874">
        <ele>1158</ele>
        <time>2022-09-21T06:23:50Z</time>
      </trkpt>
      <trkpt lat="46.54424" lon="7.90873">
        <ele>1159.79</ele>
        <time>2022-09-21T06:23:52Z</time>
      </trkpt>
      <trkpt lat="46.54425" lon="7.90872">
        <ele>1159.78</ele>
        <time>2022-09-21T06:23:53Z</time>
      </trkpt>
      <trkpt lat="46.54426" lon="7.90872">
        <ele>1161.76</ele>
        <time>2022-09-21T06:23:54Z</time>
      </trkpt>
      <trkpt lat="46.54428" lon="7.90871">
        <ele>1161.69</ele>
        <time>2022-09-21T06:23:55Z</time>
      </trkpt>
      <trkpt lat="46.54429" lon="7.90872">
        <ele>1161.27</ele>
        <time>2022-09-21T06:23:56Z</time>
      </trkpt>
      <trkpt lat="46.54429" lon="7.90873">
        <ele>1160.77</ele>
        <time>2022-09-21T06:23:58Z</time>
      </trkpt>
      <trkpt lat="46.54428" lon="7.90874">
        <ele>1161.02</ele>
        <time>2022-09-21T06:24:00Z</time>
      </trkpt>
      <trkpt lat="46.54427" lon="7.90875">
        <ele>1161.69</ele>
        <time>2022-09-21T06:24:01Z</time>
      </trkpt>
      <trkpt lat="46.54426" lon="7.90877">
        <ele>1165.24</ele>
        <time>2022-09-21T06:24:03Z</time>
      </trkpt>
      <trkpt lat="46.54426" lon="7.90878">
        <ele>1164.62</ele>
        <time>2022-09-21T06:24:04Z</time>
      </trkpt>
      <trkpt lat="46.54425" lon="7.90881">
        <ele>1166.56</ele>
        <time>2022-09-21T06:24:06Z</time>
      </trkpt>
      <trkpt lat="46.54423" lon="7.90882">
        <ele>1169.54</ele>
        <time>2022-09-21T06:24:08Z</time>
      </trkpt>
      <trkpt lat="46.54422" lon="7.90883">
        <ele>1171.23</ele>
        <time>2022-09-21T06:24:10Z</time>
      </trkpt>
      <trkpt lat="46.54421" lon="7.90885">
        <ele>1172.23</ele>
        <time>2022-09-21T06:24:12Z</time>
      </trkpt>
      <trkpt lat="46.54421" lon="7.90886">
        <ele>1170.77</ele>
        <time>2022-09-21T06:24:14Z</time>
      </trkpt>
      <trkpt lat="46.5442" lon="7.90888">
        <ele>1171.85</ele>
        <time>2022-09-21T06:24:18Z</time>
      </trkpt>
      <trkpt lat="46.54421" lon="7.90889">
        <ele>1172.57</ele>
        <time>2022-09-21T06:24:20Z</time>
      </trkpt>
      <trkpt lat="46.5442" lon="7.9089">
        <ele>1171.13</ele>
        <time>2022-09-21T06:24:23Z</time>
      </trkpt>
      <trkpt lat="46.5442" lon="7.90892">
        <ele>1171.27</ele>
        <time>2022-09-21T06:24:25Z</time>
      </trkpt>
      <trkpt lat="46.54421" lon="7.90894">
        <ele>1170.62</ele>
        <time>2022-09-21T06:24:27Z</time>
      </trkpt>
      <trkpt lat="46.54422" lon="7.90895">
        <ele>1167.8</ele>
        <time>2022-09-21T06:24:29Z</time>
      </trkpt>
      <trkpt lat="46.54423" lon="7.90895">
        <ele>1166.74</ele>
        <time>2022-09-21T06:24:32Z</time>
      </trkpt>
      <trkpt lat="46.54424" lon="7.90896">
        <ele>1166.74</ele>
        <time>2022-09-21T06:24:34Z</time>
      </trkpt>
      <trkpt lat="46.54426" lon="7.90896">
        <ele>1164.94</ele>
        <time>2022-09-21T06:24:36Z</time>
      </trkpt>
      <trkpt lat="46.54427" lon="7.90896">
        <ele>1166.32</ele>
        <time>2022-09-21T06:24:38Z</time>
      </trkpt>
      <trkpt lat="46.54428" lon="7.90895">
        <ele>1169.72</ele>
        <time>2022-09-21T06:24:40Z</time>
      </trkpt>
      <trkpt lat="46.5443" lon="7.90895">
        <ele>1172.78</ele>
        <time>2022-09-21T06:24:43Z</time>
      </trkpt>
      <trkpt lat="46.5443" lon="7.90894">
        <ele>1173.62</ele>
        <time>2022-09-21T06:24:45Z</time>
      </trkpt>
      <trkpt lat="46.54431" lon="7.90894">
        <ele>1173.39</ele>
        <time>2022-09-21T06:24:48Z</time>
      </trkpt>
      <trkpt lat="46.54432" lon="7.90896">
        <ele>1176.39</ele>
        <time>2022-09-21T06:24:51Z</time>
      </trkpt>
      <trkpt lat="46.54432" lon="7.90897">
        <ele>1177.2</ele>
        <time>2022-09-21T06:24:53Z</time>
      </trkpt>
      <trkpt lat="46.54433" lon="7.90898">
        <ele>1175.61</ele>
        <time>2022-09-21T06:24:56Z</time>
      </trkpt>
      <trkpt lat="46.54434" lon="7.90899">
        <ele>1176.64</ele>
        <time>2022-09-21T06:24:58Z</time>
      </trkpt>
      <trkpt lat="46.54435" lon="7.909">
        <ele>1179.44</ele>
        <time>2022-09-21T06:25:00Z</time>
      </trkpt>
      <trkpt lat="46.54436" lon="7.909">
        <ele>1179.23</ele>
        <time>2022-09-21T06:25:01Z</time>
      </trkpt>
      <trkpt lat="46.54437" lon="7.90901">
        <ele>1181.48</ele>
        <time>2022-09-21T06:25:02Z</time>
      </trkpt>
      <trkpt lat="46.54439" lon="7.90902">
        <ele>1180.94</ele>
        <time>2022-09-21T06:25:03Z</time>
      </trkpt>
      <trkpt lat="46.5444" lon="7.90902">
        <ele>1179.12</ele>
        <time>2022-09-21T06:25:04Z</time>
      </trkpt>
      <trkpt lat="46.54442" lon="7.90903">
        <ele>1181.52</ele>
        <time>2022-09-21T06:25:05Z</time>
      </trkpt>
      <trkpt lat="46.54443" lon="7.90903">
        <ele>1180.28</ele>
        <time>2022-09-21T06:25:06Z</time>
      </trkpt>
      <trkpt lat="46.54445" lon="7.90904">
        <ele>1180.63</ele>
        <time>2022-09-21T06:25:07Z</time>
      </trkpt>
      <trkpt lat="46.54446" lon="7.90905">
        <ele>1180.65</ele>
        <time>2022-09-21T06:25:08Z</time>
      </trkpt>
      <trkpt lat="46.54445" lon="7.90907">
        <ele>1181.64</ele>
        <time>2022-09-21T06:25:11Z</time>
      </trkpt>
      <trkpt lat="46.54444" lon="7.90908">
        <ele>1181.96</ele>
        <time>2022-09-21T06:25:13Z</time>
      </trkpt>
      <trkpt lat="46.54443" lon="7.90908">
        <ele>1183.67</ele>
        <time>2022-09-21T06:25:15Z</time>
      </trkpt>
      <trkpt lat="46.54441" lon="7.90909">
        <ele>1185.58</ele>
        <time>2022-09-21T06:25:17Z</time>
      </trkpt>
      <trkpt lat="46.5444" lon="7.9091">
        <ele>1185.72</ele>
        <time>2022-09-21T06:25:18Z</time>
      </trkpt>
      <trkpt lat="46.54439" lon="7.9091">
        <ele>1186.87</ele>
        <time>2022-09-21T06:25:19Z</time>
      </trkpt>
      <trkpt lat="46.54438" lon="7.90911">
        <ele>1187.94</ele>
        <time>2022-09-21T06:25:20Z</time>
      </trkpt>
      <trkpt lat="46.54437" lon="7.90913">
        <ele>1187.56</ele>
        <time>2022-09-21T06:25:22Z</time>
      </trkpt>
      <trkpt lat="46.54436" lon="7.90913">
        <ele>1185.13</ele>
        <time>2022-09-21T06:25:24Z</time>
      </trkpt>
      <trkpt lat="46.54435" lon="7.90911">
        <ele>1184.99</ele>
        <time>2022-09-21T06:25:26Z</time>
      </trkpt>
      <trkpt lat="46.54435" lon="7.90913">
        <ele>1184.74</ele>
        <time>2022-09-21T06:25:29Z</time>
      </trkpt>
      <trkpt lat="46.54434" lon="7.90914">
        <ele>1185.89</ele>
        <time>2022-09-21T06:25:32Z</time>
      </trkpt>
      <trkpt lat="46.54432" lon="7.90915">
        <ele>1186.5</ele>
        <time>2022-09-21T06:25:34Z</time>
      </trkpt>
      <trkpt lat="46.54431" lon="7.90917">
        <ele>1185.87</ele>
        <time>2022-09-21T06:25:36Z</time>
      </trkpt>
      <trkpt lat="46.5443" lon="7.90918">
        <ele>1186.1</ele>
        <time>2022-09-21T06:25:37Z</time>
      </trkpt>
      <trkpt lat="46.54429" lon="7.90919">
        <ele>1185.92</ele>
        <time>2022-09-21T06:25:38Z</time>
      </trkpt>
      <trkpt lat="46.54428" lon="7.9092">
        <ele>1185.59</ele>
        <time>2022-09-21T06:25:40Z</time>
      </trkpt>
      <trkpt lat="46.54428" lon="7.90921">
        <ele>1185.51</ele>
        <time>2022-09-21T06:25:41Z</time>
      </trkpt>
      <trkpt lat="46.54427" lon="7.90921">
        <ele>1185.37</ele>
        <time>2022-09-21T06:25:42Z</time>
      </trkpt>
      <trkpt lat="46.54425" lon="7.90922">
        <ele>1185.33</ele>
        <time>2022-09-21T06:25:44Z</time>
      </trkpt>
      <trkpt lat="46.54424" lon="7.90923">
        <ele>1185.66</ele>
        <time>2022-09-21T06:25:46Z</time>
      </trkpt>
      <trkpt lat="46.54423" lon="7.90924">
        <ele>1186.76</ele>
        <time>2022-09-21T06:25:48Z</time>
      </trkpt>
      <trkpt lat="46.54422" lon="7.90924">
        <ele>1187.33</ele>
        <time>2022-09-21T06:25:49Z</time>
      </trkpt>
      <trkpt lat="46.54421" lon="7.90923">
        <ele>1188.55</ele>
        <time>2022-09-21T06:25:50Z</time>
      </trkpt>
      <trkpt lat="46.5442" lon="7.90923">
        <ele>1190.36</ele>
        <time>2022-09-21T06:25:52Z</time>
      </trkpt>
      <trkpt lat="46.54418" lon="7.90922">
        <ele>1191.24</ele>
        <time>2022-09-21T06:25:54Z</time>
      </trkpt>
      <trkpt lat="46.54416" lon="7.90923">
        <ele>1192</ele>
        <time>2022-09-21T06:25:56Z</time>
      </trkpt>
      <trkpt lat="46.54415" lon="7.90924">
        <ele>1191.98</ele>
        <time>2022-09-21T06:25:57Z</time>
      </trkpt>
      <trkpt lat="46.54415" lon="7.90925">
        <ele>1192.09</ele>
        <time>2022-09-21T06:25:58Z</time>
      </trkpt>
      <trkpt lat="46.54413" lon="7.90925">
        <ele>1194.05</ele>
        <time>2022-09-21T06:26:00Z</time>
      </trkpt>
      <trkpt lat="46.54411" lon="7.90926">
        <ele>1196.9</ele>
        <time>2022-09-21T06:26:02Z</time>
      </trkpt>
      <trkpt lat="46.5441" lon="7.90926">
        <ele>1198.81</ele>
        <time>2022-09-21T06:26:04Z</time>
      </trkpt>
      <trkpt lat="46.54409" lon="7.90928">
        <ele>1199.24</ele>
        <time>2022-09-21T06:26:08Z</time>
      </trkpt>
      <trkpt lat="46.54409" lon="7.90929">
        <ele>1200.13</ele>
        <time>2022-09-21T06:26:10Z</time>
      </trkpt>
      <trkpt lat="46.54408" lon="7.90931">
        <ele>1200.18</ele>
        <time>2022-09-21T06:26:12Z</time>
      </trkpt>
      <trkpt lat="46.54407" lon="7.90933">
        <ele>1201.06</ele>
        <time>2022-09-21T06:26:14Z</time>
      </trkpt>
      <trkpt lat="46.54407" lon="7.90935">
        <ele>1201.5</ele>
        <time>2022-09-21T06:26:16Z</time>
      </trkpt>
      <trkpt lat="46.54406" lon="7.90936">
        <ele>1202.06</ele>
        <time>2022-09-21T06:26:18Z</time>
      </trkpt>
      <trkpt lat="46.54405" lon="7.90938">
        <ele>1202</ele>
        <time>2022-09-21T06:26:20Z</time>
      </trkpt>
      <trkpt lat="46.54403" lon="7.90939">
        <ele>1202.03</ele>
        <time>2022-09-21T06:26:22Z</time>
      </trkpt>
      <trkpt lat="46.54402" lon="7.90941">
        <ele>1203.07</ele>
        <time>2022-09-21T06:26:24Z</time>
      </trkpt>
      <trkpt lat="46.54401" lon="7.90943">
        <ele>1203.06</ele>
        <time>2022-09-21T06:26:26Z</time>
      </trkpt>
      <trkpt lat="46.54401" lon="7.90944">
        <ele>1201.5</ele>
        <time>2022-09-21T06:26:28Z</time>
      </trkpt>
      <trkpt lat="46.54401" lon="7.90946">
        <ele>1202.14</ele>
        <time>2022-09-21T06:26:30Z</time>
      </trkpt>
      <trkpt lat="46.54401" lon="7.90948">
        <ele>1203.93</ele>
        <time>2022-09-21T06:26:32Z</time>
      </trkpt>
      <trkpt lat="46.544" lon="7.9095">
        <ele>1205.3</ele>
        <time>2022-09-21T06:26:34Z</time>
      </trkpt>
      <trkpt lat="46.544" lon="7.90952">
        <ele>1206.06</ele>
        <time>2022-09-21T06:26:36Z</time>
      </trkpt>
      <trkpt lat="46.544" lon="7.90954">
        <ele>1205.79</ele>
        <time>2022-09-21T06:26:38Z</time>
      </trkpt>
      <trkpt lat="46.54401" lon="7.90956">
        <ele>1203.07</ele>
        <time>2022-09-21T06:26:40Z</time>
      </trkpt>
      <trkpt lat="46.54401" lon="7.90959">
        <ele>1203.36</ele>
        <time>2022-09-21T06:26:42Z</time>
      </trkpt>
      <trkpt lat="46.544" lon="7.90961">
        <ele>1204.21</ele>
        <time>2022-09-21T06:26:44Z</time>
      </trkpt>
      <trkpt lat="46.54398" lon="7.90962">
        <ele>1205.53</ele>
        <time>2022-09-21T06:26:46Z</time>
      </trkpt>
      <trkpt lat="46.54397" lon="7.90962">
        <ele>1206.26</ele>
        <time>2022-09-21T06:26:47Z</time>
      </trkpt>
      <trkpt lat="46.54395" lon="7.90962">
        <ele>1205.58</ele>
        <time>2022-09-21T06:26:48Z</time>
      </trkpt>
      <trkpt lat="46.54394" lon="7.90961">
        <ele>1204.58</ele>
        <time>2022-09-21T06:26:49Z</time>
      </trkpt>
      <trkpt lat="46.54393" lon="7.9096">
        <ele>1205.64</ele>
        <time>2022-09-21T06:26:50Z</time>
      </trkpt>
      <trkpt lat="46.54392" lon="7.9096">
        <ele>1206.41</ele>
        <time>2022-09-21T06:26:51Z</time>
      </trkpt>
      <trkpt lat="46.54391" lon="7.90959">
        <ele>1207.16</ele>
        <time>2022-09-21T06:26:52Z</time>
      </trkpt>
      <trkpt lat="46.5439" lon="7.90958">
        <ele>1207.15</ele>
        <time>2022-09-21T06:26:53Z</time>
      </trkpt>
      <trkpt lat="46.5439" lon="7.90957">
        <ele>1205.94</ele>
        <time>2022-09-21T06:26:54Z</time>
      </trkpt>
      <trkpt lat="46.54389" lon="7.90956">
        <ele>1206</ele>
        <time>2022-09-21T06:26:55Z</time>
      </trkpt>
      <trkpt lat="46.54388" lon="7.90954">
        <ele>1207.11</ele>
        <time>2022-09-21T06:26:57Z</time>
      </trkpt>
      <trkpt lat="46.54387" lon="7.90954">
        <ele>1207.61</ele>
        <time>2022-09-21T06:26:58Z</time>
      </trkpt>
      <trkpt lat="46.54385" lon="7.90953">
        <ele>1207.61</ele>
        <time>2022-09-21T06:27:00Z</time>
      </trkpt>
      <trkpt lat="46.54384" lon="7.90954">
        <ele>1208.13</ele>
        <time>2022-09-21T06:27:02Z</time>
      </trkpt>
      <trkpt lat="46.54383" lon="7.90956">
        <ele>1207.65</ele>
        <time>2022-09-21T06:27:04Z</time>
      </trkpt>
      <trkpt lat="46.54382" lon="7.90958">
        <ele>1207.21</ele>
        <time>2022-09-21T06:27:06Z</time>
      </trkpt>
      <trkpt lat="46.54381" lon="7.90958">
        <ele>1208.47</ele>
        <time>2022-09-21T06:27:07Z</time>
      </trkpt>
      <trkpt lat="46.5438" lon="7.90959">
        <ele>1208.97</ele>
        <time>2022-09-21T06:27:08Z</time>
      </trkpt>
      <trkpt lat="46.54379" lon="7.90959">
        <ele>1209.62</ele>
        <time>2022-09-21T06:27:09Z</time>
      </trkpt>
      <trkpt lat="46.54377" lon="7.9096">
        <ele>1210.92</ele>
        <time>2022-09-21T06:27:11Z</time>
      </trkpt>
      <trkpt lat="46.54376" lon="7.9096">
        <ele>1211.27</ele>
        <time>2022-09-21T06:27:12Z</time>
      </trkpt>
      <trkpt lat="46.54375" lon="7.90962">
        <ele>1211.21</ele>
        <time>2022-09-21T06:27:14Z</time>
      </trkpt>
      <trkpt lat="46.54375" lon="7.90963">
        <ele>1210.42</ele>
        <time>2022-09-21T06:27:15Z</time>
      </trkpt>
      <trkpt lat="46.54374" lon="7.90965">
        <ele>1210.24</ele>
        <time>2022-09-21T06:27:16Z</time>
      </trkpt>
      <trkpt lat="46.54373" lon="7.90967">
        <ele>1210.46</ele>
        <time>2022-09-21T06:27:18Z</time>
      </trkpt>
      <trkpt lat="46.54372" lon="7.90968">
        <ele>1210.34</ele>
        <time>2022-09-21T06:27:19Z</time>
      </trkpt>
      <trkpt lat="46.54371" lon="7.90969">
        <ele>1209.55</ele>
        <time>2022-09-21T06:27:20Z</time>
      </trkpt>
      <trkpt lat="46.5437" lon="7.90971">
        <ele>1208.41</ele>
        <time>2022-09-21T06:27:21Z</time>
      </trkpt>
      <trkpt lat="46.54368" lon="7.90972">
        <ele>1208.56</ele>
        <time>2022-09-21T06:27:22Z</time>
      </trkpt>
      <trkpt lat="46.54367" lon="7.90973">
        <ele>1208.98</ele>
        <time>2022-09-21T06:27:23Z</time>
      </trkpt>
      <trkpt lat="46.54367" lon="7.90974">
        <ele>1209.65</ele>
        <time>2022-09-21T06:27:24Z</time>
      </trkpt>
      <trkpt lat="46.54366" lon="7.90975">
        <ele>1210.01</ele>
        <time>2022-09-21T06:27:25Z</time>
      </trkpt>
      <trkpt lat="46.54366" lon="7.90976">
        <ele>1210.44</ele>
        <time>2022-09-21T06:27:26Z</time>
      </trkpt>
      <trkpt lat="46.54366" lon="7.90978">
        <ele>1208.46</ele>
        <time>2022-09-21T06:27:28Z</time>
      </trkpt>
      <trkpt lat="46.54366" lon="7.9098">
        <ele>1209.28</ele>
        <time>2022-09-21T06:27:29Z</time>
      </trkpt>
      <trkpt lat="46.54367" lon="7.90981">
        <ele>1209.53</ele>
        <time>2022-09-21T06:27:30Z</time>
      </trkpt>
      <trkpt lat="46.54367" lon="7.90983">
        <ele>1208.49</ele>
        <time>2022-09-21T06:27:32Z</time>
      </trkpt>
      <trkpt lat="46.54367" lon="7.90985">
        <ele>1207.38</ele>
        <time>2022-09-21T06:27:34Z</time>
      </trkpt>
      <trkpt lat="46.54366" lon="7.90986">
        <ele>1207.4</ele>
        <time>2022-09-21T06:27:36Z</time>
      </trkpt>
      <trkpt lat="46.54365" lon="7.90988">
        <ele>1208.55</ele>
        <time>2022-09-21T06:27:38Z</time>
      </trkpt>
      <trkpt lat="46.54365" lon="7.9099">
        <ele>1208.77</ele>
        <time>2022-09-21T06:27:40Z</time>
      </trkpt>
      <trkpt lat="46.54366" lon="7.90992">
        <ele>1207.92</ele>
        <time>2022-09-21T06:27:42Z</time>
      </trkpt>
      <trkpt lat="46.54365" lon="7.90993">
        <ele>1207.82</ele>
        <time>2022-09-21T06:27:45Z</time>
      </trkpt>
      <trkpt lat="46.54364" lon="7.90994">
        <ele>1207.83</ele>
        <time>2022-09-21T06:27:47Z</time>
      </trkpt>
      <trkpt lat="46.54362" lon="7.90994">
        <ele>1208.76</ele>
        <time>2022-09-21T06:27:49Z</time>
      </trkpt>
      <trkpt lat="46.54361" lon="7.90994">
        <ele>1209.98</ele>
        <time>2022-09-21T06:27:50Z</time>
      </trkpt>
      <trkpt lat="46.5436" lon="7.90994">
        <ele>1210.07</ele>
        <time>2022-09-21T06:27:51Z</time>
      </trkpt>
      <trkpt lat="46.54358" lon="7.90995">
        <ele>1209.74</ele>
        <time>2022-09-21T06:27:53Z</time>
      </trkpt>
      <trkpt lat="46.54357" lon="7.90995">
        <ele>1209.8</ele>
        <time>2022-09-21T06:27:54Z</time>
      </trkpt>
      <trkpt lat="46.54355" lon="7.90996">
        <ele>1211.09</ele>
        <time>2022-09-21T06:27:56Z</time>
      </trkpt>
      <trkpt lat="46.54354" lon="7.90996">
        <ele>1211.27</ele>
        <time>2022-09-21T06:27:57Z</time>
      </trkpt>
      <trkpt lat="46.54353" lon="7.90996">
        <ele>1212.28</ele>
        <time>2022-09-21T06:27:58Z</time>
      </trkpt>
      <trkpt lat="46.54352" lon="7.90996">
        <ele>1212.73</ele>
        <time>2022-09-21T06:27:59Z</time>
      </trkpt>
      <trkpt lat="46.54351" lon="7.90996">
        <ele>1213.91</ele>
        <time>2022-09-21T06:28:00Z</time>
      </trkpt>
      <trkpt lat="46.5435" lon="7.90997">
        <ele>1214.92</ele>
        <time>2022-09-21T06:28:01Z</time>
      </trkpt>
      <trkpt lat="46.54349" lon="7.90997">
        <ele>1215.36</ele>
        <time>2022-09-21T06:28:02Z</time>
      </trkpt>
      <trkpt lat="46.54348" lon="7.90997">
        <ele>1216.29</ele>
        <time>2022-09-21T06:28:03Z</time>
      </trkpt>
      <trkpt lat="46.54347" lon="7.90997">
        <ele>1216.4</ele>
        <time>2022-09-21T06:28:04Z</time>
      </trkpt>
      <trkpt lat="46.54345" lon="7.90997">
        <ele>1215.76</ele>
        <time>2022-09-21T06:28:06Z</time>
      </trkpt>
      <trkpt lat="46.54344" lon="7.90997">
        <ele>1216.04</ele>
        <time>2022-09-21T06:28:07Z</time>
      </trkpt>
      <trkpt lat="46.54343" lon="7.90997">
        <ele>1215.94</ele>
        <time>2022-09-21T06:28:08Z</time>
      </trkpt>
      <trkpt lat="46.54342" lon="7.90997">
        <ele>1216.17</ele>
        <time>2022-09-21T06:28:09Z</time>
      </trkpt>
      <trkpt lat="46.54341" lon="7.90997">
        <ele>1217.34</ele>
        <time>2022-09-21T06:28:10Z</time>
      </trkpt>
      <trkpt lat="46.5434" lon="7.90997">
        <ele>1218.1</ele>
        <time>2022-09-21T06:28:11Z</time>
      </trkpt>
      <trkpt lat="46.54339" lon="7.90998">
        <ele>1218.69</ele>
        <time>2022-09-21T06:28:12Z</time>
      </trkpt>
      <trkpt lat="46.54338" lon="7.90998">
        <ele>1218.97</ele>
        <time>2022-09-21T06:28:13Z</time>
      </trkpt>
      <trkpt lat="46.54337" lon="7.90999">
        <ele>1218.35</ele>
        <time>2022-09-21T06:28:14Z</time>
      </trkpt>
      <trkpt lat="46.54337" lon="7.91">
        <ele>1218.61</ele>
        <time>2022-09-21T06:28:15Z</time>
      </trkpt>
      <trkpt lat="46.54336" lon="7.91001">
        <ele>1219.91</ele>
        <time>2022-09-21T06:28:16Z</time>
      </trkpt>
      <trkpt lat="46.54335" lon="7.91002">
        <ele>1219.75</ele>
        <time>2022-09-21T06:28:17Z</time>
      </trkpt>
      <trkpt lat="46.54334" lon="7.91002">
        <ele>1219.51</ele>
        <time>2022-09-21T06:28:18Z</time>
      </trkpt>
      <trkpt lat="46.54333" lon="7.91004">
        <ele>1219.24</ele>
        <time>2022-09-21T06:28:19Z</time>
      </trkpt>
      <trkpt lat="46.54333" lon="7.91005">
        <ele>1219.12</ele>
        <time>2022-09-21T06:28:20Z</time>
      </trkpt>
      <trkpt lat="46.54332" lon="7.91006">
        <ele>1218.96</ele>
        <time>2022-09-21T06:28:21Z</time>
      </trkpt>
      <trkpt lat="46.54332" lon="7.91007">
        <ele>1218.49</ele>
        <time>2022-09-21T06:28:22Z</time>
      </trkpt>
      <trkpt lat="46.54331" lon="7.91008">
        <ele>1218.85</ele>
        <time>2022-09-21T06:28:23Z</time>
      </trkpt>
      <trkpt lat="46.54331" lon="7.9101">
        <ele>1218.45</ele>
        <time>2022-09-21T06:28:24Z</time>
      </trkpt>
      <trkpt lat="46.54331" lon="7.91011">
        <ele>1218.43</ele>
        <time>2022-09-21T06:28:25Z</time>
      </trkpt>
      <trkpt lat="46.54331" lon="7.91013">
        <ele>1218.83</ele>
        <time>2022-09-21T06:28:26Z</time>
      </trkpt>
      <trkpt lat="46.54331" lon="7.91014">
        <ele>1219.87</ele>
        <time>2022-09-21T06:28:27Z</time>
      </trkpt>
      <trkpt lat="46.54331" lon="7.91016">
        <ele>1220.82</ele>
        <time>2022-09-21T06:28:28Z</time>
      </trkpt>
      <trkpt lat="46.5433" lon="7.91017">
        <ele>1219.36</ele>
        <time>2022-09-21T06:28:29Z</time>
      </trkpt>
      <trkpt lat="46.54329" lon="7.91018">
        <ele>1219.76</ele>
        <time>2022-09-21T06:28:30Z</time>
      </trkpt>
      <trkpt lat="46.54329" lon="7.91019">
        <ele>1220.46</ele>
        <time>2022-09-21T06:28:31Z</time>
      </trkpt>
      <trkpt lat="46.54328" lon="7.91019">
        <ele>1219.76</ele>
        <time>2022-09-21T06:28:32Z</time>
      </trkpt>
      <trkpt lat="46.54326" lon="7.9102">
        <ele>1220.93</ele>
        <time>2022-09-21T06:28:33Z</time>
      </trkpt>
      <trkpt lat="46.54326" lon="7.91021">
        <ele>1220.49</ele>
        <time>2022-09-21T06:28:34Z</time>
      </trkpt>
      <trkpt lat="46.54325" lon="7.91022">
        <ele>1220.97</ele>
        <time>2022-09-21T06:28:35Z</time>
      </trkpt>
      <trkpt lat="46.54324" lon="7.91023">
        <ele>1219.83</ele>
        <time>2022-09-21T06:28:36Z</time>
      </trkpt>
      <trkpt lat="46.54323" lon="7.91024">
        <ele>1221.05</ele>
        <time>2022-09-21T06:28:37Z</time>
      </trkpt>
      <trkpt lat="46.54322" lon="7.91024">
        <ele>1221.96</ele>
        <time>2022-09-21T06:28:38Z</time>
      </trkpt>
      <trkpt lat="46.54321" lon="7.91025">
        <ele>1223.27</ele>
        <time>2022-09-21T06:28:39Z</time>
      </trkpt>
      <trkpt lat="46.5432" lon="7.91024">
        <ele>1224.22</ele>
        <time>2022-09-21T06:28:40Z</time>
      </trkpt>
      <trkpt lat="46.54318" lon="7.91024">
        <ele>1225.83</ele>
        <time>2022-09-21T06:28:41Z</time>
      </trkpt>
      <trkpt lat="46.54317" lon="7.91024">
        <ele>1225.58</ele>
        <time>2022-09-21T06:28:42Z</time>
      </trkpt>
      <trkpt lat="46.54316" lon="7.91024">
        <ele>1225.17</ele>
        <time>2022-09-21T06:28:43Z</time>
      </trkpt>
      <trkpt lat="46.54316" lon="7.91026">
        <ele>1225.57</ele>
        <time>2022-09-21T06:28:45Z</time>
      </trkpt>
      <trkpt lat="46.54316" lon="7.91027">
        <ele>1225.89</ele>
        <time>2022-09-21T06:28:47Z</time>
      </trkpt>
      <trkpt lat="46.54316" lon="7.91029">
        <ele>1227.46</ele>
        <time>2022-09-21T06:28:50Z</time>
      </trkpt>
      <trkpt lat="46.54317" lon="7.91031">
        <ele>1228.4</ele>
        <time>2022-09-21T06:28:51Z</time>
      </trkpt>
      <trkpt lat="46.54317" lon="7.91032">
        <ele>1229.71</ele>
        <time>2022-09-21T06:28:53Z</time>
      </trkpt>
      <trkpt lat="46.54316" lon="7.91033">
        <ele>1229.47</ele>
        <time>2022-09-21T06:28:55Z</time>
      </trkpt>
      <trkpt lat="46.54315" lon="7.91033">
        <ele>1229.35</ele>
        <time>2022-09-21T06:28:56Z</time>
      </trkpt>
      <trkpt lat="46.54314" lon="7.91033">
        <ele>1230.22</ele>
        <time>2022-09-21T06:28:57Z</time>
      </trkpt>
      <trkpt lat="46.54313" lon="7.91034">
        <ele>1229.86</ele>
        <time>2022-09-21T06:28:59Z</time>
      </trkpt>
      <trkpt lat="46.54312" lon="7.91036">
        <ele>1228.32</ele>
        <time>2022-09-21T06:29:01Z</time>
      </trkpt>
      <trkpt lat="46.54312" lon="7.91038">
        <ele>1228.58</ele>
        <time>2022-09-21T06:29:02Z</time>
      </trkpt>
      <trkpt lat="46.54311" lon="7.91039">
        <ele>1229.32</ele>
        <time>2022-09-21T06:29:03Z</time>
      </trkpt>
      <trkpt lat="46.54311" lon="7.91041">
        <ele>1227.63</ele>
        <time>2022-09-21T06:29:05Z</time>
      </trkpt>
      <trkpt lat="46.5431" lon="7.91043">
        <ele>1227.58</ele>
        <time>2022-09-21T06:29:07Z</time>
      </trkpt>
      <trkpt lat="46.5431" lon="7.91045">
        <ele>1227.43</ele>
        <time>2022-09-21T06:29:09Z</time>
      </trkpt>
      <trkpt lat="46.54308" lon="7.91045">
        <ele>1227.72</ele>
        <time>2022-09-21T06:29:11Z</time>
      </trkpt>
      <trkpt lat="46.54307" lon="7.91046">
        <ele>1227.21</ele>
        <time>2022-09-21T06:29:12Z</time>
      </trkpt>
      <trkpt lat="46.54306" lon="7.91046">
        <ele>1227.74</ele>
        <time>2022-09-21T06:29:13Z</time>
      </trkpt>
      <trkpt lat="46.54305" lon="7.91046">
        <ele>1228.55</ele>
        <time>2022-09-21T06:29:14Z</time>
      </trkpt>
      <trkpt lat="46.54304" lon="7.91047">
        <ele>1227.61</ele>
        <time>2022-09-21T06:29:15Z</time>
      </trkpt>
      <trkpt lat="46.54303" lon="7.91047">
        <ele>1228.41</ele>
        <time>2022-09-21T06:29:16Z</time>
      </trkpt>
      <trkpt lat="46.54301" lon="7.91046">
        <ele>1229.57</ele>
        <time>2022-09-21T06:29:17Z</time>
      </trkpt>
      <trkpt lat="46.543" lon="7.91046">
        <ele>1231.49</ele>
        <time>2022-09-21T06:29:18Z</time>
      </trkpt>
      <trkpt lat="46.54299" lon="7.91045">
        <ele>1232.08</ele>
        <time>2022-09-21T06:29:19Z</time>
      </trkpt>
      <trkpt lat="46.54297" lon="7.91044">
        <ele>1232.27</ele>
        <time>2022-09-21T06:29:20Z</time>
      </trkpt>
      <trkpt lat="46.54296" lon="7.91044">
        <ele>1231.78</ele>
        <time>2022-09-21T06:29:21Z</time>
      </trkpt>
      <trkpt lat="46.54295" lon="7.91044">
        <ele>1232.25</ele>
        <time>2022-09-21T06:29:22Z</time>
      </trkpt>
      <trkpt lat="46.54294" lon="7.91043">
        <ele>1232.88</ele>
        <time>2022-09-21T06:29:23Z</time>
      </trkpt>
      <trkpt lat="46.54293" lon="7.91043">
        <ele>1232.97</ele>
        <time>2022-09-21T06:29:24Z</time>
      </trkpt>
      <trkpt lat="46.54292" lon="7.91043">
        <ele>1233.86</ele>
        <time>2022-09-21T06:29:25Z</time>
      </trkpt>
      <trkpt lat="46.54291" lon="7.91044">
        <ele>1233.67</ele>
        <time>2022-09-21T06:29:26Z</time>
      </trkpt>
      <trkpt lat="46.5429" lon="7.91044">
        <ele>1233.69</ele>
        <time>2022-09-21T06:29:27Z</time>
      </trkpt>
      <trkpt lat="46.54288" lon="7.91044">
        <ele>1233.58</ele>
        <time>2022-09-21T06:29:29Z</time>
      </trkpt>
      <trkpt lat="46.54286" lon="7.91044">
        <ele>1234.39</ele>
        <time>2022-09-21T06:29:31Z</time>
      </trkpt>
      <trkpt lat="46.54285" lon="7.91043">
        <ele>1235.37</ele>
        <time>2022-09-21T06:29:32Z</time>
      </trkpt>
      <trkpt lat="46.54284" lon="7.91043">
        <ele>1236.77</ele>
        <time>2022-09-21T06:29:33Z</time>
      </trkpt>
      <trkpt lat="46.54283" lon="7.91044">
        <ele>1237.08</ele>
        <time>2022-09-21T06:29:35Z</time>
      </trkpt>
      <trkpt lat="46.54282" lon="7.91044">
        <ele>1237.71</ele>
        <time>2022-09-21T06:29:36Z</time>
      </trkpt>
      <trkpt lat="46.54281" lon="7.91044">
        <ele>1238.05</ele>
        <time>2022-09-21T06:29:37Z</time>
      </trkpt>
      <trkpt lat="46.5428" lon="7.91043">
        <ele>1238.26</ele>
        <time>2022-09-21T06:29:38Z</time>
      </trkpt>
      <trkpt lat="46.54279" lon="7.91042">
        <ele>1237.69</ele>
        <time>2022-09-21T06:29:39Z</time>
      </trkpt>
      <trkpt lat="46.54278" lon="7.91042">
        <ele>1237.34</ele>
        <time>2022-09-21T06:29:40Z</time>
      </trkpt>
      <trkpt lat="46.54277" lon="7.9104">
        <ele>1238.41</ele>
        <time>2022-09-21T06:29:41Z</time>
      </trkpt>
      <trkpt lat="46.54277" lon="7.91039">
        <ele>1237.94</ele>
        <time>2022-09-21T06:29:42Z</time>
      </trkpt>
      <trkpt lat="46.54276" lon="7.91039">
        <ele>1237.95</ele>
        <time>2022-09-21T06:29:43Z</time>
      </trkpt>
      <trkpt lat="46.54274" lon="7.91037">
        <ele>1237.37</ele>
        <time>2022-09-21T06:29:45Z</time>
      </trkpt>
      <trkpt lat="46.54273" lon="7.91036">
        <ele>1238.47</ele>
        <time>2022-09-21T06:29:47Z</time>
      </trkpt>
      <trkpt lat="46.54272" lon="7.91036">
        <ele>1239.92</ele>
        <time>2022-09-21T06:29:48Z</time>
      </trkpt>
      <trkpt lat="46.54271" lon="7.91036">
        <ele>1240.71</ele>
        <time>2022-09-21T06:29:49Z</time>
      </trkpt>
      <trkpt lat="46.5427" lon="7.91036">
        <ele>1240.8</ele>
        <time>2022-09-21T06:29:50Z</time>
      </trkpt>
      <trkpt lat="46.54269" lon="7.91037">
        <ele>1240.93</ele>
        <time>2022-09-21T06:29:51Z</time>
      </trkpt>
      <trkpt lat="46.54268" lon="7.91037">
        <ele>1241.03</ele>
        <time>2022-09-21T06:29:52Z</time>
      </trkpt>
      <trkpt lat="46.54267" lon="7.91037">
        <ele>1241.23</ele>
        <time>2022-09-21T06:29:53Z</time>
      </trkpt>
      <trkpt lat="46.54266" lon="7.91038">
        <ele>1241.08</ele>
        <time>2022-09-21T06:29:54Z</time>
      </trkpt>
      <trkpt lat="46.54266" lon="7.91039">
        <ele>1240.13</ele>
        <time>2022-09-21T06:29:55Z</time>
      </trkpt>
      <trkpt lat="46.54264" lon="7.91041">
        <ele>1240.14</ele>
        <time>2022-09-21T06:29:57Z</time>
      </trkpt>
      <trkpt lat="46.54264" lon="7.91042">
        <ele>1240.24</ele>
        <time>2022-09-21T06:29:58Z</time>
      </trkpt>
      <trkpt lat="46.54263" lon="7.91044">
        <ele>1240.41</ele>
        <time>2022-09-21T06:29:59Z</time>
      </trkpt>
      <trkpt lat="46.54263" lon="7.91046">
        <ele>1240.59</ele>
        <time>2022-09-21T06:30:01Z</time>
      </trkpt>
      <trkpt lat="46.54263" lon="7.91048">
        <ele>1242.44</ele>
        <time>2022-09-21T06:30:02Z</time>
      </trkpt>
      <trkpt lat="46.54263" lon="7.91049">
        <ele>1244.22</ele>
        <time>2022-09-21T06:30:04Z</time>
      </trkpt>
      <trkpt lat="46.54261" lon="7.91051">
        <ele>1244.05</ele>
        <time>2022-09-21T06:30:06Z</time>
      </trkpt>
      <trkpt lat="46.54261" lon="7.91052">
        <ele>1243.96</ele>
        <time>2022-09-21T06:30:07Z</time>
      </trkpt>
      <trkpt lat="46.54261" lon="7.91054">
        <ele>1244.53</ele>
        <time>2022-09-21T06:30:08Z</time>
      </trkpt>
      <trkpt lat="46.54262" lon="7.91056">
        <ele>1245.95</ele>
        <time>2022-09-21T06:30:10Z</time>
      </trkpt>
      <trkpt lat="46.54262" lon="7.91058">
        <ele>1245.81</ele>
        <time>2022-09-21T06:30:12Z</time>
      </trkpt>
      <trkpt lat="46.54262" lon="7.9106">
        <ele>1244.36</ele>
        <time>2022-09-21T06:30:14Z</time>
      </trkpt>
      <trkpt lat="46.54262" lon="7.91062">
        <ele>1246.9</ele>
        <time>2022-09-21T06:30:16Z</time>
      </trkpt>
      <trkpt lat="46.54261" lon="7.91063">
        <ele>1245.68</ele>
        <time>2022-09-21T06:30:18Z</time>
      </trkpt>
      <trkpt lat="46.54259" lon="7.91064">
        <ele>1244.43</ele>
        <time>2022-09-21T06:30:20Z</time>
      </trkpt>
      <trkpt lat="46.54258" lon="7.91065">
        <ele>1244.49</ele>
        <time>2022-09-21T06:30:22Z</time>
      </trkpt>
      <trkpt lat="46.54257" lon="7.91067">
        <ele>1243.63</ele>
        <time>2022-09-21T06:30:24Z</time>
      </trkpt>
      <trkpt lat="46.54257" lon="7.91068">
        <ele>1244.9</ele>
        <time>2022-09-21T06:30:27Z</time>
      </trkpt>
      <trkpt lat="46.54259" lon="7.91069">
        <ele>1245.85</ele>
        <time>2022-09-21T06:30:29Z</time>
      </trkpt>
      <trkpt lat="46.54259" lon="7.91071">
        <ele>1245.14</ele>
        <time>2022-09-21T06:30:30Z</time>
      </trkpt>
      <trkpt lat="46.5426" lon="7.91072">
        <ele>1245.73</ele>
        <time>2022-09-21T06:30:31Z</time>
      </trkpt>
      <trkpt lat="46.54261" lon="7.91073">
        <ele>1245.61</ele>
        <time>2022-09-21T06:30:32Z</time>
      </trkpt>
      <trkpt lat="46.54262" lon="7.91075">
        <ele>1244.82</ele>
        <time>2022-09-21T06:30:33Z</time>
      </trkpt>
      <trkpt lat="46.54263" lon="7.91076">
        <ele>1244.05</ele>
        <time>2022-09-21T06:30:34Z</time>
      </trkpt>
      <trkpt lat="46.54264" lon="7.91077">
        <ele>1242.93</ele>
        <time>2022-09-21T06:30:35Z</time>
      </trkpt>
      <trkpt lat="46.54265" lon="7.91078">
        <ele>1244.2</ele>
        <time>2022-09-21T06:30:37Z</time>
      </trkpt>
      <trkpt lat="46.54264" lon="7.9108">
        <ele>1242.56</ele>
        <time>2022-09-21T06:30:39Z</time>
      </trkpt>
      <trkpt lat="46.54263" lon="7.9108">
        <ele>1243.08</ele>
        <time>2022-09-21T06:30:40Z</time>
      </trkpt>
      <trkpt lat="46.54262" lon="7.91082">
        <ele>1244.14</ele>
        <time>2022-09-21T06:30:42Z</time>
      </trkpt>
      <trkpt lat="46.5426" lon="7.91083">
        <ele>1246.21</ele>
        <time>2022-09-21T06:30:44Z</time>
      </trkpt>
      <trkpt lat="46.54259" lon="7.91084">
        <ele>1247.69</ele>
        <time>2022-09-21T06:30:46Z</time>
      </trkpt>
      <trkpt lat="46.54257" lon="7.91085">
        <ele>1249.05</ele>
        <time>2022-09-21T06:30:48Z</time>
      </trkpt>
      <trkpt lat="46.54256" lon="7.91085">
        <ele>1248.8</ele>
        <time>2022-09-21T06:30:49Z</time>
      </trkpt>
      <trkpt lat="46.54255" lon="7.91085">
        <ele>1248.22</ele>
        <time>2022-09-21T06:30:51Z</time>
      </trkpt>
      <trkpt lat="46.54253" lon="7.91086">
        <ele>1246.31</ele>
        <time>2022-09-21T06:30:53Z</time>
      </trkpt>
      <trkpt lat="46.54252" lon="7.91087">
        <ele>1245.39</ele>
        <time>2022-09-21T06:30:55Z</time>
      </trkpt>
      <trkpt lat="46.5425" lon="7.91088">
        <ele>1245.8</ele>
        <time>2022-09-21T06:30:57Z</time>
      </trkpt>
      <trkpt lat="46.5425" lon="7.91089">
        <ele>1245.36</ele>
        <time>2022-09-21T06:30:58Z</time>
      </trkpt>
      <trkpt lat="46.54248" lon="7.91089">
        <ele>1245.52</ele>
        <time>2022-09-21T06:31:00Z</time>
      </trkpt>
      <trkpt lat="46.54247" lon="7.91087">
        <ele>1245.07</ele>
        <time>2022-09-21T06:31:02Z</time>
      </trkpt>
      <trkpt lat="46.54246" lon="7.91086">
        <ele>1245.35</ele>
        <time>2022-09-21T06:31:03Z</time>
      </trkpt>
      <trkpt lat="46.54245" lon="7.91084">
        <ele>1244.38</ele>
        <time>2022-09-21T06:31:05Z</time>
      </trkpt>
      <trkpt lat="46.54244" lon="7.91084">
        <ele>1245.53</ele>
        <time>2022-09-21T06:31:07Z</time>
      </trkpt>
      <trkpt lat="46.54243" lon="7.91085">
        <ele>1246.02</ele>
        <time>2022-09-21T06:31:09Z</time>
      </trkpt>
      <trkpt lat="46.54241" lon="7.91085">
        <ele>1248.01</ele>
        <time>2022-09-21T06:31:11Z</time>
      </trkpt>
      <trkpt lat="46.5424" lon="7.91085">
        <ele>1247.64</ele>
        <time>2022-09-21T06:31:12Z</time>
      </trkpt>
      <trkpt lat="46.54239" lon="7.91085">
        <ele>1246.89</ele>
        <time>2022-09-21T06:31:13Z</time>
      </trkpt>
      <trkpt lat="46.54238" lon="7.91085">
        <ele>1247.6</ele>
        <time>2022-09-21T06:31:14Z</time>
      </trkpt>
      <trkpt lat="46.5424" lon="7.91084">
        <ele>1248.7</ele>
        <time>2022-09-21T06:31:21Z</time>
      </trkpt>
      <trkpt lat="46.54239" lon="7.91085">
        <ele>1247.42</ele>
        <time>2022-09-21T06:31:28Z</time>
      </trkpt>
      <trkpt lat="46.54239" lon="7.91086">
        <ele>1246.01</ele>
        <time>2022-09-21T06:31:30Z</time>
      </trkpt>
      <trkpt lat="46.5424" lon="7.91085">
        <ele>1248.23</ele>
        <time>2022-09-21T06:31:40Z</time>
      </trkpt>
      <trkpt lat="46.5424" lon="7.91086">
        <ele>1246.91</ele>
        <time>2022-09-21T06:31:52Z</time>
      </trkpt>
      <trkpt lat="46.54241" lon="7.91087">
        <ele>1247.61</ele>
        <time>2022-09-21T06:31:58Z</time>
      </trkpt>
      <trkpt lat="46.5424" lon="7.91086">
        <ele>1247.86</ele>
        <time>2022-09-21T06:32:00Z</time>
      </trkpt>
      <trkpt lat="46.54239" lon="7.91086">
        <ele>1248.43</ele>
        <time>2022-09-21T06:32:07Z</time>
      </trkpt>
      <trkpt lat="46.54238" lon="7.91086">
        <ele>1247.47</ele>
        <time>2022-09-21T06:32:15Z</time>
      </trkpt>
      <trkpt lat="46.54239" lon="7.91087">
        <ele>1248.76</ele>
        <time>2022-09-21T06:32:23Z</time>
      </trkpt>
      <trkpt lat="46.54239" lon="7.91088">
        <ele>1247.17</ele>
        <time>2022-09-21T06:32:25Z</time>
      </trkpt>
      <trkpt lat="46.54238" lon="7.9109">
        <ele>1247.96</ele>
        <time>2022-09-21T06:32:27Z</time>
      </trkpt>
      <trkpt lat="46.54237" lon="7.9109">
        <ele>1247.49</ele>
        <time>2022-09-21T06:32:28Z</time>
      </trkpt>
      <trkpt lat="46.54236" lon="7.9109">
        <ele>1247.54</ele>
        <time>2022-09-21T06:32:29Z</time>
      </trkpt>
      <trkpt lat="46.54235" lon="7.91091">
        <ele>1246.95</ele>
        <time>2022-09-21T06:32:31Z</time>
      </trkpt>
      <trkpt lat="46.54235" lon="7.91093">
        <ele>1246.94</ele>
        <time>2022-09-21T06:32:33Z</time>
      </trkpt>
      <trkpt lat="46.54235" lon="7.91094">
        <ele>1246.69</ele>
        <time>2022-09-21T06:32:35Z</time>
      </trkpt>
      <trkpt lat="46.54235" lon="7.91096">
        <ele>1245.33</ele>
        <time>2022-09-21T06:32:37Z</time>
      </trkpt>
      <trkpt lat="46.54235" lon="7.91099">
        <ele>1246.59</ele>
        <time>2022-09-21T06:32:39Z</time>
      </trkpt>
      <trkpt lat="46.54235" lon="7.91101">
        <ele>1244.57</ele>
        <time>2022-09-21T06:32:41Z</time>
      </trkpt>
      <trkpt lat="46.54233" lon="7.91103">
        <ele>1247.45</ele>
        <time>2022-09-21T06:32:44Z</time>
      </trkpt>
      <trkpt lat="46.54232" lon="7.91103">
        <ele>1247.52</ele>
        <time>2022-09-21T06:32:45Z</time>
      </trkpt>
      <trkpt lat="46.5423" lon="7.91102">
        <ele>1248.49</ele>
        <time>2022-09-21T06:32:47Z</time>
      </trkpt>
      <trkpt lat="46.54227" lon="7.911">
        <ele>1250.02</ele>
        <time>2022-09-21T06:32:49Z</time>
      </trkpt>
      <trkpt lat="46.54225" lon="7.91099">
        <ele>1250.57</ele>
        <time>2022-09-21T06:32:51Z</time>
      </trkpt>
      <trkpt lat="46.54224" lon="7.91099">
        <ele>1251.66</ele>
        <time>2022-09-21T06:32:52Z</time>
      </trkpt>
      <trkpt lat="46.54223" lon="7.91098">
        <ele>1250.78</ele>
        <time>2022-09-21T06:32:53Z</time>
      </trkpt>
      <trkpt lat="46.54222" lon="7.91098">
        <ele>1251.33</ele>
        <time>2022-09-21T06:32:54Z</time>
      </trkpt>
      <trkpt lat="46.54221" lon="7.91098">
        <ele>1249.98</ele>
        <time>2022-09-21T06:32:55Z</time>
      </trkpt>
      <trkpt lat="46.54219" lon="7.91097">
        <ele>1250.02</ele>
        <time>2022-09-21T06:32:58Z</time>
      </trkpt>
      <trkpt lat="46.54217" lon="7.91097">
        <ele>1250.39</ele>
        <time>2022-09-21T06:33:00Z</time>
      </trkpt>
      <trkpt lat="46.54217" lon="7.91096">
        <ele>1252.01</ele>
        <time>2022-09-21T06:33:01Z</time>
      </trkpt>
      <trkpt lat="46.54215" lon="7.91096">
        <ele>1252.48</ele>
        <time>2022-09-21T06:33:03Z</time>
      </trkpt>
      <trkpt lat="46.54213" lon="7.91094">
        <ele>1253.78</ele>
        <time>2022-09-21T06:33:06Z</time>
      </trkpt>
      <trkpt lat="46.54212" lon="7.91093">
        <ele>1253.93</ele>
        <time>2022-09-21T06:33:08Z</time>
      </trkpt>
      <trkpt lat="46.54211" lon="7.91091">
        <ele>1253.81</ele>
        <time>2022-09-21T06:33:10Z</time>
      </trkpt>
      <trkpt lat="46.5421" lon="7.9109">
        <ele>1254.38</ele>
        <time>2022-09-21T06:33:12Z</time>
      </trkpt>
      <trkpt lat="46.54209" lon="7.91089">
        <ele>1254.48</ele>
        <time>2022-09-21T06:33:13Z</time>
      </trkpt>
      <trkpt lat="46.54208" lon="7.91089">
        <ele>1255.23</ele>
        <time>2022-09-21T06:33:14Z</time>
      </trkpt>
      <trkpt lat="46.54206" lon="7.91088">
        <ele>1256.64</ele>
        <time>2022-09-21T06:33:16Z</time>
      </trkpt>
      <trkpt lat="46.54205" lon="7.91088">
        <ele>1256.43</ele>
        <time>2022-09-21T06:33:18Z</time>
      </trkpt>
      <trkpt lat="46.54204" lon="7.91087">
        <ele>1256.01</ele>
        <time>2022-09-21T06:33:20Z</time>
      </trkpt>
      <trkpt lat="46.54202" lon="7.91087">
        <ele>1256.88</ele>
        <time>2022-09-21T06:33:22Z</time>
      </trkpt>
      <trkpt lat="46.54201" lon="7.91087">
        <ele>1253.46</ele>
        <time>2022-09-21T06:33:25Z</time>
      </trkpt>
      <trkpt lat="46.542" lon="7.91087">
        <ele>1252.88</ele>
        <time>2022-09-21T06:33:27Z</time>
      </trkpt>
      <trkpt lat="46.54198" lon="7.91087">
        <ele>1253.41</ele>
        <time>2022-09-21T06:33:29Z</time>
      </trkpt>
      <trkpt lat="46.54197" lon="7.91086">
        <ele>1253.16</ele>
        <time>2022-09-21T06:33:31Z</time>
      </trkpt>
      <trkpt lat="46.54196" lon="7.91086">
        <ele>1252.42</ele>
        <time>2022-09-21T06:33:33Z</time>
      </trkpt>
      <trkpt lat="46.54194" lon="7.91085">
        <ele>1252.73</ele>
        <time>2022-09-21T06:33:35Z</time>
      </trkpt>
      <trkpt lat="46.54193" lon="7.91084">
        <ele>1253.04</ele>
        <time>2022-09-21T06:33:37Z</time>
      </trkpt>
      <trkpt lat="46.54192" lon="7.91083">
        <ele>1253.13</ele>
        <time>2022-09-21T06:33:39Z</time>
      </trkpt>
      <trkpt lat="46.54191" lon="7.91082">
        <ele>1254.27</ele>
        <time>2022-09-21T06:33:41Z</time>
      </trkpt>
      <trkpt lat="46.5419" lon="7.91081">
        <ele>1254.69</ele>
        <time>2022-09-21T06:33:43Z</time>
      </trkpt>
      <trkpt lat="46.54189" lon="7.9108">
        <ele>1256.41</ele>
        <time>2022-09-21T06:33:45Z</time>
      </trkpt>
      <trkpt lat="46.54188" lon="7.9108">
        <ele>1254.87</ele>
        <time>2022-09-21T06:33:47Z</time>
      </trkpt>
      <trkpt lat="46.54186" lon="7.9108">
        <ele>1254.77</ele>
        <time>2022-09-21T06:33:49Z</time>
      </trkpt>
      <trkpt lat="46.54185" lon="7.91079">
        <ele>1256.93</ele>
        <time>2022-09-21T06:33:51Z</time>
      </trkpt>
      <trkpt lat="46.54184" lon="7.9108">
        <ele>1258.03</ele>
        <time>2022-09-21T06:33:53Z</time>
      </trkpt>
      <trkpt lat="46.54183" lon="7.91081">
        <ele>1257.94</ele>
        <time>2022-09-21T06:33:55Z</time>
      </trkpt>
      <trkpt lat="46.54182" lon="7.91081">
        <ele>1259.4</ele>
        <time>2022-09-21T06:33:57Z</time>
      </trkpt>
      <trkpt lat="46.54181" lon="7.91082">
        <ele>1258.11</ele>
        <time>2022-09-21T06:33:59Z</time>
      </trkpt>
      <trkpt lat="46.5418" lon="7.91083">
        <ele>1258.35</ele>
        <time>2022-09-21T06:34:01Z</time>
      </trkpt>
      <trkpt lat="46.54179" lon="7.91082">
        <ele>1259.21</ele>
        <time>2022-09-21T06:34:03Z</time>
      </trkpt>
      <trkpt lat="46.54178" lon="7.91083">
        <ele>1262.58</ele>
        <time>2022-09-21T06:34:06Z</time>
      </trkpt>
      <trkpt lat="46.54177" lon="7.91084">
        <ele>1262.83</ele>
        <time>2022-09-21T06:34:08Z</time>
      </trkpt>
      <trkpt lat="46.54176" lon="7.91084">
        <ele>1263.55</ele>
        <time>2022-09-21T06:34:09Z</time>
      </trkpt>
      <trkpt lat="46.54175" lon="7.91085">
        <ele>1262.91</ele>
        <time>2022-09-21T06:34:10Z</time>
      </trkpt>
      <trkpt lat="46.54173" lon="7.91085">
        <ele>1263.31</ele>
        <time>2022-09-21T06:34:11Z</time>
      </trkpt>
      <trkpt lat="46.54172" lon="7.91085">
        <ele>1264.15</ele>
        <time>2022-09-21T06:34:12Z</time>
      </trkpt>
      <trkpt lat="46.5417" lon="7.91086">
        <ele>1264.92</ele>
        <time>2022-09-21T06:34:13Z</time>
      </trkpt>
      <trkpt lat="46.54168" lon="7.91086">
        <ele>1265.73</ele>
        <time>2022-09-21T06:34:15Z</time>
      </trkpt>
      <trkpt lat="46.54167" lon="7.91085">
        <ele>1265.65</ele>
        <time>2022-09-21T06:34:16Z</time>
      </trkpt>
      <trkpt lat="46.54166" lon="7.91085">
        <ele>1265.57</ele>
        <time>2022-09-21T06:34:17Z</time>
      </trkpt>
      <trkpt lat="46.54164" lon="7.91085">
        <ele>1265.8</ele>
        <time>2022-09-21T06:34:18Z</time>
      </trkpt>
      <trkpt lat="46.54163" lon="7.91085">
        <ele>1266.73</ele>
        <time>2022-09-21T06:34:19Z</time>
      </trkpt>
      <trkpt lat="46.54162" lon="7.91084">
        <ele>1265.08</ele>
        <time>2022-09-21T06:34:21Z</time>
      </trkpt>
      <trkpt lat="46.54161" lon="7.91083">
        <ele>1264.43</ele>
        <time>2022-09-21T06:34:23Z</time>
      </trkpt>
      <trkpt lat="46.5416" lon="7.91083">
        <ele>1265.8</ele>
        <time>2022-09-21T06:34:25Z</time>
      </trkpt>
      <trkpt lat="46.54159" lon="7.91084">
        <ele>1265.5</ele>
        <time>2022-09-21T06:34:26Z</time>
      </trkpt>
      <trkpt lat="46.54158" lon="7.91085">
        <ele>1265.04</ele>
        <time>2022-09-21T06:34:27Z</time>
      </trkpt>
      <trkpt lat="46.54157" lon="7.91086">
        <ele>1264.77</ele>
        <time>2022-09-21T06:34:28Z</time>
      </trkpt>
      <trkpt lat="46.54156" lon="7.91088">
        <ele>1263.41</ele>
        <time>2022-09-21T06:34:29Z</time>
      </trkpt>
      <trkpt lat="46.54155" lon="7.91089">
        <ele>1262.71</ele>
        <time>2022-09-21T06:34:30Z</time>
      </trkpt>
      <trkpt lat="46.54154" lon="7.9109">
        <ele>1263.3</ele>
        <time>2022-09-21T06:34:31Z</time>
      </trkpt>
      <trkpt lat="46.54153" lon="7.9109">
        <ele>1264.97</ele>
        <time>2022-09-21T06:34:32Z</time>
      </trkpt>
      <trkpt lat="46.54151" lon="7.91091">
        <ele>1265.8</ele>
        <time>2022-09-21T06:34:33Z</time>
      </trkpt>
      <trkpt lat="46.5415" lon="7.91091">
        <ele>1266.22</ele>
        <time>2022-09-21T06:34:34Z</time>
      </trkpt>
      <trkpt lat="46.54149" lon="7.91092">
        <ele>1265.23</ele>
        <time>2022-09-21T06:34:35Z</time>
      </trkpt>
      <trkpt lat="46.54148" lon="7.91093">
        <ele>1264.36</ele>
        <time>2022-09-21T06:34:36Z</time>
      </trkpt>
      <trkpt lat="46.54147" lon="7.91094">
        <ele>1264.16</ele>
        <time>2022-09-21T06:34:37Z</time>
      </trkpt>
      <trkpt lat="46.54146" lon="7.91095">
        <ele>1263.83</ele>
        <time>2022-09-21T06:34:38Z</time>
      </trkpt>
      <trkpt lat="46.54144" lon="7.91096">
        <ele>1263.86</ele>
        <time>2022-09-21T06:34:39Z</time>
      </trkpt>
      <trkpt lat="46.54143" lon="7.91097">
        <ele>1264.15</ele>
        <time>2022-09-21T06:34:40Z</time>
      </trkpt>
      <trkpt lat="46.54142" lon="7.91097">
        <ele>1264.44</ele>
        <time>2022-09-21T06:34:41Z</time>
      </trkpt>
      <trkpt lat="46.54141" lon="7.91098">
        <ele>1265.07</ele>
        <time>2022-09-21T06:34:42Z</time>
      </trkpt>
      <trkpt lat="46.5414" lon="7.91099">
        <ele>1264.89</ele>
        <time>2022-09-21T06:34:43Z</time>
      </trkpt>
      <trkpt lat="46.54138" lon="7.91099">
        <ele>1264.96</ele>
        <time>2022-09-21T06:34:44Z</time>
      </trkpt>
      <trkpt lat="46.54137" lon="7.911">
        <ele>1264.99</ele>
        <time>2022-09-21T06:34:45Z</time>
      </trkpt>
      <trkpt lat="46.54135" lon="7.911">
        <ele>1264.69</ele>
        <time>2022-09-21T06:34:47Z</time>
      </trkpt>
      <trkpt lat="46.54134" lon="7.91099">
        <ele>1264.84</ele>
        <time>2022-09-21T06:34:48Z</time>
      </trkpt>
      <trkpt lat="46.54133" lon="7.91099">
        <ele>1265.73</ele>
        <time>2022-09-21T06:34:49Z</time>
      </trkpt>
      <trkpt lat="46.54132" lon="7.91098">
        <ele>1265.8</ele>
        <time>2022-09-21T06:34:50Z</time>
      </trkpt>
      <trkpt lat="46.54131" lon="7.91097">
        <ele>1266.06</ele>
        <time>2022-09-21T06:34:51Z</time>
      </trkpt>
      <trkpt lat="46.5413" lon="7.91096">
        <ele>1266.83</ele>
        <time>2022-09-21T06:34:52Z</time>
      </trkpt>
      <trkpt lat="46.54129" lon="7.91095">
        <ele>1266.71</ele>
        <time>2022-09-21T06:34:53Z</time>
      </trkpt>
      <trkpt lat="46.54127" lon="7.91095">
        <ele>1267.21</ele>
        <time>2022-09-21T06:34:54Z</time>
      </trkpt>
      <trkpt lat="46.54126" lon="7.91095">
        <ele>1267.59</ele>
        <time>2022-09-21T06:34:55Z</time>
      </trkpt>
      <trkpt lat="46.54125" lon="7.91094">
        <ele>1268.24</ele>
        <time>2022-09-21T06:34:56Z</time>
      </trkpt>
      <trkpt lat="46.54123" lon="7.91094">
        <ele>1268.76</ele>
        <time>2022-09-21T06:34:57Z</time>
      </trkpt>
      <trkpt lat="46.54122" lon="7.91094">
        <ele>1269.72</ele>
        <time>2022-09-21T06:34:58Z</time>
      </trkpt>
      <trkpt lat="46.5412" lon="7.91095">
        <ele>1269.53</ele>
        <time>2022-09-21T06:34:59Z</time>
      </trkpt>
      <trkpt lat="46.54119" lon="7.91095">
        <ele>1269.78</ele>
        <time>2022-09-21T06:35:00Z</time>
      </trkpt>
      <trkpt lat="46.54117" lon="7.91096">
        <ele>1270.1</ele>
        <time>2022-09-21T06:35:01Z</time>
      </trkpt>
      <trkpt lat="46.54117" lon="7.91096">
        <ele>1269.67</ele>
        <time>2022-09-21T06:35:02Z</time>
      </trkpt>
      <trkpt lat="46.54116" lon="7.91097">
        <ele>1269.6</ele>
        <time>2022-09-21T06:35:03Z</time>
      </trkpt>
      <trkpt lat="46.54115" lon="7.91098">
        <ele>1270.61</ele>
        <time>2022-09-21T06:35:04Z</time>
      </trkpt>
      <trkpt lat="46.54114" lon="7.91099">
        <ele>1271.06</ele>
        <time>2022-09-21T06:35:05Z</time>
      </trkpt>
      <trkpt lat="46.54113" lon="7.911">
        <ele>1271.9</ele>
        <time>2022-09-21T06:35:06Z</time>
      </trkpt>
      <trkpt lat="46.54112" lon="7.911">
        <ele>1272.77</ele>
        <time>2022-09-21T06:35:07Z</time>
      </trkpt>
      <trkpt lat="46.54111" lon="7.91101">
        <ele>1273.82</ele>
        <time>2022-09-21T06:35:08Z</time>
      </trkpt>
      <trkpt lat="46.5411" lon="7.91101">
        <ele>1273.94</ele>
        <time>2022-09-21T06:35:09Z</time>
      </trkpt>
      <trkpt lat="46.54108" lon="7.91101">
        <ele>1274.55</ele>
        <time>2022-09-21T06:35:10Z</time>
      </trkpt>
      <trkpt lat="46.54107" lon="7.91101">
        <ele>1275.26</ele>
        <time>2022-09-21T06:35:11Z</time>
      </trkpt>
      <trkpt lat="46.54106" lon="7.91102">
        <ele>1275.94</ele>
        <time>2022-09-21T06:35:12Z</time>
      </trkpt>
      <trkpt lat="46.54105" lon="7.91102">
        <ele>1276.11</ele>
        <time>2022-09-21T06:35:13Z</time>
      </trkpt>
      <trkpt lat="46.54104" lon="7.91103">
        <ele>1276.29</ele>
        <time>2022-09-21T06:35:14Z</time>
      </trkpt>
      <trkpt lat="46.54103" lon="7.91104">
        <ele>1277.39</ele>
        <time>2022-09-21T06:35:15Z</time>
      </trkpt>
      <trkpt lat="46.54102" lon="7.91106">
        <ele>1277.71</ele>
        <time>2022-09-21T06:35:17Z</time>
      </trkpt>
      <trkpt lat="46.54101" lon="7.91108">
        <ele>1278.6</ele>
        <time>2022-09-21T06:35:19Z</time>
      </trkpt>
      <trkpt lat="46.54101" lon="7.9111">
        <ele>1280.88</ele>
        <time>2022-09-21T06:35:21Z</time>
      </trkpt>
      <trkpt lat="46.541" lon="7.91112">
        <ele>1281.92</ele>
        <time>2022-09-21T06:35:23Z</time>
      </trkpt>
      <trkpt lat="46.54099" lon="7.91113">
        <ele>1282.74</ele>
        <time>2022-09-21T06:35:24Z</time>
      </trkpt>
      <trkpt lat="46.54098" lon="7.91113">
        <ele>1282.81</ele>
        <time>2022-09-21T06:35:25Z</time>
      </trkpt>
      <trkpt lat="46.54097" lon="7.91112">
        <ele>1283.56</ele>
        <time>2022-09-21T06:35:26Z</time>
      </trkpt>
      <trkpt lat="46.54096" lon="7.91112">
        <ele>1283.51</ele>
        <time>2022-09-21T06:35:27Z</time>
      </trkpt>
      <trkpt lat="46.54094" lon="7.91113">
        <ele>1284.34</ele>
        <time>2022-09-21T06:35:29Z</time>
      </trkpt>
      <trkpt lat="46.54093" lon="7.91113">
        <ele>1284.65</ele>
        <time>2022-09-21T06:35:30Z</time>
      </trkpt>
      <trkpt lat="46.54093" lon="7.91115">
        <ele>1284.6</ele>
        <time>2022-09-21T06:35:32Z</time>
      </trkpt>
      <trkpt lat="46.54093" lon="7.91116">
        <ele>1284.21</ele>
        <time>2022-09-21T06:35:33Z</time>
      </trkpt>
      <trkpt lat="46.54093" lon="7.91118">
        <ele>1284.44</ele>
        <time>2022-09-21T06:35:34Z</time>
      </trkpt>
      <trkpt lat="46.54093" lon="7.9112">
        <ele>1285.25</ele>
        <time>2022-09-21T06:35:36Z</time>
      </trkpt>
      <trkpt lat="46.54092" lon="7.91121">
        <ele>1285.16</ele>
        <time>2022-09-21T06:35:37Z</time>
      </trkpt>
      <trkpt lat="46.54091" lon="7.91121">
        <ele>1285.46</ele>
        <time>2022-09-21T06:35:39Z</time>
      </trkpt>
      <trkpt lat="46.54089" lon="7.91121">
        <ele>1285.5</ele>
        <time>2022-09-21T06:35:41Z</time>
      </trkpt>
      <trkpt lat="46.54088" lon="7.9112">
        <ele>1285.28</ele>
        <time>2022-09-21T06:35:42Z</time>
      </trkpt>
      <trkpt lat="46.54087" lon="7.9112">
        <ele>1285.21</ele>
        <time>2022-09-21T06:35:43Z</time>
      </trkpt>
      <trkpt lat="46.54085" lon="7.9112">
        <ele>1286.52</ele>
        <time>2022-09-21T06:35:44Z</time>
      </trkpt>
      <trkpt lat="46.54084" lon="7.9112">
        <ele>1286.87</ele>
        <time>2022-09-21T06:35:45Z</time>
      </trkpt>
      <trkpt lat="46.54083" lon="7.9112">
        <ele>1287.3</ele>
        <time>2022-09-21T06:35:46Z</time>
      </trkpt>
      <trkpt lat="46.54082" lon="7.9112">
        <ele>1287.41</ele>
        <time>2022-09-21T06:35:47Z</time>
      </trkpt>
      <trkpt lat="46.54081" lon="7.9112">
        <ele>1287.96</ele>
        <time>2022-09-21T06:35:48Z</time>
      </trkpt>
      <trkpt lat="46.5408" lon="7.91119">
        <ele>1288.05</ele>
        <time>2022-09-21T06:35:49Z</time>
      </trkpt>
      <trkpt lat="46.54079" lon="7.91118">
        <ele>1288.36</ele>
        <time>2022-09-21T06:35:50Z</time>
      </trkpt>
      <trkpt lat="46.54077" lon="7.91118">
        <ele>1288.84</ele>
        <time>2022-09-21T06:35:51Z</time>
      </trkpt>
      <trkpt lat="46.54076" lon="7.91118">
        <ele>1288.35</ele>
        <time>2022-09-21T06:35:52Z</time>
      </trkpt>
      <trkpt lat="46.54075" lon="7.91119">
        <ele>1288.19</ele>
        <time>2022-09-21T06:35:53Z</time>
      </trkpt>
      <trkpt lat="46.54074" lon="7.9112">
        <ele>1288.36</ele>
        <time>2022-09-21T06:35:55Z</time>
      </trkpt>
      <trkpt lat="46.54073" lon="7.9112">
        <ele>1288.9</ele>
        <time>2022-09-21T06:35:56Z</time>
      </trkpt>
      <trkpt lat="46.54072" lon="7.9112">
        <ele>1288.86</ele>
        <time>2022-09-21T06:35:57Z</time>
      </trkpt>
      <trkpt lat="46.54071" lon="7.91121">
        <ele>1289.17</ele>
        <time>2022-09-21T06:35:58Z</time>
      </trkpt>
      <trkpt lat="46.5407" lon="7.91122">
        <ele>1289.47</ele>
        <time>2022-09-21T06:35:59Z</time>
      </trkpt>
      <trkpt lat="46.54069" lon="7.91122">
        <ele>1291.55</ele>
        <time>2022-09-21T06:36:00Z</time>
      </trkpt>
      <trkpt lat="46.54068" lon="7.91123">
        <ele>1291.18</ele>
        <time>2022-09-21T06:36:02Z</time>
      </trkpt>
      <trkpt lat="46.54067" lon="7.91124">
        <ele>1292.03</ele>
        <time>2022-09-21T06:36:03Z</time>
      </trkpt>
      <trkpt lat="46.54067" lon="7.91123">
        <ele>1292.46</ele>
        <time>2022-09-21T06:36:04Z</time>
      </trkpt>
      <trkpt lat="46.54065" lon="7.91123">
        <ele>1293.16</ele>
        <time>2022-09-21T06:36:05Z</time>
      </trkpt>
      <trkpt lat="46.54064" lon="7.91123">
        <ele>1293.03</ele>
        <time>2022-09-21T06:36:06Z</time>
      </trkpt>
      <trkpt lat="46.54063" lon="7.91122">
        <ele>1293.39</ele>
        <time>2022-09-21T06:36:07Z</time>
      </trkpt>
      <trkpt lat="46.54062" lon="7.91121">
        <ele>1293.83</ele>
        <time>2022-09-21T06:36:08Z</time>
      </trkpt>
      <trkpt lat="46.54061" lon="7.91122">
        <ele>1293.7</ele>
        <time>2022-09-21T06:36:09Z</time>
      </trkpt>
      <trkpt lat="46.5406" lon="7.91122">
        <ele>1294.54</ele>
        <time>2022-09-21T06:36:11Z</time>
      </trkpt>
      <trkpt lat="46.54058" lon="7.91123">
        <ele>1294.63</ele>
        <time>2022-09-21T06:36:13Z</time>
      </trkpt>
      <trkpt lat="46.54057" lon="7.91123">
        <ele>1295.63</ele>
        <time>2022-09-21T06:36:14Z</time>
      </trkpt>
      <trkpt lat="46.54056" lon="7.91123">
        <ele>1295.5</ele>
        <time>2022-09-21T06:36:15Z</time>
      </trkpt>
      <trkpt lat="46.54055" lon="7.91124">
        <ele>1294.49</ele>
        <time>2022-09-21T06:36:16Z</time>
      </trkpt>
      <trkpt lat="46.54054" lon="7.91125">
        <ele>1293.99</ele>
        <time>2022-09-21T06:36:18Z</time>
      </trkpt>
      <trkpt lat="46.54053" lon="7.91126">
        <ele>1293.72</ele>
        <time>2022-09-21T06:36:19Z</time>
      </trkpt>
      <trkpt lat="46.54052" lon="7.91127">
        <ele>1293.91</ele>
        <time>2022-09-21T06:36:20Z</time>
      </trkpt>
      <trkpt lat="46.54051" lon="7.91128">
        <ele>1294.4</ele>
        <time>2022-09-21T06:36:21Z</time>
      </trkpt>
      <trkpt lat="46.5405" lon="7.91129">
        <ele>1294.63</ele>
        <time>2022-09-21T06:36:22Z</time>
      </trkpt>
      <trkpt lat="46.54049" lon="7.9113">
        <ele>1294.86</ele>
        <time>2022-09-21T06:36:23Z</time>
      </trkpt>
      <trkpt lat="46.54048" lon="7.91131">
        <ele>1295.08</ele>
        <time>2022-09-21T06:36:24Z</time>
      </trkpt>
      <trkpt lat="46.54046" lon="7.91131">
        <ele>1294.2</ele>
        <time>2022-09-21T06:36:25Z</time>
      </trkpt>
      <trkpt lat="46.54045" lon="7.91132">
        <ele>1293.82</ele>
        <time>2022-09-21T06:36:26Z</time>
      </trkpt>
      <trkpt lat="46.54044" lon="7.91132">
        <ele>1294.08</ele>
        <time>2022-09-21T06:36:27Z</time>
      </trkpt>
      <trkpt lat="46.54042" lon="7.91132">
        <ele>1294.22</ele>
        <time>2022-09-21T06:36:28Z</time>
      </trkpt>
      <trkpt lat="46.54041" lon="7.91132">
        <ele>1294.75</ele>
        <time>2022-09-21T06:36:29Z</time>
      </trkpt>
      <trkpt lat="46.54041" lon="7.91133">
        <ele>1294.73</ele>
        <time>2022-09-21T06:36:30Z</time>
      </trkpt>
      <trkpt lat="46.54039" lon="7.91134">
        <ele>1294.12</ele>
        <time>2022-09-21T06:36:32Z</time>
      </trkpt>
      <trkpt lat="46.54039" lon="7.91136">
        <ele>1294.28</ele>
        <time>2022-09-21T06:36:33Z</time>
      </trkpt>
      <trkpt lat="46.54039" lon="7.91138">
        <ele>1293.75</ele>
        <time>2022-09-21T06:36:34Z</time>
      </trkpt>
      <trkpt lat="46.54038" lon="7.91139">
        <ele>1294.84</ele>
        <time>2022-09-21T06:36:35Z</time>
      </trkpt>
      <trkpt lat="46.54038" lon="7.9114">
        <ele>1295.43</ele>
        <time>2022-09-21T06:36:36Z</time>
      </trkpt>
      <trkpt lat="46.54038" lon="7.91142">
        <ele>1295.04</ele>
        <time>2022-09-21T06:36:37Z</time>
      </trkpt>
      <trkpt lat="46.54037" lon="7.91143">
        <ele>1294.99</ele>
        <time>2022-09-21T06:36:38Z</time>
      </trkpt>
      <trkpt lat="46.54037" lon="7.91144">
        <ele>1295.59</ele>
        <time>2022-09-21T06:36:39Z</time>
      </trkpt>
      <trkpt lat="46.54036" lon="7.91144">
        <ele>1295.06</ele>
        <time>2022-09-21T06:36:40Z</time>
      </trkpt>
      <trkpt lat="46.54034" lon="7.91144">
        <ele>1296.47</ele>
        <time>2022-09-21T06:36:41Z</time>
      </trkpt>
      <trkpt lat="46.54033" lon="7.91143">
        <ele>1296.12</ele>
        <time>2022-09-21T06:36:42Z</time>
      </trkpt>
      <trkpt lat="46.54032" lon="7.91143">
        <ele>1296.9</ele>
        <time>2022-09-21T06:36:43Z</time>
      </trkpt>
      <trkpt lat="46.54031" lon="7.91143">
        <ele>1296.17</ele>
        <time>2022-09-21T06:36:44Z</time>
      </trkpt>
      <trkpt lat="46.5403" lon="7.91142">
        <ele>1296.63</ele>
        <time>2022-09-21T06:36:45Z</time>
      </trkpt>
      <trkpt lat="46.54028" lon="7.91142">
        <ele>1296.55</ele>
        <time>2022-09-21T06:36:46Z</time>
      </trkpt>
      <trkpt lat="46.54027" lon="7.91142">
        <ele>1297.39</ele>
        <time>2022-09-21T06:36:47Z</time>
      </trkpt>
      <trkpt lat="46.54026" lon="7.91142">
        <ele>1298.54</ele>
        <time>2022-09-21T06:36:48Z</time>
      </trkpt>
      <trkpt lat="46.54025" lon="7.91141">
        <ele>1299.76</ele>
        <time>2022-09-21T06:36:49Z</time>
      </trkpt>
      <trkpt lat="46.54024" lon="7.9114">
        <ele>1300.55</ele>
        <time>2022-09-21T06:36:50Z</time>
      </trkpt>
      <trkpt lat="46.54023" lon="7.9114">
        <ele>1300.38</ele>
        <time>2022-09-21T06:36:51Z</time>
      </trkpt>
      <trkpt lat="46.54022" lon="7.9114">
        <ele>1300.38</ele>
        <time>2022-09-21T06:36:52Z</time>
      </trkpt>
      <trkpt lat="46.54021" lon="7.91141">
        <ele>1300.47</ele>
        <time>2022-09-21T06:36:53Z</time>
      </trkpt>
      <trkpt lat="46.5402" lon="7.91141">
        <ele>1299.32</ele>
        <time>2022-09-21T06:36:54Z</time>
      </trkpt>
      <trkpt lat="46.54019" lon="7.9114">
        <ele>1298.65</ele>
        <time>2022-09-21T06:36:55Z</time>
      </trkpt>
      <trkpt lat="46.54018" lon="7.9114">
        <ele>1296.61</ele>
        <time>2022-09-21T06:36:56Z</time>
      </trkpt>
      <trkpt lat="46.54017" lon="7.91138">
        <ele>1298.8</ele>
        <time>2022-09-21T06:36:57Z</time>
      </trkpt>
      <trkpt lat="46.54017" lon="7.91137">
        <ele>1299.68</ele>
        <time>2022-09-21T06:36:58Z</time>
      </trkpt>
      <trkpt lat="46.54016" lon="7.91136">
        <ele>1300.71</ele>
        <time>2022-09-21T06:36:59Z</time>
      </trkpt>
      <trkpt lat="46.54014" lon="7.91136">
        <ele>1301.49</ele>
        <time>2022-09-21T06:37:00Z</time>
      </trkpt>
      <trkpt lat="46.54013" lon="7.91136">
        <ele>1302.53</ele>
        <time>2022-09-21T06:37:01Z</time>
      </trkpt>
      <trkpt lat="46.54012" lon="7.91135">
        <ele>1304.38</ele>
        <time>2022-09-21T06:37:02Z</time>
      </trkpt>
      <trkpt lat="46.54011" lon="7.91135">
        <ele>1305.28</ele>
        <time>2022-09-21T06:37:03Z</time>
      </trkpt>
      <trkpt lat="46.5401" lon="7.91134">
        <ele>1305.24</ele>
        <time>2022-09-21T06:37:04Z</time>
      </trkpt>
      <trkpt lat="46.54009" lon="7.91134">
        <ele>1305.12</ele>
        <time>2022-09-21T06:37:05Z</time>
      </trkpt>
      <trkpt lat="46.54008" lon="7.91134">
        <ele>1305.48</ele>
        <time>2022-09-21T06:37:06Z</time>
      </trkpt>
      <trkpt lat="46.54007" lon="7.91134">
        <ele>1304.48</ele>
        <time>2022-09-21T06:37:07Z</time>
      </trkpt>
      <trkpt lat="46.54007" lon="7.91137">
        <ele>1305.19</ele>
        <time>2022-09-21T06:37:09Z</time>
      </trkpt>
      <trkpt lat="46.54006" lon="7.91138">
        <ele>1305.55</ele>
        <time>2022-09-21T06:37:11Z</time>
      </trkpt>
      <trkpt lat="46.54005" lon="7.9114">
        <ele>1305.28</ele>
        <time>2022-09-21T06:37:13Z</time>
      </trkpt>
      <trkpt lat="46.54004" lon="7.91141">
        <ele>1304.75</ele>
        <time>2022-09-21T06:37:15Z</time>
      </trkpt>
      <trkpt lat="46.54003" lon="7.91142">
        <ele>1306.3</ele>
        <time>2022-09-21T06:37:17Z</time>
      </trkpt>
      <trkpt lat="46.54002" lon="7.91142">
        <ele>1306.31</ele>
        <time>2022-09-21T06:37:20Z</time>
      </trkpt>
      <trkpt lat="46.54" lon="7.91141">
        <ele>1307.94</ele>
        <time>2022-09-21T06:37:22Z</time>
      </trkpt>
      <trkpt lat="46.54" lon="7.91143">
        <ele>1306.23</ele>
        <time>2022-09-21T06:37:25Z</time>
      </trkpt>
      <trkpt lat="46.53999" lon="7.91143">
        <ele>1306.96</ele>
        <time>2022-09-21T06:37:28Z</time>
      </trkpt>
      <trkpt lat="46.53998" lon="7.91141">
        <ele>1306.28</ele>
        <time>2022-09-21T06:37:30Z</time>
      </trkpt>
      <trkpt lat="46.53997" lon="7.9114">
        <ele>1306.06</ele>
        <time>2022-09-21T06:37:31Z</time>
      </trkpt>
      <trkpt lat="46.53996" lon="7.9114">
        <ele>1305.28</ele>
        <time>2022-09-21T06:37:33Z</time>
      </trkpt>
      <trkpt lat="46.53995" lon="7.9114">
        <ele>1305.68</ele>
        <time>2022-09-21T06:37:35Z</time>
      </trkpt>
      <trkpt lat="46.53993" lon="7.91141">
        <ele>1306.45</ele>
        <time>2022-09-21T06:37:37Z</time>
      </trkpt>
      <trkpt lat="46.53992" lon="7.91141">
        <ele>1306.29</ele>
        <time>2022-09-21T06:37:38Z</time>
      </trkpt>
      <trkpt lat="46.53991" lon="7.9114">
        <ele>1307.16</ele>
        <time>2022-09-21T06:37:39Z</time>
      </trkpt>
      <trkpt lat="46.5399" lon="7.9114">
        <ele>1307.08</ele>
        <time>2022-09-21T06:37:40Z</time>
      </trkpt>
      <trkpt lat="46.53989" lon="7.91139">
        <ele>1307.35</ele>
        <time>2022-09-21T06:37:41Z</time>
      </trkpt>
      <trkpt lat="46.53988" lon="7.91138">
        <ele>1307.71</ele>
        <time>2022-09-21T06:37:42Z</time>
      </trkpt>
      <trkpt lat="46.53987" lon="7.91137">
        <ele>1309.23</ele>
        <time>2022-09-21T06:37:44Z</time>
      </trkpt>
      <trkpt lat="46.53986" lon="7.91138">
        <ele>1308.86</ele>
        <time>2022-09-21T06:37:46Z</time>
      </trkpt>
      <trkpt lat="46.53985" lon="7.9114">
        <ele>1308.51</ele>
        <time>2022-09-21T06:37:48Z</time>
      </trkpt>
      <trkpt lat="46.53985" lon="7.91142">
        <ele>1307.93</ele>
        <time>2022-09-21T06:38:04Z</time>
      </trkpt>
      <trkpt lat="46.53985" lon="7.91143">
        <ele>1308.33</ele>
        <time>2022-09-21T06:38:06Z</time>
      </trkpt>
      <trkpt lat="46.53985" lon="7.91144">
        <ele>1307.64</ele>
        <time>2022-09-21T06:38:11Z</time>
      </trkpt>
      <trkpt lat="46.53984" lon="7.91145">
        <ele>1307.6</ele>
        <time>2022-09-21T06:38:14Z</time>
      </trkpt>
      <trkpt lat="46.53985" lon="7.91145">
        <ele>1308.76</ele>
        <time>2022-09-21T06:38:18Z</time>
      </trkpt>
      <trkpt lat="46.53984" lon="7.91146">
        <ele>1309.43</ele>
        <time>2022-09-21T06:38:30Z</time>
      </trkpt>
      <trkpt lat="46.53983" lon="7.91147">
        <ele>1310.45</ele>
        <time>2022-09-21T06:38:33Z</time>
      </trkpt>
      <trkpt lat="46.53981" lon="7.91147">
        <ele>1311.61</ele>
        <time>2022-09-21T06:38:35Z</time>
      </trkpt>
      <trkpt lat="46.5398" lon="7.91148">
        <ele>1313.25</ele>
        <time>2022-09-21T06:38:37Z</time>
      </trkpt>
      <trkpt lat="46.53979" lon="7.91148">
        <ele>1313.68</ele>
        <time>2022-09-21T06:38:39Z</time>
      </trkpt>
      <trkpt lat="46.53978" lon="7.91148">
        <ele>1314.33</ele>
        <time>2022-09-21T06:38:40Z</time>
      </trkpt>
      <trkpt lat="46.53977" lon="7.91147">
        <ele>1314.45</ele>
        <time>2022-09-21T06:38:41Z</time>
      </trkpt>
      <trkpt lat="46.53976" lon="7.91147">
        <ele>1315.07</ele>
        <time>2022-09-21T06:38:42Z</time>
      </trkpt>
      <trkpt lat="46.53975" lon="7.91146">
        <ele>1314.62</ele>
        <time>2022-09-21T06:38:44Z</time>
      </trkpt>
      <trkpt lat="46.53973" lon="7.91146">
        <ele>1315.17</ele>
        <time>2022-09-21T06:38:46Z</time>
      </trkpt>
      <trkpt lat="46.53972" lon="7.91146">
        <ele>1315.03</ele>
        <time>2022-09-21T06:38:50Z</time>
      </trkpt>
      <trkpt lat="46.53971" lon="7.91146">
        <ele>1314.95</ele>
        <time>2022-09-21T06:38:52Z</time>
      </trkpt>
      <trkpt lat="46.5397" lon="7.91146">
        <ele>1315.15</ele>
        <time>2022-09-21T06:38:55Z</time>
      </trkpt>
      <trkpt lat="46.53969" lon="7.91147">
        <ele>1316.13</ele>
        <time>2022-09-21T06:38:58Z</time>
      </trkpt>
      <trkpt lat="46.53968" lon="7.91148">
        <ele>1315.94</ele>
        <time>2022-09-21T06:39:00Z</time>
      </trkpt>
      <trkpt lat="46.53967" lon="7.91149">
        <ele>1316.29</ele>
        <time>2022-09-21T06:39:03Z</time>
      </trkpt>
      <trkpt lat="46.53966" lon="7.9115">
        <ele>1316.45</ele>
        <time>2022-09-21T06:39:05Z</time>
      </trkpt>
      <trkpt lat="46.53965" lon="7.91152">
        <ele>1317.63</ele>
        <time>2022-09-21T06:39:07Z</time>
      </trkpt>
      <trkpt lat="46.53965" lon="7.91154">
        <ele>1317.25</ele>
        <time>2022-09-21T06:39:09Z</time>
      </trkpt>
      <trkpt lat="46.53965" lon="7.91156">
        <ele>1317.01</ele>
        <time>2022-09-21T06:39:11Z</time>
      </trkpt>
      <trkpt lat="46.53964" lon="7.91158">
        <ele>1317.61</ele>
        <time>2022-09-21T06:39:13Z</time>
      </trkpt>
      <trkpt lat="46.53964" lon="7.91161">
        <ele>1317.57</ele>
        <time>2022-09-21T06:39:15Z</time>
      </trkpt>
      <trkpt lat="46.53964" lon="7.91163">
        <ele>1318.28</ele>
        <time>2022-09-21T06:39:17Z</time>
      </trkpt>
      <trkpt lat="46.53963" lon="7.91164">
        <ele>1317.71</ele>
        <time>2022-09-21T06:39:18Z</time>
      </trkpt>
      <trkpt lat="46.53962" lon="7.91165">
        <ele>1318.12</ele>
        <time>2022-09-21T06:39:19Z</time>
      </trkpt>
      <trkpt lat="46.53962" lon="7.91166">
        <ele>1318.16</ele>
        <time>2022-09-21T06:39:20Z</time>
      </trkpt>
      <trkpt lat="46.53961" lon="7.91167">
        <ele>1318.27</ele>
        <time>2022-09-21T06:39:21Z</time>
      </trkpt>
      <trkpt lat="46.5396" lon="7.91168">
        <ele>1318.14</ele>
        <time>2022-09-21T06:39:22Z</time>
      </trkpt>
      <trkpt lat="46.5396" lon="7.91169">
        <ele>1318.28</ele>
        <time>2022-09-21T06:39:23Z</time>
      </trkpt>
      <trkpt lat="46.5396" lon="7.91171">
        <ele>1318.58</ele>
        <time>2022-09-21T06:39:24Z</time>
      </trkpt>
      <trkpt lat="46.53959" lon="7.91174">
        <ele>1317.62</ele>
        <time>2022-09-21T06:39:27Z</time>
      </trkpt>
      <trkpt lat="46.53959" lon="7.91176">
        <ele>1318.65</ele>
        <time>2022-09-21T06:39:28Z</time>
      </trkpt>
      <trkpt lat="46.53959" lon="7.91178">
        <ele>1318.58</ele>
        <time>2022-09-21T06:39:30Z</time>
      </trkpt>
      <trkpt lat="46.53958" lon="7.91179">
        <ele>1319.56</ele>
        <time>2022-09-21T06:39:32Z</time>
      </trkpt>
      <trkpt lat="46.53958" lon="7.91181">
        <ele>1323.09</ele>
        <time>2022-09-21T06:39:35Z</time>
      </trkpt>
      <trkpt lat="46.53957" lon="7.91182">
        <ele>1324.57</ele>
        <time>2022-09-21T06:39:37Z</time>
      </trkpt>
      <trkpt lat="46.53956" lon="7.91184">
        <ele>1325.55</ele>
        <time>2022-09-21T06:39:39Z</time>
      </trkpt>
      <trkpt lat="46.53955" lon="7.91185">
        <ele>1325.25</ele>
        <time>2022-09-21T06:39:40Z</time>
      </trkpt>
      <trkpt lat="46.53955" lon="7.91186">
        <ele>1324.97</ele>
        <time>2022-09-21T06:39:41Z</time>
      </trkpt>
      <trkpt lat="46.53955" lon="7.91188">
        <ele>1324.37</ele>
        <time>2022-09-21T06:39:42Z</time>
      </trkpt>
      <trkpt lat="46.53955" lon="7.91189">
        <ele>1323.72</ele>
        <time>2022-09-21T06:39:43Z</time>
      </trkpt>
      <trkpt lat="46.53956" lon="7.9119">
        <ele>1323.99</ele>
        <time>2022-09-21T06:39:44Z</time>
      </trkpt>
      <trkpt lat="46.53956" lon="7.91192">
        <ele>1324.08</ele>
        <time>2022-09-21T06:39:45Z</time>
      </trkpt>
      <trkpt lat="46.53957" lon="7.91193">
        <ele>1324.16</ele>
        <time>2022-09-21T06:39:46Z</time>
      </trkpt>
      <trkpt lat="46.53957" lon="7.91195">
        <ele>1324.12</ele>
        <time>2022-09-21T06:39:47Z</time>
      </trkpt>
      <trkpt lat="46.53957" lon="7.91197">
        <ele>1322.19</ele>
        <time>2022-09-21T06:39:48Z</time>
      </trkpt>
      <trkpt lat="46.53958" lon="7.91199">
        <ele>1322.9</ele>
        <time>2022-09-21T06:39:50Z</time>
      </trkpt>
      <trkpt lat="46.53958" lon="7.912">
        <ele>1322.06</ele>
        <time>2022-09-21T06:39:52Z</time>
      </trkpt>
      <trkpt lat="46.53959" lon="7.91202">
        <ele>1322.32</ele>
        <time>2022-09-21T06:39:54Z</time>
      </trkpt>
      <trkpt lat="46.5396" lon="7.91202">
        <ele>1323.6</ele>
        <time>2022-09-21T06:39:57Z</time>
      </trkpt>
      <trkpt lat="46.5396" lon="7.91204">
        <ele>1323.96</ele>
        <time>2022-09-21T06:40:00Z</time>
      </trkpt>
      <trkpt lat="46.5396" lon="7.91206">
        <ele>1325.47</ele>
        <time>2022-09-21T06:40:02Z</time>
      </trkpt>
      <trkpt lat="46.5396" lon="7.91208">
        <ele>1326.63</ele>
        <time>2022-09-21T06:40:04Z</time>
      </trkpt>
      <trkpt lat="46.53961" lon="7.91209">
        <ele>1325.95</ele>
        <time>2022-09-21T06:40:06Z</time>
      </trkpt>
      <trkpt lat="46.53961" lon="7.91211">
        <ele>1328.83</ele>
        <time>2022-09-21T06:40:09Z</time>
      </trkpt>
      <trkpt lat="46.5396" lon="7.91213">
        <ele>1331</ele>
        <time>2022-09-21T06:40:11Z</time>
      </trkpt>
      <trkpt lat="46.53959" lon="7.91214">
        <ele>1331.11</ele>
        <time>2022-09-21T06:40:13Z</time>
      </trkpt>
      <trkpt lat="46.53958" lon="7.91215">
        <ele>1331.58</ele>
        <time>2022-09-21T06:40:14Z</time>
      </trkpt>
      <trkpt lat="46.53957" lon="7.91216">
        <ele>1332.53</ele>
        <time>2022-09-21T06:40:15Z</time>
      </trkpt>
      <trkpt lat="46.53956" lon="7.91216">
        <ele>1332.15</ele>
        <time>2022-09-21T06:40:16Z</time>
      </trkpt>
      <trkpt lat="46.53955" lon="7.91217">
        <ele>1332.58</ele>
        <time>2022-09-21T06:40:17Z</time>
      </trkpt>
      <trkpt lat="46.53954" lon="7.91218">
        <ele>1333.08</ele>
        <time>2022-09-21T06:40:18Z</time>
      </trkpt>
      <trkpt lat="46.53953" lon="7.91218">
        <ele>1332.82</ele>
        <time>2022-09-21T06:40:19Z</time>
      </trkpt>
      <trkpt lat="46.53952" lon="7.9122">
        <ele>1330.86</ele>
        <time>2022-09-21T06:40:21Z</time>
      </trkpt>
      <trkpt lat="46.53952" lon="7.91222">
        <ele>1332.1</ele>
        <time>2022-09-21T06:40:23Z</time>
      </trkpt>
      <trkpt lat="46.53951" lon="7.91224">
        <ele>1333.08</ele>
        <time>2022-09-21T06:40:25Z</time>
      </trkpt>
      <trkpt lat="46.53951" lon="7.91226">
        <ele>1334.97</ele>
        <time>2022-09-21T06:40:27Z</time>
      </trkpt>
      <trkpt lat="46.5395" lon="7.91227">
        <ele>1335.75</ele>
        <time>2022-09-21T06:40:29Z</time>
      </trkpt>
      <trkpt lat="46.53949" lon="7.91227">
        <ele>1335.69</ele>
        <time>2022-09-21T06:40:31Z</time>
      </trkpt>
      <trkpt lat="46.53949" lon="7.91229">
        <ele>1336.1</ele>
        <time>2022-09-21T06:40:35Z</time>
      </trkpt>
      <trkpt lat="46.53949" lon="7.91231">
        <ele>1336.24</ele>
        <time>2022-09-21T06:40:37Z</time>
      </trkpt>
      <trkpt lat="46.53949" lon="7.91233">
        <ele>1336.49</ele>
        <time>2022-09-21T06:40:38Z</time>
      </trkpt>
      <trkpt lat="46.5395" lon="7.91235">
        <ele>1337.54</ele>
        <time>2022-09-21T06:40:39Z</time>
      </trkpt>
      <trkpt lat="46.53949" lon="7.91236">
        <ele>1337.57</ele>
        <time>2022-09-21T06:40:41Z</time>
      </trkpt>
      <trkpt lat="46.53948" lon="7.91236">
        <ele>1338.44</ele>
        <time>2022-09-21T06:40:42Z</time>
      </trkpt>
      <trkpt lat="46.53947" lon="7.91236">
        <ele>1337.72</ele>
        <time>2022-09-21T06:40:44Z</time>
      </trkpt>
      <trkpt lat="46.53946" lon="7.91235">
        <ele>1338.55</ele>
        <time>2022-09-21T06:40:45Z</time>
      </trkpt>
      <trkpt lat="46.53944" lon="7.91235">
        <ele>1338.93</ele>
        <time>2022-09-21T06:40:46Z</time>
      </trkpt>
      <trkpt lat="46.53943" lon="7.91235">
        <ele>1338.81</ele>
        <time>2022-09-21T06:40:47Z</time>
      </trkpt>
      <trkpt lat="46.53941" lon="7.91234">
        <ele>1338.78</ele>
        <time>2022-09-21T06:40:49Z</time>
      </trkpt>
      <trkpt lat="46.5394" lon="7.91234">
        <ele>1341.95</ele>
        <time>2022-09-21T06:40:52Z</time>
      </trkpt>
      <trkpt lat="46.53939" lon="7.91234">
        <ele>1341.93</ele>
        <time>2022-09-21T06:40:53Z</time>
      </trkpt>
      <trkpt lat="46.53938" lon="7.91235">
        <ele>1341.75</ele>
        <time>2022-09-21T06:40:54Z</time>
      </trkpt>
      <trkpt lat="46.53936" lon="7.91236">
        <ele>1341.66</ele>
        <time>2022-09-21T06:40:55Z</time>
      </trkpt>
      <trkpt lat="46.53925" lon="7.91238">
        <ele>1347.66</ele>
        <time>2022-09-21T06:41:03Z</time>
      </trkpt>
      <trkpt lat="46.53924" lon="7.91239">
        <ele>1348.94</ele>
        <time>2022-09-21T06:41:05Z</time>
      </trkpt>
      <trkpt lat="46.53924" lon="7.9124">
        <ele>1347.73</ele>
        <time>2022-09-21T06:41:07Z</time>
      </trkpt>
      <trkpt lat="46.53923" lon="7.9124">
        <ele>1347.93</ele>
        <time>2022-09-21T06:41:09Z</time>
      </trkpt>
      <trkpt lat="46.53924" lon="7.91249">
        <ele>1349.64</ele>
        <time>2022-09-21T06:41:15Z</time>
      </trkpt>
      <trkpt lat="46.53924" lon="7.9125">
        <ele>1349.44</ele>
        <time>2022-09-21T06:41:16Z</time>
      </trkpt>
      <trkpt lat="46.53924" lon="7.91252">
        <ele>1350.61</ele>
        <time>2022-09-21T06:41:17Z</time>
      </trkpt>
      <trkpt lat="46.53925" lon="7.91253">
        <ele>1352.16</ele>
        <time>2022-09-21T06:41:18Z</time>
      </trkpt>
      <trkpt lat="46.53935" lon="7.91264">
        <ele>1352.73</ele>
        <time>2022-09-21T06:41:25Z</time>
      </trkpt>
      <trkpt lat="46.53935" lon="7.91265">
        <ele>1351.67</ele>
        <time>2022-09-21T06:41:27Z</time>
      </trkpt>
      <trkpt lat="46.53937" lon="7.91267">
        <ele>1350.04</ele>
        <time>2022-09-21T06:41:29Z</time>
      </trkpt>
      <trkpt lat="46.5394" lon="7.91267">
        <ele>1349.06</ele>
        <time>2022-09-21T06:41:30Z</time>
      </trkpt>
      <trkpt lat="46.53941" lon="7.91268">
        <ele>1348.83</ele>
        <time>2022-09-21T06:41:31Z</time>
      </trkpt>
      <trkpt lat="46.5394" lon="7.91267">
        <ele>1347.64</ele>
        <time>2022-09-21T06:41:35Z</time>
      </trkpt>
      <trkpt lat="46.53939" lon="7.91267">
        <ele>1347.72</ele>
        <time>2022-09-21T06:41:37Z</time>
      </trkpt>
      <trkpt lat="46.53938" lon="7.91268">
        <ele>1347.7</ele>
        <time>2022-09-21T06:41:39Z</time>
      </trkpt>
      <trkpt lat="46.53938" lon="7.9127">
        <ele>1347.07</ele>
        <time>2022-09-21T06:41:40Z</time>
      </trkpt>
      <trkpt lat="46.53938" lon="7.91271">
        <ele>1347.28</ele>
        <time>2022-09-21T06:41:41Z</time>
      </trkpt>
      <trkpt lat="46.53938" lon="7.91273">
        <ele>1347.94</ele>
        <time>2022-09-21T06:41:42Z</time>
      </trkpt>
      <trkpt lat="46.53938" lon="7.91274">
        <ele>1347.7</ele>
        <time>2022-09-21T06:41:43Z</time>
      </trkpt>
      <trkpt lat="46.53938" lon="7.91276">
        <ele>1349.17</ele>
        <time>2022-09-21T06:41:44Z</time>
      </trkpt>
      <trkpt lat="46.53939" lon="7.91277">
        <ele>1348.35</ele>
        <time>2022-09-21T06:41:45Z</time>
      </trkpt>
      <trkpt lat="46.53939" lon="7.91279">
        <ele>1348.66</ele>
        <time>2022-09-21T06:41:46Z</time>
      </trkpt>
      <trkpt lat="46.53939" lon="7.9128">
        <ele>1349.41</ele>
        <time>2022-09-21T06:41:47Z</time>
      </trkpt>
      <trkpt lat="46.53939" lon="7.91282">
        <ele>1350.37</ele>
        <time>2022-09-21T06:41:48Z</time>
      </trkpt>
      <trkpt lat="46.53939" lon="7.91284">
        <ele>1349.8</ele>
        <time>2022-09-21T06:41:49Z</time>
      </trkpt>
      <trkpt lat="46.53939" lon="7.91285">
        <ele>1350.33</ele>
        <time>2022-09-21T06:41:50Z</time>
      </trkpt>
      <trkpt lat="46.53938" lon="7.91286">
        <ele>1350.32</ele>
        <time>2022-09-21T06:41:51Z</time>
      </trkpt>
      <trkpt lat="46.53936" lon="7.91286">
        <ele>1351.34</ele>
        <time>2022-09-21T06:41:52Z</time>
      </trkpt>
      <trkpt lat="46.53935" lon="7.91286">
        <ele>1351.52</ele>
        <time>2022-09-21T06:41:53Z</time>
      </trkpt>
      <trkpt lat="46.53934" lon="7.91287">
        <ele>1351.69</ele>
        <time>2022-09-21T06:41:54Z</time>
      </trkpt>
      <trkpt lat="46.53933" lon="7.91287">
        <ele>1350.86</ele>
        <time>2022-09-21T06:41:55Z</time>
      </trkpt>
      <trkpt lat="46.53932" lon="7.91287">
        <ele>1352.45</ele>
        <time>2022-09-21T06:41:56Z</time>
      </trkpt>
      <trkpt lat="46.53931" lon="7.91288">
        <ele>1352.3</ele>
        <time>2022-09-21T06:41:57Z</time>
      </trkpt>
      <trkpt lat="46.53929" lon="7.91287">
        <ele>1353.89</ele>
        <time>2022-09-21T06:41:59Z</time>
      </trkpt>
      <trkpt lat="46.53928" lon="7.91287">
        <ele>1354.06</ele>
        <time>2022-09-21T06:42:00Z</time>
      </trkpt>
      <trkpt lat="46.53928" lon="7.91286">
        <ele>1354.77</ele>
        <time>2022-09-21T06:42:01Z</time>
      </trkpt>
      <trkpt lat="46.53927" lon="7.91285">
        <ele>1355.51</ele>
        <time>2022-09-21T06:42:02Z</time>
      </trkpt>
      <trkpt lat="46.53926" lon="7.91282">
        <ele>1355.97</ele>
        <time>2022-09-21T06:42:04Z</time>
      </trkpt>
      <trkpt lat="46.53925" lon="7.91281">
        <ele>1356.72</ele>
        <time>2022-09-21T06:42:05Z</time>
      </trkpt>
      <trkpt lat="46.53925" lon="7.9128">
        <ele>1356.47</ele>
        <time>2022-09-21T06:42:06Z</time>
      </trkpt>
      <trkpt lat="46.53923" lon="7.91279">
        <ele>1356.66</ele>
        <time>2022-09-21T06:42:08Z</time>
      </trkpt>
      <trkpt lat="46.53922" lon="7.91278">
        <ele>1356.69</ele>
        <time>2022-09-21T06:42:09Z</time>
      </trkpt>
      <trkpt lat="46.53921" lon="7.91278">
        <ele>1356</ele>
        <time>2022-09-21T06:42:11Z</time>
      </trkpt>
      <trkpt lat="46.5392" lon="7.91279">
        <ele>1356.88</ele>
        <time>2022-09-21T06:42:13Z</time>
      </trkpt>
      <trkpt lat="46.53919" lon="7.91279">
        <ele>1357.77</ele>
        <time>2022-09-21T06:42:14Z</time>
      </trkpt>
      <trkpt lat="46.53917" lon="7.91279">
        <ele>1360.33</ele>
        <time>2022-09-21T06:42:16Z</time>
      </trkpt>
      <trkpt lat="46.53916" lon="7.9128">
        <ele>1360.34</ele>
        <time>2022-09-21T06:42:17Z</time>
      </trkpt>
      <trkpt lat="46.53914" lon="7.9128">
        <ele>1360.44</ele>
        <time>2022-09-21T06:42:19Z</time>
      </trkpt>
      <trkpt lat="46.53913" lon="7.91281">
        <ele>1359.72</ele>
        <time>2022-09-21T06:42:20Z</time>
      </trkpt>
      <trkpt lat="46.53912" lon="7.91282">
        <ele>1360.32</ele>
        <time>2022-09-21T06:42:22Z</time>
      </trkpt>
      <trkpt lat="46.53911" lon="7.91283">
        <ele>1360.47</ele>
        <time>2022-09-21T06:42:23Z</time>
      </trkpt>
      <trkpt lat="46.53911" lon="7.91284">
        <ele>1361.38</ele>
        <time>2022-09-21T06:42:24Z</time>
      </trkpt>
      <trkpt lat="46.5391" lon="7.91286">
        <ele>1362.35</ele>
        <time>2022-09-21T06:42:26Z</time>
      </trkpt>
      <trkpt lat="46.53909" lon="7.91286">
        <ele>1363.8</ele>
        <time>2022-09-21T06:42:29Z</time>
      </trkpt>
      <trkpt lat="46.53908" lon="7.91285">
        <ele>1364.32</ele>
        <time>2022-09-21T06:42:30Z</time>
      </trkpt>
      <trkpt lat="46.53907" lon="7.91283">
        <ele>1366.97</ele>
        <time>2022-09-21T06:42:32Z</time>
      </trkpt>
      <trkpt lat="46.53906" lon="7.91282">
        <ele>1367.03</ele>
        <time>2022-09-21T06:42:33Z</time>
      </trkpt>
      <trkpt lat="46.53905" lon="7.91281">
        <ele>1366.64</ele>
        <time>2022-09-21T06:42:34Z</time>
      </trkpt>
      <trkpt lat="46.53905" lon="7.91279">
        <ele>1365.29</ele>
        <time>2022-09-21T06:42:36Z</time>
      </trkpt>
      <trkpt lat="46.53905" lon="7.91277">
        <ele>1366.07</ele>
        <time>2022-09-21T06:42:38Z</time>
      </trkpt>
      <trkpt lat="46.53904" lon="7.91274">
        <ele>1367.46</ele>
        <time>2022-09-21T06:42:40Z</time>
      </trkpt>
      <trkpt lat="46.53904" lon="7.91273">
        <ele>1367.81</ele>
        <time>2022-09-21T06:42:41Z</time>
      </trkpt>
      <trkpt lat="46.53904" lon="7.9127">
        <ele>1368</ele>
        <time>2022-09-21T06:42:43Z</time>
      </trkpt>
      <trkpt lat="46.53903" lon="7.91268">
        <ele>1368.53</ele>
        <time>2022-09-21T06:42:45Z</time>
      </trkpt>
      <trkpt lat="46.53903" lon="7.91267">
        <ele>1369.95</ele>
        <time>2022-09-21T06:42:46Z</time>
      </trkpt>
      <trkpt lat="46.53902" lon="7.91266">
        <ele>1370.44</ele>
        <time>2022-09-21T06:42:47Z</time>
      </trkpt>
      <trkpt lat="46.53901" lon="7.91265">
        <ele>1370.97</ele>
        <time>2022-09-21T06:42:48Z</time>
      </trkpt>
      <trkpt lat="46.53901" lon="7.91264">
        <ele>1371.85</ele>
        <time>2022-09-21T06:42:49Z</time>
      </trkpt>
      <trkpt lat="46.539" lon="7.91263">
        <ele>1371.67</ele>
        <time>2022-09-21T06:42:50Z</time>
      </trkpt>
      <trkpt lat="46.53899" lon="7.91262">
        <ele>1372.06</ele>
        <time>2022-09-21T06:42:51Z</time>
      </trkpt>
      <trkpt lat="46.53898" lon="7.91261">
        <ele>1372.23</ele>
        <time>2022-09-21T06:42:53Z</time>
      </trkpt>
      <trkpt lat="46.53898" lon="7.91259">
        <ele>1372.95</ele>
        <time>2022-09-21T06:42:55Z</time>
      </trkpt>
      <trkpt lat="46.53896" lon="7.91257">
        <ele>1373.02</ele>
        <time>2022-09-21T06:42:57Z</time>
      </trkpt>
      <trkpt lat="46.53895" lon="7.91256">
        <ele>1373.47</ele>
        <time>2022-09-21T06:42:58Z</time>
      </trkpt>
      <trkpt lat="46.53895" lon="7.91255">
        <ele>1374.2</ele>
        <time>2022-09-21T06:42:59Z</time>
      </trkpt>
      <trkpt lat="46.53893" lon="7.91254">
        <ele>1372.95</ele>
        <time>2022-09-21T06:43:01Z</time>
      </trkpt>
      <trkpt lat="46.53893" lon="7.91253">
        <ele>1372.56</ele>
        <time>2022-09-21T06:43:04Z</time>
      </trkpt>
      <trkpt lat="46.53891" lon="7.91253">
        <ele>1372.6</ele>
        <time>2022-09-21T06:43:06Z</time>
      </trkpt>
      <trkpt lat="46.5389" lon="7.91251">
        <ele>1374.63</ele>
        <time>2022-09-21T06:43:08Z</time>
      </trkpt>
      <trkpt lat="46.53889" lon="7.9125">
        <ele>1377.44</ele>
        <time>2022-09-21T06:43:10Z</time>
      </trkpt>
      <trkpt lat="46.53888" lon="7.9125">
        <ele>1376.85</ele>
        <time>2022-09-21T06:43:12Z</time>
      </trkpt>
      <trkpt lat="46.53886" lon="7.91249">
        <ele>1377.47</ele>
        <time>2022-09-21T06:43:14Z</time>
      </trkpt>
      <trkpt lat="46.53885" lon="7.91248">
        <ele>1377.58</ele>
        <time>2022-09-21T06:43:16Z</time>
      </trkpt>
      <trkpt lat="46.53883" lon="7.91249">
        <ele>1377.47</ele>
        <time>2022-09-21T06:43:18Z</time>
      </trkpt>
      <trkpt lat="46.53881" lon="7.9125">
        <ele>1377.95</ele>
        <time>2022-09-21T06:43:20Z</time>
      </trkpt>
      <trkpt lat="46.53881" lon="7.9125">
        <ele>1378.13</ele>
        <time>2022-09-21T06:43:21Z</time>
      </trkpt>
      <trkpt lat="46.53879" lon="7.9125">
        <ele>1377.03</ele>
        <time>2022-09-21T06:43:23Z</time>
      </trkpt>
      <trkpt lat="46.53878" lon="7.9125">
        <ele>1377.54</ele>
        <time>2022-09-21T06:43:26Z</time>
      </trkpt>
      <trkpt lat="46.53876" lon="7.9125">
        <ele>1378.21</ele>
        <time>2022-09-21T06:43:28Z</time>
      </trkpt>
      <trkpt lat="46.53875" lon="7.9125">
        <ele>1379.82</ele>
        <time>2022-09-21T06:43:30Z</time>
      </trkpt>
      <trkpt lat="46.53873" lon="7.91249">
        <ele>1380.09</ele>
        <time>2022-09-21T06:43:32Z</time>
      </trkpt>
      <trkpt lat="46.53872" lon="7.91249">
        <ele>1380.71</ele>
        <time>2022-09-21T06:43:34Z</time>
      </trkpt>
      <trkpt lat="46.53871" lon="7.91248">
        <ele>1381.16</ele>
        <time>2022-09-21T06:43:36Z</time>
      </trkpt>
      <trkpt lat="46.5387" lon="7.91247">
        <ele>1382.72</ele>
        <time>2022-09-21T06:43:38Z</time>
      </trkpt>
      <trkpt lat="46.53869" lon="7.91245">
        <ele>1383.98</ele>
        <time>2022-09-21T06:43:40Z</time>
      </trkpt>
      <trkpt lat="46.53867" lon="7.91245">
        <ele>1384.29</ele>
        <time>2022-09-21T06:43:43Z</time>
      </trkpt>
      <trkpt lat="46.53865" lon="7.91246">
        <ele>1384.73</ele>
        <time>2022-09-21T06:43:45Z</time>
      </trkpt>
      <trkpt lat="46.53865" lon="7.91248">
        <ele>1384.99</ele>
        <time>2022-09-21T06:43:47Z</time>
      </trkpt>
      <trkpt lat="46.53864" lon="7.9125">
        <ele>1385.03</ele>
        <time>2022-09-21T06:43:49Z</time>
      </trkpt>
      <trkpt lat="46.53864" lon="7.91251">
        <ele>1385.17</ele>
        <time>2022-09-21T06:43:52Z</time>
      </trkpt>
      <trkpt lat="46.53865" lon="7.91253">
        <ele>1385.31</ele>
        <time>2022-09-21T06:43:53Z</time>
      </trkpt>
      <trkpt lat="46.53866" lon="7.91254">
        <ele>1384.74</ele>
        <time>2022-09-21T06:43:54Z</time>
      </trkpt>
      <trkpt lat="46.53867" lon="7.91256">
        <ele>1385.84</ele>
        <time>2022-09-21T06:43:56Z</time>
      </trkpt>
      <trkpt lat="46.53868" lon="7.91257">
        <ele>1385.91</ele>
        <time>2022-09-21T06:43:57Z</time>
      </trkpt>
      <trkpt lat="46.53868" lon="7.91258">
        <ele>1386.56</ele>
        <time>2022-09-21T06:43:58Z</time>
      </trkpt>
      <trkpt lat="46.53869" lon="7.91259">
        <ele>1386.72</ele>
        <time>2022-09-21T06:43:59Z</time>
      </trkpt>
      <trkpt lat="46.53869" lon="7.91261">
        <ele>1386.68</ele>
        <time>2022-09-21T06:44:00Z</time>
      </trkpt>
      <trkpt lat="46.5387" lon="7.91262">
        <ele>1387.23</ele>
        <time>2022-09-21T06:44:01Z</time>
      </trkpt>
      <trkpt lat="46.5387" lon="7.91265">
        <ele>1388.12</ele>
        <time>2022-09-21T06:44:03Z</time>
      </trkpt>
      <trkpt lat="46.5387" lon="7.91266">
        <ele>1388.49</ele>
        <time>2022-09-21T06:44:04Z</time>
      </trkpt>
      <trkpt lat="46.5387" lon="7.91268">
        <ele>1388.14</ele>
        <time>2022-09-21T06:44:05Z</time>
      </trkpt>
      <trkpt lat="46.53869" lon="7.9127">
        <ele>1388.98</ele>
        <time>2022-09-21T06:44:07Z</time>
      </trkpt>
      <trkpt lat="46.5387" lon="7.91273">
        <ele>1388.47</ele>
        <time>2022-09-21T06:44:09Z</time>
      </trkpt>
      <trkpt lat="46.5387" lon="7.91274">
        <ele>1388.22</ele>
        <time>2022-09-21T06:44:10Z</time>
      </trkpt>
      <trkpt lat="46.5387" lon="7.91276">
        <ele>1388.77</ele>
        <time>2022-09-21T06:44:11Z</time>
      </trkpt>
      <trkpt lat="46.5387" lon="7.91278">
        <ele>1388.4</ele>
        <time>2022-09-21T06:44:12Z</time>
      </trkpt>
      <trkpt lat="46.53869" lon="7.91279">
        <ele>1387.63</ele>
        <time>2022-09-21T06:44:14Z</time>
      </trkpt>
      <trkpt lat="46.53869" lon="7.91281">
        <ele>1387.56</ele>
        <time>2022-09-21T06:44:17Z</time>
      </trkpt>
      <trkpt lat="46.5387" lon="7.91281">
        <ele>1387.82</ele>
        <time>2022-09-21T06:44:19Z</time>
      </trkpt>
      <trkpt lat="46.53869" lon="7.91282">
        <ele>1387.75</ele>
        <time>2022-09-21T06:44:23Z</time>
      </trkpt>
      <trkpt lat="46.53867" lon="7.91282">
        <ele>1391.01</ele>
        <time>2022-09-21T06:44:25Z</time>
      </trkpt>
      <trkpt lat="46.53866" lon="7.91282">
        <ele>1390.85</ele>
        <time>2022-09-21T06:44:26Z</time>
      </trkpt>
      <trkpt lat="46.53866" lon="7.91281">
        <ele>1391.41</ele>
        <time>2022-09-21T06:44:27Z</time>
      </trkpt>
      <trkpt lat="46.53865" lon="7.91279">
        <ele>1391.64</ele>
        <time>2022-09-21T06:44:29Z</time>
      </trkpt>
      <trkpt lat="46.53864" lon="7.91278">
        <ele>1393.02</ele>
        <time>2022-09-21T06:44:31Z</time>
      </trkpt>
      <trkpt lat="46.53863" lon="7.91278">
        <ele>1393</ele>
        <time>2022-09-21T06:44:33Z</time>
      </trkpt>
      <trkpt lat="46.53861" lon="7.91277">
        <ele>1393.44</ele>
        <time>2022-09-21T06:44:35Z</time>
      </trkpt>
      <trkpt lat="46.5386" lon="7.91276">
        <ele>1395.71</ele>
        <time>2022-09-21T06:44:37Z</time>
      </trkpt>
      <trkpt lat="46.53859" lon="7.91275">
        <ele>1396.49</ele>
        <time>2022-09-21T06:44:39Z</time>
      </trkpt>
      <trkpt lat="46.53858" lon="7.91274">
        <ele>1397.17</ele>
        <time>2022-09-21T06:44:41Z</time>
      </trkpt>
      <trkpt lat="46.53857" lon="7.91274">
        <ele>1397.06</ele>
        <time>2022-09-21T06:44:43Z</time>
      </trkpt>
      <trkpt lat="46.53856" lon="7.91274">
        <ele>1395.92</ele>
        <time>2022-09-21T06:44:45Z</time>
      </trkpt>
      <trkpt lat="46.53854" lon="7.91274">
        <ele>1396.01</ele>
        <time>2022-09-21T06:44:48Z</time>
      </trkpt>
      <trkpt lat="46.53853" lon="7.91272">
        <ele>1398.57</ele>
        <time>2022-09-21T06:44:50Z</time>
      </trkpt>
      <trkpt lat="46.53853" lon="7.91271">
        <ele>1398.22</ele>
        <time>2022-09-21T06:44:52Z</time>
      </trkpt>
      <trkpt lat="46.53852" lon="7.9127">
        <ele>1398.92</ele>
        <time>2022-09-21T06:44:54Z</time>
      </trkpt>
      <trkpt lat="46.53851" lon="7.91269">
        <ele>1398.37</ele>
        <time>2022-09-21T06:44:56Z</time>
      </trkpt>
      <trkpt lat="46.53849" lon="7.91269">
        <ele>1399.62</ele>
        <time>2022-09-21T06:44:59Z</time>
      </trkpt>
      <trkpt lat="46.53849" lon="7.91268">
        <ele>1400.66</ele>
        <time>2022-09-21T06:45:00Z</time>
      </trkpt>
      <trkpt lat="46.53848" lon="7.91267">
        <ele>1400.94</ele>
        <time>2022-09-21T06:45:01Z</time>
      </trkpt>
      <trkpt lat="46.53847" lon="7.91266">
        <ele>1402.11</ele>
        <time>2022-09-21T06:45:02Z</time>
      </trkpt>
      <trkpt lat="46.53846" lon="7.91266">
        <ele>1402.43</ele>
        <time>2022-09-21T06:45:03Z</time>
      </trkpt>
      <trkpt lat="46.53845" lon="7.91265">
        <ele>1402.39</ele>
        <time>2022-09-21T06:45:04Z</time>
      </trkpt>
      <trkpt lat="46.53844" lon="7.91265">
        <ele>1402.91</ele>
        <time>2022-09-21T06:45:05Z</time>
      </trkpt>
      <trkpt lat="46.53843" lon="7.91265">
        <ele>1403.61</ele>
        <time>2022-09-21T06:45:06Z</time>
      </trkpt>
      <trkpt lat="46.53842" lon="7.91264">
        <ele>1402.93</ele>
        <time>2022-09-21T06:45:08Z</time>
      </trkpt>
      <trkpt lat="46.53841" lon="7.91263">
        <ele>1402.32</ele>
        <time>2022-09-21T06:45:10Z</time>
      </trkpt>
      <trkpt lat="46.53839" lon="7.91263">
        <ele>1403.24</ele>
        <time>2022-09-21T06:45:12Z</time>
      </trkpt>
      <trkpt lat="46.53838" lon="7.91263">
        <ele>1403.27</ele>
        <time>2022-09-21T06:45:14Z</time>
      </trkpt>
      <trkpt lat="46.53837" lon="7.91263">
        <ele>1403.05</ele>
        <time>2022-09-21T06:45:16Z</time>
      </trkpt>
      <trkpt lat="46.53835" lon="7.91263">
        <ele>1403.96</ele>
        <time>2022-09-21T06:45:19Z</time>
      </trkpt>
      <trkpt lat="46.53834" lon="7.91264">
        <ele>1403.5</ele>
        <time>2022-09-21T06:45:22Z</time>
      </trkpt>
      <trkpt lat="46.53834" lon="7.91265">
        <ele>1404.69</ele>
        <time>2022-09-21T06:45:24Z</time>
      </trkpt>
      <trkpt lat="46.53833" lon="7.91266">
        <ele>1405.57</ele>
        <time>2022-09-21T06:45:26Z</time>
      </trkpt>
      <trkpt lat="46.53832" lon="7.91267">
        <ele>1406.47</ele>
        <time>2022-09-21T06:45:28Z</time>
      </trkpt>
      <trkpt lat="46.5383" lon="7.91268">
        <ele>1407.08</ele>
        <time>2022-09-21T06:45:30Z</time>
      </trkpt>
      <trkpt lat="46.53829" lon="7.9127">
        <ele>1408.37</ele>
        <time>2022-09-21T06:45:33Z</time>
      </trkpt>
      <trkpt lat="46.53827" lon="7.9127">
        <ele>1409.18</ele>
        <time>2022-09-21T06:45:35Z</time>
      </trkpt>
      <trkpt lat="46.53827" lon="7.91272">
        <ele>1409.82</ele>
        <time>2022-09-21T06:45:37Z</time>
      </trkpt>
      <trkpt lat="46.53827" lon="7.91274">
        <ele>1409.48</ele>
        <time>2022-09-21T06:45:39Z</time>
      </trkpt>
      <trkpt lat="46.53826" lon="7.91275">
        <ele>1409.99</ele>
        <time>2022-09-21T06:45:41Z</time>
      </trkpt>
      <trkpt lat="46.53825" lon="7.91275">
        <ele>1410.19</ele>
        <time>2022-09-21T06:45:42Z</time>
      </trkpt>
      <trkpt lat="46.53823" lon="7.91275">
        <ele>1411.33</ele>
        <time>2022-09-21T06:45:44Z</time>
      </trkpt>
      <trkpt lat="46.53822" lon="7.91276">
        <ele>1410.98</ele>
        <time>2022-09-21T06:45:45Z</time>
      </trkpt>
      <trkpt lat="46.5382" lon="7.91275">
        <ele>1410.5</ele>
        <time>2022-09-21T06:45:47Z</time>
      </trkpt>
      <trkpt lat="46.53818" lon="7.91274">
        <ele>1408.84</ele>
        <time>2022-09-21T06:45:50Z</time>
      </trkpt>
      <trkpt lat="46.53817" lon="7.91274">
        <ele>1409.45</ele>
        <time>2022-09-21T06:45:52Z</time>
      </trkpt>
      <trkpt lat="46.53816" lon="7.91275">
        <ele>1409.9</ele>
        <time>2022-09-21T06:45:54Z</time>
      </trkpt>
      <trkpt lat="46.53815" lon="7.91276">
        <ele>1410.87</ele>
        <time>2022-09-21T06:45:56Z</time>
      </trkpt>
      <trkpt lat="46.53814" lon="7.91276">
        <ele>1410.27</ele>
        <time>2022-09-21T06:45:58Z</time>
      </trkpt>
      <trkpt lat="46.53812" lon="7.91277">
        <ele>1410.61</ele>
        <time>2022-09-21T06:46:00Z</time>
      </trkpt>
      <trkpt lat="46.53811" lon="7.91276">
        <ele>1411.41</ele>
        <time>2022-09-21T06:46:02Z</time>
      </trkpt>
      <trkpt lat="46.5381" lon="7.91275">
        <ele>1410.36</ele>
        <time>2022-09-21T06:46:04Z</time>
      </trkpt>
      <trkpt lat="46.53808" lon="7.91275">
        <ele>1411.23</ele>
        <time>2022-09-21T06:46:08Z</time>
      </trkpt>
      <trkpt lat="46.53807" lon="7.91275">
        <ele>1412.96</ele>
        <time>2022-09-21T06:46:10Z</time>
      </trkpt>
      <trkpt lat="46.53806" lon="7.91274">
        <ele>1413.82</ele>
        <time>2022-09-21T06:46:12Z</time>
      </trkpt>
      <trkpt lat="46.53806" lon="7.91273">
        <ele>1415.2</ele>
        <time>2022-09-21T06:46:14Z</time>
      </trkpt>
      <trkpt lat="46.53805" lon="7.91273">
        <ele>1416.39</ele>
        <time>2022-09-21T06:46:17Z</time>
      </trkpt>
      <trkpt lat="46.53804" lon="7.91274">
        <ele>1417.06</ele>
        <time>2022-09-21T06:46:19Z</time>
      </trkpt>
      <trkpt lat="46.53803" lon="7.91275">
        <ele>1416.97</ele>
        <time>2022-09-21T06:46:20Z</time>
      </trkpt>
      <trkpt lat="46.53801" lon="7.91276">
        <ele>1417.91</ele>
        <time>2022-09-21T06:46:22Z</time>
      </trkpt>
      <trkpt lat="46.538" lon="7.91277">
        <ele>1418.25</ele>
        <time>2022-09-21T06:46:23Z</time>
      </trkpt>
      <trkpt lat="46.53798" lon="7.91278">
        <ele>1418.07</ele>
        <time>2022-09-21T06:46:25Z</time>
      </trkpt>
      <trkpt lat="46.53797" lon="7.91279">
        <ele>1417.66</ele>
        <time>2022-09-21T06:46:27Z</time>
      </trkpt>
      <trkpt lat="46.53796" lon="7.9128">
        <ele>1417.87</ele>
        <time>2022-09-21T06:46:28Z</time>
      </trkpt>
      <trkpt lat="46.53794" lon="7.91281">
        <ele>1421.22</ele>
        <time>2022-09-21T06:46:31Z</time>
      </trkpt>
      <trkpt lat="46.53793" lon="7.91282">
        <ele>1422.47</ele>
        <time>2022-09-21T06:46:33Z</time>
      </trkpt>
      <trkpt lat="46.53792" lon="7.91283">
        <ele>1422.3</ele>
        <time>2022-09-21T06:46:35Z</time>
      </trkpt>
      <trkpt lat="46.53791" lon="7.91283">
        <ele>1423.6</ele>
        <time>2022-09-21T06:46:36Z</time>
      </trkpt>
      <trkpt lat="46.5379" lon="7.91285">
        <ele>1423.76</ele>
        <time>2022-09-21T06:46:37Z</time>
      </trkpt>
      <trkpt lat="46.53789" lon="7.91287">
        <ele>1424.46</ele>
        <time>2022-09-21T06:46:38Z</time>
      </trkpt>
      <trkpt lat="46.53788" lon="7.91288">
        <ele>1423.12</ele>
        <time>2022-09-21T06:46:39Z</time>
      </trkpt>
      <trkpt lat="46.53788" lon="7.9129">
        <ele>1421.97</ele>
        <time>2022-09-21T06:46:41Z</time>
      </trkpt>
      <trkpt lat="46.53788" lon="7.91291">
        <ele>1420.11</ele>
        <time>2022-09-21T06:46:43Z</time>
      </trkpt>
      <trkpt lat="46.53789" lon="7.91293">
        <ele>1420.03</ele>
        <time>2022-09-21T06:46:45Z</time>
      </trkpt>
      <trkpt lat="46.53788" lon="7.91295">
        <ele>1420.08</ele>
        <time>2022-09-21T06:46:46Z</time>
      </trkpt>
      <trkpt lat="46.53789" lon="7.91297">
        <ele>1420.3</ele>
        <time>2022-09-21T06:46:47Z</time>
      </trkpt>
      <trkpt lat="46.53789" lon="7.91299">
        <ele>1420.57</ele>
        <time>2022-09-21T06:46:48Z</time>
      </trkpt>
      <trkpt lat="46.53789" lon="7.91301">
        <ele>1420.1</ele>
        <time>2022-09-21T06:46:49Z</time>
      </trkpt>
      <trkpt lat="46.53788" lon="7.91303">
        <ele>1419.44</ele>
        <time>2022-09-21T06:46:50Z</time>
      </trkpt>
      <trkpt lat="46.53788" lon="7.91304">
        <ele>1419.49</ele>
        <time>2022-09-21T06:46:51Z</time>
      </trkpt>
      <trkpt lat="46.53787" lon="7.91305">
        <ele>1419.82</ele>
        <time>2022-09-21T06:46:52Z</time>
      </trkpt>
      <trkpt lat="46.53786" lon="7.91306">
        <ele>1419.64</ele>
        <time>2022-09-21T06:46:53Z</time>
      </trkpt>
      <trkpt lat="46.53786" lon="7.91308">
        <ele>1419.68</ele>
        <time>2022-09-21T06:46:55Z</time>
      </trkpt>
      <trkpt lat="46.53785" lon="7.9131">
        <ele>1420.01</ele>
        <time>2022-09-21T06:46:56Z</time>
      </trkpt>
      <trkpt lat="46.53785" lon="7.91312">
        <ele>1425.45</ele>
        <time>2022-09-21T06:46:58Z</time>
      </trkpt>
      <trkpt lat="46.53784" lon="7.91314">
        <ele>1424.66</ele>
        <time>2022-09-21T06:47:00Z</time>
      </trkpt>
      <trkpt lat="46.53785" lon="7.91314">
        <ele>1423.65</ele>
        <time>2022-09-21T06:47:01Z</time>
      </trkpt>
      <trkpt lat="46.53785" lon="7.91316">
        <ele>1425.22</ele>
        <time>2022-09-21T06:47:03Z</time>
      </trkpt>
      <trkpt lat="46.53785" lon="7.91318">
        <ele>1427.09</ele>
        <time>2022-09-21T06:47:05Z</time>
      </trkpt>
      <trkpt lat="46.53785" lon="7.9132">
        <ele>1428.15</ele>
        <time>2022-09-21T06:47:06Z</time>
      </trkpt>
      <trkpt lat="46.53785" lon="7.91321">
        <ele>1428.66</ele>
        <time>2022-09-21T06:47:07Z</time>
      </trkpt>
      <trkpt lat="46.53785" lon="7.91323">
        <ele>1428.4</ele>
        <time>2022-09-21T06:47:08Z</time>
      </trkpt>
      <trkpt lat="46.53785" lon="7.91325">
        <ele>1431.02</ele>
        <time>2022-09-21T06:47:09Z</time>
      </trkpt>
      <trkpt lat="46.53785" lon="7.91326">
        <ele>1430.7</ele>
        <time>2022-09-21T06:47:10Z</time>
      </trkpt>
      <trkpt lat="46.53785" lon="7.91328">
        <ele>1429.71</ele>
        <time>2022-09-21T06:47:11Z</time>
      </trkpt>
      <trkpt lat="46.53785" lon="7.91329">
        <ele>1428.74</ele>
        <time>2022-09-21T06:47:12Z</time>
      </trkpt>
      <trkpt lat="46.53785" lon="7.91332">
        <ele>1430.3</ele>
        <time>2022-09-21T06:47:14Z</time>
      </trkpt>
      <trkpt lat="46.53784" lon="7.91332">
        <ele>1430.58</ele>
        <time>2022-09-21T06:47:16Z</time>
      </trkpt>
      <trkpt lat="46.53782" lon="7.91331">
        <ele>1434.01</ele>
        <time>2022-09-21T06:47:18Z</time>
      </trkpt>
      <trkpt lat="46.53781" lon="7.9133">
        <ele>1435.05</ele>
        <time>2022-09-21T06:47:20Z</time>
      </trkpt>
      <trkpt lat="46.5378" lon="7.91329">
        <ele>1438.28</ele>
        <time>2022-09-21T06:47:23Z</time>
      </trkpt>
      <trkpt lat="46.53779" lon="7.91329">
        <ele>1438.21</ele>
        <time>2022-09-21T06:47:26Z</time>
      </trkpt>
      <trkpt lat="46.53778" lon="7.91328">
        <ele>1439.73</ele>
        <time>2022-09-21T06:47:29Z</time>
      </trkpt>
      <trkpt lat="46.53777" lon="7.91326">
        <ele>1440.16</ele>
        <time>2022-09-21T06:47:32Z</time>
      </trkpt>
      <trkpt lat="46.53776" lon="7.91325">
        <ele>1439.99</ele>
        <time>2022-09-21T06:47:34Z</time>
      </trkpt>
      <trkpt lat="46.53775" lon="7.91325">
        <ele>1440.93</ele>
        <time>2022-09-21T06:47:37Z</time>
      </trkpt>
      <trkpt lat="46.53772" lon="7.91325">
        <ele>1441.23</ele>
        <time>2022-09-21T06:47:39Z</time>
      </trkpt>
      <trkpt lat="46.53771" lon="7.91325">
        <ele>1440.48</ele>
        <time>2022-09-21T06:47:40Z</time>
      </trkpt>
      <trkpt lat="46.53769" lon="7.91326">
        <ele>1440.38</ele>
        <time>2022-09-21T06:47:42Z</time>
      </trkpt>
      <trkpt lat="46.53769" lon="7.91326">
        <ele>1440.7</ele>
        <time>2022-09-21T06:47:43Z</time>
      </trkpt>
      <trkpt lat="46.53768" lon="7.91326">
        <ele>1441.1</ele>
        <time>2022-09-21T06:47:44Z</time>
      </trkpt>
      <trkpt lat="46.53767" lon="7.91327">
        <ele>1441.7</ele>
        <time>2022-09-21T06:47:45Z</time>
      </trkpt>
      <trkpt lat="46.53765" lon="7.91328">
        <ele>1442.62</ele>
        <time>2022-09-21T06:47:47Z</time>
      </trkpt>
      <trkpt lat="46.53764" lon="7.91328">
        <ele>1443.64</ele>
        <time>2022-09-21T06:47:48Z</time>
      </trkpt>
      <trkpt lat="46.53763" lon="7.91328">
        <ele>1443.99</ele>
        <time>2022-09-21T06:47:49Z</time>
      </trkpt>
      <trkpt lat="46.53761" lon="7.91329">
        <ele>1446.42</ele>
        <time>2022-09-21T06:47:51Z</time>
      </trkpt>
      <trkpt lat="46.53759" lon="7.91329">
        <ele>1446.94</ele>
        <time>2022-09-21T06:47:53Z</time>
      </trkpt>
      <trkpt lat="46.53758" lon="7.91331">
        <ele>1447.03</ele>
        <time>2022-09-21T06:47:56Z</time>
      </trkpt>
      <trkpt lat="46.53757" lon="7.91333">
        <ele>1446.66</ele>
        <time>2022-09-21T06:47:58Z</time>
      </trkpt>
      <trkpt lat="46.53756" lon="7.91335">
        <ele>1447.25</ele>
        <time>2022-09-21T06:48:00Z</time>
      </trkpt>
      <trkpt lat="46.53756" lon="7.91336">
        <ele>1447.92</ele>
        <time>2022-09-21T06:48:02Z</time>
      </trkpt>
      <trkpt lat="46.53755" lon="7.91339">
        <ele>1448.4</ele>
        <time>2022-09-21T06:48:05Z</time>
      </trkpt>
      <trkpt lat="46.53754" lon="7.91341">
        <ele>1448.52</ele>
        <time>2022-09-21T06:48:07Z</time>
      </trkpt>
      <trkpt lat="46.53752" lon="7.91342">
        <ele>1449.86</ele>
        <time>2022-09-21T06:48:09Z</time>
      </trkpt>
      <trkpt lat="46.5375" lon="7.91343">
        <ele>1449.96</ele>
        <time>2022-09-21T06:48:11Z</time>
      </trkpt>
      <trkpt lat="46.53749" lon="7.91343">
        <ele>1449.45</ele>
        <time>2022-09-21T06:48:12Z</time>
      </trkpt>
      <trkpt lat="46.53748" lon="7.91343">
        <ele>1449.37</ele>
        <time>2022-09-21T06:48:13Z</time>
      </trkpt>
      <trkpt lat="46.53747" lon="7.91343">
        <ele>1449.21</ele>
        <time>2022-09-21T06:48:14Z</time>
      </trkpt>
      <trkpt lat="46.53746" lon="7.91343">
        <ele>1448.43</ele>
        <time>2022-09-21T06:48:15Z</time>
      </trkpt>
      <trkpt lat="46.53745" lon="7.91342">
        <ele>1448.12</ele>
        <time>2022-09-21T06:48:17Z</time>
      </trkpt>
      <trkpt lat="46.53744" lon="7.91341">
        <ele>1448.69</ele>
        <time>2022-09-21T06:48:18Z</time>
      </trkpt>
      <trkpt lat="46.53743" lon="7.91339">
        <ele>1451.21</ele>
        <time>2022-09-21T06:48:20Z</time>
      </trkpt>
      <trkpt lat="46.53742" lon="7.91338">
        <ele>1450.75</ele>
        <time>2022-09-21T06:48:21Z</time>
      </trkpt>
      <trkpt lat="46.53741" lon="7.91337">
        <ele>1450.9</ele>
        <time>2022-09-21T06:48:23Z</time>
      </trkpt>
      <trkpt lat="46.5374" lon="7.91336">
        <ele>1450.52</ele>
        <time>2022-09-21T06:48:25Z</time>
      </trkpt>
      <trkpt lat="46.53739" lon="7.91336">
        <ele>1450.41</ele>
        <time>2022-09-21T06:48:27Z</time>
      </trkpt>
      <trkpt lat="46.53738" lon="7.91335">
        <ele>1450.9</ele>
        <time>2022-09-21T06:48:29Z</time>
      </trkpt>
      <trkpt lat="46.53737" lon="7.91334">
        <ele>1449.99</ele>
        <time>2022-09-21T06:48:31Z</time>
      </trkpt>
      <trkpt lat="46.53735" lon="7.91335">
        <ele>1450.59</ele>
        <time>2022-09-21T06:48:33Z</time>
      </trkpt>
      <trkpt lat="46.53734" lon="7.91334">
        <ele>1494.01</ele>
        <time>2022-09-21T06:48:37Z</time>
      </trkpt>
      <trkpt lat="46.53733" lon="7.91333">
        <ele>1488.24</ele>
        <time>2022-09-21T06:48:38Z</time>
      </trkpt>
      <trkpt lat="46.53732" lon="7.91332">
        <ele>1480.52</ele>
        <time>2022-09-21T06:48:39Z</time>
      </trkpt>
      <trkpt lat="46.53731" lon="7.9133">
        <ele>1475.43</ele>
        <time>2022-09-21T06:48:40Z</time>
      </trkpt>
      <trkpt lat="46.5373" lon="7.9133">
        <ele>1473.15</ele>
        <time>2022-09-21T06:48:41Z</time>
      </trkpt>
      <trkpt lat="46.5373" lon="7.91329">
        <ele>1468.23</ele>
        <time>2022-09-21T06:48:42Z</time>
      </trkpt>
      <trkpt lat="46.53728" lon="7.91328">
        <ele>1455.75</ele>
        <time>2022-09-21T06:48:48Z</time>
      </trkpt>
      <trkpt lat="46.53727" lon="7.91327">
        <ele>1454.54</ele>
        <time>2022-09-21T06:48:49Z</time>
      </trkpt>
      <trkpt lat="46.53725" lon="7.91327">
        <ele>1454.18</ele>
        <time>2022-09-21T06:48:50Z</time>
      </trkpt>
      <trkpt lat="46.53724" lon="7.91327">
        <ele>1454.19</ele>
        <time>2022-09-21T06:48:51Z</time>
      </trkpt>
      <trkpt lat="46.53723" lon="7.91326">
        <ele>1454.47</ele>
        <time>2022-09-21T06:48:52Z</time>
      </trkpt>
      <trkpt lat="46.53722" lon="7.91326">
        <ele>1453.1</ele>
        <time>2022-09-21T06:48:54Z</time>
      </trkpt>
      <trkpt lat="46.53721" lon="7.91325">
        <ele>1453.15</ele>
        <time>2022-09-21T06:48:55Z</time>
      </trkpt>
      <trkpt lat="46.5372" lon="7.91324">
        <ele>1453.64</ele>
        <time>2022-09-21T06:48:56Z</time>
      </trkpt>
      <trkpt lat="46.53719" lon="7.91323">
        <ele>1453.18</ele>
        <time>2022-09-21T06:48:57Z</time>
      </trkpt>
      <trkpt lat="46.53718" lon="7.91323">
        <ele>1453.09</ele>
        <time>2022-09-21T06:48:58Z</time>
      </trkpt>
      <trkpt lat="46.53717" lon="7.91322">
        <ele>1452.72</ele>
        <time>2022-09-21T06:48:59Z</time>
      </trkpt>
      <trkpt lat="46.53715" lon="7.91322">
        <ele>1451.76</ele>
        <time>2022-09-21T06:49:01Z</time>
      </trkpt>
      <trkpt lat="46.53713" lon="7.91322">
        <ele>1451.76</ele>
        <time>2022-09-21T06:49:03Z</time>
      </trkpt>
      <trkpt lat="46.53712" lon="7.91322">
        <ele>1453.01</ele>
        <time>2022-09-21T06:49:05Z</time>
      </trkpt>
      <trkpt lat="46.53711" lon="7.91321">
        <ele>1453.22</ele>
        <time>2022-09-21T06:49:07Z</time>
      </trkpt>
      <trkpt lat="46.53709" lon="7.9132">
        <ele>1452.18</ele>
        <time>2022-09-21T06:49:09Z</time>
      </trkpt>
      <trkpt lat="46.53708" lon="7.9132">
        <ele>1452.2</ele>
        <time>2022-09-21T06:49:11Z</time>
      </trkpt>
      <trkpt lat="46.53708" lon="7.91322">
        <ele>1453.22</ele>
        <time>2022-09-21T06:49:13Z</time>
      </trkpt>
      <trkpt lat="46.53709" lon="7.91324">
        <ele>1453.46</ele>
        <time>2022-09-21T06:49:15Z</time>
      </trkpt>
      <trkpt lat="46.53711" lon="7.91325">
        <ele>1453.85</ele>
        <time>2022-09-21T06:49:17Z</time>
      </trkpt>
      <trkpt lat="46.53712" lon="7.91326">
        <ele>1454.39</ele>
        <time>2022-09-21T06:49:19Z</time>
      </trkpt>
      <trkpt lat="46.53712" lon="7.91328">
        <ele>1455.1</ele>
        <time>2022-09-21T06:49:21Z</time>
      </trkpt>
      <trkpt lat="46.53713" lon="7.9133">
        <ele>1455.31</ele>
        <time>2022-09-21T06:49:22Z</time>
      </trkpt>
      <trkpt lat="46.53713" lon="7.91331">
        <ele>1455.61</ele>
        <time>2022-09-21T06:49:23Z</time>
      </trkpt>
      <trkpt lat="46.53714" lon="7.91333">
        <ele>1456.32</ele>
        <time>2022-09-21T06:49:25Z</time>
      </trkpt>
      <trkpt lat="46.53715" lon="7.91335">
        <ele>1457.82</ele>
        <time>2022-09-21T06:49:27Z</time>
      </trkpt>
      <trkpt lat="46.53716" lon="7.91338">
        <ele>1457.56</ele>
        <time>2022-09-21T06:49:29Z</time>
      </trkpt>
      <trkpt lat="46.53716" lon="7.9134">
        <ele>1458.03</ele>
        <time>2022-09-21T06:49:31Z</time>
      </trkpt>
      <trkpt lat="46.53717" lon="7.91341">
        <ele>1458.09</ele>
        <time>2022-09-21T06:49:32Z</time>
      </trkpt>
      <trkpt lat="46.53717" lon="7.91342">
        <ele>1457.39</ele>
        <time>2022-09-21T06:49:33Z</time>
      </trkpt>
      <trkpt lat="46.53717" lon="7.91343">
        <ele>1456.9</ele>
        <time>2022-09-21T06:49:34Z</time>
      </trkpt>
      <trkpt lat="46.53718" lon="7.91346">
        <ele>1458.25</ele>
        <time>2022-09-21T06:49:36Z</time>
      </trkpt>
      <trkpt lat="46.53719" lon="7.91347">
        <ele>1458.37</ele>
        <time>2022-09-21T06:49:37Z</time>
      </trkpt>
      <trkpt lat="46.5372" lon="7.9135">
        <ele>1457.65</ele>
        <time>2022-09-21T06:49:39Z</time>
      </trkpt>
      <trkpt lat="46.53721" lon="7.91352">
        <ele>1458.48</ele>
        <time>2022-09-21T06:49:41Z</time>
      </trkpt>
      <trkpt lat="46.53722" lon="7.91353">
        <ele>1458.38</ele>
        <time>2022-09-21T06:49:42Z</time>
      </trkpt>
      <trkpt lat="46.53723" lon="7.91354">
        <ele>1461.39</ele>
        <time>2022-09-21T06:49:43Z</time>
      </trkpt>
      <trkpt lat="46.53724" lon="7.91356">
        <ele>1462.26</ele>
        <time>2022-09-21T06:49:45Z</time>
      </trkpt>
      <trkpt lat="46.53725" lon="7.91357">
        <ele>1463.05</ele>
        <time>2022-09-21T06:49:47Z</time>
      </trkpt>
      <trkpt lat="46.53726" lon="7.91358">
        <ele>1463.15</ele>
        <time>2022-09-21T06:49:49Z</time>
      </trkpt>
      <trkpt lat="46.53727" lon="7.91359">
        <ele>1463.52</ele>
        <time>2022-09-21T06:49:50Z</time>
      </trkpt>
      <trkpt lat="46.53728" lon="7.9136">
        <ele>1464.19</ele>
        <time>2022-09-21T06:49:51Z</time>
      </trkpt>
      <trkpt lat="46.53728" lon="7.91361">
        <ele>1464.84</ele>
        <time>2022-09-21T06:49:53Z</time>
      </trkpt>
      <trkpt lat="46.53727" lon="7.91364">
        <ele>1464.54</ele>
        <time>2022-09-21T06:49:56Z</time>
      </trkpt>
      <trkpt lat="46.53726" lon="7.91364">
        <ele>1462.82</ele>
        <time>2022-09-21T06:49:58Z</time>
      </trkpt>
      <trkpt lat="46.53725" lon="7.91364">
        <ele>1463.42</ele>
        <time>2022-09-21T06:50:00Z</time>
      </trkpt>
      <trkpt lat="46.53723" lon="7.91363">
        <ele>1463.99</ele>
        <time>2022-09-21T06:50:02Z</time>
      </trkpt>
      <trkpt lat="46.53722" lon="7.91363">
        <ele>1463.2</ele>
        <time>2022-09-21T06:50:03Z</time>
      </trkpt>
      <trkpt lat="46.53721" lon="7.91363">
        <ele>1463.18</ele>
        <time>2022-09-21T06:50:04Z</time>
      </trkpt>
      <trkpt lat="46.53719" lon="7.91362">
        <ele>1463.89</ele>
        <time>2022-09-21T06:50:06Z</time>
      </trkpt>
      <trkpt lat="46.53717" lon="7.91362">
        <ele>1463.44</ele>
        <time>2022-09-21T06:50:08Z</time>
      </trkpt>
      <trkpt lat="46.53716" lon="7.91362">
        <ele>1464.11</ele>
        <time>2022-09-21T06:50:10Z</time>
      </trkpt>
      <trkpt lat="46.53715" lon="7.91362">
        <ele>1464.25</ele>
        <time>2022-09-21T06:50:11Z</time>
      </trkpt>
      <trkpt lat="46.53714" lon="7.91361">
        <ele>1465.12</ele>
        <time>2022-09-21T06:50:12Z</time>
      </trkpt>
      <trkpt lat="46.53712" lon="7.9136">
        <ele>1466.59</ele>
        <time>2022-09-21T06:50:14Z</time>
      </trkpt>
      <trkpt lat="46.53711" lon="7.9136">
        <ele>1466.35</ele>
        <time>2022-09-21T06:50:16Z</time>
      </trkpt>
      <trkpt lat="46.53709" lon="7.9136">
        <ele>1466.89</ele>
        <time>2022-09-21T06:50:18Z</time>
      </trkpt>
      <trkpt lat="46.53708" lon="7.91361">
        <ele>1466.91</ele>
        <time>2022-09-21T06:50:20Z</time>
      </trkpt>
      <trkpt lat="46.53707" lon="7.91361">
        <ele>1467.68</ele>
        <time>2022-09-21T06:50:23Z</time>
      </trkpt>
      <trkpt lat="46.53705" lon="7.91359">
        <ele>1468.17</ele>
        <time>2022-09-21T06:50:25Z</time>
      </trkpt>
      <trkpt lat="46.53705" lon="7.91358">
        <ele>1468.34</ele>
        <time>2022-09-21T06:50:26Z</time>
      </trkpt>
      <trkpt lat="46.53704" lon="7.91357">
        <ele>1469.45</ele>
        <time>2022-09-21T06:50:27Z</time>
      </trkpt>
      <trkpt lat="46.53703" lon="7.91357">
        <ele>1469.88</ele>
        <time>2022-09-21T06:50:28Z</time>
      </trkpt>
      <trkpt lat="46.53702" lon="7.91356">
        <ele>1470.46</ele>
        <time>2022-09-21T06:50:29Z</time>
      </trkpt>
      <trkpt lat="46.53701" lon="7.91355">
        <ele>1471.87</ele>
        <time>2022-09-21T06:50:31Z</time>
      </trkpt>
      <trkpt lat="46.537" lon="7.91354">
        <ele>1472.62</ele>
        <time>2022-09-21T06:50:33Z</time>
      </trkpt>
      <trkpt lat="46.53699" lon="7.91354">
        <ele>1473.01</ele>
        <time>2022-09-21T06:50:35Z</time>
      </trkpt>
      <trkpt lat="46.53698" lon="7.91353">
        <ele>1473.18</ele>
        <time>2022-09-21T06:50:37Z</time>
      </trkpt>
      <trkpt lat="46.53697" lon="7.91352">
        <ele>1474.04</ele>
        <time>2022-09-21T06:50:39Z</time>
      </trkpt>
      <trkpt lat="46.53695" lon="7.91351">
        <ele>1474.25</ele>
        <time>2022-09-21T06:50:41Z</time>
      </trkpt>
      <trkpt lat="46.53694" lon="7.91351">
        <ele>1475.69</ele>
        <time>2022-09-21T06:50:43Z</time>
      </trkpt>
      <trkpt lat="46.53693" lon="7.91351">
        <ele>1476.46</ele>
        <time>2022-09-21T06:50:46Z</time>
      </trkpt>
      <trkpt lat="46.53692" lon="7.91351">
        <ele>1476.83</ele>
        <time>2022-09-21T06:50:49Z</time>
      </trkpt>
      <trkpt lat="46.53691" lon="7.91351">
        <ele>1477.29</ele>
        <time>2022-09-21T06:50:51Z</time>
      </trkpt>
      <trkpt lat="46.5369" lon="7.91351">
        <ele>1478.34</ele>
        <time>2022-09-21T06:50:54Z</time>
      </trkpt>
      <trkpt lat="46.5369" lon="7.91353">
        <ele>1479.7</ele>
        <time>2022-09-21T06:50:56Z</time>
      </trkpt>
      <trkpt lat="46.53689" lon="7.91354">
        <ele>1479.49</ele>
        <time>2022-09-21T06:50:58Z</time>
      </trkpt>
      <trkpt lat="46.53689" lon="7.91356">
        <ele>1479.26</ele>
        <time>2022-09-21T06:51:01Z</time>
      </trkpt>
      <trkpt lat="46.53688" lon="7.91357">
        <ele>1481.41</ele>
        <time>2022-09-21T06:51:04Z</time>
      </trkpt>
      <trkpt lat="46.53687" lon="7.91357">
        <ele>1481.35</ele>
        <time>2022-09-21T06:51:06Z</time>
      </trkpt>
      <trkpt lat="46.53686" lon="7.91359">
        <ele>1481.05</ele>
        <time>2022-09-21T06:51:08Z</time>
      </trkpt>
      <trkpt lat="46.53686" lon="7.9136">
        <ele>1480.3</ele>
        <time>2022-09-21T06:51:10Z</time>
      </trkpt>
      <trkpt lat="46.53684" lon="7.91361">
        <ele>1481.57</ele>
        <time>2022-09-21T06:51:12Z</time>
      </trkpt>
      <trkpt lat="46.53683" lon="7.91362">
        <ele>1481.72</ele>
        <time>2022-09-21T06:51:14Z</time>
      </trkpt>
      <trkpt lat="46.53681" lon="7.91363">
        <ele>1482.78</ele>
        <time>2022-09-21T06:51:16Z</time>
      </trkpt>
      <trkpt lat="46.5368" lon="7.91364">
        <ele>1484.42</ele>
        <time>2022-09-21T06:51:18Z</time>
      </trkpt>
      <trkpt lat="46.53679" lon="7.91365">
        <ele>1485.33</ele>
        <time>2022-09-21T06:51:20Z</time>
      </trkpt>
      <trkpt lat="46.53678" lon="7.91366">
        <ele>1486.01</ele>
        <time>2022-09-21T06:51:22Z</time>
      </trkpt>
      <trkpt lat="46.53677" lon="7.91366">
        <ele>1487.77</ele>
        <time>2022-09-21T06:51:24Z</time>
      </trkpt>
      <trkpt lat="46.53676" lon="7.91366">
        <ele>1488.54</ele>
        <time>2022-09-21T06:51:25Z</time>
      </trkpt>
      <trkpt lat="46.53675" lon="7.91365">
        <ele>1489.29</ele>
        <time>2022-09-21T06:51:27Z</time>
      </trkpt>
      <trkpt lat="46.53674" lon="7.91365">
        <ele>1489.61</ele>
        <time>2022-09-21T06:51:29Z</time>
      </trkpt>
      <trkpt lat="46.53673" lon="7.91366">
        <ele>1488.34</ele>
        <time>2022-09-21T06:51:32Z</time>
      </trkpt>
      <trkpt lat="46.53672" lon="7.91366">
        <ele>1490.77</ele>
        <time>2022-09-21T06:51:35Z</time>
      </trkpt>
      <trkpt lat="46.5367" lon="7.91366">
        <ele>1493.13</ele>
        <time>2022-09-21T06:51:37Z</time>
      </trkpt>
      <trkpt lat="46.53668" lon="7.91366">
        <ele>1493.48</ele>
        <time>2022-09-21T06:51:39Z</time>
      </trkpt>
      <trkpt lat="46.53667" lon="7.91368">
        <ele>1493.68</ele>
        <time>2022-09-21T06:51:41Z</time>
      </trkpt>
      <trkpt lat="46.53667" lon="7.91369">
        <ele>1493.63</ele>
        <time>2022-09-21T06:51:43Z</time>
      </trkpt>
      <trkpt lat="46.53666" lon="7.91371">
        <ele>1493.71</ele>
        <time>2022-09-21T06:51:45Z</time>
      </trkpt>
      <trkpt lat="46.53666" lon="7.91372">
        <ele>1495.28</ele>
        <time>2022-09-21T06:51:48Z</time>
      </trkpt>
      <trkpt lat="46.53666" lon="7.91374">
        <ele>1496.05</ele>
        <time>2022-09-21T06:51:50Z</time>
      </trkpt>
      <trkpt lat="46.53667" lon="7.91376">
        <ele>1495.87</ele>
        <time>2022-09-21T06:51:52Z</time>
      </trkpt>
      <trkpt lat="46.53666" lon="7.91378">
        <ele>1497.05</ele>
        <time>2022-09-21T06:51:54Z</time>
      </trkpt>
      <trkpt lat="46.53665" lon="7.91379">
        <ele>1497.01</ele>
        <time>2022-09-21T06:51:55Z</time>
      </trkpt>
      <trkpt lat="46.53664" lon="7.91382">
        <ele>1498.57</ele>
        <time>2022-09-21T06:51:58Z</time>
      </trkpt>
      <trkpt lat="46.53663" lon="7.91383">
        <ele>1498.47</ele>
        <time>2022-09-21T06:52:00Z</time>
      </trkpt>
      <trkpt lat="46.53662" lon="7.91385">
        <ele>1498.32</ele>
        <time>2022-09-21T06:52:02Z</time>
      </trkpt>
      <trkpt lat="46.53662" lon="7.91387">
        <ele>1498.63</ele>
        <time>2022-09-21T06:52:04Z</time>
      </trkpt>
      <trkpt lat="46.53661" lon="7.91388">
        <ele>1498.07</ele>
        <time>2022-09-21T06:52:06Z</time>
      </trkpt>
      <trkpt lat="46.53661" lon="7.9139">
        <ele>1498.17</ele>
        <time>2022-09-21T06:52:08Z</time>
      </trkpt>
      <trkpt lat="46.5366" lon="7.91392">
        <ele>1498.24</ele>
        <time>2022-09-21T06:52:10Z</time>
      </trkpt>
      <trkpt lat="46.5366" lon="7.91393">
        <ele>1498.13</ele>
        <time>2022-09-21T06:52:12Z</time>
      </trkpt>
      <trkpt lat="46.5366" lon="7.91395">
        <ele>1498.21</ele>
        <time>2022-09-21T06:52:14Z</time>
      </trkpt>
      <trkpt lat="46.5366" lon="7.91397">
        <ele>1497.1</ele>
        <time>2022-09-21T06:52:16Z</time>
      </trkpt>
      <trkpt lat="46.5366" lon="7.91398">
        <ele>1497.02</ele>
        <time>2022-09-21T06:52:18Z</time>
      </trkpt>
      <trkpt lat="46.53658" lon="7.91399">
        <ele>1498.32</ele>
        <time>2022-09-21T06:52:20Z</time>
      </trkpt>
      <trkpt lat="46.53657" lon="7.91399">
        <ele>1498.17</ele>
        <time>2022-09-21T06:52:21Z</time>
      </trkpt>
      <trkpt lat="46.53656" lon="7.914">
        <ele>1498.68</ele>
        <time>2022-09-21T06:52:22Z</time>
      </trkpt>
      <trkpt lat="46.53655" lon="7.914">
        <ele>1499.54</ele>
        <time>2022-09-21T06:52:23Z</time>
      </trkpt>
      <trkpt lat="46.53654" lon="7.91401">
        <ele>1500.28</ele>
        <time>2022-09-21T06:52:24Z</time>
      </trkpt>
      <trkpt lat="46.53653" lon="7.91401">
        <ele>1500.87</ele>
        <time>2022-09-21T06:52:25Z</time>
      </trkpt>
      <trkpt lat="46.53652" lon="7.91403">
        <ele>1500.99</ele>
        <time>2022-09-21T06:52:27Z</time>
      </trkpt>
      <trkpt lat="46.53653" lon="7.91405">
        <ele>1499.83</ele>
        <time>2022-09-21T06:52:29Z</time>
      </trkpt>
      <trkpt lat="46.53653" lon="7.91406">
        <ele>1500.39</ele>
        <time>2022-09-21T06:52:30Z</time>
      </trkpt>
      <trkpt lat="46.53654" lon="7.91407">
        <ele>1499.32</ele>
        <time>2022-09-21T06:52:31Z</time>
      </trkpt>
      <trkpt lat="46.53654" lon="7.91409">
        <ele>1499.65</ele>
        <time>2022-09-21T06:52:33Z</time>
      </trkpt>
      <trkpt lat="46.53653" lon="7.9141">
        <ele>1500.7</ele>
        <time>2022-09-21T06:52:35Z</time>
      </trkpt>
      <trkpt lat="46.53651" lon="7.9141">
        <ele>1501.75</ele>
        <time>2022-09-21T06:52:37Z</time>
      </trkpt>
      <trkpt lat="46.53649" lon="7.91411">
        <ele>1504.18</ele>
        <time>2022-09-21T06:52:40Z</time>
      </trkpt>
      <trkpt lat="46.53649" lon="7.91412">
        <ele>1504.63</ele>
        <time>2022-09-21T06:52:42Z</time>
      </trkpt>
      <trkpt lat="46.53649" lon="7.91414">
        <ele>1504.35</ele>
        <time>2022-09-21T06:52:44Z</time>
      </trkpt>
      <trkpt lat="46.53648" lon="7.91416">
        <ele>1504.81</ele>
        <time>2022-09-21T06:52:46Z</time>
      </trkpt>
      <trkpt lat="46.53647" lon="7.91416">
        <ele>1506.62</ele>
        <time>2022-09-21T06:52:48Z</time>
      </trkpt>
      <trkpt lat="46.53646" lon="7.91416">
        <ele>1506.53</ele>
        <time>2022-09-21T06:52:49Z</time>
      </trkpt>
      <trkpt lat="46.53645" lon="7.91416">
        <ele>1507.21</ele>
        <time>2022-09-21T06:52:50Z</time>
      </trkpt>
      <trkpt lat="46.53644" lon="7.91416">
        <ele>1507.36</ele>
        <time>2022-09-21T06:52:51Z</time>
      </trkpt>
      <trkpt lat="46.53643" lon="7.91416">
        <ele>1507.71</ele>
        <time>2022-09-21T06:52:52Z</time>
      </trkpt>
      <trkpt lat="46.53642" lon="7.91417">
        <ele>1509.2</ele>
        <time>2022-09-21T06:52:54Z</time>
      </trkpt>
      <trkpt lat="46.5364" lon="7.91419">
        <ele>1509.63</ele>
        <time>2022-09-21T06:52:56Z</time>
      </trkpt>
      <trkpt lat="46.53639" lon="7.9142">
        <ele>1508.73</ele>
        <time>2022-09-21T06:52:58Z</time>
      </trkpt>
      <trkpt lat="46.53638" lon="7.91421">
        <ele>1509.87</ele>
        <time>2022-09-21T06:53:00Z</time>
      </trkpt>
      <trkpt lat="46.53639" lon="7.91422">
        <ele>1509.84</ele>
        <time>2022-09-21T06:53:02Z</time>
      </trkpt>
      <trkpt lat="46.53639" lon="7.91423">
        <ele>1509.83</ele>
        <time>2022-09-21T06:53:03Z</time>
      </trkpt>
      <trkpt lat="46.5364" lon="7.91424">
        <ele>1510.38</ele>
        <time>2022-09-21T06:53:04Z</time>
      </trkpt>
      <trkpt lat="46.53641" lon="7.91424">
        <ele>1509.71</ele>
        <time>2022-09-21T06:53:05Z</time>
      </trkpt>
      <trkpt lat="46.53642" lon="7.91425">
        <ele>1509.27</ele>
        <time>2022-09-21T06:53:06Z</time>
      </trkpt>
      <trkpt lat="46.53643" lon="7.91425">
        <ele>1509.85</ele>
        <time>2022-09-21T06:53:07Z</time>
      </trkpt>
      <trkpt lat="46.53644" lon="7.91425">
        <ele>1510.6</ele>
        <time>2022-09-21T06:53:08Z</time>
      </trkpt>
      <trkpt lat="46.53645" lon="7.91425">
        <ele>1511.02</ele>
        <time>2022-09-21T06:53:09Z</time>
      </trkpt>
      <trkpt lat="46.53647" lon="7.91425">
        <ele>1510.76</ele>
        <time>2022-09-21T06:53:11Z</time>
      </trkpt>
      <trkpt lat="46.53648" lon="7.91425">
        <ele>1511.31</ele>
        <time>2022-09-21T06:53:13Z</time>
      </trkpt>
      <trkpt lat="46.53649" lon="7.91425">
        <ele>1511.17</ele>
        <time>2022-09-21T06:53:15Z</time>
      </trkpt>
      <trkpt lat="46.5365" lon="7.91425">
        <ele>1512.48</ele>
        <time>2022-09-21T06:53:17Z</time>
      </trkpt>
      <trkpt lat="46.53652" lon="7.91424">
        <ele>1513.66</ele>
        <time>2022-09-21T06:53:19Z</time>
      </trkpt>
      <trkpt lat="46.53653" lon="7.91424">
        <ele>1514.52</ele>
        <time>2022-09-21T06:53:21Z</time>
      </trkpt>
      <trkpt lat="46.53655" lon="7.91423">
        <ele>1515.18</ele>
        <time>2022-09-21T06:53:23Z</time>
      </trkpt>
      <trkpt lat="46.53656" lon="7.91423">
        <ele>1515.11</ele>
        <time>2022-09-21T06:53:24Z</time>
      </trkpt>
      <trkpt lat="46.53656" lon="7.91424">
        <ele>1514.65</ele>
        <time>2022-09-21T06:53:25Z</time>
      </trkpt>
      <trkpt lat="46.53657" lon="7.91424">
        <ele>1514.63</ele>
        <time>2022-09-21T06:53:26Z</time>
      </trkpt>
      <trkpt lat="46.53659" lon="7.91424">
        <ele>1515.16</ele>
        <time>2022-09-21T06:53:27Z</time>
      </trkpt>
      <trkpt lat="46.53659" lon="7.91424">
        <ele>1516.64</ele>
        <time>2022-09-21T06:53:28Z</time>
      </trkpt>
      <trkpt lat="46.5366" lon="7.91423">
        <ele>1516.53</ele>
        <time>2022-09-21T06:53:29Z</time>
      </trkpt>
      <trkpt lat="46.53661" lon="7.91423">
        <ele>1516.63</ele>
        <time>2022-09-21T06:53:30Z</time>
      </trkpt>
      <trkpt lat="46.53663" lon="7.91422">
        <ele>1516.53</ele>
        <time>2022-09-21T06:53:32Z</time>
      </trkpt>
      <trkpt lat="46.53665" lon="7.91423">
        <ele>1516.19</ele>
        <time>2022-09-21T06:53:34Z</time>
      </trkpt>
      <trkpt lat="46.53666" lon="7.91423">
        <ele>1517.37</ele>
        <time>2022-09-21T06:53:36Z</time>
      </trkpt>
      <trkpt lat="46.53667" lon="7.91423">
        <ele>1517.56</ele>
        <time>2022-09-21T06:53:37Z</time>
      </trkpt>
      <trkpt lat="46.53669" lon="7.91423">
        <ele>1548.13</ele>
        <time>2022-09-21T06:53:39Z</time>
      </trkpt>
      <trkpt lat="46.5367" lon="7.91424">
        <ele>1541.42</ele>
        <time>2022-09-21T06:53:40Z</time>
      </trkpt>
      <trkpt lat="46.53671" lon="7.91425">
        <ele>1534.63</ele>
        <time>2022-09-21T06:53:42Z</time>
      </trkpt>
      <trkpt lat="46.5367" lon="7.91427">
        <ele>1529.63</ele>
        <time>2022-09-21T06:53:45Z</time>
      </trkpt>
      <trkpt lat="46.53668" lon="7.91428">
        <ele>1525.99</ele>
        <time>2022-09-21T06:53:47Z</time>
      </trkpt>
      <trkpt lat="46.53666" lon="7.91428">
        <ele>1525.99</ele>
        <time>2022-09-21T06:53:50Z</time>
      </trkpt>
      <trkpt lat="46.53664" lon="7.91428">
        <ele>1525.42</ele>
        <time>2022-09-21T06:53:52Z</time>
      </trkpt>
      <trkpt lat="46.53663" lon="7.91429">
        <ele>1524.21</ele>
        <time>2022-09-21T06:53:54Z</time>
      </trkpt>
      <trkpt lat="46.53662" lon="7.9143">
        <ele>1524.01</ele>
        <time>2022-09-21T06:53:56Z</time>
      </trkpt>
      <trkpt lat="46.53661" lon="7.91431">
        <ele>1523.48</ele>
        <time>2022-09-21T06:53:58Z</time>
      </trkpt>
      <trkpt lat="46.53659" lon="7.91432">
        <ele>1525.05</ele>
        <time>2022-09-21T06:54:00Z</time>
      </trkpt>
      <trkpt lat="46.53659" lon="7.91433">
        <ele>1527.09</ele>
        <time>2022-09-21T06:54:02Z</time>
      </trkpt>
      <trkpt lat="46.53658" lon="7.91434">
        <ele>1527.03</ele>
        <time>2022-09-21T06:54:04Z</time>
      </trkpt>
      <trkpt lat="46.53657" lon="7.91436">
        <ele>1526.59</ele>
        <time>2022-09-21T06:54:06Z</time>
      </trkpt>
      <trkpt lat="46.53656" lon="7.91438">
        <ele>1526.7</ele>
        <time>2022-09-21T06:54:08Z</time>
      </trkpt>
      <trkpt lat="46.53655" lon="7.9144">
        <ele>1526.07</ele>
        <time>2022-09-21T06:54:10Z</time>
      </trkpt>
      <trkpt lat="46.53654" lon="7.91442">
        <ele>1527.63</ele>
        <time>2022-09-21T06:54:12Z</time>
      </trkpt>
      <trkpt lat="46.53653" lon="7.91444">
        <ele>1528.86</ele>
        <time>2022-09-21T06:54:14Z</time>
      </trkpt>
      <trkpt lat="46.53651" lon="7.91445">
        <ele>1529.78</ele>
        <time>2022-09-21T06:54:16Z</time>
      </trkpt>
      <trkpt lat="46.5365" lon="7.91446">
        <ele>1530.15</ele>
        <time>2022-09-21T06:54:18Z</time>
      </trkpt>
      <trkpt lat="46.53649" lon="7.91448">
        <ele>1529.97</ele>
        <time>2022-09-21T06:54:20Z</time>
      </trkpt>
      <trkpt lat="46.53649" lon="7.9145">
        <ele>1529.82</ele>
        <time>2022-09-21T06:54:21Z</time>
      </trkpt>
      <trkpt lat="46.53648" lon="7.91451">
        <ele>1530.84</ele>
        <time>2022-09-21T06:54:22Z</time>
      </trkpt>
      <trkpt lat="46.53647" lon="7.91453">
        <ele>1530.21</ele>
        <time>2022-09-21T06:54:24Z</time>
      </trkpt>
      <trkpt lat="46.53645" lon="7.91453">
        <ele>1531.03</ele>
        <time>2022-09-21T06:54:26Z</time>
      </trkpt>
      <trkpt lat="46.53644" lon="7.91454">
        <ele>1531.07</ele>
        <time>2022-09-21T06:54:28Z</time>
      </trkpt>
      <trkpt lat="46.53643" lon="7.91455">
        <ele>1530.37</ele>
        <time>2022-09-21T06:54:29Z</time>
      </trkpt>
      <trkpt lat="46.53643" lon="7.91456">
        <ele>1529.89</ele>
        <time>2022-09-21T06:54:30Z</time>
      </trkpt>
      <trkpt lat="46.53642" lon="7.91457">
        <ele>1531.01</ele>
        <time>2022-09-21T06:54:31Z</time>
      </trkpt>
      <trkpt lat="46.53641" lon="7.91458">
        <ele>1529.27</ele>
        <time>2022-09-21T06:54:32Z</time>
      </trkpt>
      <trkpt lat="46.5364" lon="7.91459">
        <ele>1529.52</ele>
        <time>2022-09-21T06:54:33Z</time>
      </trkpt>
      <trkpt lat="46.53639" lon="7.9146">
        <ele>1530.63</ele>
        <time>2022-09-21T06:54:34Z</time>
      </trkpt>
      <trkpt lat="46.53639" lon="7.91461">
        <ele>1531.24</ele>
        <time>2022-09-21T06:54:35Z</time>
      </trkpt>
      <trkpt lat="46.53637" lon="7.91463">
        <ele>1532.12</ele>
        <time>2022-09-21T06:54:37Z</time>
      </trkpt>
      <trkpt lat="46.53636" lon="7.91465">
        <ele>1530.14</ele>
        <time>2022-09-21T06:54:39Z</time>
      </trkpt>
      <trkpt lat="46.53635" lon="7.91466">
        <ele>1528.25</ele>
        <time>2022-09-21T06:54:41Z</time>
      </trkpt>
      <trkpt lat="46.53633" lon="7.91467">
        <ele>1531.14</ele>
        <time>2022-09-21T06:54:43Z</time>
      </trkpt>
      <trkpt lat="46.53632" lon="7.91468">
        <ele>1529.97</ele>
        <time>2022-09-21T06:54:44Z</time>
      </trkpt>
      <trkpt lat="46.53631" lon="7.91469">
        <ele>1532.2</ele>
        <time>2022-09-21T06:54:45Z</time>
      </trkpt>
      <trkpt lat="46.5363" lon="7.9147">
        <ele>1531.19</ele>
        <time>2022-09-21T06:54:46Z</time>
      </trkpt>
      <trkpt lat="46.53629" lon="7.91471">
        <ele>1531.22</ele>
        <time>2022-09-21T06:54:47Z</time>
      </trkpt>
      <trkpt lat="46.53628" lon="7.91472">
        <ele>1531.19</ele>
        <time>2022-09-21T06:54:48Z</time>
      </trkpt>
      <trkpt lat="46.53627" lon="7.91472">
        <ele>1529.54</ele>
        <time>2022-09-21T06:54:49Z</time>
      </trkpt>
      <trkpt lat="46.53626" lon="7.91473">
        <ele>1530.06</ele>
        <time>2022-09-21T06:54:50Z</time>
      </trkpt>
      <trkpt lat="46.53624" lon="7.91474">
        <ele>1532.28</ele>
        <time>2022-09-21T06:54:51Z</time>
      </trkpt>
      <trkpt lat="46.53623" lon="7.91476">
        <ele>1532.85</ele>
        <time>2022-09-21T06:54:52Z</time>
      </trkpt>
      <trkpt lat="46.53622" lon="7.91477">
        <ele>1531.42</ele>
        <time>2022-09-21T06:54:53Z</time>
      </trkpt>
      <trkpt lat="46.53621" lon="7.91478">
        <ele>1533.33</ele>
        <time>2022-09-21T06:54:54Z</time>
      </trkpt>
      <trkpt lat="46.5362" lon="7.91479">
        <ele>1532.62</ele>
        <time>2022-09-21T06:54:55Z</time>
      </trkpt>
      <trkpt lat="46.53619" lon="7.9148">
        <ele>1533.02</ele>
        <time>2022-09-21T06:54:56Z</time>
      </trkpt>
      <trkpt lat="46.53618" lon="7.9148">
        <ele>1534.31</ele>
        <time>2022-09-21T06:54:57Z</time>
      </trkpt>
      <trkpt lat="46.53617" lon="7.91481">
        <ele>1534.35</ele>
        <time>2022-09-21T06:54:58Z</time>
      </trkpt>
      <trkpt lat="46.53617" lon="7.91482">
        <ele>1533.33</ele>
        <time>2022-09-21T06:54:59Z</time>
      </trkpt>
      <trkpt lat="46.53616" lon="7.91483">
        <ele>1531.47</ele>
        <time>2022-09-21T06:55:00Z</time>
      </trkpt>
      <trkpt lat="46.53615" lon="7.91484">
        <ele>1531.58</ele>
        <time>2022-09-21T06:55:01Z</time>
      </trkpt>
      <trkpt lat="46.53614" lon="7.91485">
        <ele>1530.63</ele>
        <time>2022-09-21T06:55:02Z</time>
      </trkpt>
      <trkpt lat="46.53614" lon="7.91486">
        <ele>1532.71</ele>
        <time>2022-09-21T06:55:03Z</time>
      </trkpt>
      <trkpt lat="46.53614" lon="7.91488">
        <ele>1532.75</ele>
        <time>2022-09-21T06:55:04Z</time>
      </trkpt>
      <trkpt lat="46.53612" lon="7.9149">
        <ele>1534.03</ele>
        <time>2022-09-21T06:55:06Z</time>
      </trkpt>
      <trkpt lat="46.53611" lon="7.91491">
        <ele>1537.6</ele>
        <time>2022-09-21T06:55:09Z</time>
      </trkpt>
      <trkpt lat="46.5361" lon="7.91493">
        <ele>1540.26</ele>
        <time>2022-09-21T06:55:11Z</time>
      </trkpt>
      <trkpt lat="46.53609" lon="7.91494">
        <ele>1538.49</ele>
        <time>2022-09-21T06:55:13Z</time>
      </trkpt>
      <trkpt lat="46.53608" lon="7.91496">
        <ele>1542.34</ele>
        <time>2022-09-21T06:55:15Z</time>
      </trkpt>
      <trkpt lat="46.53608" lon="7.91497">
        <ele>1544.4</ele>
        <time>2022-09-21T06:55:18Z</time>
      </trkpt>
      <trkpt lat="46.53607" lon="7.91499">
        <ele>1545.63</ele>
        <time>2022-09-21T06:55:20Z</time>
      </trkpt>
      <trkpt lat="46.53605" lon="7.91499">
        <ele>1544.47</ele>
        <time>2022-09-21T06:55:22Z</time>
      </trkpt>
      <trkpt lat="46.53604" lon="7.91499">
        <ele>1544.36</ele>
        <time>2022-09-21T06:55:23Z</time>
      </trkpt>
      <trkpt lat="46.53603" lon="7.91498">
        <ele>1543.51</ele>
        <time>2022-09-21T06:55:24Z</time>
      </trkpt>
      <trkpt lat="46.53602" lon="7.91498">
        <ele>1546.77</ele>
        <time>2022-09-21T06:55:26Z</time>
      </trkpt>
      <trkpt lat="46.53601" lon="7.91496">
        <ele>1546.66</ele>
        <time>2022-09-21T06:55:28Z</time>
      </trkpt>
      <trkpt lat="46.536" lon="7.91494">
        <ele>1548.23</ele>
        <time>2022-09-21T06:55:30Z</time>
      </trkpt>
      <trkpt lat="46.53599" lon="7.91492">
        <ele>1547.82</ele>
        <time>2022-09-21T06:55:32Z</time>
      </trkpt>
      <trkpt lat="46.53598" lon="7.9149">
        <ele>1547.49</ele>
        <time>2022-09-21T06:55:34Z</time>
      </trkpt>
      <trkpt lat="46.53598" lon="7.91488">
        <ele>1546.25</ele>
        <time>2022-09-21T06:55:36Z</time>
      </trkpt>
      <trkpt lat="46.53597" lon="7.91487">
        <ele>1546.11</ele>
        <time>2022-09-21T06:55:38Z</time>
      </trkpt>
      <trkpt lat="46.53596" lon="7.91486">
        <ele>1546.94</ele>
        <time>2022-09-21T06:55:40Z</time>
      </trkpt>
      <trkpt lat="46.53596" lon="7.91484">
        <ele>1545.98</ele>
        <time>2022-09-21T06:55:42Z</time>
      </trkpt>
      <trkpt lat="46.53595" lon="7.91482">
        <ele>1545.74</ele>
        <time>2022-09-21T06:55:44Z</time>
      </trkpt>
      <trkpt lat="46.53595" lon="7.9148">
        <ele>1545.54</ele>
        <time>2022-09-21T06:55:46Z</time>
      </trkpt>
      <trkpt lat="46.53595" lon="7.91478">
        <ele>1546.53</ele>
        <time>2022-09-21T06:55:48Z</time>
      </trkpt>
      <trkpt lat="46.53594" lon="7.91476">
        <ele>1547.72</ele>
        <time>2022-09-21T06:55:50Z</time>
      </trkpt>
      <trkpt lat="46.53593" lon="7.91474">
        <ele>1549.47</ele>
        <time>2022-09-21T06:55:52Z</time>
      </trkpt>
      <trkpt lat="46.53592" lon="7.91473">
        <ele>1549.72</ele>
        <time>2022-09-21T06:55:53Z</time>
      </trkpt>
      <trkpt lat="46.53592" lon="7.91472">
        <ele>1550.02</ele>
        <time>2022-09-21T06:55:54Z</time>
      </trkpt>
      <trkpt lat="46.53591" lon="7.91471">
        <ele>1549.13</ele>
        <time>2022-09-21T06:55:55Z</time>
      </trkpt>
      <trkpt lat="46.53591" lon="7.91469">
        <ele>1549.02</ele>
        <time>2022-09-21T06:55:56Z</time>
      </trkpt>
      <trkpt lat="46.5359" lon="7.91468">
        <ele>1549.14</ele>
        <time>2022-09-21T06:55:57Z</time>
      </trkpt>
      <trkpt lat="46.53589" lon="7.91467">
        <ele>1549.02</ele>
        <time>2022-09-21T06:55:58Z</time>
      </trkpt>
      <trkpt lat="46.53588" lon="7.91466">
        <ele>1548.94</ele>
        <time>2022-09-21T06:55:59Z</time>
      </trkpt>
      <trkpt lat="46.53587" lon="7.91465">
        <ele>1549.86</ele>
        <time>2022-09-21T06:56:01Z</time>
      </trkpt>
      <trkpt lat="46.53586" lon="7.91464">
        <ele>1549.76</ele>
        <time>2022-09-21T06:56:03Z</time>
      </trkpt>
      <trkpt lat="46.53585" lon="7.91463">
        <ele>1550.38</ele>
        <time>2022-09-21T06:56:04Z</time>
      </trkpt>
      <trkpt lat="46.53585" lon="7.91462">
        <ele>1551.05</ele>
        <time>2022-09-21T06:56:05Z</time>
      </trkpt>
      <trkpt lat="46.53584" lon="7.91461">
        <ele>1551.07</ele>
        <time>2022-09-21T06:56:06Z</time>
      </trkpt>
      <trkpt lat="46.53583" lon="7.9146">
        <ele>1551.13</ele>
        <time>2022-09-21T06:56:07Z</time>
      </trkpt>
      <trkpt lat="46.53583" lon="7.91459">
        <ele>1551.23</ele>
        <time>2022-09-21T06:56:08Z</time>
      </trkpt>
      <trkpt lat="46.53582" lon="7.91458">
        <ele>1551.12</ele>
        <time>2022-09-21T06:56:09Z</time>
      </trkpt>
      <trkpt lat="46.53581" lon="7.91457">
        <ele>1550.42</ele>
        <time>2022-09-21T06:56:10Z</time>
      </trkpt>
      <trkpt lat="46.5358" lon="7.91457">
        <ele>1550.69</ele>
        <time>2022-09-21T06:56:11Z</time>
      </trkpt>
      <trkpt lat="46.53579" lon="7.91456">
        <ele>1550.94</ele>
        <time>2022-09-21T06:56:12Z</time>
      </trkpt>
      <trkpt lat="46.53578" lon="7.91455">
        <ele>1552.61</ele>
        <time>2022-09-21T06:56:14Z</time>
      </trkpt>
      <trkpt lat="46.53577" lon="7.91454">
        <ele>1552.53</ele>
        <time>2022-09-21T06:56:16Z</time>
      </trkpt>
      <trkpt lat="46.53575" lon="7.91453">
        <ele>1551.7</ele>
        <time>2022-09-21T06:56:18Z</time>
      </trkpt>
      <trkpt lat="46.53574" lon="7.91452">
        <ele>1551</ele>
        <time>2022-09-21T06:56:20Z</time>
      </trkpt>
      <trkpt lat="46.53573" lon="7.91451">
        <ele>1551.65</ele>
        <time>2022-09-21T06:56:22Z</time>
      </trkpt>
      <trkpt lat="46.53572" lon="7.9145">
        <ele>1552.43</ele>
        <time>2022-09-21T06:56:24Z</time>
      </trkpt>
      <trkpt lat="46.53571" lon="7.91448">
        <ele>1553.52</ele>
        <time>2022-09-21T06:56:26Z</time>
      </trkpt>
      <trkpt lat="46.5357" lon="7.91446">
        <ele>1554.19</ele>
        <time>2022-09-21T06:56:27Z</time>
      </trkpt>
      <trkpt lat="46.5357" lon="7.91445">
        <ele>1553.83</ele>
        <time>2022-09-21T06:56:29Z</time>
      </trkpt>
      <trkpt lat="46.53569" lon="7.91445">
        <ele>1552.63</ele>
        <time>2022-09-21T06:56:31Z</time>
      </trkpt>
      <trkpt lat="46.53567" lon="7.91445">
        <ele>1554.51</ele>
        <time>2022-09-21T06:56:33Z</time>
      </trkpt>
      <trkpt lat="46.53566" lon="7.91443">
        <ele>1554.85</ele>
        <time>2022-09-21T06:56:35Z</time>
      </trkpt>
      <trkpt lat="46.53565" lon="7.91442">
        <ele>1555.14</ele>
        <time>2022-09-21T06:56:36Z</time>
      </trkpt>
      <trkpt lat="46.53564" lon="7.91442">
        <ele>1557.39</ele>
        <time>2022-09-21T06:56:38Z</time>
      </trkpt>
      <trkpt lat="46.53563" lon="7.91443">
        <ele>1555.31</ele>
        <time>2022-09-21T06:56:39Z</time>
      </trkpt>
      <trkpt lat="46.53562" lon="7.91444">
        <ele>1555.81</ele>
        <time>2022-09-21T06:56:41Z</time>
      </trkpt>
      <trkpt lat="46.5356" lon="7.91443">
        <ele>1556.67</ele>
        <time>2022-09-21T06:56:44Z</time>
      </trkpt>
      <trkpt lat="46.53559" lon="7.91444">
        <ele>1556.81</ele>
        <time>2022-09-21T06:56:46Z</time>
      </trkpt>
      <trkpt lat="46.53558" lon="7.91442">
        <ele>1558.95</ele>
        <time>2022-09-21T06:56:48Z</time>
      </trkpt>
      <trkpt lat="46.53558" lon="7.9144">
        <ele>1559.15</ele>
        <time>2022-09-21T06:56:50Z</time>
      </trkpt>
      <trkpt lat="46.53557" lon="7.9144">
        <ele>1558.08</ele>
        <time>2022-09-21T06:56:53Z</time>
      </trkpt>
      <trkpt lat="46.53556" lon="7.91438">
        <ele>1559.27</ele>
        <time>2022-09-21T06:56:55Z</time>
      </trkpt>
      <trkpt lat="46.53555" lon="7.91437">
        <ele>1559.78</ele>
        <time>2022-09-21T06:56:57Z</time>
      </trkpt>
      <trkpt lat="46.53554" lon="7.91435">
        <ele>1560.2</ele>
        <time>2022-09-21T06:56:59Z</time>
      </trkpt>
      <trkpt lat="46.53553" lon="7.91435">
        <ele>1559.92</ele>
        <time>2022-09-21T06:57:00Z</time>
      </trkpt>
      <trkpt lat="46.53552" lon="7.91435">
        <ele>1560.99</ele>
        <time>2022-09-21T06:57:01Z</time>
      </trkpt>
      <trkpt lat="46.53551" lon="7.91435">
        <ele>1561.55</ele>
        <time>2022-09-21T06:57:03Z</time>
      </trkpt>
      <trkpt lat="46.53549" lon="7.91434">
        <ele>1563.8</ele>
        <time>2022-09-21T06:57:06Z</time>
      </trkpt>
      <trkpt lat="46.53549" lon="7.91433">
        <ele>1563.94</ele>
        <time>2022-09-21T06:57:07Z</time>
      </trkpt>
      <trkpt lat="46.53548" lon="7.91431">
        <ele>1563.67</ele>
        <time>2022-09-21T06:57:09Z</time>
      </trkpt>
      <trkpt lat="46.53547" lon="7.9143">
        <ele>1564.6</ele>
        <time>2022-09-21T06:57:11Z</time>
      </trkpt>
      <trkpt lat="46.53545" lon="7.91429">
        <ele>1564.97</ele>
        <time>2022-09-21T06:57:13Z</time>
      </trkpt>
      <trkpt lat="46.53544" lon="7.91429">
        <ele>1566.09</ele>
        <time>2022-09-21T06:57:15Z</time>
      </trkpt>
      <trkpt lat="46.53543" lon="7.91428">
        <ele>1567.17</ele>
        <time>2022-09-21T06:57:17Z</time>
      </trkpt>
      <trkpt lat="46.53541" lon="7.91427">
        <ele>1567.72</ele>
        <time>2022-09-21T06:57:19Z</time>
      </trkpt>
      <trkpt lat="46.5354" lon="7.91427">
        <ele>1568.24</ele>
        <time>2022-09-21T06:57:21Z</time>
      </trkpt>
      <trkpt lat="46.5354" lon="7.91428">
        <ele>1570.52</ele>
        <time>2022-09-21T06:57:25Z</time>
      </trkpt>
      <trkpt lat="46.53539" lon="7.91428">
        <ele>1571.1</ele>
        <time>2022-09-21T06:57:27Z</time>
      </trkpt>
      <trkpt lat="46.53538" lon="7.91428">
        <ele>1571.34</ele>
        <time>2022-09-21T06:57:29Z</time>
      </trkpt>
      <trkpt lat="46.53537" lon="7.91429">
        <ele>1571.21</ele>
        <time>2022-09-21T06:57:33Z</time>
      </trkpt>
      <trkpt lat="46.53536" lon="7.91429">
        <ele>1571.39</ele>
        <time>2022-09-21T06:57:35Z</time>
      </trkpt>
      <trkpt lat="46.53534" lon="7.91429">
        <ele>1571.45</ele>
        <time>2022-09-21T06:57:37Z</time>
      </trkpt>
      <trkpt lat="46.53533" lon="7.91427">
        <ele>1570.93</ele>
        <time>2022-09-21T06:57:39Z</time>
      </trkpt>
      <trkpt lat="46.53532" lon="7.91428">
        <ele>1570.79</ele>
        <time>2022-09-21T06:57:41Z</time>
      </trkpt>
      <trkpt lat="46.53531" lon="7.91428">
        <ele>1570.59</ele>
        <time>2022-09-21T06:57:43Z</time>
      </trkpt>
      <trkpt lat="46.5353" lon="7.91427">
        <ele>1572.08</ele>
        <time>2022-09-21T06:57:45Z</time>
      </trkpt>
      <trkpt lat="46.53529" lon="7.91427">
        <ele>1571.82</ele>
        <time>2022-09-21T06:57:47Z</time>
      </trkpt>
      <trkpt lat="46.53528" lon="7.91428">
        <ele>1590.94</ele>
        <time>2022-09-21T06:57:50Z</time>
      </trkpt>
      <trkpt lat="46.53527" lon="7.9143">
        <ele>1583.68</ele>
        <time>2022-09-21T06:57:53Z</time>
      </trkpt>
      <trkpt lat="46.53527" lon="7.91432">
        <ele>1581.48</ele>
        <time>2022-09-21T06:57:55Z</time>
      </trkpt>
      <trkpt lat="46.53527" lon="7.91433">
        <ele>1580.21</ele>
        <time>2022-09-21T06:57:57Z</time>
      </trkpt>
      <trkpt lat="46.53526" lon="7.91436">
        <ele>1578</ele>
        <time>2022-09-21T06:58:00Z</time>
      </trkpt>
      <trkpt lat="46.53525" lon="7.91436">
        <ele>1576.75</ele>
        <time>2022-09-21T06:58:01Z</time>
      </trkpt>
      <trkpt lat="46.53522" lon="7.91437">
        <ele>1575.49</ele>
        <time>2022-09-21T06:58:03Z</time>
      </trkpt>
      <trkpt lat="46.5352" lon="7.91437">
        <ele>1576.86</ele>
        <time>2022-09-21T06:58:04Z</time>
      </trkpt>
      <trkpt lat="46.53518" lon="7.91437">
        <ele>1576.7</ele>
        <time>2022-09-21T06:58:06Z</time>
      </trkpt>
      <trkpt lat="46.53517" lon="7.91437">
        <ele>1577.86</ele>
        <time>2022-09-21T06:58:08Z</time>
      </trkpt>
      <trkpt lat="46.53516" lon="7.91438">
        <ele>1578.84</ele>
        <time>2022-09-21T06:58:09Z</time>
      </trkpt>
      <trkpt lat="46.53515" lon="7.91438">
        <ele>1579.06</ele>
        <time>2022-09-21T06:58:10Z</time>
      </trkpt>
      <trkpt lat="46.53514" lon="7.91439">
        <ele>1580.52</ele>
        <time>2022-09-21T06:58:12Z</time>
      </trkpt>
      <trkpt lat="46.53513" lon="7.91437">
        <ele>1583.02</ele>
        <time>2022-09-21T06:58:15Z</time>
      </trkpt>
      <trkpt lat="46.53512" lon="7.91435">
        <ele>1584.49</ele>
        <time>2022-09-21T06:58:18Z</time>
      </trkpt>
      <trkpt lat="46.53511" lon="7.91435">
        <ele>1583.98</ele>
        <time>2022-09-21T06:58:19Z</time>
      </trkpt>
      <trkpt lat="46.53509" lon="7.91435">
        <ele>1585.47</ele>
        <time>2022-09-21T06:58:21Z</time>
      </trkpt>
      <trkpt lat="46.53508" lon="7.91435">
        <ele>1588.9</ele>
        <time>2022-09-21T06:58:24Z</time>
      </trkpt>
      <trkpt lat="46.53509" lon="7.91436">
        <ele>1589.9</ele>
        <time>2022-09-21T06:58:28Z</time>
      </trkpt>
      <trkpt lat="46.5351" lon="7.91436">
        <ele>1590.75</ele>
        <time>2022-09-21T06:58:29Z</time>
      </trkpt>
      <trkpt lat="46.53512" lon="7.91436">
        <ele>1591.06</ele>
        <time>2022-09-21T06:58:30Z</time>
      </trkpt>
      <trkpt lat="46.53513" lon="7.91436">
        <ele>1592.28</ele>
        <time>2022-09-21T06:58:31Z</time>
      </trkpt>
      <trkpt lat="46.53514" lon="7.91436">
        <ele>1593.98</ele>
        <time>2022-09-21T06:58:33Z</time>
      </trkpt>
      <trkpt lat="46.53513" lon="7.91438">
        <ele>1594.76</ele>
        <time>2022-09-21T06:58:36Z</time>
      </trkpt>
      <trkpt lat="46.53512" lon="7.91439">
        <ele>1596.62</ele>
        <time>2022-09-21T06:58:38Z</time>
      </trkpt>
      <trkpt lat="46.53513" lon="7.91441">
        <ele>1595.37</ele>
        <time>2022-09-21T06:58:40Z</time>
      </trkpt>
      <trkpt lat="46.53512" lon="7.91442">
        <ele>1596.05</ele>
        <time>2022-09-21T06:58:42Z</time>
      </trkpt>
      <trkpt lat="46.53511" lon="7.91442">
        <ele>1597.07</ele>
        <time>2022-09-21T06:58:44Z</time>
      </trkpt>
      <trkpt lat="46.5351" lon="7.91442">
        <ele>1597.58</ele>
        <time>2022-09-21T06:58:46Z</time>
      </trkpt>
      <trkpt lat="46.53509" lon="7.91441">
        <ele>1597.55</ele>
        <time>2022-09-21T06:58:48Z</time>
      </trkpt>
      <trkpt lat="46.53508" lon="7.91443">
        <ele>1596.15</ele>
        <time>2022-09-21T06:58:51Z</time>
      </trkpt>
      <trkpt lat="46.53507" lon="7.91445">
        <ele>1595.92</ele>
        <time>2022-09-21T06:58:53Z</time>
      </trkpt>
      <trkpt lat="46.53506" lon="7.91447">
        <ele>1595.74</ele>
        <time>2022-09-21T06:58:55Z</time>
      </trkpt>
      <trkpt lat="46.53505" lon="7.91447">
        <ele>1596.87</ele>
        <time>2022-09-21T06:58:56Z</time>
      </trkpt>
      <trkpt lat="46.53503" lon="7.91449">
        <ele>1596.73</ele>
        <time>2022-09-21T06:58:58Z</time>
      </trkpt>
      <trkpt lat="46.53502" lon="7.91449">
        <ele>1597.91</ele>
        <time>2022-09-21T06:58:59Z</time>
      </trkpt>
      <trkpt lat="46.53502" lon="7.9145">
        <ele>1596.94</ele>
        <time>2022-09-21T06:59:00Z</time>
      </trkpt>
      <trkpt lat="46.53499" lon="7.91451">
        <ele>1597.01</ele>
        <time>2022-09-21T06:59:03Z</time>
      </trkpt>
      <trkpt lat="46.53498" lon="7.91451">
        <ele>1598.01</ele>
        <time>2022-09-21T06:59:07Z</time>
      </trkpt>
      <trkpt lat="46.53497" lon="7.91452">
        <ele>1598.2</ele>
        <time>2022-09-21T06:59:09Z</time>
      </trkpt>
      <trkpt lat="46.53496" lon="7.91452">
        <ele>1599.25</ele>
        <time>2022-09-21T06:59:11Z</time>
      </trkpt>
      <trkpt lat="46.53495" lon="7.91453">
        <ele>1600.16</ele>
        <time>2022-09-21T06:59:14Z</time>
      </trkpt>
      <trkpt lat="46.53495" lon="7.91454">
        <ele>1599.97</ele>
        <time>2022-09-21T06:59:16Z</time>
      </trkpt>
      <trkpt lat="46.53497" lon="7.91456">
        <ele>1600</ele>
        <time>2022-09-21T06:59:18Z</time>
      </trkpt>
      <trkpt lat="46.53496" lon="7.91457">
        <ele>1616.26</ele>
        <time>2022-09-21T06:59:21Z</time>
      </trkpt>
      <trkpt lat="46.53495" lon="7.91457">
        <ele>1612.15</ele>
        <time>2022-09-21T06:59:23Z</time>
      </trkpt>
      <trkpt lat="46.53493" lon="7.91459">
        <ele>1610.58</ele>
        <time>2022-09-21T06:59:25Z</time>
      </trkpt>
      <trkpt lat="46.53492" lon="7.9146">
        <ele>1607.44</ele>
        <time>2022-09-21T06:59:27Z</time>
      </trkpt>
      <trkpt lat="46.53491" lon="7.91462">
        <ele>1607.54</ele>
        <time>2022-09-21T06:59:28Z</time>
      </trkpt>
      <trkpt lat="46.5349" lon="7.91463">
        <ele>1607.02</ele>
        <time>2022-09-21T06:59:29Z</time>
      </trkpt>
      <trkpt lat="46.53489" lon="7.91464">
        <ele>1607.53</ele>
        <time>2022-09-21T06:59:30Z</time>
      </trkpt>
      <trkpt lat="46.53488" lon="7.91465">
        <ele>1607.52</ele>
        <time>2022-09-21T06:59:31Z</time>
      </trkpt>
      <trkpt lat="46.53487" lon="7.91465">
        <ele>1607.18</ele>
        <time>2022-09-21T06:59:32Z</time>
      </trkpt>
      <trkpt lat="46.53486" lon="7.91466">
        <ele>1605.26</ele>
        <time>2022-09-21T06:59:34Z</time>
      </trkpt>
      <trkpt lat="46.53484" lon="7.91466">
        <ele>1607.92</ele>
        <time>2022-09-21T06:59:36Z</time>
      </trkpt>
      <trkpt lat="46.53483" lon="7.91467">
        <ele>1607.66</ele>
        <time>2022-09-21T06:59:38Z</time>
      </trkpt>
      <trkpt lat="46.53482" lon="7.91468">
        <ele>1608.35</ele>
        <time>2022-09-21T06:59:39Z</time>
      </trkpt>
      <trkpt lat="46.53481" lon="7.91469">
        <ele>1608.85</ele>
        <time>2022-09-21T06:59:40Z</time>
      </trkpt>
      <trkpt lat="46.5348" lon="7.91469">
        <ele>1609.6</ele>
        <time>2022-09-21T06:59:41Z</time>
      </trkpt>
      <trkpt lat="46.53478" lon="7.91468">
        <ele>1611.32</ele>
        <time>2022-09-21T06:59:43Z</time>
      </trkpt>
      <trkpt lat="46.53477" lon="7.91467">
        <ele>1613.59</ele>
        <time>2022-09-21T06:59:45Z</time>
      </trkpt>
      <trkpt lat="46.53476" lon="7.91463">
        <ele>1614.35</ele>
        <time>2022-09-21T06:59:48Z</time>
      </trkpt>
      <trkpt lat="46.53476" lon="7.91462">
        <ele>1613.13</ele>
        <time>2022-09-21T06:59:51Z</time>
      </trkpt>
      <trkpt lat="46.53477" lon="7.91461">
        <ele>1613.43</ele>
        <time>2022-09-21T07:00:07Z</time>
      </trkpt>
      <trkpt lat="46.53476" lon="7.91462">
        <ele>1611.9</ele>
        <time>2022-09-21T07:00:16Z</time>
      </trkpt>
      <trkpt lat="46.53475" lon="7.91463">
        <ele>1610.84</ele>
        <time>2022-09-21T07:00:19Z</time>
      </trkpt>
      <trkpt lat="46.53474" lon="7.91461">
        <ele>1613.43</ele>
        <time>2022-09-21T07:00:24Z</time>
      </trkpt>
      <trkpt lat="46.53473" lon="7.91462">
        <ele>1613.71</ele>
        <time>2022-09-21T07:00:50Z</time>
      </trkpt>
      <trkpt lat="46.53473" lon="7.9146">
        <ele>1615.49</ele>
        <time>2022-09-21T07:00:52Z</time>
      </trkpt>
      <trkpt lat="46.53472" lon="7.91459">
        <ele>1616.92</ele>
        <time>2022-09-21T07:00:55Z</time>
      </trkpt>
      <trkpt lat="46.53471" lon="7.9146">
        <ele>1617.51</ele>
        <time>2022-09-21T07:00:57Z</time>
      </trkpt>
      <trkpt lat="46.5347" lon="7.91461">
        <ele>1618.02</ele>
        <time>2022-09-21T07:00:59Z</time>
      </trkpt>
      <trkpt lat="46.53468" lon="7.9146">
        <ele>1617</ele>
        <time>2022-09-21T07:01:03Z</time>
      </trkpt>
      <trkpt lat="46.53467" lon="7.91459">
        <ele>1617.27</ele>
        <time>2022-09-21T07:01:05Z</time>
      </trkpt>
      <trkpt lat="46.53465" lon="7.91458">
        <ele>1618.48</ele>
        <time>2022-09-21T07:01:07Z</time>
      </trkpt>
      <trkpt lat="46.53463" lon="7.91457">
        <ele>1618.48</ele>
        <time>2022-09-21T07:01:09Z</time>
      </trkpt>
      <trkpt lat="46.53462" lon="7.91458">
        <ele>1618.55</ele>
        <time>2022-09-21T07:01:10Z</time>
      </trkpt>
      <trkpt lat="46.53461" lon="7.91458">
        <ele>1618.41</ele>
        <time>2022-09-21T07:01:12Z</time>
      </trkpt>
      <trkpt lat="46.5346" lon="7.91459">
        <ele>1618.56</ele>
        <time>2022-09-21T07:01:13Z</time>
      </trkpt>
      <trkpt lat="46.53458" lon="7.9146">
        <ele>1618.74</ele>
        <time>2022-09-21T07:01:15Z</time>
      </trkpt>
      <trkpt lat="46.53457" lon="7.9146">
        <ele>1618.79</ele>
        <time>2022-09-21T07:01:18Z</time>
      </trkpt>
      <trkpt lat="46.53455" lon="7.9146">
        <ele>1619.02</ele>
        <time>2022-09-21T07:01:20Z</time>
      </trkpt>
      <trkpt lat="46.53454" lon="7.9146">
        <ele>1618.65</ele>
        <time>2022-09-21T07:01:21Z</time>
      </trkpt>
      <trkpt lat="46.53453" lon="7.9146">
        <ele>1618.31</ele>
        <time>2022-09-21T07:01:22Z</time>
      </trkpt>
      <trkpt lat="46.53452" lon="7.9146">
        <ele>1617.93</ele>
        <time>2022-09-21T07:01:23Z</time>
      </trkpt>
      <trkpt lat="46.53451" lon="7.9146">
        <ele>1617.69</ele>
        <time>2022-09-21T07:01:24Z</time>
      </trkpt>
      <trkpt lat="46.5345" lon="7.9146">
        <ele>1618.25</ele>
        <time>2022-09-21T07:01:26Z</time>
      </trkpt>
      <trkpt lat="46.53449" lon="7.91459">
        <ele>1620.77</ele>
        <time>2022-09-21T07:01:28Z</time>
      </trkpt>
      <trkpt lat="46.53447" lon="7.9146">
        <ele>1621.23</ele>
        <time>2022-09-21T07:01:31Z</time>
      </trkpt>
      <trkpt lat="46.53446" lon="7.91461">
        <ele>1621.02</ele>
        <time>2022-09-21T07:01:33Z</time>
      </trkpt>
      <trkpt lat="46.53444" lon="7.91461">
        <ele>1622.99</ele>
        <time>2022-09-21T07:01:35Z</time>
      </trkpt>
      <trkpt lat="46.53443" lon="7.91461">
        <ele>1621.84</ele>
        <time>2022-09-21T07:01:36Z</time>
      </trkpt>
      <trkpt lat="46.53442" lon="7.91461">
        <ele>1622</ele>
        <time>2022-09-21T07:01:37Z</time>
      </trkpt>
      <trkpt lat="46.53442" lon="7.91462">
        <ele>1622.24</ele>
        <time>2022-09-21T07:01:38Z</time>
      </trkpt>
      <trkpt lat="46.5344" lon="7.91463">
        <ele>1622.45</ele>
        <time>2022-09-21T07:01:40Z</time>
      </trkpt>
      <trkpt lat="46.53439" lon="7.91464">
        <ele>1620.79</ele>
        <time>2022-09-21T07:01:42Z</time>
      </trkpt>
      <trkpt lat="46.53438" lon="7.91464">
        <ele>1620.59</ele>
        <time>2022-09-21T07:01:44Z</time>
      </trkpt>
      <trkpt lat="46.53437" lon="7.91466">
        <ele>1621.32</ele>
        <time>2022-09-21T07:01:46Z</time>
      </trkpt>
      <trkpt lat="46.53436" lon="7.91468">
        <ele>1621.7</ele>
        <time>2022-09-21T07:01:48Z</time>
      </trkpt>
      <trkpt lat="46.53435" lon="7.91468">
        <ele>1620.94</ele>
        <time>2022-09-21T07:01:49Z</time>
      </trkpt>
      <trkpt lat="46.53433" lon="7.91469">
        <ele>1620.78</ele>
        <time>2022-09-21T07:01:51Z</time>
      </trkpt>
      <trkpt lat="46.53432" lon="7.91469">
        <ele>1621.31</ele>
        <time>2022-09-21T07:01:53Z</time>
      </trkpt>
      <trkpt lat="46.53431" lon="7.9147">
        <ele>1622.25</ele>
        <time>2022-09-21T07:01:55Z</time>
      </trkpt>
      <trkpt lat="46.53431" lon="7.91471">
        <ele>1623.31</ele>
        <time>2022-09-21T07:01:57Z</time>
      </trkpt>
      <trkpt lat="46.53431" lon="7.91473">
        <ele>1623.36</ele>
        <time>2022-09-21T07:01:58Z</time>
      </trkpt>
      <trkpt lat="46.53431" lon="7.91475">
        <ele>1623.95</ele>
        <time>2022-09-21T07:02:00Z</time>
      </trkpt>
      <trkpt lat="46.53431" lon="7.91477">
        <ele>1625.4</ele>
        <time>2022-09-21T07:02:03Z</time>
      </trkpt>
      <trkpt lat="46.5343" lon="7.91477">
        <ele>1626.47</ele>
        <time>2022-09-21T07:02:05Z</time>
      </trkpt>
      <trkpt lat="46.53428" lon="7.91477">
        <ele>1626.32</ele>
        <time>2022-09-21T07:02:07Z</time>
      </trkpt>
      <trkpt lat="46.53426" lon="7.91476">
        <ele>1626.51</ele>
        <time>2022-09-21T07:02:09Z</time>
      </trkpt>
      <trkpt lat="46.53425" lon="7.91476">
        <ele>1627.5</ele>
        <time>2022-09-21T07:02:10Z</time>
      </trkpt>
      <trkpt lat="46.53424" lon="7.91475">
        <ele>1629.78</ele>
        <time>2022-09-21T07:02:12Z</time>
      </trkpt>
      <trkpt lat="46.53423" lon="7.91475">
        <ele>1630.35</ele>
        <time>2022-09-21T07:02:13Z</time>
      </trkpt>
      <trkpt lat="46.53421" lon="7.91475">
        <ele>1630.22</ele>
        <time>2022-09-21T07:02:15Z</time>
      </trkpt>
      <trkpt lat="46.53421" lon="7.91477">
        <ele>1630.62</ele>
        <time>2022-09-21T07:02:17Z</time>
      </trkpt>
      <trkpt lat="46.5342" lon="7.91478">
        <ele>1629.3</ele>
        <time>2022-09-21T07:02:19Z</time>
      </trkpt>
      <trkpt lat="46.53418" lon="7.91479">
        <ele>1629.55</ele>
        <time>2022-09-21T07:02:21Z</time>
      </trkpt>
      <trkpt lat="46.53417" lon="7.91479">
        <ele>1629.42</ele>
        <time>2022-09-21T07:02:22Z</time>
      </trkpt>
      <trkpt lat="46.53416" lon="7.91481">
        <ele>1630.61</ele>
        <time>2022-09-21T07:02:24Z</time>
      </trkpt>
      <trkpt lat="46.53416" lon="7.91483">
        <ele>1630.78</ele>
        <time>2022-09-21T07:02:26Z</time>
      </trkpt>
      <trkpt lat="46.53416" lon="7.91485">
        <ele>1630.8</ele>
        <time>2022-09-21T07:02:28Z</time>
      </trkpt>
      <trkpt lat="46.53414" lon="7.91485">
        <ele>1631.04</ele>
        <time>2022-09-21T07:02:30Z</time>
      </trkpt>
      <trkpt lat="46.53413" lon="7.91485">
        <ele>1631.1</ele>
        <time>2022-09-21T07:02:32Z</time>
      </trkpt>
      <trkpt lat="46.53411" lon="7.91485">
        <ele>1631.9</ele>
        <time>2022-09-21T07:02:34Z</time>
      </trkpt>
      <trkpt lat="46.53409" lon="7.91486">
        <ele>1632.33</ele>
        <time>2022-09-21T07:02:36Z</time>
      </trkpt>
      <trkpt lat="46.53408" lon="7.91488">
        <ele>1632.1</ele>
        <time>2022-09-21T07:02:38Z</time>
      </trkpt>
      <trkpt lat="46.53407" lon="7.91489">
        <ele>1631.65</ele>
        <time>2022-09-21T07:02:39Z</time>
      </trkpt>
      <trkpt lat="46.53406" lon="7.9149">
        <ele>1632.93</ele>
        <time>2022-09-21T07:02:40Z</time>
      </trkpt>
      <trkpt lat="46.53405" lon="7.9149">
        <ele>1632.49</ele>
        <time>2022-09-21T07:02:41Z</time>
      </trkpt>
      <trkpt lat="46.53404" lon="7.91491">
        <ele>1632.97</ele>
        <time>2022-09-21T07:02:42Z</time>
      </trkpt>
      <trkpt lat="46.53403" lon="7.91491">
        <ele>1632.23</ele>
        <time>2022-09-21T07:02:43Z</time>
      </trkpt>
      <trkpt lat="46.53402" lon="7.91491">
        <ele>1632.3</ele>
        <time>2022-09-21T07:02:44Z</time>
      </trkpt>
      <trkpt lat="46.534" lon="7.91492">
        <ele>1633.19</ele>
        <time>2022-09-21T07:02:46Z</time>
      </trkpt>
      <trkpt lat="46.534" lon="7.91492">
        <ele>1632.78</ele>
        <time>2022-09-21T07:02:47Z</time>
      </trkpt>
      <trkpt lat="46.53399" lon="7.91493">
        <ele>1632.76</ele>
        <time>2022-09-21T07:02:48Z</time>
      </trkpt>
      <trkpt lat="46.53397" lon="7.91494">
        <ele>1632.16</ele>
        <time>2022-09-21T07:02:49Z</time>
      </trkpt>
      <trkpt lat="46.53396" lon="7.91494">
        <ele>1632.24</ele>
        <time>2022-09-21T07:02:50Z</time>
      </trkpt>
      <trkpt lat="46.53395" lon="7.91494">
        <ele>1631.48</ele>
        <time>2022-09-21T07:02:51Z</time>
      </trkpt>
      <trkpt lat="46.53394" lon="7.91493">
        <ele>1631.45</ele>
        <time>2022-09-21T07:02:52Z</time>
      </trkpt>
      <trkpt lat="46.53393" lon="7.91493">
        <ele>1632.22</ele>
        <time>2022-09-21T07:02:53Z</time>
      </trkpt>
      <trkpt lat="46.53392" lon="7.91492">
        <ele>1631.9</ele>
        <time>2022-09-21T07:02:55Z</time>
      </trkpt>
      <trkpt lat="46.5339" lon="7.91491">
        <ele>1632.91</ele>
        <time>2022-09-21T07:02:57Z</time>
      </trkpt>
      <trkpt lat="46.53389" lon="7.91491">
        <ele>1634.3</ele>
        <time>2022-09-21T07:02:58Z</time>
      </trkpt>
      <trkpt lat="46.53387" lon="7.91491">
        <ele>1634.09</ele>
        <time>2022-09-21T07:03:00Z</time>
      </trkpt>
      <trkpt lat="46.53386" lon="7.9149">
        <ele>1634.19</ele>
        <time>2022-09-21T07:03:05Z</time>
      </trkpt>
      <trkpt lat="46.53385" lon="7.9149">
        <ele>1634.51</ele>
        <time>2022-09-21T07:03:06Z</time>
      </trkpt>
      <trkpt lat="46.53384" lon="7.91489">
        <ele>1634.88</ele>
        <time>2022-09-21T07:03:07Z</time>
      </trkpt>
      <trkpt lat="46.53382" lon="7.91488">
        <ele>1635.93</ele>
        <time>2022-09-21T07:03:09Z</time>
      </trkpt>
      <trkpt lat="46.53381" lon="7.91488">
        <ele>1635.77</ele>
        <time>2022-09-21T07:03:10Z</time>
      </trkpt>
      <trkpt lat="46.5338" lon="7.91488">
        <ele>1636.16</ele>
        <time>2022-09-21T07:03:13Z</time>
      </trkpt>
      <trkpt lat="46.5338" lon="7.9149">
        <ele>1636.24</ele>
        <time>2022-09-21T07:03:15Z</time>
      </trkpt>
      <trkpt lat="46.53379" lon="7.91491">
        <ele>1636.48</ele>
        <time>2022-09-21T07:03:16Z</time>
      </trkpt>
      <trkpt lat="46.53378" lon="7.91492">
        <ele>1637.39</ele>
        <time>2022-09-21T07:03:17Z</time>
      </trkpt>
      <trkpt lat="46.53377" lon="7.91494">
        <ele>1637.21</ele>
        <time>2022-09-21T07:03:19Z</time>
      </trkpt>
      <trkpt lat="46.53376" lon="7.91495">
        <ele>1638.79</ele>
        <time>2022-09-21T07:03:21Z</time>
      </trkpt>
      <trkpt lat="46.53375" lon="7.91496">
        <ele>1639.52</ele>
        <time>2022-09-21T07:03:22Z</time>
      </trkpt>
      <trkpt lat="46.53374" lon="7.91496">
        <ele>1639.66</ele>
        <time>2022-09-21T07:03:23Z</time>
      </trkpt>
      <trkpt lat="46.53372" lon="7.91497">
        <ele>1640.18</ele>
        <time>2022-09-21T07:03:25Z</time>
      </trkpt>
      <trkpt lat="46.53371" lon="7.91498">
        <ele>1640.08</ele>
        <time>2022-09-21T07:03:27Z</time>
      </trkpt>
      <trkpt lat="46.53371" lon="7.91498">
        <ele>1640.09</ele>
        <time>2022-09-21T07:03:28Z</time>
      </trkpt>
      <trkpt lat="46.5337" lon="7.91499">
        <ele>1638.8</ele>
        <time>2022-09-21T07:03:29Z</time>
      </trkpt>
      <trkpt lat="46.53368" lon="7.91499">
        <ele>1639.46</ele>
        <time>2022-09-21T07:03:31Z</time>
      </trkpt>
      <trkpt lat="46.53367" lon="7.91501">
        <ele>1639.07</ele>
        <time>2022-09-21T07:03:33Z</time>
      </trkpt>
      <trkpt lat="46.53367" lon="7.91503">
        <ele>1638.99</ele>
        <time>2022-09-21T07:03:34Z</time>
      </trkpt>
      <trkpt lat="46.53366" lon="7.91504">
        <ele>1639.76</ele>
        <time>2022-09-21T07:03:36Z</time>
      </trkpt>
      <trkpt lat="46.53365" lon="7.91505">
        <ele>1640.38</ele>
        <time>2022-09-21T07:03:38Z</time>
      </trkpt>
      <trkpt lat="46.53364" lon="7.91506">
        <ele>1641.47</ele>
        <time>2022-09-21T07:03:40Z</time>
      </trkpt>
      <trkpt lat="46.53363" lon="7.91507">
        <ele>1642.54</ele>
        <time>2022-09-21T07:03:44Z</time>
      </trkpt>
      <trkpt lat="46.53362" lon="7.91506">
        <ele>1643.91</ele>
        <time>2022-09-21T07:03:46Z</time>
      </trkpt>
      <trkpt lat="46.53361" lon="7.91506">
        <ele>1644.06</ele>
        <time>2022-09-21T07:03:50Z</time>
      </trkpt>
      <trkpt lat="46.53359" lon="7.91506">
        <ele>1643.92</ele>
        <time>2022-09-21T07:03:52Z</time>
      </trkpt>
      <trkpt lat="46.53357" lon="7.91506">
        <ele>1642.74</ele>
        <time>2022-09-21T07:03:54Z</time>
      </trkpt>
      <trkpt lat="46.53356" lon="7.91507">
        <ele>1642.4</ele>
        <time>2022-09-21T07:03:56Z</time>
      </trkpt>
      <trkpt lat="46.53355" lon="7.91507">
        <ele>1641.88</ele>
        <time>2022-09-21T07:03:57Z</time>
      </trkpt>
      <trkpt lat="46.53354" lon="7.91506">
        <ele>1642.56</ele>
        <time>2022-09-21T07:03:59Z</time>
      </trkpt>
      <trkpt lat="46.53353" lon="7.91506">
        <ele>1643.63</ele>
        <time>2022-09-21T07:04:01Z</time>
      </trkpt>
      <trkpt lat="46.53351" lon="7.91505">
        <ele>1643.5</ele>
        <time>2022-09-21T07:04:05Z</time>
      </trkpt>
      <trkpt lat="46.5335" lon="7.91505">
        <ele>1644.76</ele>
        <time>2022-09-21T07:04:06Z</time>
      </trkpt>
      <trkpt lat="46.53349" lon="7.91506">
        <ele>1644.23</ele>
        <time>2022-09-21T07:04:07Z</time>
      </trkpt>
      <trkpt lat="46.53348" lon="7.91506">
        <ele>1644.27</ele>
        <time>2022-09-21T07:04:08Z</time>
      </trkpt>
      <trkpt lat="46.53347" lon="7.91507">
        <ele>1645</ele>
        <time>2022-09-21T07:04:09Z</time>
      </trkpt>
      <trkpt lat="46.53346" lon="7.91507">
        <ele>1646.17</ele>
        <time>2022-09-21T07:04:10Z</time>
      </trkpt>
      <trkpt lat="46.53345" lon="7.91508">
        <ele>1645.43</ele>
        <time>2022-09-21T07:04:12Z</time>
      </trkpt>
      <trkpt lat="46.53344" lon="7.9151">
        <ele>1644.94</ele>
        <time>2022-09-21T07:04:14Z</time>
      </trkpt>
      <trkpt lat="46.53342" lon="7.9151">
        <ele>1645.38</ele>
        <time>2022-09-21T07:04:16Z</time>
      </trkpt>
      <trkpt lat="46.53341" lon="7.9151">
        <ele>1644.76</ele>
        <time>2022-09-21T07:04:17Z</time>
      </trkpt>
      <trkpt lat="46.5334" lon="7.9151">
        <ele>1643.85</ele>
        <time>2022-09-21T07:04:18Z</time>
      </trkpt>
      <trkpt lat="46.53338" lon="7.91509">
        <ele>1642.66</ele>
        <time>2022-09-21T07:04:20Z</time>
      </trkpt>
      <trkpt lat="46.53337" lon="7.91509">
        <ele>1642.88</ele>
        <time>2022-09-21T07:04:22Z</time>
      </trkpt>
      <trkpt lat="46.53336" lon="7.91508">
        <ele>1641.54</ele>
        <time>2022-09-21T07:04:24Z</time>
      </trkpt>
      <trkpt lat="46.53334" lon="7.91508">
        <ele>1641.1</ele>
        <time>2022-09-21T07:04:26Z</time>
      </trkpt>
      <trkpt lat="46.53333" lon="7.91508">
        <ele>1640.86</ele>
        <time>2022-09-21T07:04:27Z</time>
      </trkpt>
      <trkpt lat="46.53332" lon="7.91508">
        <ele>1640.78</ele>
        <time>2022-09-21T07:04:28Z</time>
      </trkpt>
      <trkpt lat="46.53331" lon="7.91508">
        <ele>1640.83</ele>
        <time>2022-09-21T07:04:29Z</time>
      </trkpt>
      <trkpt lat="46.5333" lon="7.91507">
        <ele>1640.93</ele>
        <time>2022-09-21T07:04:30Z</time>
      </trkpt>
      <trkpt lat="46.53329" lon="7.91507">
        <ele>1640.99</ele>
        <time>2022-09-21T07:04:31Z</time>
      </trkpt>
      <trkpt lat="46.53328" lon="7.91507">
        <ele>1641.02</ele>
        <time>2022-09-21T07:04:32Z</time>
      </trkpt>
      <trkpt lat="46.53327" lon="7.91506">
        <ele>1640.09</ele>
        <time>2022-09-21T07:04:33Z</time>
      </trkpt>
      <trkpt lat="46.53325" lon="7.91506">
        <ele>1638.68</ele>
        <time>2022-09-21T07:04:35Z</time>
      </trkpt>
      <trkpt lat="46.53324" lon="7.91506">
        <ele>1638.07</ele>
        <time>2022-09-21T07:04:36Z</time>
      </trkpt>
      <trkpt lat="46.53323" lon="7.91505">
        <ele>1637.57</ele>
        <time>2022-09-21T07:04:37Z</time>
      </trkpt>
      <trkpt lat="46.53322" lon="7.91505">
        <ele>1636.32</ele>
        <time>2022-09-21T07:04:38Z</time>
      </trkpt>
      <trkpt lat="46.53321" lon="7.91505">
        <ele>1636.94</ele>
        <time>2022-09-21T07:04:39Z</time>
      </trkpt>
      <trkpt lat="46.5332" lon="7.91505">
        <ele>1636.68</ele>
        <time>2022-09-21T07:04:40Z</time>
      </trkpt>
      <trkpt lat="46.53318" lon="7.91505">
        <ele>1636.99</ele>
        <time>2022-09-21T07:04:42Z</time>
      </trkpt>
      <trkpt lat="46.53317" lon="7.91505">
        <ele>1636.6</ele>
        <time>2022-09-21T07:04:43Z</time>
      </trkpt>
      <trkpt lat="46.53316" lon="7.91505">
        <ele>1636.95</ele>
        <time>2022-09-21T07:04:44Z</time>
      </trkpt>
      <trkpt lat="46.53314" lon="7.91506">
        <ele>1636.14</ele>
        <time>2022-09-21T07:04:47Z</time>
      </trkpt>
      <trkpt lat="46.53313" lon="7.91506">
        <ele>1636.96</ele>
        <time>2022-09-21T07:04:49Z</time>
      </trkpt>
      <trkpt lat="46.53311" lon="7.91506">
        <ele>1636.58</ele>
        <time>2022-09-21T07:04:51Z</time>
      </trkpt>
      <trkpt lat="46.5331" lon="7.91507">
        <ele>1637.15</ele>
        <time>2022-09-21T07:04:53Z</time>
      </trkpt>
      <trkpt lat="46.53309" lon="7.91506">
        <ele>1637.79</ele>
        <time>2022-09-21T07:04:55Z</time>
      </trkpt>
      <trkpt lat="46.53309" lon="7.91505">
        <ele>1639.52</ele>
        <time>2022-09-21T07:05:00Z</time>
      </trkpt>
      <trkpt lat="46.53308" lon="7.91505">
        <ele>1639.46</ele>
        <time>2022-09-21T07:05:03Z</time>
      </trkpt>
      <trkpt lat="46.53306" lon="7.91506">
        <ele>1638.75</ele>
        <time>2022-09-21T07:05:06Z</time>
      </trkpt>
      <trkpt lat="46.53304" lon="7.91506">
        <ele>1638.72</ele>
        <time>2022-09-21T07:05:08Z</time>
      </trkpt>
      <trkpt lat="46.53303" lon="7.91506">
        <ele>1638.77</ele>
        <time>2022-09-21T07:05:09Z</time>
      </trkpt>
      <trkpt lat="46.53303" lon="7.91507">
        <ele>1639.72</ele>
        <time>2022-09-21T07:05:11Z</time>
      </trkpt>
      <trkpt lat="46.53302" lon="7.91507">
        <ele>1640.39</ele>
        <time>2022-09-21T07:05:13Z</time>
      </trkpt>
      <trkpt lat="46.53299" lon="7.91508">
        <ele>1640.23</ele>
        <time>2022-09-21T07:05:16Z</time>
      </trkpt>
      <trkpt lat="46.53298" lon="7.91509">
        <ele>1640.83</ele>
        <time>2022-09-21T07:05:18Z</time>
      </trkpt>
      <trkpt lat="46.53297" lon="7.91509">
        <ele>1640.02</ele>
        <time>2022-09-21T07:05:19Z</time>
      </trkpt>
      <trkpt lat="46.53295" lon="7.91509">
        <ele>1639.82</ele>
        <time>2022-09-21T07:05:21Z</time>
      </trkpt>
      <trkpt lat="46.53294" lon="7.9151">
        <ele>1640.17</ele>
        <time>2022-09-21T07:05:23Z</time>
      </trkpt>
      <trkpt lat="46.53293" lon="7.9151">
        <ele>1640.13</ele>
        <time>2022-09-21T07:05:25Z</time>
      </trkpt>
      <trkpt lat="46.53291" lon="7.91509">
        <ele>1640.74</ele>
        <time>2022-09-21T07:05:27Z</time>
      </trkpt>
      <trkpt lat="46.5329" lon="7.91509">
        <ele>1641.31</ele>
        <time>2022-09-21T07:05:29Z</time>
      </trkpt>
      <trkpt lat="46.53288" lon="7.91509">
        <ele>1642.17</ele>
        <time>2022-09-21T07:05:31Z</time>
      </trkpt>
      <trkpt lat="46.53287" lon="7.9151">
        <ele>1642.68</ele>
        <time>2022-09-21T07:05:32Z</time>
      </trkpt>
      <trkpt lat="46.53286" lon="7.9151">
        <ele>1642.87</ele>
        <time>2022-09-21T07:05:33Z</time>
      </trkpt>
      <trkpt lat="46.53285" lon="7.9151">
        <ele>1642.84</ele>
        <time>2022-09-21T07:05:34Z</time>
      </trkpt>
      <trkpt lat="46.53284" lon="7.9151">
        <ele>1643.28</ele>
        <time>2022-09-21T07:05:35Z</time>
      </trkpt>
      <trkpt lat="46.53283" lon="7.91511">
        <ele>1643.03</ele>
        <time>2022-09-21T07:05:36Z</time>
      </trkpt>
      <trkpt lat="46.53282" lon="7.91511">
        <ele>1644.02</ele>
        <time>2022-09-21T07:05:37Z</time>
      </trkpt>
      <trkpt lat="46.5328" lon="7.91512">
        <ele>1644.9</ele>
        <time>2022-09-21T07:05:39Z</time>
      </trkpt>
      <trkpt lat="46.53279" lon="7.91512">
        <ele>1645.28</ele>
        <time>2022-09-21T07:05:41Z</time>
      </trkpt>
      <trkpt lat="46.53277" lon="7.91513">
        <ele>1645.76</ele>
        <time>2022-09-21T07:05:43Z</time>
      </trkpt>
      <trkpt lat="46.53276" lon="7.91513">
        <ele>1645.22</ele>
        <time>2022-09-21T07:05:44Z</time>
      </trkpt>
      <trkpt lat="46.53275" lon="7.91513">
        <ele>1645.45</ele>
        <time>2022-09-21T07:05:45Z</time>
      </trkpt>
      <trkpt lat="46.53274" lon="7.91512">
        <ele>1645.36</ele>
        <time>2022-09-21T07:05:46Z</time>
      </trkpt>
      <trkpt lat="46.53273" lon="7.91512">
        <ele>1644.69</ele>
        <time>2022-09-21T07:05:47Z</time>
      </trkpt>
      <trkpt lat="46.53272" lon="7.91512">
        <ele>1645.44</ele>
        <time>2022-09-21T07:05:48Z</time>
      </trkpt>
      <trkpt lat="46.53271" lon="7.91512">
        <ele>1646.27</ele>
        <time>2022-09-21T07:05:49Z</time>
      </trkpt>
      <trkpt lat="46.5327" lon="7.91513">
        <ele>1646.69</ele>
        <time>2022-09-21T07:05:50Z</time>
      </trkpt>
      <trkpt lat="46.5327" lon="7.91514">
        <ele>1646.71</ele>
        <time>2022-09-21T07:05:51Z</time>
      </trkpt>
      <trkpt lat="46.53268" lon="7.91515">
        <ele>1647.62</ele>
        <time>2022-09-21T07:05:53Z</time>
      </trkpt>
      <trkpt lat="46.53267" lon="7.91516">
        <ele>1647.88</ele>
        <time>2022-09-21T07:05:55Z</time>
      </trkpt>
      <trkpt lat="46.53265" lon="7.91516">
        <ele>1646.75</ele>
        <time>2022-09-21T07:05:57Z</time>
      </trkpt>
      <trkpt lat="46.53264" lon="7.91516">
        <ele>1646.76</ele>
        <time>2022-09-21T07:05:58Z</time>
      </trkpt>
      <trkpt lat="46.53263" lon="7.91518">
        <ele>1647.06</ele>
        <time>2022-09-21T07:06:00Z</time>
      </trkpt>
      <trkpt lat="46.53262" lon="7.9152">
        <ele>1647.33</ele>
        <time>2022-09-21T07:06:02Z</time>
      </trkpt>
      <trkpt lat="46.53261" lon="7.91522">
        <ele>1648.83</ele>
        <time>2022-09-21T07:06:04Z</time>
      </trkpt>
      <trkpt lat="46.53261" lon="7.91523">
        <ele>1648.44</ele>
        <time>2022-09-21T07:06:05Z</time>
      </trkpt>
      <trkpt lat="46.5326" lon="7.91524">
        <ele>1648.41</ele>
        <time>2022-09-21T07:06:06Z</time>
      </trkpt>
      <trkpt lat="46.53259" lon="7.91524">
        <ele>1648.97</ele>
        <time>2022-09-21T07:06:07Z</time>
      </trkpt>
      <trkpt lat="46.53257" lon="7.91524">
        <ele>1649.48</ele>
        <time>2022-09-21T07:06:08Z</time>
      </trkpt>
      <trkpt lat="46.53256" lon="7.91525">
        <ele>1649.66</ele>
        <time>2022-09-21T07:06:09Z</time>
      </trkpt>
      <trkpt lat="46.53255" lon="7.91526">
        <ele>1649.57</ele>
        <time>2022-09-21T07:06:10Z</time>
      </trkpt>
      <trkpt lat="46.53255" lon="7.91526">
        <ele>1649.55</ele>
        <time>2022-09-21T07:06:11Z</time>
      </trkpt>
      <trkpt lat="46.53254" lon="7.91527">
        <ele>1648.9</ele>
        <time>2022-09-21T07:06:12Z</time>
      </trkpt>
      <trkpt lat="46.53253" lon="7.91527">
        <ele>1648.6</ele>
        <time>2022-09-21T07:06:13Z</time>
      </trkpt>
      <trkpt lat="46.53252" lon="7.91528">
        <ele>1648.33</ele>
        <time>2022-09-21T07:06:14Z</time>
      </trkpt>
      <trkpt lat="46.5325" lon="7.91529">
        <ele>1648.71</ele>
        <time>2022-09-21T07:06:16Z</time>
      </trkpt>
      <trkpt lat="46.53249" lon="7.91531">
        <ele>1648.89</ele>
        <time>2022-09-21T07:06:18Z</time>
      </trkpt>
      <trkpt lat="46.53248" lon="7.91533">
        <ele>1649.51</ele>
        <time>2022-09-21T07:06:20Z</time>
      </trkpt>
      <trkpt lat="46.53247" lon="7.91533">
        <ele>1650.16</ele>
        <time>2022-09-21T07:06:21Z</time>
      </trkpt>
      <trkpt lat="46.53246" lon="7.91534">
        <ele>1652.56</ele>
        <time>2022-09-21T07:06:23Z</time>
      </trkpt>
      <trkpt lat="46.53245" lon="7.91534">
        <ele>1653.9</ele>
        <time>2022-09-21T07:06:24Z</time>
      </trkpt>
      <trkpt lat="46.53244" lon="7.91535">
        <ele>1654.01</ele>
        <time>2022-09-21T07:06:25Z</time>
      </trkpt>
      <trkpt lat="46.53243" lon="7.91536">
        <ele>1654.09</ele>
        <time>2022-09-21T07:06:26Z</time>
      </trkpt>
      <trkpt lat="46.53242" lon="7.91537">
        <ele>1654.14</ele>
        <time>2022-09-21T07:06:27Z</time>
      </trkpt>
      <trkpt lat="46.5324" lon="7.91538">
        <ele>1652.41</ele>
        <time>2022-09-21T07:06:29Z</time>
      </trkpt>
      <trkpt lat="46.53239" lon="7.9154">
        <ele>1652.53</ele>
        <time>2022-09-21T07:06:31Z</time>
      </trkpt>
      <trkpt lat="46.53239" lon="7.91541">
        <ele>1653.15</ele>
        <time>2022-09-21T07:06:32Z</time>
      </trkpt>
      <trkpt lat="46.53238" lon="7.91541">
        <ele>1653.16</ele>
        <time>2022-09-21T07:06:34Z</time>
      </trkpt>
      <trkpt lat="46.53237" lon="7.9154">
        <ele>1653.32</ele>
        <time>2022-09-21T07:06:36Z</time>
      </trkpt>
      <trkpt lat="46.53236" lon="7.9154">
        <ele>1652.43</ele>
        <time>2022-09-21T07:06:38Z</time>
      </trkpt>
      <trkpt lat="46.53235" lon="7.9154">
        <ele>1653.01</ele>
        <time>2022-09-21T07:06:40Z</time>
      </trkpt>
      <trkpt lat="46.53234" lon="7.91542">
        <ele>1654.55</ele>
        <time>2022-09-21T07:06:44Z</time>
      </trkpt>
      <trkpt lat="46.53233" lon="7.91543">
        <ele>1654.98</ele>
        <time>2022-09-21T07:06:47Z</time>
      </trkpt>
      <trkpt lat="46.53232" lon="7.91543">
        <ele>1654.41</ele>
        <time>2022-09-21T07:06:50Z</time>
      </trkpt>
      <trkpt lat="46.5323" lon="7.91542">
        <ele>1655.1</ele>
        <time>2022-09-21T07:06:52Z</time>
      </trkpt>
      <trkpt lat="46.53228" lon="7.91542">
        <ele>1654.87</ele>
        <time>2022-09-21T07:06:54Z</time>
      </trkpt>
      <trkpt lat="46.53227" lon="7.91542">
        <ele>1655.57</ele>
        <time>2022-09-21T07:06:56Z</time>
      </trkpt>
      <trkpt lat="46.53226" lon="7.91542">
        <ele>1656.73</ele>
        <time>2022-09-21T07:06:59Z</time>
      </trkpt>
      <trkpt lat="46.53225" lon="7.91542">
        <ele>1657.02</ele>
        <time>2022-09-21T07:07:01Z</time>
      </trkpt>
      <trkpt lat="46.53224" lon="7.91543">
        <ele>1657.77</ele>
        <time>2022-09-21T07:07:03Z</time>
      </trkpt>
      <trkpt lat="46.53224" lon="7.91545">
        <ele>1658.53</ele>
        <time>2022-09-21T07:07:05Z</time>
      </trkpt>
      <trkpt lat="46.53224" lon="7.91546">
        <ele>1657.91</ele>
        <time>2022-09-21T07:07:07Z</time>
      </trkpt>
      <trkpt lat="46.53224" lon="7.91548">
        <ele>1658.01</ele>
        <time>2022-09-21T07:07:09Z</time>
      </trkpt>
      <trkpt lat="46.53223" lon="7.91549">
        <ele>1658.89</ele>
        <time>2022-09-21T07:07:11Z</time>
      </trkpt>
      <trkpt lat="46.53223" lon="7.9155">
        <ele>1658.04</ele>
        <time>2022-09-21T07:07:13Z</time>
      </trkpt>
      <trkpt lat="46.53223" lon="7.91552">
        <ele>1660.03</ele>
        <time>2022-09-21T07:07:15Z</time>
      </trkpt>
      <trkpt lat="46.53224" lon="7.91553">
        <ele>1660.62</ele>
        <time>2022-09-21T07:07:17Z</time>
      </trkpt>
      <trkpt lat="46.53225" lon="7.91554">
        <ele>1660.24</ele>
        <time>2022-09-21T07:07:19Z</time>
      </trkpt>
      <trkpt lat="46.53224" lon="7.91556">
        <ele>1661.71</ele>
        <time>2022-09-21T07:07:25Z</time>
      </trkpt>
      <trkpt lat="46.53224" lon="7.91557">
        <ele>1662.36</ele>
        <time>2022-09-21T07:07:27Z</time>
      </trkpt>
      <trkpt lat="46.53224" lon="7.91559">
        <ele>1663.3</ele>
        <time>2022-09-21T07:07:29Z</time>
      </trkpt>
      <trkpt lat="46.53224" lon="7.91561">
        <ele>1664.12</ele>
        <time>2022-09-21T07:07:31Z</time>
      </trkpt>
      <trkpt lat="46.53226" lon="7.91562">
        <ele>1663.53</ele>
        <time>2022-09-21T07:07:42Z</time>
      </trkpt>
      <trkpt lat="46.53227" lon="7.91562">
        <ele>1664.86</ele>
        <time>2022-09-21T07:07:44Z</time>
      </trkpt>
      <trkpt lat="46.53228" lon="7.91562">
        <ele>1665.79</ele>
        <time>2022-09-21T07:07:46Z</time>
      </trkpt>
      <trkpt lat="46.53229" lon="7.91563">
        <ele>1665.52</ele>
        <time>2022-09-21T07:07:48Z</time>
      </trkpt>
      <trkpt lat="46.5323" lon="7.91565">
        <ele>1666.14</ele>
        <time>2022-09-21T07:07:50Z</time>
      </trkpt>
      <trkpt lat="46.53231" lon="7.91567">
        <ele>1667.06</ele>
        <time>2022-09-21T07:07:52Z</time>
      </trkpt>
      <trkpt lat="46.53232" lon="7.91568">
        <ele>1667.33</ele>
        <time>2022-09-21T07:07:54Z</time>
      </trkpt>
      <trkpt lat="46.53233" lon="7.91569">
        <ele>1668.04</ele>
        <time>2022-09-21T07:07:56Z</time>
      </trkpt>
      <trkpt lat="46.53234" lon="7.91571">
        <ele>1666.53</ele>
        <time>2022-09-21T07:07:59Z</time>
      </trkpt>
      <trkpt lat="46.53234" lon="7.91572">
        <ele>1667.87</ele>
        <time>2022-09-21T07:08:01Z</time>
      </trkpt>
      <trkpt lat="46.53234" lon="7.91573">
        <ele>1668.7</ele>
        <time>2022-09-21T07:08:05Z</time>
      </trkpt>
      <trkpt lat="46.53233" lon="7.91574">
        <ele>1669.12</ele>
        <time>2022-09-21T07:08:07Z</time>
      </trkpt>
      <trkpt lat="46.53232" lon="7.91576">
        <ele>1670.13</ele>
        <time>2022-09-21T07:08:09Z</time>
      </trkpt>
      <trkpt lat="46.53231" lon="7.91578">
        <ele>1670.99</ele>
        <time>2022-09-21T07:08:11Z</time>
      </trkpt>
      <trkpt lat="46.5323" lon="7.91579">
        <ele>1671.32</ele>
        <time>2022-09-21T07:08:13Z</time>
      </trkpt>
      <trkpt lat="46.53229" lon="7.9158">
        <ele>1671.8</ele>
        <time>2022-09-21T07:08:15Z</time>
      </trkpt>
      <trkpt lat="46.53229" lon="7.91582">
        <ele>1671.71</ele>
        <time>2022-09-21T07:08:18Z</time>
      </trkpt>
      <trkpt lat="46.53228" lon="7.91583">
        <ele>1672.39</ele>
        <time>2022-09-21T07:08:21Z</time>
      </trkpt>
      <trkpt lat="46.53227" lon="7.91585">
        <ele>1672.86</ele>
        <time>2022-09-21T07:08:23Z</time>
      </trkpt>
      <trkpt lat="46.53226" lon="7.91585">
        <ele>1673.75</ele>
        <time>2022-09-21T07:08:24Z</time>
      </trkpt>
      <trkpt lat="46.53226" lon="7.91586">
        <ele>1674.21</ele>
        <time>2022-09-21T07:08:25Z</time>
      </trkpt>
      <trkpt lat="46.53225" lon="7.91588">
        <ele>1675.1</ele>
        <time>2022-09-21T07:08:26Z</time>
      </trkpt>
      <trkpt lat="46.53224" lon="7.9159">
        <ele>1675.68</ele>
        <time>2022-09-21T07:08:28Z</time>
      </trkpt>
      <trkpt lat="46.53224" lon="7.91592">
        <ele>1675.25</ele>
        <time>2022-09-21T07:08:30Z</time>
      </trkpt>
      <trkpt lat="46.53223" lon="7.91594">
        <ele>1675.38</ele>
        <time>2022-09-21T07:08:32Z</time>
      </trkpt>
      <trkpt lat="46.53223" lon="7.91596">
        <ele>1675.63</ele>
        <time>2022-09-21T07:08:34Z</time>
      </trkpt>
      <trkpt lat="46.53222" lon="7.91597">
        <ele>1675.57</ele>
        <time>2022-09-21T07:08:36Z</time>
      </trkpt>
      <trkpt lat="46.53221" lon="7.91598">
        <ele>1676.3</ele>
        <time>2022-09-21T07:08:38Z</time>
      </trkpt>
      <trkpt lat="46.5322" lon="7.916">
        <ele>1676.94</ele>
        <time>2022-09-21T07:08:40Z</time>
      </trkpt>
      <trkpt lat="46.5322" lon="7.91602">
        <ele>1677.6</ele>
        <time>2022-09-21T07:08:42Z</time>
      </trkpt>
      <trkpt lat="46.53221" lon="7.91604">
        <ele>1677.49</ele>
        <time>2022-09-21T07:08:44Z</time>
      </trkpt>
      <trkpt lat="46.53222" lon="7.91605">
        <ele>1678.18</ele>
        <time>2022-09-21T07:08:45Z</time>
      </trkpt>
      <trkpt lat="46.53223" lon="7.91606">
        <ele>1677.24</ele>
        <time>2022-09-21T07:08:46Z</time>
      </trkpt>
      <trkpt lat="46.53224" lon="7.91607">
        <ele>1671.45</ele>
        <time>2022-09-21T07:08:48Z</time>
      </trkpt>
      <trkpt lat="46.53225" lon="7.91607">
        <ele>1674.98</ele>
        <time>2022-09-21T07:08:50Z</time>
      </trkpt>
      <trkpt lat="46.53225" lon="7.91609">
        <ele>1677.08</ele>
        <time>2022-09-21T07:08:52Z</time>
      </trkpt>
      <trkpt lat="46.53224" lon="7.9161">
        <ele>1677.02</ele>
        <time>2022-09-21T07:08:54Z</time>
      </trkpt>
      <trkpt lat="46.53223" lon="7.91611">
        <ele>1677.87</ele>
        <time>2022-09-21T07:08:56Z</time>
      </trkpt>
      <trkpt lat="46.53222" lon="7.91613">
        <ele>1678.42</ele>
        <time>2022-09-21T07:08:58Z</time>
      </trkpt>
      <trkpt lat="46.53222" lon="7.91614">
        <ele>1678.96</ele>
        <time>2022-09-21T07:09:00Z</time>
      </trkpt>
      <trkpt lat="46.53223" lon="7.91616">
        <ele>1679.19</ele>
        <time>2022-09-21T07:09:02Z</time>
      </trkpt>
      <trkpt lat="46.53223" lon="7.91617">
        <ele>1681.01</ele>
        <time>2022-09-21T07:09:05Z</time>
      </trkpt>
      <trkpt lat="46.53224" lon="7.91619">
        <ele>1679.77</ele>
        <time>2022-09-21T07:09:07Z</time>
      </trkpt>
      <trkpt lat="46.53224" lon="7.91621">
        <ele>1682.66</ele>
        <time>2022-09-21T07:09:09Z</time>
      </trkpt>
      <trkpt lat="46.53224" lon="7.91622">
        <ele>1681.76</ele>
        <time>2022-09-21T07:09:11Z</time>
      </trkpt>
      <trkpt lat="46.53224" lon="7.91624">
        <ele>1682.17</ele>
        <time>2022-09-21T07:09:13Z</time>
      </trkpt>
      <trkpt lat="46.53224" lon="7.91626">
        <ele>1682.05</ele>
        <time>2022-09-21T07:09:15Z</time>
      </trkpt>
      <trkpt lat="46.53225" lon="7.91628">
        <ele>1683.21</ele>
        <time>2022-09-21T07:09:17Z</time>
      </trkpt>
      <trkpt lat="46.53225" lon="7.91629">
        <ele>1683.33</ele>
        <time>2022-09-21T07:09:19Z</time>
      </trkpt>
      <trkpt lat="46.53225" lon="7.91631">
        <ele>1684.47</ele>
        <time>2022-09-21T07:09:21Z</time>
      </trkpt>
      <trkpt lat="46.53225" lon="7.91632">
        <ele>1686.77</ele>
        <time>2022-09-21T07:09:23Z</time>
      </trkpt>
      <trkpt lat="46.53225" lon="7.91633">
        <ele>1686.2</ele>
        <time>2022-09-21T07:09:25Z</time>
      </trkpt>
      <trkpt lat="46.53224" lon="7.91635">
        <ele>1686.5</ele>
        <time>2022-09-21T07:09:27Z</time>
      </trkpt>
      <trkpt lat="46.53223" lon="7.91637">
        <ele>1687.63</ele>
        <time>2022-09-21T07:09:29Z</time>
      </trkpt>
      <trkpt lat="46.53223" lon="7.91638">
        <ele>1687.85</ele>
        <time>2022-09-21T07:09:31Z</time>
      </trkpt>
      <trkpt lat="46.53222" lon="7.91639">
        <ele>1687.13</ele>
        <time>2022-09-21T07:09:33Z</time>
      </trkpt>
      <trkpt lat="46.53221" lon="7.91641">
        <ele>1688.47</ele>
        <time>2022-09-21T07:09:36Z</time>
      </trkpt>
      <trkpt lat="46.5322" lon="7.91642">
        <ele>1689.9</ele>
        <time>2022-09-21T07:09:38Z</time>
      </trkpt>
      <trkpt lat="46.53219" lon="7.91643">
        <ele>1690.74</ele>
        <time>2022-09-21T07:09:40Z</time>
      </trkpt>
      <trkpt lat="46.53219" lon="7.91645">
        <ele>1690.48</ele>
        <time>2022-09-21T07:09:42Z</time>
      </trkpt>
      <trkpt lat="46.53219" lon="7.91646">
        <ele>1690.87</ele>
        <time>2022-09-21T07:09:44Z</time>
      </trkpt>
      <trkpt lat="46.53221" lon="7.91647">
        <ele>1692.03</ele>
        <time>2022-09-21T07:09:46Z</time>
      </trkpt>
      <trkpt lat="46.53222" lon="7.91647">
        <ele>1691.81</ele>
        <time>2022-09-21T07:09:47Z</time>
      </trkpt>
      <trkpt lat="46.53223" lon="7.91648">
        <ele>1691.89</ele>
        <time>2022-09-21T07:09:48Z</time>
      </trkpt>
      <trkpt lat="46.53224" lon="7.91647">
        <ele>1691.42</ele>
        <time>2022-09-21T07:09:50Z</time>
      </trkpt>
      <trkpt lat="46.53225" lon="7.91646">
        <ele>1691.31</ele>
        <time>2022-09-21T07:09:52Z</time>
      </trkpt>
      <trkpt lat="46.53227" lon="7.91647">
        <ele>1691.89</ele>
        <time>2022-09-21T07:09:54Z</time>
      </trkpt>
      <trkpt lat="46.53228" lon="7.91648">
        <ele>1691.64</ele>
        <time>2022-09-21T07:09:56Z</time>
      </trkpt>
      <trkpt lat="46.53229" lon="7.91648">
        <ele>1691.49</ele>
        <time>2022-09-21T07:09:58Z</time>
      </trkpt>
      <trkpt lat="46.5323" lon="7.91648">
        <ele>1691.19</ele>
        <time>2022-09-21T07:10:00Z</time>
      </trkpt>
      <trkpt lat="46.53232" lon="7.91648">
        <ele>1691.84</ele>
        <time>2022-09-21T07:10:02Z</time>
      </trkpt>
      <trkpt lat="46.53233" lon="7.91647">
        <ele>1691.77</ele>
        <time>2022-09-21T07:10:05Z</time>
      </trkpt>
      <trkpt lat="46.53234" lon="7.91647">
        <ele>1692.19</ele>
        <time>2022-09-21T07:10:07Z</time>
      </trkpt>
      <trkpt lat="46.53236" lon="7.91646">
        <ele>1693.99</ele>
        <time>2022-09-21T07:10:09Z</time>
      </trkpt>
      <trkpt lat="46.53237" lon="7.91646">
        <ele>1695.12</ele>
        <time>2022-09-21T07:10:10Z</time>
      </trkpt>
      <trkpt lat="46.53238" lon="7.91645">
        <ele>1695.66</ele>
        <time>2022-09-21T07:10:11Z</time>
      </trkpt>
      <trkpt lat="46.53239" lon="7.91645">
        <ele>1697.05</ele>
        <time>2022-09-21T07:10:13Z</time>
      </trkpt>
      <trkpt lat="46.5324" lon="7.91646">
        <ele>1697.63</ele>
        <time>2022-09-21T07:10:15Z</time>
      </trkpt>
      <trkpt lat="46.53242" lon="7.91645">
        <ele>1688.93</ele>
        <time>2022-09-21T07:10:17Z</time>
      </trkpt>
      <trkpt lat="46.53242" lon="7.91644">
        <ele>1694.15</ele>
        <time>2022-09-21T07:10:19Z</time>
      </trkpt>
      <trkpt lat="46.53243" lon="7.91642">
        <ele>1696.42</ele>
        <time>2022-09-21T07:10:21Z</time>
      </trkpt>
      <trkpt lat="46.53243" lon="7.9164">
        <ele>1698.07</ele>
        <time>2022-09-21T07:10:23Z</time>
      </trkpt>
      <trkpt lat="46.53243" lon="7.91639">
        <ele>1702.8</ele>
        <time>2022-09-21T07:10:42Z</time>
      </trkpt>
      <trkpt lat="46.53244" lon="7.91639">
        <ele>1702.08</ele>
        <time>2022-09-21T07:10:47Z</time>
      </trkpt>
      <trkpt lat="46.53245" lon="7.9164">
        <ele>1701.32</ele>
        <time>2022-09-21T07:10:49Z</time>
      </trkpt>
      <trkpt lat="46.53246" lon="7.9164">
        <ele>1701.21</ele>
        <time>2022-09-21T07:10:51Z</time>
      </trkpt>
      <trkpt lat="46.53247" lon="7.91641">
        <ele>1701.52</ele>
        <time>2022-09-21T07:10:53Z</time>
      </trkpt>
      <trkpt lat="46.53248" lon="7.9164">
        <ele>1701.18</ele>
        <time>2022-09-21T07:10:55Z</time>
      </trkpt>
      <trkpt lat="46.53249" lon="7.91639">
        <ele>1701.25</ele>
        <time>2022-09-21T07:10:57Z</time>
      </trkpt>
      <trkpt lat="46.5325" lon="7.91639">
        <ele>1702.37</ele>
        <time>2022-09-21T07:10:59Z</time>
      </trkpt>
      <trkpt lat="46.53251" lon="7.91639">
        <ele>1703.16</ele>
        <time>2022-09-21T07:11:04Z</time>
      </trkpt>
      <trkpt lat="46.53252" lon="7.9164">
        <ele>1702</ele>
        <time>2022-09-21T07:11:06Z</time>
      </trkpt>
      <trkpt lat="46.53252" lon="7.91642">
        <ele>1702.22</ele>
        <time>2022-09-21T07:11:08Z</time>
      </trkpt>
      <trkpt lat="46.53254" lon="7.91643">
        <ele>1703.13</ele>
        <time>2022-09-21T07:11:10Z</time>
      </trkpt>
      <trkpt lat="46.53255" lon="7.91645">
        <ele>1703.12</ele>
        <time>2022-09-21T07:11:12Z</time>
      </trkpt>
      <trkpt lat="46.53255" lon="7.91646">
        <ele>1703.5</ele>
        <time>2022-09-21T07:11:13Z</time>
      </trkpt>
      <trkpt lat="46.53256" lon="7.91647">
        <ele>1703.07</ele>
        <time>2022-09-21T07:11:14Z</time>
      </trkpt>
      <trkpt lat="46.53257" lon="7.91649">
        <ele>1695.24</ele>
        <time>2022-09-21T07:11:16Z</time>
      </trkpt>
      <trkpt lat="46.53256" lon="7.91651">
        <ele>1704.39</ele>
        <time>2022-09-21T07:11:18Z</time>
      </trkpt>
      <trkpt lat="46.53255" lon="7.91652">
        <ele>1705.09</ele>
        <time>2022-09-21T07:11:19Z</time>
      </trkpt>
      <trkpt lat="46.53254" lon="7.91653">
        <ele>1707.73</ele>
        <time>2022-09-21T07:11:21Z</time>
      </trkpt>
      <trkpt lat="46.53253" lon="7.91653">
        <ele>1708.85</ele>
        <time>2022-09-21T07:11:23Z</time>
      </trkpt>
      <trkpt lat="46.53252" lon="7.91655">
        <ele>1711.11</ele>
        <time>2022-09-21T07:11:26Z</time>
      </trkpt>
      <trkpt lat="46.53251" lon="7.91656">
        <ele>1712.6</ele>
        <time>2022-09-21T07:11:29Z</time>
      </trkpt>
      <trkpt lat="46.5325" lon="7.91657">
        <ele>1712.82</ele>
        <time>2022-09-21T07:11:31Z</time>
      </trkpt>
      <trkpt lat="46.5325" lon="7.91658">
        <ele>1714.21</ele>
        <time>2022-09-21T07:11:33Z</time>
      </trkpt>
      <trkpt lat="46.53249" lon="7.91659">
        <ele>1714.88</ele>
        <time>2022-09-21T07:11:37Z</time>
      </trkpt>
      <trkpt lat="46.53249" lon="7.91661">
        <ele>1715.5</ele>
        <time>2022-09-21T07:11:40Z</time>
      </trkpt>
      <trkpt lat="46.53248" lon="7.91662">
        <ele>1715.19</ele>
        <time>2022-09-21T07:11:42Z</time>
      </trkpt>
      <trkpt lat="46.53248" lon="7.91664">
        <ele>1715.39</ele>
        <time>2022-09-21T07:11:45Z</time>
      </trkpt>
      <trkpt lat="46.53247" lon="7.91665">
        <ele>1714.51</ele>
        <time>2022-09-21T07:11:47Z</time>
      </trkpt>
      <trkpt lat="46.53246" lon="7.91666">
        <ele>1714.3</ele>
        <time>2022-09-21T07:11:49Z</time>
      </trkpt>
      <trkpt lat="46.53245" lon="7.91668">
        <ele>1714.54</ele>
        <time>2022-09-21T07:11:51Z</time>
      </trkpt>
      <trkpt lat="46.53244" lon="7.91669">
        <ele>1714.9</ele>
        <time>2022-09-21T07:11:53Z</time>
      </trkpt>
      <trkpt lat="46.53243" lon="7.9167">
        <ele>1715.68</ele>
        <time>2022-09-21T07:11:55Z</time>
      </trkpt>
      <trkpt lat="46.53243" lon="7.91672">
        <ele>1715.89</ele>
        <time>2022-09-21T07:11:57Z</time>
      </trkpt>
      <trkpt lat="46.53242" lon="7.91674">
        <ele>1716.77</ele>
        <time>2022-09-21T07:11:59Z</time>
      </trkpt>
      <trkpt lat="46.53241" lon="7.91674">
        <ele>1717.48</ele>
        <time>2022-09-21T07:12:01Z</time>
      </trkpt>
      <trkpt lat="46.53239" lon="7.91673">
        <ele>1718.62</ele>
        <time>2022-09-21T07:12:03Z</time>
      </trkpt>
      <trkpt lat="46.53238" lon="7.91673">
        <ele>1719.25</ele>
        <time>2022-09-21T07:12:04Z</time>
      </trkpt>
      <trkpt lat="46.53237" lon="7.91672">
        <ele>1719.59</ele>
        <time>2022-09-21T07:12:05Z</time>
      </trkpt>
      <trkpt lat="46.53236" lon="7.91673">
        <ele>1719.47</ele>
        <time>2022-09-21T07:12:07Z</time>
      </trkpt>
      <trkpt lat="46.53235" lon="7.91675">
        <ele>1721.87</ele>
        <time>2022-09-21T07:12:09Z</time>
      </trkpt>
      <trkpt lat="46.53233" lon="7.91676">
        <ele>1725.26</ele>
        <time>2022-09-21T07:12:11Z</time>
      </trkpt>
      <trkpt lat="46.53231" lon="7.91675">
        <ele>1724.52</ele>
        <time>2022-09-21T07:12:13Z</time>
      </trkpt>
      <trkpt lat="46.5323" lon="7.91674">
        <ele>1724.56</ele>
        <time>2022-09-21T07:12:15Z</time>
      </trkpt>
      <trkpt lat="46.53229" lon="7.91674">
        <ele>1724.45</ele>
        <time>2022-09-21T07:12:16Z</time>
      </trkpt>
      <trkpt lat="46.53227" lon="7.91674">
        <ele>1723.57</ele>
        <time>2022-09-21T07:12:18Z</time>
      </trkpt>
      <trkpt lat="46.53227" lon="7.91675">
        <ele>1724.56</ele>
        <time>2022-09-21T07:12:20Z</time>
      </trkpt>
      <trkpt lat="46.53226" lon="7.91677">
        <ele>1725.28</ele>
        <time>2022-09-21T07:12:22Z</time>
      </trkpt>
      <trkpt lat="46.53225" lon="7.91679">
        <ele>1725.21</ele>
        <time>2022-09-21T07:12:24Z</time>
      </trkpt>
      <trkpt lat="46.53226" lon="7.91681">
        <ele>1726.03</ele>
        <time>2022-09-21T07:12:26Z</time>
      </trkpt>
      <trkpt lat="46.53228" lon="7.91682">
        <ele>1726.92</ele>
        <time>2022-09-21T07:12:28Z</time>
      </trkpt>
      <trkpt lat="46.53229" lon="7.91683">
        <ele>1726.82</ele>
        <time>2022-09-21T07:12:30Z</time>
      </trkpt>
      <trkpt lat="46.5323" lon="7.91684">
        <ele>1727.73</ele>
        <time>2022-09-21T07:12:32Z</time>
      </trkpt>
      <trkpt lat="46.5323" lon="7.91686">
        <ele>1727.56</ele>
        <time>2022-09-21T07:12:34Z</time>
      </trkpt>
      <trkpt lat="46.53229" lon="7.91688">
        <ele>1728.82</ele>
        <time>2022-09-21T07:12:36Z</time>
      </trkpt>
      <trkpt lat="46.53228" lon="7.9169">
        <ele>1729.02</ele>
        <time>2022-09-21T07:12:38Z</time>
      </trkpt>
      <trkpt lat="46.53228" lon="7.91692">
        <ele>1728.02</ele>
        <time>2022-09-21T07:12:40Z</time>
      </trkpt>
      <trkpt lat="46.53228" lon="7.91693">
        <ele>1727.65</ele>
        <time>2022-09-21T07:12:42Z</time>
      </trkpt>
      <trkpt lat="46.53228" lon="7.91695">
        <ele>1727.53</ele>
        <time>2022-09-21T07:12:44Z</time>
      </trkpt>
      <trkpt lat="46.53227" lon="7.91697">
        <ele>1728.4</ele>
        <time>2022-09-21T07:12:46Z</time>
      </trkpt>
      <trkpt lat="46.53227" lon="7.91699">
        <ele>1729.28</ele>
        <time>2022-09-21T07:12:48Z</time>
      </trkpt>
      <trkpt lat="46.53226" lon="7.917">
        <ele>1729.73</ele>
        <time>2022-09-21T07:12:50Z</time>
      </trkpt>
      <trkpt lat="46.53225" lon="7.91702">
        <ele>1728.87</ele>
        <time>2022-09-21T07:12:53Z</time>
      </trkpt>
      <trkpt lat="46.53225" lon="7.91704">
        <ele>1730.96</ele>
        <time>2022-09-21T07:12:55Z</time>
      </trkpt>
      <trkpt lat="46.53225" lon="7.91706">
        <ele>1732.67</ele>
        <time>2022-09-21T07:13:05Z</time>
      </trkpt>
      <trkpt lat="46.53224" lon="7.91707">
        <ele>1733.88</ele>
        <time>2022-09-21T07:13:07Z</time>
      </trkpt>
      <trkpt lat="46.53224" lon="7.91709">
        <ele>1735.41</ele>
        <time>2022-09-21T07:13:09Z</time>
      </trkpt>
      <trkpt lat="46.53224" lon="7.91711">
        <ele>1735.27</ele>
        <time>2022-09-21T07:13:11Z</time>
      </trkpt>
      <trkpt lat="46.53223" lon="7.91712">
        <ele>1736.82</ele>
        <time>2022-09-21T07:13:13Z</time>
      </trkpt>
      <trkpt lat="46.53223" lon="7.91714">
        <ele>1736.41</ele>
        <time>2022-09-21T07:13:15Z</time>
      </trkpt>
      <trkpt lat="46.53223" lon="7.91716">
        <ele>1736.23</ele>
        <time>2022-09-21T07:13:17Z</time>
      </trkpt>
      <trkpt lat="46.53223" lon="7.91718">
        <ele>1736.54</ele>
        <time>2022-09-21T07:13:19Z</time>
      </trkpt>
      <trkpt lat="46.53223" lon="7.9172">
        <ele>1738.24</ele>
        <time>2022-09-21T07:13:21Z</time>
      </trkpt>
      <trkpt lat="46.53222" lon="7.91723">
        <ele>1739.4</ele>
        <time>2022-09-21T07:13:24Z</time>
      </trkpt>
      <trkpt lat="46.53221" lon="7.91725">
        <ele>1743.49</ele>
        <time>2022-09-21T07:13:26Z</time>
      </trkpt>
      <trkpt lat="46.5322" lon="7.91727">
        <ele>1743.06</ele>
        <time>2022-09-21T07:13:28Z</time>
      </trkpt>
      <trkpt lat="46.53221" lon="7.91728">
        <ele>1743.91</ele>
        <time>2022-09-21T07:13:30Z</time>
      </trkpt>
      <trkpt lat="46.53221" lon="7.9173">
        <ele>1742.63</ele>
        <time>2022-09-21T07:13:32Z</time>
      </trkpt>
      <trkpt lat="46.53221" lon="7.91731">
        <ele>1744.33</ele>
        <time>2022-09-21T07:13:34Z</time>
      </trkpt>
      <trkpt lat="46.53221" lon="7.91733">
        <ele>1742.07</ele>
        <time>2022-09-21T07:13:36Z</time>
      </trkpt>
      <trkpt lat="46.53222" lon="7.91733">
        <ele>1741.21</ele>
        <time>2022-09-21T07:13:38Z</time>
      </trkpt>
      <trkpt lat="46.53223" lon="7.91734">
        <ele>1740.44</ele>
        <time>2022-09-21T07:13:40Z</time>
      </trkpt>
      <trkpt lat="46.53223" lon="7.91735">
        <ele>1742.37</ele>
        <time>2022-09-21T07:13:42Z</time>
      </trkpt>
      <trkpt lat="46.53223" lon="7.91737">
        <ele>1741.94</ele>
        <time>2022-09-21T07:13:45Z</time>
      </trkpt>
      <trkpt lat="46.53222" lon="7.91739">
        <ele>1742.43</ele>
        <time>2022-09-21T07:13:47Z</time>
      </trkpt>
      <trkpt lat="46.53221" lon="7.9174">
        <ele>1742.5</ele>
        <time>2022-09-21T07:13:49Z</time>
      </trkpt>
      <trkpt lat="46.53219" lon="7.91742">
        <ele>1742.68</ele>
        <time>2022-09-21T07:13:51Z</time>
      </trkpt>
      <trkpt lat="46.53218" lon="7.91743">
        <ele>1742.49</ele>
        <time>2022-09-21T07:13:52Z</time>
      </trkpt>
      <trkpt lat="46.53218" lon="7.91745">
        <ele>1744.28</ele>
        <time>2022-09-21T07:13:55Z</time>
      </trkpt>
      <trkpt lat="46.53217" lon="7.91746">
        <ele>1744.58</ele>
        <time>2022-09-21T07:13:57Z</time>
      </trkpt>
      <trkpt lat="46.53216" lon="7.91747">
        <ele>1745.59</ele>
        <time>2022-09-21T07:13:59Z</time>
      </trkpt>
      <trkpt lat="46.53216" lon="7.91748">
        <ele>1746.22</ele>
        <time>2022-09-21T07:14:01Z</time>
      </trkpt>
      <trkpt lat="46.53216" lon="7.9175">
        <ele>1747.14</ele>
        <time>2022-09-21T07:14:03Z</time>
      </trkpt>
      <trkpt lat="46.53215" lon="7.91751">
        <ele>1748.66</ele>
        <time>2022-09-21T07:14:05Z</time>
      </trkpt>
      <trkpt lat="46.53216" lon="7.91752">
        <ele>1749.76</ele>
        <time>2022-09-21T07:14:11Z</time>
      </trkpt>
      <trkpt lat="46.53215" lon="7.91753">
        <ele>1750.03</ele>
        <time>2022-09-21T07:14:14Z</time>
      </trkpt>
      <trkpt lat="46.53214" lon="7.91753">
        <ele>1751.11</ele>
        <time>2022-09-21T07:14:18Z</time>
      </trkpt>
      <trkpt lat="46.53213" lon="7.91753">
        <ele>1751.24</ele>
        <time>2022-09-21T07:14:28Z</time>
      </trkpt>
      <trkpt lat="46.53212" lon="7.91752">
        <ele>1752.6</ele>
        <time>2022-09-21T07:15:08Z</time>
      </trkpt>
      <trkpt lat="46.53213" lon="7.91751">
        <ele>1754.01</ele>
        <time>2022-09-21T07:15:14Z</time>
      </trkpt>
      <trkpt lat="46.53213" lon="7.91753">
        <ele>1753.92</ele>
        <time>2022-09-21T07:15:19Z</time>
      </trkpt>
      <trkpt lat="46.53212" lon="7.91755">
        <ele>1754.06</ele>
        <time>2022-09-21T07:15:21Z</time>
      </trkpt>
      <trkpt lat="46.53211" lon="7.91756">
        <ele>1754.69</ele>
        <time>2022-09-21T07:15:24Z</time>
      </trkpt>
      <trkpt lat="46.5321" lon="7.91758">
        <ele>1754.55</ele>
        <time>2022-09-21T07:15:25Z</time>
      </trkpt>
      <trkpt lat="46.5321" lon="7.91759">
        <ele>1754.25</ele>
        <time>2022-09-21T07:15:26Z</time>
      </trkpt>
      <trkpt lat="46.53209" lon="7.91761">
        <ele>1753.8</ele>
        <time>2022-09-21T07:15:27Z</time>
      </trkpt>
      <trkpt lat="46.53209" lon="7.91763">
        <ele>1753.89</ele>
        <time>2022-09-21T07:15:28Z</time>
      </trkpt>
      <trkpt lat="46.5321" lon="7.91765">
        <ele>1753.99</ele>
        <time>2022-09-21T07:15:29Z</time>
      </trkpt>
      <trkpt lat="46.5321" lon="7.91766">
        <ele>1753.53</ele>
        <time>2022-09-21T07:15:30Z</time>
      </trkpt>
      <trkpt lat="46.5321" lon="7.91768">
        <ele>1753.56</ele>
        <time>2022-09-21T07:15:31Z</time>
      </trkpt>
      <trkpt lat="46.53211" lon="7.91769">
        <ele>1753.5</ele>
        <time>2022-09-21T07:15:32Z</time>
      </trkpt>
      <trkpt lat="46.53211" lon="7.91771">
        <ele>1753.67</ele>
        <time>2022-09-21T07:15:33Z</time>
      </trkpt>
      <trkpt lat="46.53211" lon="7.91772">
        <ele>1753.94</ele>
        <time>2022-09-21T07:15:34Z</time>
      </trkpt>
      <trkpt lat="46.53211" lon="7.91774">
        <ele>1753.48</ele>
        <time>2022-09-21T07:15:35Z</time>
      </trkpt>
      <trkpt lat="46.53212" lon="7.91775">
        <ele>1752.34</ele>
        <time>2022-09-21T07:15:36Z</time>
      </trkpt>
      <trkpt lat="46.53212" lon="7.91777">
        <ele>1752.38</ele>
        <time>2022-09-21T07:15:37Z</time>
      </trkpt>
      <trkpt lat="46.53212" lon="7.91778">
        <ele>1751.85</ele>
        <time>2022-09-21T07:15:38Z</time>
      </trkpt>
      <trkpt lat="46.53212" lon="7.9178">
        <ele>1752.4</ele>
        <time>2022-09-21T07:15:39Z</time>
      </trkpt>
      <trkpt lat="46.53212" lon="7.91781">
        <ele>1752.65</ele>
        <time>2022-09-21T07:15:40Z</time>
      </trkpt>
      <trkpt lat="46.53212" lon="7.91783">
        <ele>1752</ele>
        <time>2022-09-21T07:15:41Z</time>
      </trkpt>
      <trkpt lat="46.53212" lon="7.91784">
        <ele>1751.99</ele>
        <time>2022-09-21T07:15:42Z</time>
      </trkpt>
      <trkpt lat="46.53213" lon="7.91787">
        <ele>1751.88</ele>
        <time>2022-09-21T07:15:44Z</time>
      </trkpt>
      <trkpt lat="46.53213" lon="7.91788">
        <ele>1752.29</ele>
        <time>2022-09-21T07:15:45Z</time>
      </trkpt>
      <trkpt lat="46.53213" lon="7.91789">
        <ele>1751.7</ele>
        <time>2022-09-21T07:15:46Z</time>
      </trkpt>
      <trkpt lat="46.53214" lon="7.9179">
        <ele>1752</ele>
        <time>2022-09-21T07:15:47Z</time>
      </trkpt>
      <trkpt lat="46.53214" lon="7.91792">
        <ele>1752.79</ele>
        <time>2022-09-21T07:15:48Z</time>
      </trkpt>
      <trkpt lat="46.53215" lon="7.91793">
        <ele>1753.24</ele>
        <time>2022-09-21T07:15:50Z</time>
      </trkpt>
      <trkpt lat="46.53216" lon="7.91795">
        <ele>1753.28</ele>
        <time>2022-09-21T07:15:52Z</time>
      </trkpt>
      <trkpt lat="46.53217" lon="7.91796">
        <ele>1753.05</ele>
        <time>2022-09-21T07:15:53Z</time>
      </trkpt>
      <trkpt lat="46.53217" lon="7.91799">
        <ele>1752.32</ele>
        <time>2022-09-21T07:15:55Z</time>
      </trkpt>
      <trkpt lat="46.53218" lon="7.918">
        <ele>1752.46</ele>
        <time>2022-09-21T07:15:56Z</time>
      </trkpt>
      <trkpt lat="46.53218" lon="7.91802">
        <ele>1752.1</ele>
        <time>2022-09-21T07:15:58Z</time>
      </trkpt>
      <trkpt lat="46.53218" lon="7.91805">
        <ele>1752.1</ele>
        <time>2022-09-21T07:16:00Z</time>
      </trkpt>
      <trkpt lat="46.53219" lon="7.91807">
        <ele>1752.31</ele>
        <time>2022-09-21T07:16:02Z</time>
      </trkpt>
      <trkpt lat="46.53219" lon="7.91809">
        <ele>1752.07</ele>
        <time>2022-09-21T07:16:03Z</time>
      </trkpt>
      <trkpt lat="46.53219" lon="7.9181">
        <ele>1752.08</ele>
        <time>2022-09-21T07:16:04Z</time>
      </trkpt>
      <trkpt lat="46.53219" lon="7.91811">
        <ele>1752.15</ele>
        <time>2022-09-21T07:16:05Z</time>
      </trkpt>
      <trkpt lat="46.5322" lon="7.91813">
        <ele>1753.65</ele>
        <time>2022-09-21T07:16:06Z</time>
      </trkpt>
      <trkpt lat="46.5322" lon="7.91814">
        <ele>1752.56</ele>
        <time>2022-09-21T07:16:07Z</time>
      </trkpt>
      <trkpt lat="46.5322" lon="7.91816">
        <ele>1752.87</ele>
        <time>2022-09-21T07:16:08Z</time>
      </trkpt>
      <trkpt lat="46.5322" lon="7.91817">
        <ele>1752.93</ele>
        <time>2022-09-21T07:16:09Z</time>
      </trkpt>
      <trkpt lat="46.53221" lon="7.91818">
        <ele>1753.05</ele>
        <time>2022-09-21T07:16:10Z</time>
      </trkpt>
      <trkpt lat="46.53221" lon="7.91821">
        <ele>1752.76</ele>
        <time>2022-09-21T07:16:12Z</time>
      </trkpt>
      <trkpt lat="46.53221" lon="7.91824">
        <ele>1751.5</ele>
        <time>2022-09-21T07:16:14Z</time>
      </trkpt>
      <trkpt lat="46.53222" lon="7.91825">
        <ele>1752.84</ele>
        <time>2022-09-21T07:16:15Z</time>
      </trkpt>
      <trkpt lat="46.53222" lon="7.91827">
        <ele>1753.31</ele>
        <time>2022-09-21T07:16:17Z</time>
      </trkpt>
      <trkpt lat="46.53223" lon="7.9183">
        <ele>1754.47</ele>
        <time>2022-09-21T07:16:19Z</time>
      </trkpt>
      <trkpt lat="46.53223" lon="7.91831">
        <ele>1753.88</ele>
        <time>2022-09-21T07:16:21Z</time>
      </trkpt>
      <trkpt lat="46.53223" lon="7.91833">
        <ele>1753.89</ele>
        <time>2022-09-21T07:16:23Z</time>
      </trkpt>
      <trkpt lat="46.53223" lon="7.91834">
        <ele>1754.21</ele>
        <time>2022-09-21T07:16:25Z</time>
      </trkpt>
      <trkpt lat="46.53224" lon="7.91836">
        <ele>1754.75</ele>
        <time>2022-09-21T07:16:27Z</time>
      </trkpt>
      <trkpt lat="46.53225" lon="7.91838">
        <ele>1755.1</ele>
        <time>2022-09-21T07:16:29Z</time>
      </trkpt>
      <trkpt lat="46.53225" lon="7.91839">
        <ele>1754.01</ele>
        <time>2022-09-21T07:16:31Z</time>
      </trkpt>
      <trkpt lat="46.53225" lon="7.91842">
        <ele>1755.04</ele>
        <time>2022-09-21T07:16:33Z</time>
      </trkpt>
      <trkpt lat="46.53226" lon="7.91844">
        <ele>1756.02</ele>
        <time>2022-09-21T07:16:35Z</time>
      </trkpt>
      <trkpt lat="46.53226" lon="7.91847">
        <ele>1755.88</ele>
        <time>2022-09-21T07:16:38Z</time>
      </trkpt>
      <trkpt lat="46.53226" lon="7.91849">
        <ele>1757.47</ele>
        <time>2022-09-21T07:16:40Z</time>
      </trkpt>
      <trkpt lat="46.53226" lon="7.91851">
        <ele>1758.19</ele>
        <time>2022-09-21T07:16:42Z</time>
      </trkpt>
      <trkpt lat="46.53226" lon="7.91853">
        <ele>1757.63</ele>
        <time>2022-09-21T07:16:44Z</time>
      </trkpt>
      <trkpt lat="46.53226" lon="7.91855">
        <ele>1758.96</ele>
        <time>2022-09-21T07:16:46Z</time>
      </trkpt>
      <trkpt lat="46.53225" lon="7.91857">
        <ele>1761.37</ele>
        <time>2022-09-21T07:16:48Z</time>
      </trkpt>
      <trkpt lat="46.53224" lon="7.91857">
        <ele>1760.5</ele>
        <time>2022-09-21T07:16:49Z</time>
      </trkpt>
      <trkpt lat="46.53223" lon="7.91858">
        <ele>1760.59</ele>
        <time>2022-09-21T07:16:50Z</time>
      </trkpt>
      <trkpt lat="46.53222" lon="7.91859">
        <ele>1761.99</ele>
        <time>2022-09-21T07:16:52Z</time>
      </trkpt>
      <trkpt lat="46.5322" lon="7.91861">
        <ele>1763.4</ele>
        <time>2022-09-21T07:16:54Z</time>
      </trkpt>
      <trkpt lat="46.53219" lon="7.91862">
        <ele>1762.81</ele>
        <time>2022-09-21T07:16:56Z</time>
      </trkpt>
      <trkpt lat="46.53219" lon="7.91864">
        <ele>1763.33</ele>
        <time>2022-09-21T07:16:58Z</time>
      </trkpt>
      <trkpt lat="46.53218" lon="7.91866">
        <ele>1763.18</ele>
        <time>2022-09-21T07:17:00Z</time>
      </trkpt>
      <trkpt lat="46.53217" lon="7.91868">
        <ele>1762.1</ele>
        <time>2022-09-21T07:17:02Z</time>
      </trkpt>
      <trkpt lat="46.53216" lon="7.9187">
        <ele>1762.8</ele>
        <time>2022-09-21T07:17:04Z</time>
      </trkpt>
      <trkpt lat="46.53216" lon="7.91872">
        <ele>1762.52</ele>
        <time>2022-09-21T07:17:06Z</time>
      </trkpt>
      <trkpt lat="46.53215" lon="7.91874">
        <ele>1763.46</ele>
        <time>2022-09-21T07:17:08Z</time>
      </trkpt>
      <trkpt lat="46.53214" lon="7.91877">
        <ele>1764.78</ele>
        <time>2022-09-21T07:17:10Z</time>
      </trkpt>
      <trkpt lat="46.53213" lon="7.91878">
        <ele>1764.63</ele>
        <time>2022-09-21T07:17:12Z</time>
      </trkpt>
      <trkpt lat="46.53212" lon="7.91879">
        <ele>1762.83</ele>
        <time>2022-09-21T07:17:14Z</time>
      </trkpt>
      <trkpt lat="46.53212" lon="7.91878">
        <ele>1765.69</ele>
        <time>2022-09-21T07:18:07Z</time>
      </trkpt>
      <trkpt lat="46.53211" lon="7.91877">
        <ele>1765.6</ele>
        <time>2022-09-21T07:18:09Z</time>
      </trkpt>
      <trkpt lat="46.5321" lon="7.91876">
        <ele>1766.3</ele>
        <time>2022-09-21T07:18:12Z</time>
      </trkpt>
      <trkpt lat="46.53211" lon="7.91875">
        <ele>1766.42</ele>
        <time>2022-09-21T07:18:16Z</time>
      </trkpt>
      <trkpt lat="46.5321" lon="7.91876">
        <ele>1766.02</ele>
        <time>2022-09-21T07:18:20Z</time>
      </trkpt>
      <trkpt lat="46.53209" lon="7.91876">
        <ele>1766.36</ele>
        <time>2022-09-21T07:18:23Z</time>
      </trkpt>
      <trkpt lat="46.53207" lon="7.91875">
        <ele>1767.54</ele>
        <time>2022-09-21T07:18:26Z</time>
      </trkpt>
      <trkpt lat="46.53206" lon="7.91874">
        <ele>1767.08</ele>
        <time>2022-09-21T07:18:28Z</time>
      </trkpt>
      <trkpt lat="46.53204" lon="7.91874">
        <ele>1766.56</ele>
        <time>2022-09-21T07:18:30Z</time>
      </trkpt>
      <trkpt lat="46.53203" lon="7.91875">
        <ele>1768.17</ele>
        <time>2022-09-21T07:18:32Z</time>
      </trkpt>
      <trkpt lat="46.53201" lon="7.91876">
        <ele>1769.13</ele>
        <time>2022-09-21T07:18:34Z</time>
      </trkpt>
      <trkpt lat="46.532" lon="7.91876">
        <ele>1769.16</ele>
        <time>2022-09-21T07:18:36Z</time>
      </trkpt>
      <trkpt lat="46.532" lon="7.91879">
        <ele>1768.87</ele>
        <time>2022-09-21T07:18:38Z</time>
      </trkpt>
      <trkpt lat="46.53199" lon="7.91881">
        <ele>1768.14</ele>
        <time>2022-09-21T07:18:40Z</time>
      </trkpt>
      <trkpt lat="46.53198" lon="7.91883">
        <ele>1768.67</ele>
        <time>2022-09-21T07:18:42Z</time>
      </trkpt>
      <trkpt lat="46.53198" lon="7.91885">
        <ele>1769.19</ele>
        <time>2022-09-21T07:18:44Z</time>
      </trkpt>
      <trkpt lat="46.53199" lon="7.91887">
        <ele>1769.87</ele>
        <time>2022-09-21T07:18:46Z</time>
      </trkpt>
      <trkpt lat="46.53199" lon="7.91888">
        <ele>1770.85</ele>
        <time>2022-09-21T07:18:48Z</time>
      </trkpt>
      <trkpt lat="46.532" lon="7.91891">
        <ele>1769.78</ele>
        <time>2022-09-21T07:18:50Z</time>
      </trkpt>
      <trkpt lat="46.53201" lon="7.91892">
        <ele>1769.61</ele>
        <time>2022-09-21T07:18:51Z</time>
      </trkpt>
      <trkpt lat="46.53201" lon="7.91893">
        <ele>1769.86</ele>
        <time>2022-09-21T07:18:52Z</time>
      </trkpt>
      <trkpt lat="46.53201" lon="7.91895">
        <ele>1770.58</ele>
        <time>2022-09-21T07:18:53Z</time>
      </trkpt>
      <trkpt lat="46.53201" lon="7.91898">
        <ele>1771.05</ele>
        <time>2022-09-21T07:18:56Z</time>
      </trkpt>
      <trkpt lat="46.53201" lon="7.919">
        <ele>1771.55</ele>
        <time>2022-09-21T07:18:58Z</time>
      </trkpt>
      <trkpt lat="46.53201" lon="7.91902">
        <ele>1770.55</ele>
        <time>2022-09-21T07:19:00Z</time>
      </trkpt>
      <trkpt lat="46.53199" lon="7.91901">
        <ele>1771.44</ele>
        <time>2022-09-21T07:19:02Z</time>
      </trkpt>
      <trkpt lat="46.53198" lon="7.919">
        <ele>1771.33</ele>
        <time>2022-09-21T07:19:03Z</time>
      </trkpt>
      <trkpt lat="46.53197" lon="7.919">
        <ele>1771.66</ele>
        <time>2022-09-21T07:19:04Z</time>
      </trkpt>
      <trkpt lat="46.53197" lon="7.91899">
        <ele>1771.39</ele>
        <time>2022-09-21T07:19:05Z</time>
      </trkpt>
      <trkpt lat="46.53196" lon="7.91898">
        <ele>1770.82</ele>
        <time>2022-09-21T07:19:07Z</time>
      </trkpt>
      <trkpt lat="46.53195" lon="7.91899">
        <ele>1770.89</ele>
        <time>2022-09-21T07:19:09Z</time>
      </trkpt>
      <trkpt lat="46.53195" lon="7.919">
        <ele>1770.6</ele>
        <time>2022-09-21T07:19:10Z</time>
      </trkpt>
      <trkpt lat="46.53195" lon="7.91903">
        <ele>1772.24</ele>
        <time>2022-09-21T07:19:12Z</time>
      </trkpt>
      <trkpt lat="46.53196" lon="7.91905">
        <ele>1773.26</ele>
        <time>2022-09-21T07:19:14Z</time>
      </trkpt>
      <trkpt lat="46.53196" lon="7.91907">
        <ele>1773.95</ele>
        <time>2022-09-21T07:19:16Z</time>
      </trkpt>
      <trkpt lat="46.53197" lon="7.9191">
        <ele>1774.16</ele>
        <time>2022-09-21T07:19:18Z</time>
      </trkpt>
      <trkpt lat="46.53197" lon="7.91912">
        <ele>1774.37</ele>
        <time>2022-09-21T07:19:20Z</time>
      </trkpt>
      <trkpt lat="46.53198" lon="7.91914">
        <ele>1774.91</ele>
        <time>2022-09-21T07:19:22Z</time>
      </trkpt>
      <trkpt lat="46.53197" lon="7.91915">
        <ele>1776.45</ele>
        <time>2022-09-21T07:19:24Z</time>
      </trkpt>
      <trkpt lat="46.53197" lon="7.91917">
        <ele>1777.96</ele>
        <time>2022-09-21T07:19:26Z</time>
      </trkpt>
      <trkpt lat="46.53197" lon="7.91919">
        <ele>1780.35</ele>
        <time>2022-09-21T07:19:28Z</time>
      </trkpt>
      <trkpt lat="46.53197" lon="7.91921">
        <ele>1781.97</ele>
        <time>2022-09-21T07:19:30Z</time>
      </trkpt>
      <trkpt lat="46.53197" lon="7.91922">
        <ele>1782.28</ele>
        <time>2022-09-21T07:19:32Z</time>
      </trkpt>
      <trkpt lat="46.53198" lon="7.91924">
        <ele>1781.78</ele>
        <time>2022-09-21T07:19:34Z</time>
      </trkpt>
      <trkpt lat="46.53199" lon="7.91926">
        <ele>1781.73</ele>
        <time>2022-09-21T07:19:36Z</time>
      </trkpt>
      <trkpt lat="46.532" lon="7.91928">
        <ele>1781.32</ele>
        <time>2022-09-21T07:19:38Z</time>
      </trkpt>
      <trkpt lat="46.53201" lon="7.9193">
        <ele>1780.78</ele>
        <time>2022-09-21T07:19:40Z</time>
      </trkpt>
      <trkpt lat="46.53201" lon="7.91932">
        <ele>1781.6</ele>
        <time>2022-09-21T07:19:42Z</time>
      </trkpt>
      <trkpt lat="46.53202" lon="7.91933">
        <ele>1781.46</ele>
        <time>2022-09-21T07:19:44Z</time>
      </trkpt>
      <trkpt lat="46.53203" lon="7.91935">
        <ele>1782.41</ele>
        <time>2022-09-21T07:19:46Z</time>
      </trkpt>
      <trkpt lat="46.53203" lon="7.91937">
        <ele>1782.62</ele>
        <time>2022-09-21T07:19:48Z</time>
      </trkpt>
      <trkpt lat="46.53204" lon="7.9194">
        <ele>1784.34</ele>
        <time>2022-09-21T07:19:50Z</time>
      </trkpt>
      <trkpt lat="46.53205" lon="7.91942">
        <ele>1785.19</ele>
        <time>2022-09-21T07:19:52Z</time>
      </trkpt>
      <trkpt lat="46.53204" lon="7.91942">
        <ele>1784.44</ele>
        <time>2022-09-21T07:19:56Z</time>
      </trkpt>
      <trkpt lat="46.53202" lon="7.91942">
        <ele>1786.51</ele>
        <time>2022-09-21T07:19:58Z</time>
      </trkpt>
      <trkpt lat="46.53201" lon="7.91943">
        <ele>1786.05</ele>
        <time>2022-09-21T07:20:00Z</time>
      </trkpt>
      <trkpt lat="46.532" lon="7.91946">
        <ele>1786</ele>
        <time>2022-09-21T07:20:03Z</time>
      </trkpt>
      <trkpt lat="46.532" lon="7.91948">
        <ele>1787.74</ele>
        <time>2022-09-21T07:20:05Z</time>
      </trkpt>
      <trkpt lat="46.53199" lon="7.9195">
        <ele>1787.78</ele>
        <time>2022-09-21T07:20:07Z</time>
      </trkpt>
      <trkpt lat="46.53199" lon="7.91953">
        <ele>1788.01</ele>
        <time>2022-09-21T07:20:09Z</time>
      </trkpt>
      <trkpt lat="46.532" lon="7.91955">
        <ele>1787.94</ele>
        <time>2022-09-21T07:20:11Z</time>
      </trkpt>
      <trkpt lat="46.532" lon="7.91958">
        <ele>1789.45</ele>
        <time>2022-09-21T07:20:14Z</time>
      </trkpt>
      <trkpt lat="46.53201" lon="7.9196">
        <ele>1789.72</ele>
        <time>2022-09-21T07:20:16Z</time>
      </trkpt>
      <trkpt lat="46.53201" lon="7.91961">
        <ele>1789.88</ele>
        <time>2022-09-21T07:20:18Z</time>
      </trkpt>
      <trkpt lat="46.53202" lon="7.91963">
        <ele>1790.21</ele>
        <time>2022-09-21T07:20:20Z</time>
      </trkpt>
      <trkpt lat="46.53202" lon="7.91965">
        <ele>1790.22</ele>
        <time>2022-09-21T07:20:22Z</time>
      </trkpt>
      <trkpt lat="46.53202" lon="7.91967">
        <ele>1790.03</ele>
        <time>2022-09-21T07:20:24Z</time>
      </trkpt>
      <trkpt lat="46.53202" lon="7.91968">
        <ele>1790.84</ele>
        <time>2022-09-21T07:20:26Z</time>
      </trkpt>
      <trkpt lat="46.53202" lon="7.9197">
        <ele>1792.04</ele>
        <time>2022-09-21T07:20:28Z</time>
      </trkpt>
      <trkpt lat="46.53203" lon="7.91972">
        <ele>1791.92</ele>
        <time>2022-09-21T07:20:30Z</time>
      </trkpt>
      <trkpt lat="46.53203" lon="7.91974">
        <ele>1793.5</ele>
        <time>2022-09-21T07:20:32Z</time>
      </trkpt>
      <trkpt lat="46.53203" lon="7.91976">
        <ele>1794.17</ele>
        <time>2022-09-21T07:20:34Z</time>
      </trkpt>
      <trkpt lat="46.53203" lon="7.91978">
        <ele>1794.27</ele>
        <time>2022-09-21T07:20:36Z</time>
      </trkpt>
      <trkpt lat="46.53202" lon="7.9198">
        <ele>1796.31</ele>
        <time>2022-09-21T07:20:38Z</time>
      </trkpt>
      <trkpt lat="46.53202" lon="7.91982">
        <ele>1796.58</ele>
        <time>2022-09-21T07:20:40Z</time>
      </trkpt>
      <trkpt lat="46.53202" lon="7.91984">
        <ele>1796.49</ele>
        <time>2022-09-21T07:20:42Z</time>
      </trkpt>
      <trkpt lat="46.53202" lon="7.91986">
        <ele>1797.74</ele>
        <time>2022-09-21T07:20:44Z</time>
      </trkpt>
      <trkpt lat="46.53202" lon="7.91988">
        <ele>1799.01</ele>
        <time>2022-09-21T07:20:46Z</time>
      </trkpt>
      <trkpt lat="46.53202" lon="7.91991">
        <ele>1798.88</ele>
        <time>2022-09-21T07:20:49Z</time>
      </trkpt>
      <trkpt lat="46.53203" lon="7.91993">
        <ele>1773.83</ele>
        <time>2022-09-21T07:20:52Z</time>
      </trkpt>
      <trkpt lat="46.53204" lon="7.91995">
        <ele>1785.27</ele>
        <time>2022-09-21T07:20:54Z</time>
      </trkpt>
      <trkpt lat="46.53204" lon="7.91997">
        <ele>1791.38</ele>
        <time>2022-09-21T07:20:56Z</time>
      </trkpt>
      <trkpt lat="46.53205" lon="7.92">
        <ele>1795.08</ele>
        <time>2022-09-21T07:20:58Z</time>
      </trkpt>
      <trkpt lat="46.53206" lon="7.92002">
        <ele>1798.13</ele>
        <time>2022-09-21T07:21:00Z</time>
      </trkpt>
      <trkpt lat="46.53206" lon="7.92003">
        <ele>1799.73</ele>
        <time>2022-09-21T07:21:01Z</time>
      </trkpt>
      <trkpt lat="46.53206" lon="7.92004">
        <ele>1800.19</ele>
        <time>2022-09-21T07:21:02Z</time>
      </trkpt>
      <trkpt lat="46.53206" lon="7.92007">
        <ele>1800.74</ele>
        <time>2022-09-21T07:21:04Z</time>
      </trkpt>
      <trkpt lat="46.53207" lon="7.92009">
        <ele>1800.73</ele>
        <time>2022-09-21T07:21:06Z</time>
      </trkpt>
      <trkpt lat="46.53207" lon="7.92011">
        <ele>1801.56</ele>
        <time>2022-09-21T07:21:08Z</time>
      </trkpt>
      <trkpt lat="46.53207" lon="7.92013">
        <ele>1801.43</ele>
        <time>2022-09-21T07:21:10Z</time>
      </trkpt>
      <trkpt lat="46.53206" lon="7.92015">
        <ele>1803.43</ele>
        <time>2022-09-21T07:21:13Z</time>
      </trkpt>
      <trkpt lat="46.53204" lon="7.92015">
        <ele>1805.25</ele>
        <time>2022-09-21T07:21:15Z</time>
      </trkpt>
      <trkpt lat="46.53204" lon="7.92017">
        <ele>1805.95</ele>
        <time>2022-09-21T07:21:17Z</time>
      </trkpt>
      <trkpt lat="46.53204" lon="7.92019">
        <ele>1806.59</ele>
        <time>2022-09-21T07:21:19Z</time>
      </trkpt>
      <trkpt lat="46.53204" lon="7.92021">
        <ele>1785.95</ele>
        <time>2022-09-21T07:21:21Z</time>
      </trkpt>
      <trkpt lat="46.53205" lon="7.92023">
        <ele>1796.35</ele>
        <time>2022-09-21T07:21:23Z</time>
      </trkpt>
      <trkpt lat="46.53205" lon="7.92024">
        <ele>1799.43</ele>
        <time>2022-09-21T07:21:25Z</time>
      </trkpt>
      <trkpt lat="46.53205" lon="7.92026">
        <ele>1803.99</ele>
        <time>2022-09-21T07:21:27Z</time>
      </trkpt>
      <trkpt lat="46.53205" lon="7.92028">
        <ele>1805.74</ele>
        <time>2022-09-21T07:21:29Z</time>
      </trkpt>
      <trkpt lat="46.53205" lon="7.9203">
        <ele>1807.68</ele>
        <time>2022-09-21T07:21:31Z</time>
      </trkpt>
      <trkpt lat="46.53205" lon="7.92031">
        <ele>1808.61</ele>
        <time>2022-09-21T07:21:33Z</time>
      </trkpt>
      <trkpt lat="46.53205" lon="7.92033">
        <ele>1810.73</ele>
        <time>2022-09-21T07:21:35Z</time>
      </trkpt>
      <trkpt lat="46.53205" lon="7.92034">
        <ele>1811.46</ele>
        <time>2022-09-21T07:21:37Z</time>
      </trkpt>
      <trkpt lat="46.53205" lon="7.92036">
        <ele>1811.34</ele>
        <time>2022-09-21T07:21:39Z</time>
      </trkpt>
      <trkpt lat="46.53206" lon="7.92037">
        <ele>1811.63</ele>
        <time>2022-09-21T07:21:41Z</time>
      </trkpt>
      <trkpt lat="46.53206" lon="7.92039">
        <ele>1813.19</ele>
        <time>2022-09-21T07:21:43Z</time>
      </trkpt>
      <trkpt lat="46.53206" lon="7.92041">
        <ele>1813.8</ele>
        <time>2022-09-21T07:21:45Z</time>
      </trkpt>
      <trkpt lat="46.53206" lon="7.92044">
        <ele>1815.22</ele>
        <time>2022-09-21T07:21:47Z</time>
      </trkpt>
      <trkpt lat="46.53206" lon="7.92045">
        <ele>1816.01</ele>
        <time>2022-09-21T07:21:49Z</time>
      </trkpt>
      <trkpt lat="46.53207" lon="7.92047">
        <ele>1816.69</ele>
        <time>2022-09-21T07:21:51Z</time>
      </trkpt>
      <trkpt lat="46.53207" lon="7.92048">
        <ele>1818.55</ele>
        <time>2022-09-21T07:21:53Z</time>
      </trkpt>
      <trkpt lat="46.53208" lon="7.9205">
        <ele>1817.95</ele>
        <time>2022-09-21T07:21:55Z</time>
      </trkpt>
      <trkpt lat="46.53208" lon="7.92052">
        <ele>1818.26</ele>
        <time>2022-09-21T07:21:57Z</time>
      </trkpt>
      <trkpt lat="46.53209" lon="7.92054">
        <ele>1818.05</ele>
        <time>2022-09-21T07:21:59Z</time>
      </trkpt>
      <trkpt lat="46.53208" lon="7.92056">
        <ele>1819.39</ele>
        <time>2022-09-21T07:22:01Z</time>
      </trkpt>
      <trkpt lat="46.53208" lon="7.92058">
        <ele>1819.41</ele>
        <time>2022-09-21T07:22:03Z</time>
      </trkpt>
      <trkpt lat="46.53208" lon="7.9206">
        <ele>1819.14</ele>
        <time>2022-09-21T07:22:04Z</time>
      </trkpt>
      <trkpt lat="46.53208" lon="7.92062">
        <ele>1819.67</ele>
        <time>2022-09-21T07:22:06Z</time>
      </trkpt>
      <trkpt lat="46.53209" lon="7.92065">
        <ele>1820.44</ele>
        <time>2022-09-21T07:22:08Z</time>
      </trkpt>
      <trkpt lat="46.53209" lon="7.92067">
        <ele>1820.07</ele>
        <time>2022-09-21T07:22:10Z</time>
      </trkpt>
      <trkpt lat="46.53209" lon="7.92069">
        <ele>1820.69</ele>
        <time>2022-09-21T07:22:12Z</time>
      </trkpt>
      <trkpt lat="46.53208" lon="7.9207">
        <ele>1821.79</ele>
        <time>2022-09-21T07:22:14Z</time>
      </trkpt>
      <trkpt lat="46.53207" lon="7.92071">
        <ele>1822.54</ele>
        <time>2022-09-21T07:22:17Z</time>
      </trkpt>
      <trkpt lat="46.53207" lon="7.92074">
        <ele>1822.16</ele>
        <time>2022-09-21T07:22:20Z</time>
      </trkpt>
      <trkpt lat="46.53207" lon="7.92076">
        <ele>1821.64</ele>
        <time>2022-09-21T07:22:22Z</time>
      </trkpt>
      <trkpt lat="46.53207" lon="7.92077">
        <ele>1822.43</ele>
        <time>2022-09-21T07:22:24Z</time>
      </trkpt>
      <trkpt lat="46.53207" lon="7.92079">
        <ele>1822.62</ele>
        <time>2022-09-21T07:22:26Z</time>
      </trkpt>
      <trkpt lat="46.53207" lon="7.92081">
        <ele>1823.24</ele>
        <time>2022-09-21T07:22:28Z</time>
      </trkpt>
      <trkpt lat="46.53207" lon="7.92083">
        <ele>1824.81</ele>
        <time>2022-09-21T07:22:30Z</time>
      </trkpt>
      <trkpt lat="46.53207" lon="7.92085">
        <ele>1826.4</ele>
        <time>2022-09-21T07:22:32Z</time>
      </trkpt>
      <trkpt lat="46.53207" lon="7.92087">
        <ele>1825.79</ele>
        <time>2022-09-21T07:22:34Z</time>
      </trkpt>
      <trkpt lat="46.53208" lon="7.92088">
        <ele>1826.19</ele>
        <time>2022-09-21T07:22:36Z</time>
      </trkpt>
      <trkpt lat="46.53209" lon="7.92089">
        <ele>1825.28</ele>
        <time>2022-09-21T07:22:38Z</time>
      </trkpt>
      <trkpt lat="46.53211" lon="7.92089">
        <ele>1827.02</ele>
        <time>2022-09-21T07:22:40Z</time>
      </trkpt>
      <trkpt lat="46.53212" lon="7.9209">
        <ele>1826.72</ele>
        <time>2022-09-21T07:22:42Z</time>
      </trkpt>
      <trkpt lat="46.53213" lon="7.92091">
        <ele>1826.48</ele>
        <time>2022-09-21T07:22:44Z</time>
      </trkpt>
      <trkpt lat="46.53213" lon="7.92092">
        <ele>1827.57</ele>
        <time>2022-09-21T07:22:46Z</time>
      </trkpt>
      <trkpt lat="46.53212" lon="7.92094">
        <ele>1829.56</ele>
        <time>2022-09-21T07:22:48Z</time>
      </trkpt>
      <trkpt lat="46.5321" lon="7.92095">
        <ele>1814.45</ele>
        <time>2022-09-21T07:22:51Z</time>
      </trkpt>
      <trkpt lat="46.53209" lon="7.92095">
        <ele>1822.28</ele>
        <time>2022-09-21T07:22:53Z</time>
      </trkpt>
      <trkpt lat="46.53209" lon="7.92097">
        <ele>1826.34</ele>
        <time>2022-09-21T07:22:57Z</time>
      </trkpt>
      <trkpt lat="46.53211" lon="7.92098">
        <ele>1829.01</ele>
        <time>2022-09-21T07:22:59Z</time>
      </trkpt>
      <trkpt lat="46.53211" lon="7.921">
        <ele>1791.11</ele>
        <time>2022-09-21T07:23:04Z</time>
      </trkpt>
      <trkpt lat="46.53212" lon="7.92101">
        <ele>1798.35</ele>
        <time>2022-09-21T07:23:06Z</time>
      </trkpt>
      <trkpt lat="46.53213" lon="7.92103">
        <ele>1806.87</ele>
        <time>2022-09-21T07:23:09Z</time>
      </trkpt>
      <trkpt lat="46.53214" lon="7.92104">
        <ele>1820.58</ele>
        <time>2022-09-21T07:23:11Z</time>
      </trkpt>
      <trkpt lat="46.53215" lon="7.92105">
        <ele>1823.76</ele>
        <time>2022-09-21T07:23:13Z</time>
      </trkpt>
      <trkpt lat="46.53215" lon="7.92107">
        <ele>1829.1</ele>
        <time>2022-09-21T07:23:15Z</time>
      </trkpt>
      <trkpt lat="46.53215" lon="7.92108">
        <ele>1830.76</ele>
        <time>2022-09-21T07:23:17Z</time>
      </trkpt>
      <trkpt lat="46.53215" lon="7.9211">
        <ele>1832.96</ele>
        <time>2022-09-21T07:23:20Z</time>
      </trkpt>
      <trkpt lat="46.53214" lon="7.92111">
        <ele>1832.36</ele>
        <time>2022-09-21T07:23:23Z</time>
      </trkpt>
      <trkpt lat="46.53214" lon="7.92112">
        <ele>1834</ele>
        <time>2022-09-21T07:23:25Z</time>
      </trkpt>
      <trkpt lat="46.53214" lon="7.92114">
        <ele>1835.27</ele>
        <time>2022-09-21T07:23:28Z</time>
      </trkpt>
      <trkpt lat="46.53214" lon="7.92116">
        <ele>1834.83</ele>
        <time>2022-09-21T07:23:30Z</time>
      </trkpt>
      <trkpt lat="46.53215" lon="7.92117">
        <ele>1834.33</ele>
        <time>2022-09-21T07:23:32Z</time>
      </trkpt>
      <trkpt lat="46.53216" lon="7.92118">
        <ele>1834.37</ele>
        <time>2022-09-21T07:23:34Z</time>
      </trkpt>
      <trkpt lat="46.53216" lon="7.92119">
        <ele>1837.2</ele>
        <time>2022-09-21T07:23:38Z</time>
      </trkpt>
      <trkpt lat="46.53216" lon="7.92121">
        <ele>1837.45</ele>
        <time>2022-09-21T07:23:40Z</time>
      </trkpt>
      <trkpt lat="46.53215" lon="7.92122">
        <ele>1837.96</ele>
        <time>2022-09-21T07:23:43Z</time>
      </trkpt>
      <trkpt lat="46.53215" lon="7.92124">
        <ele>1838.33</ele>
        <time>2022-09-21T07:23:45Z</time>
      </trkpt>
      <trkpt lat="46.53216" lon="7.92126">
        <ele>1838.38</ele>
        <time>2022-09-21T07:23:47Z</time>
      </trkpt>
      <trkpt lat="46.53217" lon="7.92127">
        <ele>1838.8</ele>
        <time>2022-09-21T07:23:48Z</time>
      </trkpt>
      <trkpt lat="46.53218" lon="7.92127">
        <ele>1839.05</ele>
        <time>2022-09-21T07:23:49Z</time>
      </trkpt>
      <trkpt lat="46.53218" lon="7.92128">
        <ele>1838.76</ele>
        <time>2022-09-21T07:23:50Z</time>
      </trkpt>
      <trkpt lat="46.5322" lon="7.9213">
        <ele>1839.58</ele>
        <time>2022-09-21T07:23:52Z</time>
      </trkpt>
      <trkpt lat="46.53221" lon="7.92132">
        <ele>1840.34</ele>
        <time>2022-09-21T07:23:54Z</time>
      </trkpt>
      <trkpt lat="46.53222" lon="7.92134">
        <ele>1839.9</ele>
        <time>2022-09-21T07:23:56Z</time>
      </trkpt>
      <trkpt lat="46.53223" lon="7.92135">
        <ele>1839.24</ele>
        <time>2022-09-21T07:23:58Z</time>
      </trkpt>
      <trkpt lat="46.53224" lon="7.92137">
        <ele>1838.76</ele>
        <time>2022-09-21T07:24:00Z</time>
      </trkpt>
      <trkpt lat="46.53224" lon="7.92139">
        <ele>1840.64</ele>
        <time>2022-09-21T07:24:02Z</time>
      </trkpt>
      <trkpt lat="46.53223" lon="7.92141">
        <ele>1841.89</ele>
        <time>2022-09-21T07:24:04Z</time>
      </trkpt>
      <trkpt lat="46.53224" lon="7.92143">
        <ele>1840.82</ele>
        <time>2022-09-21T07:24:06Z</time>
      </trkpt>
      <trkpt lat="46.53225" lon="7.92144">
        <ele>1842.22</ele>
        <time>2022-09-21T07:24:09Z</time>
      </trkpt>
      <trkpt lat="46.53226" lon="7.92147">
        <ele>1843.8</ele>
        <time>2022-09-21T07:24:12Z</time>
      </trkpt>
      <trkpt lat="46.53226" lon="7.9215">
        <ele>1844.9</ele>
        <time>2022-09-21T07:24:15Z</time>
      </trkpt>
      <trkpt lat="46.53226" lon="7.92151">
        <ele>1844.41</ele>
        <time>2022-09-21T07:24:17Z</time>
      </trkpt>
      <trkpt lat="46.53226" lon="7.92153">
        <ele>1845.86</ele>
        <time>2022-09-21T07:24:19Z</time>
      </trkpt>
      <trkpt lat="46.53226" lon="7.92154">
        <ele>1846.01</ele>
        <time>2022-09-21T07:24:22Z</time>
      </trkpt>
      <trkpt lat="46.53226" lon="7.92156">
        <ele>1846.76</ele>
        <time>2022-09-21T07:24:25Z</time>
      </trkpt>
      <trkpt lat="46.53227" lon="7.92157">
        <ele>1847.23</ele>
        <time>2022-09-21T07:24:27Z</time>
      </trkpt>
      <trkpt lat="46.53228" lon="7.92157">
        <ele>1847.69</ele>
        <time>2022-09-21T07:24:30Z</time>
      </trkpt>
      <trkpt lat="46.53227" lon="7.92159">
        <ele>1849.96</ele>
        <time>2022-09-21T07:24:33Z</time>
      </trkpt>
      <trkpt lat="46.53225" lon="7.9216">
        <ele>1850.1</ele>
        <time>2022-09-21T07:24:36Z</time>
      </trkpt>
      <trkpt lat="46.53224" lon="7.92162">
        <ele>1850.61</ele>
        <time>2022-09-21T07:24:38Z</time>
      </trkpt>
      <trkpt lat="46.53224" lon="7.92164">
        <ele>1850.38</ele>
        <time>2022-09-21T07:24:40Z</time>
      </trkpt>
      <trkpt lat="46.53223" lon="7.92165">
        <ele>1852.11</ele>
        <time>2022-09-21T07:24:42Z</time>
      </trkpt>
      <trkpt lat="46.53222" lon="7.92167">
        <ele>1854.15</ele>
        <time>2022-09-21T07:24:44Z</time>
      </trkpt>
      <trkpt lat="46.53221" lon="7.92168">
        <ele>1854.12</ele>
        <time>2022-09-21T07:24:46Z</time>
      </trkpt>
      <trkpt lat="46.5322" lon="7.92168">
        <ele>1854.59</ele>
        <time>2022-09-21T07:24:49Z</time>
      </trkpt>
      <trkpt lat="46.53219" lon="7.92168">
        <ele>1855.57</ele>
        <time>2022-09-21T07:24:51Z</time>
      </trkpt>
      <trkpt lat="46.53219" lon="7.92167">
        <ele>1856.37</ele>
        <time>2022-09-21T07:24:53Z</time>
      </trkpt>
      <trkpt lat="46.53218" lon="7.92166">
        <ele>1856.13</ele>
        <time>2022-09-21T07:24:55Z</time>
      </trkpt>
      <trkpt lat="46.53217" lon="7.92165">
        <ele>1856.14</ele>
        <time>2022-09-21T07:24:57Z</time>
      </trkpt>
      <trkpt lat="46.53216" lon="7.92163">
        <ele>1857.16</ele>
        <time>2022-09-21T07:24:59Z</time>
      </trkpt>
      <trkpt lat="46.53215" lon="7.92162">
        <ele>1858.34</ele>
        <time>2022-09-21T07:25:01Z</time>
      </trkpt>
      <trkpt lat="46.53214" lon="7.9216">
        <ele>1858.36</ele>
        <time>2022-09-21T07:25:03Z</time>
      </trkpt>
      <trkpt lat="46.53213" lon="7.92159">
        <ele>1857.93</ele>
        <time>2022-09-21T07:25:06Z</time>
      </trkpt>
      <trkpt lat="46.53213" lon="7.92158">
        <ele>1857.77</ele>
        <time>2022-09-21T07:25:08Z</time>
      </trkpt>
      <trkpt lat="46.53212" lon="7.92157">
        <ele>1858.59</ele>
        <time>2022-09-21T07:25:10Z</time>
      </trkpt>
      <trkpt lat="46.53211" lon="7.92156">
        <ele>1858.52</ele>
        <time>2022-09-21T07:25:12Z</time>
      </trkpt>
      <trkpt lat="46.5321" lon="7.92155">
        <ele>1858.45</ele>
        <time>2022-09-21T07:25:14Z</time>
      </trkpt>
      <trkpt lat="46.53209" lon="7.92154">
        <ele>1858.78</ele>
        <time>2022-09-21T07:25:16Z</time>
      </trkpt>
      <trkpt lat="46.53207" lon="7.92153">
        <ele>1858.39</ele>
        <time>2022-09-21T07:25:18Z</time>
      </trkpt>
      <trkpt lat="46.53206" lon="7.92152">
        <ele>1858.93</ele>
        <time>2022-09-21T07:25:20Z</time>
      </trkpt>
      <trkpt lat="46.53205" lon="7.92151">
        <ele>1860.41</ele>
        <time>2022-09-21T07:25:22Z</time>
      </trkpt>
      <trkpt lat="46.53204" lon="7.92151">
        <ele>1859.66</ele>
        <time>2022-09-21T07:25:24Z</time>
      </trkpt>
      <trkpt lat="46.53203" lon="7.9215">
        <ele>1859.88</ele>
        <time>2022-09-21T07:25:26Z</time>
      </trkpt>
      <trkpt lat="46.53201" lon="7.9215">
        <ele>1860.11</ele>
        <time>2022-09-21T07:25:29Z</time>
      </trkpt>
      <trkpt lat="46.532" lon="7.9215">
        <ele>1860.72</ele>
        <time>2022-09-21T07:25:31Z</time>
      </trkpt>
      <trkpt lat="46.532" lon="7.92152">
        <ele>1861.84</ele>
        <time>2022-09-21T07:25:34Z</time>
      </trkpt>
      <trkpt lat="46.53199" lon="7.92153">
        <ele>1863.07</ele>
        <time>2022-09-21T07:25:37Z</time>
      </trkpt>
      <trkpt lat="46.53198" lon="7.92152">
        <ele>1863.5</ele>
        <time>2022-09-21T07:25:39Z</time>
      </trkpt>
      <trkpt lat="46.53197" lon="7.92151">
        <ele>1863</ele>
        <time>2022-09-21T07:25:41Z</time>
      </trkpt>
      <trkpt lat="46.53196" lon="7.92151">
        <ele>1864.21</ele>
        <time>2022-09-21T07:25:43Z</time>
      </trkpt>
      <trkpt lat="46.53195" lon="7.9215">
        <ele>1863.62</ele>
        <time>2022-09-21T07:25:45Z</time>
      </trkpt>
      <trkpt lat="46.53194" lon="7.9215">
        <ele>1864.44</ele>
        <time>2022-09-21T07:25:47Z</time>
      </trkpt>
      <trkpt lat="46.53193" lon="7.92149">
        <ele>1866.35</ele>
        <time>2022-09-21T07:25:49Z</time>
      </trkpt>
      <trkpt lat="46.53193" lon="7.92151">
        <ele>1868.17</ele>
        <time>2022-09-21T07:25:54Z</time>
      </trkpt>
      <trkpt lat="46.53193" lon="7.92152">
        <ele>1869.98</ele>
        <time>2022-09-21T07:25:56Z</time>
      </trkpt>
      <trkpt lat="46.53194" lon="7.92153">
        <ele>1869.67</ele>
        <time>2022-09-21T07:25:59Z</time>
      </trkpt>
      <trkpt lat="46.53193" lon="7.92154">
        <ele>1870.21</ele>
        <time>2022-09-21T07:26:01Z</time>
      </trkpt>
      <trkpt lat="46.53192" lon="7.92154">
        <ele>1869.95</ele>
        <time>2022-09-21T07:26:03Z</time>
      </trkpt>
      <trkpt lat="46.53193" lon="7.92156">
        <ele>1872.84</ele>
        <time>2022-09-21T07:26:06Z</time>
      </trkpt>
      <trkpt lat="46.53192" lon="7.92157">
        <ele>1873.82</ele>
        <time>2022-09-21T07:26:08Z</time>
      </trkpt>
      <trkpt lat="46.53192" lon="7.92159">
        <ele>1873.53</ele>
        <time>2022-09-21T07:26:10Z</time>
      </trkpt>
      <trkpt lat="46.53192" lon="7.9216">
        <ele>1874.94</ele>
        <time>2022-09-21T07:26:12Z</time>
      </trkpt>
      <trkpt lat="46.53192" lon="7.92162">
        <ele>1874.62</ele>
        <time>2022-09-21T07:26:14Z</time>
      </trkpt>
      <trkpt lat="46.53193" lon="7.92164">
        <ele>1873.74</ele>
        <time>2022-09-21T07:26:17Z</time>
      </trkpt>
      <trkpt lat="46.53194" lon="7.92166">
        <ele>1874.33</ele>
        <time>2022-09-21T07:26:19Z</time>
      </trkpt>
      <trkpt lat="46.53194" lon="7.92168">
        <ele>1822.43</ele>
        <time>2022-09-21T07:26:21Z</time>
      </trkpt>
      <trkpt lat="46.53195" lon="7.9217">
        <ele>1847.76</ele>
        <time>2022-09-21T07:26:23Z</time>
      </trkpt>
      <trkpt lat="46.53195" lon="7.92172">
        <ele>1858.59</ele>
        <time>2022-09-21T07:26:25Z</time>
      </trkpt>
      <trkpt lat="46.53195" lon="7.92174">
        <ele>1863.26</ele>
        <time>2022-09-21T07:26:27Z</time>
      </trkpt>
      <trkpt lat="46.53195" lon="7.92176">
        <ele>1867.84</ele>
        <time>2022-09-21T07:26:29Z</time>
      </trkpt>
      <trkpt lat="46.53194" lon="7.92177">
        <ele>1871.37</ele>
        <time>2022-09-21T07:26:32Z</time>
      </trkpt>
      <trkpt lat="46.53194" lon="7.92178">
        <ele>1873.31</ele>
        <time>2022-09-21T07:26:35Z</time>
      </trkpt>
      <trkpt lat="46.53194" lon="7.9218">
        <ele>1875.29</ele>
        <time>2022-09-21T07:26:38Z</time>
      </trkpt>
      <trkpt lat="46.53193" lon="7.92182">
        <ele>1875.28</ele>
        <time>2022-09-21T07:26:40Z</time>
      </trkpt>
      <trkpt lat="46.53192" lon="7.92183">
        <ele>1875.91</ele>
        <time>2022-09-21T07:26:42Z</time>
      </trkpt>
      <trkpt lat="46.53191" lon="7.92184">
        <ele>1878.53</ele>
        <time>2022-09-21T07:26:44Z</time>
      </trkpt>
      <trkpt lat="46.5319" lon="7.92185">
        <ele>1878.37</ele>
        <time>2022-09-21T07:26:47Z</time>
      </trkpt>
      <trkpt lat="46.53192" lon="7.92185">
        <ele>1877.9</ele>
        <time>2022-09-21T07:26:49Z</time>
      </trkpt>
      <trkpt lat="46.53193" lon="7.92185">
        <ele>1877.78</ele>
        <time>2022-09-21T07:26:51Z</time>
      </trkpt>
      <trkpt lat="46.53193" lon="7.92187">
        <ele>1879.07</ele>
        <time>2022-09-21T07:26:53Z</time>
      </trkpt>
      <trkpt lat="46.53193" lon="7.92189">
        <ele>1879.06</ele>
        <time>2022-09-21T07:26:55Z</time>
      </trkpt>
      <trkpt lat="46.53193" lon="7.92191">
        <ele>1879.38</ele>
        <time>2022-09-21T07:26:57Z</time>
      </trkpt>
      <trkpt lat="46.53193" lon="7.92192">
        <ele>1878.52</ele>
        <time>2022-09-21T07:27:00Z</time>
      </trkpt>
      <trkpt lat="46.53193" lon="7.92194">
        <ele>1879.38</ele>
        <time>2022-09-21T07:27:02Z</time>
      </trkpt>
      <trkpt lat="46.53193" lon="7.92195">
        <ele>1880.55</ele>
        <time>2022-09-21T07:27:04Z</time>
      </trkpt>
      <trkpt lat="46.53194" lon="7.92196">
        <ele>1882.24</ele>
        <time>2022-09-21T07:27:07Z</time>
      </trkpt>
      <trkpt lat="46.53195" lon="7.92197">
        <ele>1884.39</ele>
        <time>2022-09-21T07:27:11Z</time>
      </trkpt>
      <trkpt lat="46.53194" lon="7.92199">
        <ele>1883.89</ele>
        <time>2022-09-21T07:27:13Z</time>
      </trkpt>
      <trkpt lat="46.53194" lon="7.922">
        <ele>1884.86</ele>
        <time>2022-09-21T07:27:15Z</time>
      </trkpt>
      <trkpt lat="46.53194" lon="7.92201">
        <ele>1886.06</ele>
        <time>2022-09-21T07:27:17Z</time>
      </trkpt>
      <trkpt lat="46.53195" lon="7.92202">
        <ele>1887.42</ele>
        <time>2022-09-21T07:27:20Z</time>
      </trkpt>
      <trkpt lat="46.53196" lon="7.92203">
        <ele>1887.41</ele>
        <time>2022-09-21T07:27:22Z</time>
      </trkpt>
      <trkpt lat="46.53197" lon="7.92204">
        <ele>1886.6</ele>
        <time>2022-09-21T07:27:25Z</time>
      </trkpt>
      <trkpt lat="46.53197" lon="7.92205">
        <ele>1887.54</ele>
        <time>2022-09-21T07:27:27Z</time>
      </trkpt>
      <trkpt lat="46.53198" lon="7.92207">
        <ele>1886.82</ele>
        <time>2022-09-21T07:27:30Z</time>
      </trkpt>
      <trkpt lat="46.53199" lon="7.92207">
        <ele>1886.67</ele>
        <time>2022-09-21T07:27:32Z</time>
      </trkpt>
      <trkpt lat="46.532" lon="7.92207">
        <ele>1886.97</ele>
        <time>2022-09-21T07:27:34Z</time>
      </trkpt>
      <trkpt lat="46.53202" lon="7.92208">
        <ele>1885.6</ele>
        <time>2022-09-21T07:27:36Z</time>
      </trkpt>
      <trkpt lat="46.53202" lon="7.92209">
        <ele>1885.62</ele>
        <time>2022-09-21T07:27:38Z</time>
      </trkpt>
      <trkpt lat="46.53202" lon="7.92211">
        <ele>1886.24</ele>
        <time>2022-09-21T07:27:40Z</time>
      </trkpt>
      <trkpt lat="46.53202" lon="7.92212">
        <ele>1886.82</ele>
        <time>2022-09-21T07:27:42Z</time>
      </trkpt>
      <trkpt lat="46.532" lon="7.92214">
        <ele>1888.07</ele>
        <time>2022-09-21T07:27:45Z</time>
      </trkpt>
      <trkpt lat="46.532" lon="7.92214">
        <ele>1887.32</ele>
        <time>2022-09-21T07:27:47Z</time>
      </trkpt>
      <trkpt lat="46.53199" lon="7.92216">
        <ele>1888.04</ele>
        <time>2022-09-21T07:27:49Z</time>
      </trkpt>
      <trkpt lat="46.53199" lon="7.92217">
        <ele>1888.07</ele>
        <time>2022-09-21T07:27:51Z</time>
      </trkpt>
      <trkpt lat="46.53198" lon="7.92219">
        <ele>1888.96</ele>
        <time>2022-09-21T07:27:53Z</time>
      </trkpt>
      <trkpt lat="46.53197" lon="7.9222">
        <ele>1890.32</ele>
        <time>2022-09-21T07:27:55Z</time>
      </trkpt>
      <trkpt lat="46.53196" lon="7.92221">
        <ele>1891.22</ele>
        <time>2022-09-21T07:27:57Z</time>
      </trkpt>
      <trkpt lat="46.53196" lon="7.92222">
        <ele>1890.99</ele>
        <time>2022-09-21T07:28:00Z</time>
      </trkpt>
      <trkpt lat="46.53195" lon="7.92223">
        <ele>1891.05</ele>
        <time>2022-09-21T07:28:03Z</time>
      </trkpt>
      <trkpt lat="46.53195" lon="7.92225">
        <ele>1891.82</ele>
        <time>2022-09-21T07:28:06Z</time>
      </trkpt>
      <trkpt lat="46.53196" lon="7.92227">
        <ele>1892.17</ele>
        <time>2022-09-21T07:28:08Z</time>
      </trkpt>
      <trkpt lat="46.53196" lon="7.92229">
        <ele>1892.42</ele>
        <time>2022-09-21T07:28:10Z</time>
      </trkpt>
      <trkpt lat="46.53196" lon="7.9223">
        <ele>1893.24</ele>
        <time>2022-09-21T07:28:12Z</time>
      </trkpt>
      <trkpt lat="46.53195" lon="7.92232">
        <ele>1894.17</ele>
        <time>2022-09-21T07:28:14Z</time>
      </trkpt>
      <trkpt lat="46.53194" lon="7.92234">
        <ele>1893.37</ele>
        <time>2022-09-21T07:28:16Z</time>
      </trkpt>
      <trkpt lat="46.53194" lon="7.92235">
        <ele>1893.31</ele>
        <time>2022-09-21T07:28:18Z</time>
      </trkpt>
      <trkpt lat="46.53194" lon="7.92237">
        <ele>1894.71</ele>
        <time>2022-09-21T07:28:20Z</time>
      </trkpt>
      <trkpt lat="46.53194" lon="7.92239">
        <ele>1895.69</ele>
        <time>2022-09-21T07:28:22Z</time>
      </trkpt>
      <trkpt lat="46.53194" lon="7.92241">
        <ele>1895.7</ele>
        <time>2022-09-21T07:28:24Z</time>
      </trkpt>
      <trkpt lat="46.53194" lon="7.92243">
        <ele>1896.03</ele>
        <time>2022-09-21T07:28:26Z</time>
      </trkpt>
      <trkpt lat="46.53194" lon="7.92245">
        <ele>1895.21</ele>
        <time>2022-09-21T07:28:28Z</time>
      </trkpt>
      <trkpt lat="46.53193" lon="7.92247">
        <ele>1894.97</ele>
        <time>2022-09-21T07:28:30Z</time>
      </trkpt>
      <trkpt lat="46.53192" lon="7.92248">
        <ele>1894.36</ele>
        <time>2022-09-21T07:28:32Z</time>
      </trkpt>
      <trkpt lat="46.53192" lon="7.9225">
        <ele>1895.16</ele>
        <time>2022-09-21T07:28:34Z</time>
      </trkpt>
      <trkpt lat="46.53191" lon="7.92251">
        <ele>1894.53</ele>
        <time>2022-09-21T07:28:36Z</time>
      </trkpt>
      <trkpt lat="46.5319" lon="7.92251">
        <ele>1895.83</ele>
        <time>2022-09-21T07:28:38Z</time>
      </trkpt>
      <trkpt lat="46.53189" lon="7.92252">
        <ele>1895.57</ele>
        <time>2022-09-21T07:28:40Z</time>
      </trkpt>
      <trkpt lat="46.5319" lon="7.92254">
        <ele>1895.44</ele>
        <time>2022-09-21T07:28:42Z</time>
      </trkpt>
      <trkpt lat="46.53191" lon="7.92256">
        <ele>1896.4</ele>
        <time>2022-09-21T07:28:44Z</time>
      </trkpt>
      <trkpt lat="46.53191" lon="7.92258">
        <ele>1896.75</ele>
        <time>2022-09-21T07:28:47Z</time>
      </trkpt>
      <trkpt lat="46.53192" lon="7.92259">
        <ele>1897.78</ele>
        <time>2022-09-21T07:28:49Z</time>
      </trkpt>
      <trkpt lat="46.5319" lon="7.9226">
        <ele>1899.26</ele>
        <time>2022-09-21T07:28:52Z</time>
      </trkpt>
      <trkpt lat="46.53189" lon="7.92261">
        <ele>1899.59</ele>
        <time>2022-09-21T07:28:54Z</time>
      </trkpt>
      <trkpt lat="46.53189" lon="7.92262">
        <ele>1899.49</ele>
        <time>2022-09-21T07:28:56Z</time>
      </trkpt>
      <trkpt lat="46.53189" lon="7.92264">
        <ele>1899.85</ele>
        <time>2022-09-21T07:28:58Z</time>
      </trkpt>
      <trkpt lat="46.53189" lon="7.92265">
        <ele>1899.85</ele>
        <time>2022-09-21T07:29:00Z</time>
      </trkpt>
      <trkpt lat="46.53189" lon="7.92267">
        <ele>1899.93</ele>
        <time>2022-09-21T07:29:02Z</time>
      </trkpt>
      <trkpt lat="46.53188" lon="7.92268">
        <ele>1900.55</ele>
        <time>2022-09-21T07:29:04Z</time>
      </trkpt>
      <trkpt lat="46.53187" lon="7.92268">
        <ele>1900.99</ele>
        <time>2022-09-21T07:29:06Z</time>
      </trkpt>
      <trkpt lat="46.53186" lon="7.92269">
        <ele>1901.75</ele>
        <time>2022-09-21T07:29:08Z</time>
      </trkpt>
      <trkpt lat="46.53185" lon="7.92269">
        <ele>1902.76</ele>
        <time>2022-09-21T07:29:10Z</time>
      </trkpt>
      <trkpt lat="46.53184" lon="7.92271">
        <ele>1902.72</ele>
        <time>2022-09-21T07:29:12Z</time>
      </trkpt>
      <trkpt lat="46.53184" lon="7.92273">
        <ele>1903.93</ele>
        <time>2022-09-21T07:29:15Z</time>
      </trkpt>
      <trkpt lat="46.53184" lon="7.92275">
        <ele>1903.93</ele>
        <time>2022-09-21T07:29:17Z</time>
      </trkpt>
      <trkpt lat="46.53183" lon="7.92276">
        <ele>1905.25</ele>
        <time>2022-09-21T07:29:20Z</time>
      </trkpt>
      <trkpt lat="46.53182" lon="7.92277">
        <ele>1907.28</ele>
        <time>2022-09-21T07:29:22Z</time>
      </trkpt>
      <trkpt lat="46.53181" lon="7.92278">
        <ele>1907.52</ele>
        <time>2022-09-21T07:29:24Z</time>
      </trkpt>
      <trkpt lat="46.53181" lon="7.9228">
        <ele>1907.48</ele>
        <time>2022-09-21T07:29:26Z</time>
      </trkpt>
      <trkpt lat="46.5318" lon="7.92282">
        <ele>1908.65</ele>
        <time>2022-09-21T07:29:29Z</time>
      </trkpt>
      <trkpt lat="46.5318" lon="7.92283">
        <ele>1909.3</ele>
        <time>2022-09-21T07:29:31Z</time>
      </trkpt>
      <trkpt lat="46.5318" lon="7.92285">
        <ele>1909.79</ele>
        <time>2022-09-21T07:29:33Z</time>
      </trkpt>
      <trkpt lat="46.53179" lon="7.92287">
        <ele>1910.37</ele>
        <time>2022-09-21T07:29:35Z</time>
      </trkpt>
      <trkpt lat="46.5318" lon="7.92289">
        <ele>1911.58</ele>
        <time>2022-09-21T07:29:37Z</time>
      </trkpt>
      <trkpt lat="46.53181" lon="7.9229">
        <ele>1911.14</ele>
        <time>2022-09-21T07:29:39Z</time>
      </trkpt>
      <trkpt lat="46.53182" lon="7.92291">
        <ele>1912.03</ele>
        <time>2022-09-21T07:29:41Z</time>
      </trkpt>
      <trkpt lat="46.53182" lon="7.92293">
        <ele>1911.9</ele>
        <time>2022-09-21T07:29:43Z</time>
      </trkpt>
      <trkpt lat="46.53182" lon="7.92295">
        <ele>1912.11</ele>
        <time>2022-09-21T07:29:45Z</time>
      </trkpt>
      <trkpt lat="46.53182" lon="7.92296">
        <ele>1911.67</ele>
        <time>2022-09-21T07:29:47Z</time>
      </trkpt>
      <trkpt lat="46.53182" lon="7.92297">
        <ele>1912.15</ele>
        <time>2022-09-21T07:29:49Z</time>
      </trkpt>
      <trkpt lat="46.53183" lon="7.92299">
        <ele>1912.62</ele>
        <time>2022-09-21T07:29:51Z</time>
      </trkpt>
      <trkpt lat="46.53184" lon="7.923">
        <ele>1911.5</ele>
        <time>2022-09-21T07:29:54Z</time>
      </trkpt>
      <trkpt lat="46.53184" lon="7.92303">
        <ele>1910.95</ele>
        <time>2022-09-21T07:29:56Z</time>
      </trkpt>
      <trkpt lat="46.53184" lon="7.92304">
        <ele>1911.1</ele>
        <time>2022-09-21T07:29:58Z</time>
      </trkpt>
      <trkpt lat="46.53183" lon="7.92305">
        <ele>1911.85</ele>
        <time>2022-09-21T07:30:00Z</time>
      </trkpt>
      <trkpt lat="46.53183" lon="7.92307">
        <ele>1912.28</ele>
        <time>2022-09-21T07:30:02Z</time>
      </trkpt>
      <trkpt lat="46.53182" lon="7.92308">
        <ele>1912.98</ele>
        <time>2022-09-21T07:30:04Z</time>
      </trkpt>
      <trkpt lat="46.53181" lon="7.92308">
        <ele>1912.69</ele>
        <time>2022-09-21T07:30:06Z</time>
      </trkpt>
      <trkpt lat="46.5318" lon="7.92307">
        <ele>1912.52</ele>
        <time>2022-09-21T07:30:08Z</time>
      </trkpt>
      <trkpt lat="46.53179" lon="7.92307">
        <ele>1913.86</ele>
        <time>2022-09-21T07:30:10Z</time>
      </trkpt>
      <trkpt lat="46.53178" lon="7.92307">
        <ele>1914.64</ele>
        <time>2022-09-21T07:30:12Z</time>
      </trkpt>
      <trkpt lat="46.53176" lon="7.92307">
        <ele>1915.14</ele>
        <time>2022-09-21T07:30:14Z</time>
      </trkpt>
      <trkpt lat="46.53175" lon="7.92307">
        <ele>1917.15</ele>
        <time>2022-09-21T07:30:16Z</time>
      </trkpt>
      <trkpt lat="46.53174" lon="7.92306">
        <ele>1917.64</ele>
        <time>2022-09-21T07:30:19Z</time>
      </trkpt>
      <trkpt lat="46.53173" lon="7.92306">
        <ele>1917.27</ele>
        <time>2022-09-21T07:30:21Z</time>
      </trkpt>
      <trkpt lat="46.53171" lon="7.92307">
        <ele>1917.76</ele>
        <time>2022-09-21T07:30:24Z</time>
      </trkpt>
      <trkpt lat="46.53171" lon="7.92309">
        <ele>1918.49</ele>
        <time>2022-09-21T07:30:26Z</time>
      </trkpt>
      <trkpt lat="46.53169" lon="7.9231">
        <ele>1919.62</ele>
        <time>2022-09-21T07:30:29Z</time>
      </trkpt>
      <trkpt lat="46.53169" lon="7.9231">
        <ele>1919.86</ele>
        <time>2022-09-21T07:30:31Z</time>
      </trkpt>
      <trkpt lat="46.53168" lon="7.92312">
        <ele>1921.49</ele>
        <time>2022-09-21T07:30:34Z</time>
      </trkpt>
      <trkpt lat="46.53168" lon="7.92314">
        <ele>1921.51</ele>
        <time>2022-09-21T07:30:36Z</time>
      </trkpt>
      <trkpt lat="46.53168" lon="7.92316">
        <ele>1921.55</ele>
        <time>2022-09-21T07:30:38Z</time>
      </trkpt>
      <trkpt lat="46.53168" lon="7.92318">
        <ele>1922.13</ele>
        <time>2022-09-21T07:30:40Z</time>
      </trkpt>
      <trkpt lat="46.53167" lon="7.92318">
        <ele>1922.48</ele>
        <time>2022-09-21T07:30:43Z</time>
      </trkpt>
      <trkpt lat="46.53166" lon="7.92318">
        <ele>1922.43</ele>
        <time>2022-09-21T07:30:45Z</time>
      </trkpt>
      <trkpt lat="46.53165" lon="7.92319">
        <ele>1924.35</ele>
        <time>2022-09-21T07:30:48Z</time>
      </trkpt>
      <trkpt lat="46.53164" lon="7.9232">
        <ele>1924.96</ele>
        <time>2022-09-21T07:30:51Z</time>
      </trkpt>
      <trkpt lat="46.53163" lon="7.92319">
        <ele>1924.87</ele>
        <time>2022-09-21T07:30:53Z</time>
      </trkpt>
      <trkpt lat="46.53162" lon="7.92318">
        <ele>1924.12</ele>
        <time>2022-09-21T07:30:55Z</time>
      </trkpt>
      <trkpt lat="46.53161" lon="7.92317">
        <ele>1924.96</ele>
        <time>2022-09-21T07:30:57Z</time>
      </trkpt>
      <trkpt lat="46.5316" lon="7.92318">
        <ele>1925.63</ele>
        <time>2022-09-21T07:30:59Z</time>
      </trkpt>
      <trkpt lat="46.53159" lon="7.92319">
        <ele>1925.52</ele>
        <time>2022-09-21T07:31:02Z</time>
      </trkpt>
      <trkpt lat="46.53158" lon="7.92319">
        <ele>1926.6</ele>
        <time>2022-09-21T07:31:04Z</time>
      </trkpt>
      <trkpt lat="46.53156" lon="7.92319">
        <ele>1927.93</ele>
        <time>2022-09-21T07:31:06Z</time>
      </trkpt>
      <trkpt lat="46.53156" lon="7.9232">
        <ele>1929.21</ele>
        <time>2022-09-21T07:31:08Z</time>
      </trkpt>
      <trkpt lat="46.53156" lon="7.92321">
        <ele>1929.48</ele>
        <time>2022-09-21T07:31:10Z</time>
      </trkpt>
      <trkpt lat="46.53155" lon="7.92322">
        <ele>1930.26</ele>
        <time>2022-09-21T07:31:12Z</time>
      </trkpt>
      <trkpt lat="46.53156" lon="7.92324">
        <ele>1931.88</ele>
        <time>2022-09-21T07:31:16Z</time>
      </trkpt>
      <trkpt lat="46.53156" lon="7.92326">
        <ele>1933.17</ele>
        <time>2022-09-21T07:31:22Z</time>
      </trkpt>
      <trkpt lat="46.53155" lon="7.92328">
        <ele>1932.99</ele>
        <time>2022-09-21T07:31:24Z</time>
      </trkpt>
      <trkpt lat="46.53155" lon="7.92329">
        <ele>1933.68</ele>
        <time>2022-09-21T07:31:26Z</time>
      </trkpt>
      <trkpt lat="46.53155" lon="7.92331">
        <ele>1932.78</ele>
        <time>2022-09-21T07:31:28Z</time>
      </trkpt>
      <trkpt lat="46.53154" lon="7.92332">
        <ele>1932.12</ele>
        <time>2022-09-21T07:31:32Z</time>
      </trkpt>
      <trkpt lat="46.53154" lon="7.92334">
        <ele>1932.72</ele>
        <time>2022-09-21T07:31:38Z</time>
      </trkpt>
      <trkpt lat="46.53154" lon="7.92335">
        <ele>1933.07</ele>
        <time>2022-09-21T07:31:41Z</time>
      </trkpt>
      <trkpt lat="46.53154" lon="7.92337">
        <ele>1933.44</ele>
        <time>2022-09-21T07:31:44Z</time>
      </trkpt>
      <trkpt lat="46.53154" lon="7.92339">
        <ele>1934.42</ele>
        <time>2022-09-21T07:31:46Z</time>
      </trkpt>
      <trkpt lat="46.53154" lon="7.9234">
        <ele>1934.82</ele>
        <time>2022-09-21T07:31:48Z</time>
      </trkpt>
      <trkpt lat="46.53154" lon="7.92342">
        <ele>1936.53</ele>
        <time>2022-09-21T07:31:51Z</time>
      </trkpt>
      <trkpt lat="46.53154" lon="7.92344">
        <ele>1937.79</ele>
        <time>2022-09-21T07:31:54Z</time>
      </trkpt>
      <trkpt lat="46.53153" lon="7.92346">
        <ele>1938.93</ele>
        <time>2022-09-21T07:31:57Z</time>
      </trkpt>
      <trkpt lat="46.53152" lon="7.92347">
        <ele>1938.62</ele>
        <time>2022-09-21T07:31:59Z</time>
      </trkpt>
      <trkpt lat="46.53151" lon="7.92349">
        <ele>1938.82</ele>
        <time>2022-09-21T07:32:01Z</time>
      </trkpt>
      <trkpt lat="46.5315" lon="7.9235">
        <ele>1938.85</ele>
        <time>2022-09-21T07:32:03Z</time>
      </trkpt>
      <trkpt lat="46.53149" lon="7.9235">
        <ele>1938.86</ele>
        <time>2022-09-21T07:32:06Z</time>
      </trkpt>
      <trkpt lat="46.53148" lon="7.92351">
        <ele>1939.27</ele>
        <time>2022-09-21T07:32:09Z</time>
      </trkpt>
      <trkpt lat="46.53147" lon="7.92351">
        <ele>1939.55</ele>
        <time>2022-09-21T07:32:11Z</time>
      </trkpt>
      <trkpt lat="46.53146" lon="7.92351">
        <ele>1940.56</ele>
        <time>2022-09-21T07:32:13Z</time>
      </trkpt>
      <trkpt lat="46.53145" lon="7.92351">
        <ele>1942.17</ele>
        <time>2022-09-21T07:32:16Z</time>
      </trkpt>
      <trkpt lat="46.53144" lon="7.92351">
        <ele>1942.31</ele>
        <time>2022-09-21T07:32:19Z</time>
      </trkpt>
      <trkpt lat="46.53143" lon="7.92352">
        <ele>1943.38</ele>
        <time>2022-09-21T07:32:21Z</time>
      </trkpt>
      <trkpt lat="46.53143" lon="7.92353">
        <ele>1943.41</ele>
        <time>2022-09-21T07:32:23Z</time>
      </trkpt>
      <trkpt lat="46.53143" lon="7.92355">
        <ele>1943.66</ele>
        <time>2022-09-21T07:32:25Z</time>
      </trkpt>
      <trkpt lat="46.53142" lon="7.92358">
        <ele>1943.35</ele>
        <time>2022-09-21T07:32:28Z</time>
      </trkpt>
      <trkpt lat="46.53142" lon="7.92359">
        <ele>1943.54</ele>
        <time>2022-09-21T07:32:30Z</time>
      </trkpt>
      <trkpt lat="46.53141" lon="7.9236">
        <ele>1944.15</ele>
        <time>2022-09-21T07:32:32Z</time>
      </trkpt>
      <trkpt lat="46.5314" lon="7.92361">
        <ele>1945.56</ele>
        <time>2022-09-21T07:32:35Z</time>
      </trkpt>
      <trkpt lat="46.5314" lon="7.92359">
        <ele>1946.33</ele>
        <time>2022-09-21T07:32:38Z</time>
      </trkpt>
      <trkpt lat="46.53139" lon="7.92358">
        <ele>1946.6</ele>
        <time>2022-09-21T07:32:40Z</time>
      </trkpt>
      <trkpt lat="46.53137" lon="7.92359">
        <ele>1947.5</ele>
        <time>2022-09-21T07:32:43Z</time>
      </trkpt>
      <trkpt lat="46.53136" lon="7.9236">
        <ele>1947.25</ele>
        <time>2022-09-21T07:32:45Z</time>
      </trkpt>
      <trkpt lat="46.53135" lon="7.92361">
        <ele>1947.72</ele>
        <time>2022-09-21T07:32:47Z</time>
      </trkpt>
      <trkpt lat="46.53135" lon="7.92362">
        <ele>1948.21</ele>
        <time>2022-09-21T07:32:50Z</time>
      </trkpt>
      <trkpt lat="46.53134" lon="7.92364">
        <ele>1947.13</ele>
        <time>2022-09-21T07:32:53Z</time>
      </trkpt>
      <trkpt lat="46.53135" lon="7.92365">
        <ele>1948.05</ele>
        <time>2022-09-21T07:32:55Z</time>
      </trkpt>
      <trkpt lat="46.53135" lon="7.92367">
        <ele>1947.53</ele>
        <time>2022-09-21T07:32:57Z</time>
      </trkpt>
      <trkpt lat="46.53136" lon="7.92369">
        <ele>1947.19</ele>
        <time>2022-09-21T07:32:59Z</time>
      </trkpt>
      <trkpt lat="46.53136" lon="7.9237">
        <ele>1948.11</ele>
        <time>2022-09-21T07:33:01Z</time>
      </trkpt>
      <trkpt lat="46.53137" lon="7.92372">
        <ele>1948.79</ele>
        <time>2022-09-21T07:33:03Z</time>
      </trkpt>
      <trkpt lat="46.53136" lon="7.92373">
        <ele>1948.36</ele>
        <time>2022-09-21T07:33:05Z</time>
      </trkpt>
      <trkpt lat="46.53135" lon="7.92373">
        <ele>1948.75</ele>
        <time>2022-09-21T07:33:07Z</time>
      </trkpt>
      <trkpt lat="46.53134" lon="7.92372">
        <ele>1949.39</ele>
        <time>2022-09-21T07:33:09Z</time>
      </trkpt>
      <trkpt lat="46.53133" lon="7.92373">
        <ele>1949.35</ele>
        <time>2022-09-21T07:33:13Z</time>
      </trkpt>
      <trkpt lat="46.53134" lon="7.92373">
        <ele>1949.58</ele>
        <time>2022-09-21T07:33:15Z</time>
      </trkpt>
      <trkpt lat="46.53134" lon="7.92374">
        <ele>1949.35</ele>
        <time>2022-09-21T07:33:22Z</time>
      </trkpt>
      <trkpt lat="46.53133" lon="7.92375">
        <ele>1950.76</ele>
        <time>2022-09-21T07:33:28Z</time>
      </trkpt>
      <trkpt lat="46.53133" lon="7.92376">
        <ele>1951.89</ele>
        <time>2022-09-21T07:33:30Z</time>
      </trkpt>
      <trkpt lat="46.53132" lon="7.92378">
        <ele>1952.67</ele>
        <time>2022-09-21T07:33:32Z</time>
      </trkpt>
      <trkpt lat="46.53131" lon="7.92379">
        <ele>1955.2</ele>
        <time>2022-09-21T07:33:35Z</time>
      </trkpt>
      <trkpt lat="46.5313" lon="7.92378">
        <ele>1955.44</ele>
        <time>2022-09-21T07:33:38Z</time>
      </trkpt>
      <trkpt lat="46.53129" lon="7.92377">
        <ele>1954.96</ele>
        <time>2022-09-21T07:33:51Z</time>
      </trkpt>
      <trkpt lat="46.53128" lon="7.92378">
        <ele>1954.99</ele>
        <time>2022-09-21T07:33:53Z</time>
      </trkpt>
      <trkpt lat="46.53127" lon="7.92379">
        <ele>1955.79</ele>
        <time>2022-09-21T07:33:56Z</time>
      </trkpt>
      <trkpt lat="46.53126" lon="7.92379">
        <ele>1956.31</ele>
        <time>2022-09-21T07:33:59Z</time>
      </trkpt>
      <trkpt lat="46.53126" lon="7.92381">
        <ele>1957.84</ele>
        <time>2022-09-21T07:34:02Z</time>
      </trkpt>
      <trkpt lat="46.53125" lon="7.92382">
        <ele>1958.48</ele>
        <time>2022-09-21T07:34:04Z</time>
      </trkpt>
      <trkpt lat="46.53124" lon="7.92383">
        <ele>1959.32</ele>
        <time>2022-09-21T07:34:07Z</time>
      </trkpt>
      <trkpt lat="46.53123" lon="7.92383">
        <ele>1958.84</ele>
        <time>2022-09-21T07:34:09Z</time>
      </trkpt>
      <trkpt lat="46.53122" lon="7.92383">
        <ele>1959.75</ele>
        <time>2022-09-21T07:34:11Z</time>
      </trkpt>
      <trkpt lat="46.53121" lon="7.92384">
        <ele>1960.48</ele>
        <time>2022-09-21T07:34:13Z</time>
      </trkpt>
      <trkpt lat="46.5312" lon="7.92386">
        <ele>1960.58</ele>
        <time>2022-09-21T07:34:16Z</time>
      </trkpt>
      <trkpt lat="46.53119" lon="7.92386">
        <ele>1960.5</ele>
        <time>2022-09-21T07:34:18Z</time>
      </trkpt>
      <trkpt lat="46.53118" lon="7.92386">
        <ele>1961.28</ele>
        <time>2022-09-21T07:34:20Z</time>
      </trkpt>
      <trkpt lat="46.53117" lon="7.92387">
        <ele>1962.33</ele>
        <time>2022-09-21T07:34:22Z</time>
      </trkpt>
      <trkpt lat="46.53116" lon="7.92387">
        <ele>1962.66</ele>
        <time>2022-09-21T07:34:24Z</time>
      </trkpt>
      <trkpt lat="46.53115" lon="7.92388">
        <ele>1963.08</ele>
        <time>2022-09-21T07:34:27Z</time>
      </trkpt>
      <trkpt lat="46.53116" lon="7.92389">
        <ele>1964.27</ele>
        <time>2022-09-21T07:34:32Z</time>
      </trkpt>
      <trkpt lat="46.53115" lon="7.92389">
        <ele>1963.75</ele>
        <time>2022-09-21T07:34:39Z</time>
      </trkpt>
      <trkpt lat="46.53115" lon="7.92389">
        <ele>1963.67</ele>
        <time>2022-09-21T07:36:40Z</time>
      </trkpt>
      <trkpt lat="46.53115" lon="7.92391">
        <ele>1964.15</ele>
        <time>2022-09-21T07:36:52Z</time>
      </trkpt>
      <trkpt lat="46.53114" lon="7.92392">
        <ele>1964.23</ele>
        <time>2022-09-21T07:36:53Z</time>
      </trkpt>
      <trkpt lat="46.53114" lon="7.92394">
        <ele>1963.67</ele>
        <time>2022-09-21T07:36:54Z</time>
      </trkpt>
      <trkpt lat="46.53113" lon="7.92393">
        <ele>1963.71</ele>
        <time>2022-09-21T07:36:55Z</time>
      </trkpt>
      <trkpt lat="46.53112" lon="7.92391">
        <ele>1964.09</ele>
        <time>2022-09-21T07:36:56Z</time>
      </trkpt>
      <trkpt lat="46.53111" lon="7.92392">
        <ele>1965.28</ele>
        <time>2022-09-21T07:36:58Z</time>
      </trkpt>
      <trkpt lat="46.53111" lon="7.92394">
        <ele>1964.92</ele>
        <time>2022-09-21T07:37:00Z</time>
      </trkpt>
      <trkpt lat="46.53111" lon="7.92395">
        <ele>1965.02</ele>
        <time>2022-09-21T07:37:02Z</time>
      </trkpt>
      <trkpt lat="46.53109" lon="7.92395">
        <ele>1965.51</ele>
        <time>2022-09-21T07:37:05Z</time>
      </trkpt>
      <trkpt lat="46.53108" lon="7.92395">
        <ele>1965.66</ele>
        <time>2022-09-21T07:37:07Z</time>
      </trkpt>
      <trkpt lat="46.53107" lon="7.92396">
        <ele>1965.52</ele>
        <time>2022-09-21T07:37:09Z</time>
      </trkpt>
      <trkpt lat="46.53106" lon="7.92397">
        <ele>1966.26</ele>
        <time>2022-09-21T07:37:11Z</time>
      </trkpt>
      <trkpt lat="46.53105" lon="7.92399">
        <ele>1966.29</ele>
        <time>2022-09-21T07:37:13Z</time>
      </trkpt>
      <trkpt lat="46.53105" lon="7.924">
        <ele>1967.91</ele>
        <time>2022-09-21T07:37:15Z</time>
      </trkpt>
      <trkpt lat="46.53104" lon="7.92401">
        <ele>1970.11</ele>
        <time>2022-09-21T07:37:19Z</time>
      </trkpt>
      <trkpt lat="46.53102" lon="7.92402">
        <ele>1972.31</ele>
        <time>2022-09-21T07:37:22Z</time>
      </trkpt>
      <trkpt lat="46.53101" lon="7.92402">
        <ele>1972.63</ele>
        <time>2022-09-21T07:37:24Z</time>
      </trkpt>
      <trkpt lat="46.53099" lon="7.92401">
        <ele>1972.75</ele>
        <time>2022-09-21T07:37:27Z</time>
      </trkpt>
      <trkpt lat="46.53098" lon="7.924">
        <ele>1972.85</ele>
        <time>2022-09-21T07:37:29Z</time>
      </trkpt>
      <trkpt lat="46.53097" lon="7.924">
        <ele>1973.86</ele>
        <time>2022-09-21T07:37:31Z</time>
      </trkpt>
      <trkpt lat="46.53096" lon="7.92399">
        <ele>1973.75</ele>
        <time>2022-09-21T07:37:33Z</time>
      </trkpt>
      <trkpt lat="46.53095" lon="7.92398">
        <ele>1974.72</ele>
        <time>2022-09-21T07:37:35Z</time>
      </trkpt>
      <trkpt lat="46.53095" lon="7.92396">
        <ele>1974.72</ele>
        <time>2022-09-21T07:37:37Z</time>
      </trkpt>
      <trkpt lat="46.53094" lon="7.92395">
        <ele>1975.89</ele>
        <time>2022-09-21T07:37:39Z</time>
      </trkpt>
      <trkpt lat="46.53093" lon="7.92394">
        <ele>1975.37</ele>
        <time>2022-09-21T07:37:41Z</time>
      </trkpt>
      <trkpt lat="46.53092" lon="7.92395">
        <ele>1976.47</ele>
        <time>2022-09-21T07:37:43Z</time>
      </trkpt>
      <trkpt lat="46.5309" lon="7.92395">
        <ele>1977.14</ele>
        <time>2022-09-21T07:37:45Z</time>
      </trkpt>
      <trkpt lat="46.53089" lon="7.92395">
        <ele>1932.27</ele>
        <time>2022-09-21T07:37:47Z</time>
      </trkpt>
      <trkpt lat="46.53089" lon="7.92394">
        <ele>1941.38</ele>
        <time>2022-09-21T07:37:49Z</time>
      </trkpt>
      <trkpt lat="46.53089" lon="7.92392">
        <ele>1946.52</ele>
        <time>2022-09-21T07:37:51Z</time>
      </trkpt>
      <trkpt lat="46.53089" lon="7.9239">
        <ele>1950.68</ele>
        <time>2022-09-21T07:37:53Z</time>
      </trkpt>
      <trkpt lat="46.5309" lon="7.92388">
        <ele>1955.78</ele>
        <time>2022-09-21T07:37:55Z</time>
      </trkpt>
      <trkpt lat="46.53091" lon="7.92386">
        <ele>1963.44</ele>
        <time>2022-09-21T07:37:57Z</time>
      </trkpt>
      <trkpt lat="46.53092" lon="7.92385">
        <ele>1967.96</ele>
        <time>2022-09-21T07:37:59Z</time>
      </trkpt>
      <trkpt lat="46.53092" lon="7.92383">
        <ele>1971.31</ele>
        <time>2022-09-21T07:38:01Z</time>
      </trkpt>
      <trkpt lat="46.53092" lon="7.92381">
        <ele>1973.92</ele>
        <time>2022-09-21T07:38:03Z</time>
      </trkpt>
      <trkpt lat="46.53091" lon="7.9238">
        <ele>1975</ele>
        <time>2022-09-21T07:38:05Z</time>
      </trkpt>
      <trkpt lat="46.5309" lon="7.9238">
        <ele>1976.29</ele>
        <time>2022-09-21T07:38:07Z</time>
      </trkpt>
      <trkpt lat="46.53089" lon="7.92379">
        <ele>1977.12</ele>
        <time>2022-09-21T07:38:09Z</time>
      </trkpt>
      <trkpt lat="46.53089" lon="7.92377">
        <ele>1977.08</ele>
        <time>2022-09-21T07:38:11Z</time>
      </trkpt>
      <trkpt lat="46.53088" lon="7.92375">
        <ele>1976.63</ele>
        <time>2022-09-21T07:38:13Z</time>
      </trkpt>
      <trkpt lat="46.53088" lon="7.92374">
        <ele>1978.34</ele>
        <time>2022-09-21T07:38:15Z</time>
      </trkpt>
      <trkpt lat="46.53087" lon="7.92372">
        <ele>1978.68</ele>
        <time>2022-09-21T07:38:17Z</time>
      </trkpt>
      <trkpt lat="46.53086" lon="7.92372">
        <ele>1979.56</ele>
        <time>2022-09-21T07:38:19Z</time>
      </trkpt>
      <trkpt lat="46.53085" lon="7.92371">
        <ele>1980.32</ele>
        <time>2022-09-21T07:38:21Z</time>
      </trkpt>
      <trkpt lat="46.53085" lon="7.9237">
        <ele>1979.53</ele>
        <time>2022-09-21T07:38:23Z</time>
      </trkpt>
      <trkpt lat="46.53083" lon="7.92368">
        <ele>1981.43</ele>
        <time>2022-09-21T07:38:26Z</time>
      </trkpt>
      <trkpt lat="46.53082" lon="7.92366">
        <ele>1983.34</ele>
        <time>2022-09-21T07:38:29Z</time>
      </trkpt>
      <trkpt lat="46.53081" lon="7.92364">
        <ele>1983.14</ele>
        <time>2022-09-21T07:38:31Z</time>
      </trkpt>
      <trkpt lat="46.53079" lon="7.92364">
        <ele>1982.16</ele>
        <time>2022-09-21T07:38:34Z</time>
      </trkpt>
      <trkpt lat="46.53077" lon="7.92365">
        <ele>1982.9</ele>
        <time>2022-09-21T07:38:36Z</time>
      </trkpt>
      <trkpt lat="46.53076" lon="7.92365">
        <ele>1983.51</ele>
        <time>2022-09-21T07:38:38Z</time>
      </trkpt>
      <trkpt lat="46.53074" lon="7.92365">
        <ele>1984.53</ele>
        <time>2022-09-21T07:38:40Z</time>
      </trkpt>
      <trkpt lat="46.53073" lon="7.92365">
        <ele>1984.06</ele>
        <time>2022-09-21T07:38:42Z</time>
      </trkpt>
      <trkpt lat="46.53071" lon="7.92365">
        <ele>1984.71</ele>
        <time>2022-09-21T07:38:44Z</time>
      </trkpt>
      <trkpt lat="46.5307" lon="7.92365">
        <ele>1985.44</ele>
        <time>2022-09-21T07:38:46Z</time>
      </trkpt>
      <trkpt lat="46.53068" lon="7.92365">
        <ele>1985.39</ele>
        <time>2022-09-21T07:38:48Z</time>
      </trkpt>
      <trkpt lat="46.53067" lon="7.92366">
        <ele>1986.18</ele>
        <time>2022-09-21T07:38:50Z</time>
      </trkpt>
      <trkpt lat="46.53066" lon="7.92367">
        <ele>1985.52</ele>
        <time>2022-09-21T07:38:52Z</time>
      </trkpt>
      <trkpt lat="46.53066" lon="7.92369">
        <ele>1985.55</ele>
        <time>2022-09-21T07:38:54Z</time>
      </trkpt>
      <trkpt lat="46.53065" lon="7.9237">
        <ele>1985.85</ele>
        <time>2022-09-21T07:39:00Z</time>
      </trkpt>
      <trkpt lat="46.53064" lon="7.92369">
        <ele>1985.76</ele>
        <time>2022-09-21T07:39:04Z</time>
      </trkpt>
      <trkpt lat="46.53065" lon="7.92371">
        <ele>1914.95</ele>
        <time>2022-09-21T07:39:44Z</time>
      </trkpt>
      <trkpt lat="46.53065" lon="7.92372">
        <ele>1954.47</ele>
        <time>2022-09-21T07:39:48Z</time>
      </trkpt>
      <trkpt lat="46.53064" lon="7.92373">
        <ele>1975.27</ele>
        <time>2022-09-21T07:39:54Z</time>
      </trkpt>
      <trkpt lat="46.53064" lon="7.92375">
        <ele>1979.3</ele>
        <time>2022-09-21T07:39:56Z</time>
      </trkpt>
      <trkpt lat="46.53062" lon="7.92375">
        <ele>1981.98</ele>
        <time>2022-09-21T07:39:59Z</time>
      </trkpt>
      <trkpt lat="46.53061" lon="7.92374">
        <ele>1983.3</ele>
        <time>2022-09-21T07:40:02Z</time>
      </trkpt>
      <trkpt lat="46.53062" lon="7.92374">
        <ele>1988.99</ele>
        <time>2022-09-21T07:40:15Z</time>
      </trkpt>
      <trkpt lat="46.53063" lon="7.92373">
        <ele>1992.82</ele>
        <time>2022-09-21T07:40:53Z</time>
      </trkpt>
      <trkpt lat="46.53062" lon="7.92371">
        <ele>1993.66</ele>
        <time>2022-09-21T07:41:07Z</time>
      </trkpt>
      <trkpt lat="46.53063" lon="7.92371">
        <ele>1995.77</ele>
        <time>2022-09-21T07:41:22Z</time>
      </trkpt>
      <trkpt lat="46.53064" lon="7.92372">
        <ele>1997.8</ele>
        <time>2022-09-21T07:41:32Z</time>
      </trkpt>
      <trkpt lat="46.53063" lon="7.92374">
        <ele>1999.78</ele>
        <time>2022-09-21T07:41:52Z</time>
      </trkpt>
      <trkpt lat="46.53063" lon="7.92375">
        <ele>1999.5</ele>
        <time>2022-09-21T07:41:53Z</time>
      </trkpt>
      <trkpt lat="46.53063" lon="7.92377">
        <ele>1997.87</ele>
        <time>2022-09-21T07:41:55Z</time>
      </trkpt>
      <trkpt lat="46.53062" lon="7.92379">
        <ele>1997.63</ele>
        <time>2022-09-21T07:41:57Z</time>
      </trkpt>
      <trkpt lat="46.53062" lon="7.92381">
        <ele>1996.61</ele>
        <time>2022-09-21T07:41:59Z</time>
      </trkpt>
      <trkpt lat="46.53061" lon="7.92383">
        <ele>1997.18</ele>
        <time>2022-09-21T07:42:01Z</time>
      </trkpt>
      <trkpt lat="46.53061" lon="7.92384">
        <ele>1996.9</ele>
        <time>2022-09-21T07:42:03Z</time>
      </trkpt>
      <trkpt lat="46.53061" lon="7.92387">
        <ele>1997.53</ele>
        <time>2022-09-21T07:42:05Z</time>
      </trkpt>
      <trkpt lat="46.53061" lon="7.92389">
        <ele>1997.59</ele>
        <time>2022-09-21T07:42:07Z</time>
      </trkpt>
      <trkpt lat="46.53061" lon="7.92391">
        <ele>1998.47</ele>
        <time>2022-09-21T07:42:09Z</time>
      </trkpt>
      <trkpt lat="46.53061" lon="7.92393">
        <ele>1998.31</ele>
        <time>2022-09-21T07:42:12Z</time>
      </trkpt>
      <trkpt lat="46.5306" lon="7.92395">
        <ele>1998.96</ele>
        <time>2022-09-21T07:42:14Z</time>
      </trkpt>
      <trkpt lat="46.5306" lon="7.92397">
        <ele>1998.03</ele>
        <time>2022-09-21T07:42:16Z</time>
      </trkpt>
      <trkpt lat="46.5306" lon="7.92399">
        <ele>1997.85</ele>
        <time>2022-09-21T07:42:18Z</time>
      </trkpt>
      <trkpt lat="46.5306" lon="7.92402">
        <ele>1997.93</ele>
        <time>2022-09-21T07:42:20Z</time>
      </trkpt>
      <trkpt lat="46.5306" lon="7.92404">
        <ele>1998.44</ele>
        <time>2022-09-21T07:42:22Z</time>
      </trkpt>
      <trkpt lat="46.53059" lon="7.92406">
        <ele>1999.13</ele>
        <time>2022-09-21T07:42:24Z</time>
      </trkpt>
      <trkpt lat="46.53059" lon="7.92408">
        <ele>2000.13</ele>
        <time>2022-09-21T07:42:26Z</time>
      </trkpt>
      <trkpt lat="46.53058" lon="7.9241">
        <ele>2000.31</ele>
        <time>2022-09-21T07:42:28Z</time>
      </trkpt>
      <trkpt lat="46.53058" lon="7.92411">
        <ele>2000.23</ele>
        <time>2022-09-21T07:42:30Z</time>
      </trkpt>
      <trkpt lat="46.53059" lon="7.92413">
        <ele>2001.04</ele>
        <time>2022-09-21T07:42:32Z</time>
      </trkpt>
      <trkpt lat="46.53059" lon="7.92414">
        <ele>2001.9</ele>
        <time>2022-09-21T07:42:34Z</time>
      </trkpt>
      <trkpt lat="46.53058" lon="7.92416">
        <ele>2001.79</ele>
        <time>2022-09-21T07:42:37Z</time>
      </trkpt>
      <trkpt lat="46.53057" lon="7.92417">
        <ele>2002.12</ele>
        <time>2022-09-21T07:42:39Z</time>
      </trkpt>
      <trkpt lat="46.53056" lon="7.92419">
        <ele>2002.57</ele>
        <time>2022-09-21T07:42:41Z</time>
      </trkpt>
      <trkpt lat="46.53055" lon="7.9242">
        <ele>2003.17</ele>
        <time>2022-09-21T07:42:43Z</time>
      </trkpt>
      <trkpt lat="46.53055" lon="7.92421">
        <ele>2003.66</ele>
        <time>2022-09-21T07:42:45Z</time>
      </trkpt>
      <trkpt lat="46.53054" lon="7.92423">
        <ele>2004.64</ele>
        <time>2022-09-21T07:42:47Z</time>
      </trkpt>
      <trkpt lat="46.53054" lon="7.92425">
        <ele>2004.13</ele>
        <time>2022-09-21T07:42:49Z</time>
      </trkpt>
      <trkpt lat="46.53054" lon="7.92427">
        <ele>2005.08</ele>
        <time>2022-09-21T07:42:51Z</time>
      </trkpt>
      <trkpt lat="46.53054" lon="7.92428">
        <ele>2005.81</ele>
        <time>2022-09-21T07:42:54Z</time>
      </trkpt>
      <trkpt lat="46.53053" lon="7.9243">
        <ele>2005.54</ele>
        <time>2022-09-21T07:42:56Z</time>
      </trkpt>
      <trkpt lat="46.53053" lon="7.92431">
        <ele>2005.72</ele>
        <time>2022-09-21T07:42:59Z</time>
      </trkpt>
      <trkpt lat="46.53053" lon="7.92433">
        <ele>2006</ele>
        <time>2022-09-21T07:43:01Z</time>
      </trkpt>
      <trkpt lat="46.53053" lon="7.92435">
        <ele>2007.74</ele>
        <time>2022-09-21T07:43:03Z</time>
      </trkpt>
      <trkpt lat="46.53053" lon="7.92437">
        <ele>2006.41</ele>
        <time>2022-09-21T07:43:05Z</time>
      </trkpt>
      <trkpt lat="46.53052" lon="7.92438">
        <ele>2006.49</ele>
        <time>2022-09-21T07:43:07Z</time>
      </trkpt>
      <trkpt lat="46.53051" lon="7.9244">
        <ele>2006.02</ele>
        <time>2022-09-21T07:43:09Z</time>
      </trkpt>
      <trkpt lat="46.53051" lon="7.92442">
        <ele>2005.8</ele>
        <time>2022-09-21T07:43:11Z</time>
      </trkpt>
      <trkpt lat="46.5305" lon="7.92444">
        <ele>2005.89</ele>
        <time>2022-09-21T07:43:13Z</time>
      </trkpt>
      <trkpt lat="46.5305" lon="7.92446">
        <ele>2007.21</ele>
        <time>2022-09-21T07:43:15Z</time>
      </trkpt>
      <trkpt lat="46.53049" lon="7.92448">
        <ele>2008.01</ele>
        <time>2022-09-21T07:43:17Z</time>
      </trkpt>
      <trkpt lat="46.53049" lon="7.92449">
        <ele>2007.55</ele>
        <time>2022-09-21T07:43:19Z</time>
      </trkpt>
      <trkpt lat="46.53049" lon="7.92451">
        <ele>2007.17</ele>
        <time>2022-09-21T07:43:21Z</time>
      </trkpt>
      <trkpt lat="46.53049" lon="7.92453">
        <ele>2007.35</ele>
        <time>2022-09-21T07:43:23Z</time>
      </trkpt>
      <trkpt lat="46.53049" lon="7.92455">
        <ele>2007.07</ele>
        <time>2022-09-21T07:43:25Z</time>
      </trkpt>
      <trkpt lat="46.53049" lon="7.92456">
        <ele>2007.6</ele>
        <time>2022-09-21T07:43:27Z</time>
      </trkpt>
      <trkpt lat="46.53049" lon="7.92458">
        <ele>2007.92</ele>
        <time>2022-09-21T07:43:29Z</time>
      </trkpt>
      <trkpt lat="46.53049" lon="7.92459">
        <ele>2009.46</ele>
        <time>2022-09-21T07:43:31Z</time>
      </trkpt>
      <trkpt lat="46.53048" lon="7.9246">
        <ele>2008.94</ele>
        <time>2022-09-21T07:43:33Z</time>
      </trkpt>
      <trkpt lat="46.53049" lon="7.92462">
        <ele>2009.53</ele>
        <time>2022-09-21T07:43:35Z</time>
      </trkpt>
      <trkpt lat="46.53049" lon="7.92464">
        <ele>2009.44</ele>
        <time>2022-09-21T07:43:37Z</time>
      </trkpt>
      <trkpt lat="46.53049" lon="7.92466">
        <ele>2010.46</ele>
        <time>2022-09-21T07:43:39Z</time>
      </trkpt>
      <trkpt lat="46.5305" lon="7.92467">
        <ele>2011.01</ele>
        <time>2022-09-21T07:43:41Z</time>
      </trkpt>
      <trkpt lat="46.53051" lon="7.92468">
        <ele>2010.97</ele>
        <time>2022-09-21T07:43:43Z</time>
      </trkpt>
      <trkpt lat="46.53051" lon="7.9247">
        <ele>2011.07</ele>
        <time>2022-09-21T07:43:46Z</time>
      </trkpt>
      <trkpt lat="46.53051" lon="7.92472">
        <ele>2011.31</ele>
        <time>2022-09-21T07:43:48Z</time>
      </trkpt>
      <trkpt lat="46.53051" lon="7.92474">
        <ele>2011.41</ele>
        <time>2022-09-21T07:43:50Z</time>
      </trkpt>
      <trkpt lat="46.53051" lon="7.92477">
        <ele>2011.97</ele>
        <time>2022-09-21T07:43:52Z</time>
      </trkpt>
      <trkpt lat="46.53051" lon="7.92478">
        <ele>2011.19</ele>
        <time>2022-09-21T07:43:53Z</time>
      </trkpt>
      <trkpt lat="46.53051" lon="7.92479">
        <ele>2011.61</ele>
        <time>2022-09-21T07:43:54Z</time>
      </trkpt>
      <trkpt lat="46.53052" lon="7.92481">
        <ele>2011.46</ele>
        <time>2022-09-21T07:43:55Z</time>
      </trkpt>
      <trkpt lat="46.53053" lon="7.92483">
        <ele>2012.34</ele>
        <time>2022-09-21T07:43:57Z</time>
      </trkpt>
      <trkpt lat="46.53053" lon="7.92484">
        <ele>2012.21</ele>
        <time>2022-09-21T07:43:59Z</time>
      </trkpt>
      <trkpt lat="46.53054" lon="7.92485">
        <ele>2012.74</ele>
        <time>2022-09-21T07:44:01Z</time>
      </trkpt>
      <trkpt lat="46.53055" lon="7.92487">
        <ele>2012.88</ele>
        <time>2022-09-21T07:44:03Z</time>
      </trkpt>
      <trkpt lat="46.53056" lon="7.92488">
        <ele>2012.23</ele>
        <time>2022-09-21T07:44:06Z</time>
      </trkpt>
      <trkpt lat="46.53056" lon="7.92489">
        <ele>2012.9</ele>
        <time>2022-09-21T07:44:08Z</time>
      </trkpt>
      <trkpt lat="46.53055" lon="7.92491">
        <ele>2013.52</ele>
        <time>2022-09-21T07:44:10Z</time>
      </trkpt>
      <trkpt lat="46.53055" lon="7.92492">
        <ele>2014.53</ele>
        <time>2022-09-21T07:44:12Z</time>
      </trkpt>
      <trkpt lat="46.53056" lon="7.92494">
        <ele>2015.95</ele>
        <time>2022-09-21T07:44:14Z</time>
      </trkpt>
      <trkpt lat="46.53055" lon="7.92495">
        <ele>2017.8</ele>
        <time>2022-09-21T07:44:16Z</time>
      </trkpt>
      <trkpt lat="46.53055" lon="7.92497">
        <ele>2018.5</ele>
        <time>2022-09-21T07:44:18Z</time>
      </trkpt>
      <trkpt lat="46.53055" lon="7.92498">
        <ele>2019.1</ele>
        <time>2022-09-21T07:44:20Z</time>
      </trkpt>
      <trkpt lat="46.53055" lon="7.925">
        <ele>2019.6</ele>
        <time>2022-09-21T07:44:22Z</time>
      </trkpt>
      <trkpt lat="46.53056" lon="7.92502">
        <ele>2020.19</ele>
        <time>2022-09-21T07:44:24Z</time>
      </trkpt>
      <trkpt lat="46.53056" lon="7.92504">
        <ele>2019.28</ele>
        <time>2022-09-21T07:44:26Z</time>
      </trkpt>
      <trkpt lat="46.53056" lon="7.92505">
        <ele>2019.76</ele>
        <time>2022-09-21T07:44:29Z</time>
      </trkpt>
      <trkpt lat="46.53056" lon="7.92507">
        <ele>2020.66</ele>
        <time>2022-09-21T07:44:32Z</time>
      </trkpt>
      <trkpt lat="46.53056" lon="7.92508">
        <ele>2020.39</ele>
        <time>2022-09-21T07:44:34Z</time>
      </trkpt>
      <trkpt lat="46.53057" lon="7.9251">
        <ele>2021.26</ele>
        <time>2022-09-21T07:44:36Z</time>
      </trkpt>
      <trkpt lat="46.53058" lon="7.92511">
        <ele>2022.48</ele>
        <time>2022-09-21T07:44:38Z</time>
      </trkpt>
      <trkpt lat="46.53059" lon="7.92512">
        <ele>2023.25</ele>
        <time>2022-09-21T07:44:40Z</time>
      </trkpt>
      <trkpt lat="46.53058" lon="7.92513">
        <ele>2025.41</ele>
        <time>2022-09-21T07:44:43Z</time>
      </trkpt>
      <trkpt lat="46.53057" lon="7.92514">
        <ele>2025.62</ele>
        <time>2022-09-21T07:44:45Z</time>
      </trkpt>
      <trkpt lat="46.53056" lon="7.92515">
        <ele>2026.38</ele>
        <time>2022-09-21T07:44:47Z</time>
      </trkpt>
      <trkpt lat="46.53056" lon="7.92516">
        <ele>2026.86</ele>
        <time>2022-09-21T07:44:50Z</time>
      </trkpt>
      <trkpt lat="46.53055" lon="7.92518">
        <ele>2028.99</ele>
        <time>2022-09-21T07:44:54Z</time>
      </trkpt>
      <trkpt lat="46.53054" lon="7.92518">
        <ele>2029.69</ele>
        <time>2022-09-21T07:44:56Z</time>
      </trkpt>
      <trkpt lat="46.53053" lon="7.92518">
        <ele>1999.54</ele>
        <time>2022-09-21T07:44:58Z</time>
      </trkpt>
      <trkpt lat="46.53052" lon="7.92519">
        <ele>2011.38</ele>
        <time>2022-09-21T07:45:00Z</time>
      </trkpt>
      <trkpt lat="46.53051" lon="7.92519">
        <ele>2016.71</ele>
        <time>2022-09-21T07:45:02Z</time>
      </trkpt>
      <trkpt lat="46.53051" lon="7.92521">
        <ele>2021.76</ele>
        <time>2022-09-21T07:45:04Z</time>
      </trkpt>
      <trkpt lat="46.53051" lon="7.92523">
        <ele>2024.96</ele>
        <time>2022-09-21T07:45:07Z</time>
      </trkpt>
      <trkpt lat="46.53051" lon="7.92524">
        <ele>2025.67</ele>
        <time>2022-09-21T07:45:09Z</time>
      </trkpt>
      <trkpt lat="46.5305" lon="7.92525">
        <ele>2028.1</ele>
        <time>2022-09-21T07:45:11Z</time>
      </trkpt>
      <trkpt lat="46.53049" lon="7.92526">
        <ele>2029.01</ele>
        <time>2022-09-21T07:45:13Z</time>
      </trkpt>
      <trkpt lat="46.53048" lon="7.92527">
        <ele>2029.49</ele>
        <time>2022-09-21T07:45:15Z</time>
      </trkpt>
      <trkpt lat="46.53048" lon="7.92528">
        <ele>2032.19</ele>
        <time>2022-09-21T07:45:18Z</time>
      </trkpt>
      <trkpt lat="46.53047" lon="7.92529">
        <ele>2031.94</ele>
        <time>2022-09-21T07:45:21Z</time>
      </trkpt>
      <trkpt lat="46.53045" lon="7.9253">
        <ele>2033.03</ele>
        <time>2022-09-21T07:45:23Z</time>
      </trkpt>
      <trkpt lat="46.53044" lon="7.92531">
        <ele>2034.23</ele>
        <time>2022-09-21T07:45:25Z</time>
      </trkpt>
      <trkpt lat="46.53043" lon="7.92531">
        <ele>2034.64</ele>
        <time>2022-09-21T07:45:27Z</time>
      </trkpt>
      <trkpt lat="46.53042" lon="7.92532">
        <ele>2035.47</ele>
        <time>2022-09-21T07:45:29Z</time>
      </trkpt>
      <trkpt lat="46.53041" lon="7.92533">
        <ele>2036.03</ele>
        <time>2022-09-21T07:45:31Z</time>
      </trkpt>
      <trkpt lat="46.53041" lon="7.92534">
        <ele>2036.46</ele>
        <time>2022-09-21T07:45:33Z</time>
      </trkpt>
      <trkpt lat="46.53041" lon="7.92536">
        <ele>2038.4</ele>
        <time>2022-09-21T07:45:36Z</time>
      </trkpt>
      <trkpt lat="46.5304" lon="7.92537">
        <ele>2037.7</ele>
        <time>2022-09-21T07:45:38Z</time>
      </trkpt>
      <trkpt lat="46.53039" lon="7.92538">
        <ele>2038.36</ele>
        <time>2022-09-21T07:45:40Z</time>
      </trkpt>
      <trkpt lat="46.53038" lon="7.9254">
        <ele>2039.17</ele>
        <time>2022-09-21T07:45:42Z</time>
      </trkpt>
      <trkpt lat="46.53038" lon="7.92542">
        <ele>2038.86</ele>
        <time>2022-09-21T07:45:44Z</time>
      </trkpt>
      <trkpt lat="46.53037" lon="7.92543">
        <ele>1996.58</ele>
        <time>2022-09-21T07:45:46Z</time>
      </trkpt>
      <trkpt lat="46.53037" lon="7.92545">
        <ele>2016.87</ele>
        <time>2022-09-21T07:45:48Z</time>
      </trkpt>
      <trkpt lat="46.53038" lon="7.92547">
        <ele>2024.5</ele>
        <time>2022-09-21T07:45:50Z</time>
      </trkpt>
      <trkpt lat="46.53037" lon="7.92549">
        <ele>2029.43</ele>
        <time>2022-09-21T07:45:52Z</time>
      </trkpt>
      <trkpt lat="46.53036" lon="7.9255">
        <ele>2032.3</ele>
        <time>2022-09-21T07:45:54Z</time>
      </trkpt>
      <trkpt lat="46.53036" lon="7.92551">
        <ele>2000.7</ele>
        <time>2022-09-21T07:45:56Z</time>
      </trkpt>
      <trkpt lat="46.53035" lon="7.92553">
        <ele>2011.48</ele>
        <time>2022-09-21T07:45:58Z</time>
      </trkpt>
      <trkpt lat="46.53035" lon="7.92554">
        <ele>2022.4</ele>
        <time>2022-09-21T07:46:00Z</time>
      </trkpt>
      <trkpt lat="46.53036" lon="7.92556">
        <ele>2031.55</ele>
        <time>2022-09-21T07:46:02Z</time>
      </trkpt>
      <trkpt lat="46.53035" lon="7.92557">
        <ele>2040.29</ele>
        <time>2022-09-21T07:46:06Z</time>
      </trkpt>
      <trkpt lat="46.53033" lon="7.92557">
        <ele>2041.73</ele>
        <time>2022-09-21T07:46:08Z</time>
      </trkpt>
      <trkpt lat="46.53033" lon="7.92558">
        <ele>2042.78</ele>
        <time>2022-09-21T07:46:10Z</time>
      </trkpt>
      <trkpt lat="46.53032" lon="7.92559">
        <ele>2043.64</ele>
        <time>2022-09-21T07:46:12Z</time>
      </trkpt>
      <trkpt lat="46.53031" lon="7.92559">
        <ele>2044.18</ele>
        <time>2022-09-21T07:46:14Z</time>
      </trkpt>
      <trkpt lat="46.5303" lon="7.92558">
        <ele>2045.3</ele>
        <time>2022-09-21T07:46:16Z</time>
      </trkpt>
      <trkpt lat="46.53029" lon="7.92558">
        <ele>2045.02</ele>
        <time>2022-09-21T07:46:18Z</time>
      </trkpt>
      <trkpt lat="46.53028" lon="7.92558">
        <ele>2045.88</ele>
        <time>2022-09-21T07:46:20Z</time>
      </trkpt>
      <trkpt lat="46.53027" lon="7.92559">
        <ele>2046.17</ele>
        <time>2022-09-21T07:46:22Z</time>
      </trkpt>
      <trkpt lat="46.53026" lon="7.9256">
        <ele>2047.41</ele>
        <time>2022-09-21T07:46:24Z</time>
      </trkpt>
      <trkpt lat="46.53026" lon="7.92562">
        <ele>2047</ele>
        <time>2022-09-21T07:46:27Z</time>
      </trkpt>
      <trkpt lat="46.53025" lon="7.92563">
        <ele>2046.44</ele>
        <time>2022-09-21T07:46:30Z</time>
      </trkpt>
      <trkpt lat="46.53023" lon="7.92562">
        <ele>2047.97</ele>
        <time>2022-09-21T07:46:32Z</time>
      </trkpt>
      <trkpt lat="46.53022" lon="7.92562">
        <ele>2047.44</ele>
        <time>2022-09-21T07:46:34Z</time>
      </trkpt>
      <trkpt lat="46.53023" lon="7.92564">
        <ele>2047.44</ele>
        <time>2022-09-21T07:46:37Z</time>
      </trkpt>
      <trkpt lat="46.53023" lon="7.92566">
        <ele>2047.26</ele>
        <time>2022-09-21T07:46:39Z</time>
      </trkpt>
      <trkpt lat="46.53023" lon="7.92567">
        <ele>2047.45</ele>
        <time>2022-09-21T07:46:41Z</time>
      </trkpt>
      <trkpt lat="46.53023" lon="7.92568">
        <ele>2048.63</ele>
        <time>2022-09-21T07:46:44Z</time>
      </trkpt>
      <trkpt lat="46.53023" lon="7.9257">
        <ele>2048.48</ele>
        <time>2022-09-21T07:46:46Z</time>
      </trkpt>
      <trkpt lat="46.53022" lon="7.92571">
        <ele>2050.06</ele>
        <time>2022-09-21T07:46:48Z</time>
      </trkpt>
      <trkpt lat="46.53022" lon="7.92572">
        <ele>2050.42</ele>
        <time>2022-09-21T07:46:50Z</time>
      </trkpt>
      <trkpt lat="46.53021" lon="7.92574">
        <ele>2051.53</ele>
        <time>2022-09-21T07:46:52Z</time>
      </trkpt>
      <trkpt lat="46.5302" lon="7.92576">
        <ele>2053.16</ele>
        <time>2022-09-21T07:46:54Z</time>
      </trkpt>
      <trkpt lat="46.5302" lon="7.92577">
        <ele>2053.15</ele>
        <time>2022-09-21T07:46:56Z</time>
      </trkpt>
      <trkpt lat="46.5302" lon="7.92579">
        <ele>2055.41</ele>
        <time>2022-09-21T07:46:59Z</time>
      </trkpt>
      <trkpt lat="46.53021" lon="7.9258">
        <ele>2056.62</ele>
        <time>2022-09-21T07:47:01Z</time>
      </trkpt>
      <trkpt lat="46.53021" lon="7.92581">
        <ele>2056.56</ele>
        <time>2022-09-21T07:47:03Z</time>
      </trkpt>
      <trkpt lat="46.53021" lon="7.92583">
        <ele>2055.42</ele>
        <time>2022-09-21T07:47:05Z</time>
      </trkpt>
      <trkpt lat="46.5302" lon="7.92585">
        <ele>2055.32</ele>
        <time>2022-09-21T07:47:07Z</time>
      </trkpt>
      <trkpt lat="46.53019" lon="7.92586">
        <ele>2057.99</ele>
        <time>2022-09-21T07:47:09Z</time>
      </trkpt>
      <trkpt lat="46.53017" lon="7.92587">
        <ele>2059.69</ele>
        <time>2022-09-21T07:47:11Z</time>
      </trkpt>
      <trkpt lat="46.53016" lon="7.92586">
        <ele>2058.36</ele>
        <time>2022-09-21T07:47:13Z</time>
      </trkpt>
      <trkpt lat="46.53016" lon="7.92585">
        <ele>2057.12</ele>
        <time>2022-09-21T07:47:15Z</time>
      </trkpt>
      <trkpt lat="46.53015" lon="7.92586">
        <ele>2057.15</ele>
        <time>2022-09-21T07:47:18Z</time>
      </trkpt>
      <trkpt lat="46.53015" lon="7.92588">
        <ele>2055.78</ele>
        <time>2022-09-21T07:47:20Z</time>
      </trkpt>
      <trkpt lat="46.53015" lon="7.9259">
        <ele>2056.46</ele>
        <time>2022-09-21T07:47:22Z</time>
      </trkpt>
      <trkpt lat="46.53015" lon="7.92591">
        <ele>2058.3</ele>
        <time>2022-09-21T07:47:25Z</time>
      </trkpt>
      <trkpt lat="46.53014" lon="7.92592">
        <ele>2058.58</ele>
        <time>2022-09-21T07:47:28Z</time>
      </trkpt>
      <trkpt lat="46.53014" lon="7.92593">
        <ele>2060.76</ele>
        <time>2022-09-21T07:47:31Z</time>
      </trkpt>
      <trkpt lat="46.53014" lon="7.92595">
        <ele>2061.21</ele>
        <time>2022-09-21T07:47:34Z</time>
      </trkpt>
      <trkpt lat="46.53014" lon="7.92597">
        <ele>2061.49</ele>
        <time>2022-09-21T07:47:37Z</time>
      </trkpt>
      <trkpt lat="46.53013" lon="7.92598">
        <ele>2061.81</ele>
        <time>2022-09-21T07:47:39Z</time>
      </trkpt>
      <trkpt lat="46.53014" lon="7.926">
        <ele>2061.49</ele>
        <time>2022-09-21T07:47:41Z</time>
      </trkpt>
      <trkpt lat="46.53013" lon="7.92602">
        <ele>2062.34</ele>
        <time>2022-09-21T07:47:43Z</time>
      </trkpt>
      <trkpt lat="46.53013" lon="7.92603">
        <ele>2062.51</ele>
        <time>2022-09-21T07:47:45Z</time>
      </trkpt>
      <trkpt lat="46.53012" lon="7.92605">
        <ele>2063.27</ele>
        <time>2022-09-21T07:47:47Z</time>
      </trkpt>
      <trkpt lat="46.53013" lon="7.92607">
        <ele>2064.18</ele>
        <time>2022-09-21T07:47:49Z</time>
      </trkpt>
      <trkpt lat="46.53013" lon="7.92608">
        <ele>2064.79</ele>
        <time>2022-09-21T07:47:51Z</time>
      </trkpt>
      <trkpt lat="46.53013" lon="7.9261">
        <ele>2065.57</ele>
        <time>2022-09-21T07:47:53Z</time>
      </trkpt>
      <trkpt lat="46.53012" lon="7.92611">
        <ele>2065.3</ele>
        <time>2022-09-21T07:47:55Z</time>
      </trkpt>
      <trkpt lat="46.53012" lon="7.92613">
        <ele>2064.5</ele>
        <time>2022-09-21T07:47:57Z</time>
      </trkpt>
      <trkpt lat="46.53013" lon="7.92615">
        <ele>2065.69</ele>
        <time>2022-09-21T07:47:59Z</time>
      </trkpt>
      <trkpt lat="46.53012" lon="7.92617">
        <ele>2065.34</ele>
        <time>2022-09-21T07:48:01Z</time>
      </trkpt>
      <trkpt lat="46.53013" lon="7.92619">
        <ele>2065.48</ele>
        <time>2022-09-21T07:48:03Z</time>
      </trkpt>
      <trkpt lat="46.53013" lon="7.92621">
        <ele>2065.96</ele>
        <time>2022-09-21T07:48:05Z</time>
      </trkpt>
      <trkpt lat="46.53013" lon="7.92623">
        <ele>2066.48</ele>
        <time>2022-09-21T07:48:07Z</time>
      </trkpt>
      <trkpt lat="46.53013" lon="7.92625">
        <ele>2066.47</ele>
        <time>2022-09-21T07:48:09Z</time>
      </trkpt>
      <trkpt lat="46.53013" lon="7.92626">
        <ele>2066.7</ele>
        <time>2022-09-21T07:48:11Z</time>
      </trkpt>
      <trkpt lat="46.53012" lon="7.92628">
        <ele>2069.58</ele>
        <time>2022-09-21T07:48:13Z</time>
      </trkpt>
      <trkpt lat="46.53013" lon="7.9263">
        <ele>2069.77</ele>
        <time>2022-09-21T07:48:15Z</time>
      </trkpt>
      <trkpt lat="46.53013" lon="7.92632">
        <ele>2071.22</ele>
        <time>2022-09-21T07:48:18Z</time>
      </trkpt>
      <trkpt lat="46.53014" lon="7.92634">
        <ele>2071.34</ele>
        <time>2022-09-21T07:48:21Z</time>
      </trkpt>
      <trkpt lat="46.53014" lon="7.92636">
        <ele>2072.69</ele>
        <time>2022-09-21T07:48:24Z</time>
      </trkpt>
      <trkpt lat="46.53015" lon="7.92637">
        <ele>2072.93</ele>
        <time>2022-09-21T07:48:27Z</time>
      </trkpt>
      <trkpt lat="46.53016" lon="7.92638">
        <ele>2074.55</ele>
        <time>2022-09-21T07:48:29Z</time>
      </trkpt>
      <trkpt lat="46.53017" lon="7.92639">
        <ele>2073.95</ele>
        <time>2022-09-21T07:48:31Z</time>
      </trkpt>
      <trkpt lat="46.53018" lon="7.92639">
        <ele>2073.57</ele>
        <time>2022-09-21T07:48:33Z</time>
      </trkpt>
      <trkpt lat="46.53019" lon="7.92638">
        <ele>2073.51</ele>
        <time>2022-09-21T07:48:36Z</time>
      </trkpt>
      <trkpt lat="46.5302" lon="7.92638">
        <ele>2073.61</ele>
        <time>2022-09-21T07:48:38Z</time>
      </trkpt>
      <trkpt lat="46.53021" lon="7.92638">
        <ele>2072.62</ele>
        <time>2022-09-21T07:48:41Z</time>
      </trkpt>
      <trkpt lat="46.53022" lon="7.92639">
        <ele>2072.25</ele>
        <time>2022-09-21T07:48:43Z</time>
      </trkpt>
      <trkpt lat="46.53023" lon="7.9264">
        <ele>2072.52</ele>
        <time>2022-09-21T07:48:45Z</time>
      </trkpt>
      <trkpt lat="46.53024" lon="7.92642">
        <ele>2072.69</ele>
        <time>2022-09-21T07:48:47Z</time>
      </trkpt>
      <trkpt lat="46.53025" lon="7.92643">
        <ele>2072.71</ele>
        <time>2022-09-21T07:48:49Z</time>
      </trkpt>
      <trkpt lat="46.53027" lon="7.92642">
        <ele>2073.15</ele>
        <time>2022-09-21T07:48:51Z</time>
      </trkpt>
      <trkpt lat="46.53028" lon="7.92642">
        <ele>2073.21</ele>
        <time>2022-09-21T07:48:52Z</time>
      </trkpt>
      <trkpt lat="46.53029" lon="7.92641">
        <ele>2073.62</ele>
        <time>2022-09-21T07:48:54Z</time>
      </trkpt>
      <trkpt lat="46.53031" lon="7.92641">
        <ele>2072.55</ele>
        <time>2022-09-21T07:48:56Z</time>
      </trkpt>
      <trkpt lat="46.53032" lon="7.92641">
        <ele>2072.3</ele>
        <time>2022-09-21T07:48:57Z</time>
      </trkpt>
      <trkpt lat="46.53033" lon="7.92641">
        <ele>2072.1</ele>
        <time>2022-09-21T07:48:58Z</time>
      </trkpt>
      <trkpt lat="46.53034" lon="7.92642">
        <ele>2071.42</ele>
        <time>2022-09-21T07:48:59Z</time>
      </trkpt>
      <trkpt lat="46.53035" lon="7.92643">
        <ele>2071.06</ele>
        <time>2022-09-21T07:49:00Z</time>
      </trkpt>
      <trkpt lat="46.53036" lon="7.92643">
        <ele>2071.64</ele>
        <time>2022-09-21T07:49:01Z</time>
      </trkpt>
      <trkpt lat="46.53037" lon="7.92644">
        <ele>2071.57</ele>
        <time>2022-09-21T07:49:02Z</time>
      </trkpt>
      <trkpt lat="46.53039" lon="7.92645">
        <ele>2072.33</ele>
        <time>2022-09-21T07:49:03Z</time>
      </trkpt>
      <trkpt lat="46.5304" lon="7.92646">
        <ele>2072.44</ele>
        <time>2022-09-21T07:49:04Z</time>
      </trkpt>
      <trkpt lat="46.53041" lon="7.92646">
        <ele>2072.38</ele>
        <time>2022-09-21T07:49:05Z</time>
      </trkpt>
      <trkpt lat="46.53042" lon="7.92647">
        <ele>2071.39</ele>
        <time>2022-09-21T07:49:06Z</time>
      </trkpt>
      <trkpt lat="46.53043" lon="7.92648">
        <ele>2070.94</ele>
        <time>2022-09-21T07:49:07Z</time>
      </trkpt>
      <trkpt lat="46.53044" lon="7.92648">
        <ele>2070.29</ele>
        <time>2022-09-21T07:49:08Z</time>
      </trkpt>
      <trkpt lat="46.53045" lon="7.92649">
        <ele>2070.95</ele>
        <time>2022-09-21T07:49:09Z</time>
      </trkpt>
      <trkpt lat="46.53046" lon="7.92649">
        <ele>2071.33</ele>
        <time>2022-09-21T07:49:10Z</time>
      </trkpt>
      <trkpt lat="46.53047" lon="7.9265">
        <ele>2072.33</ele>
        <time>2022-09-21T07:49:11Z</time>
      </trkpt>
      <trkpt lat="46.53048" lon="7.9265">
        <ele>2072.12</ele>
        <time>2022-09-21T07:49:12Z</time>
      </trkpt>
      <trkpt lat="46.53049" lon="7.92651">
        <ele>2072.71</ele>
        <time>2022-09-21T07:49:13Z</time>
      </trkpt>
      <trkpt lat="46.5305" lon="7.92651">
        <ele>2073.67</ele>
        <time>2022-09-21T07:49:14Z</time>
      </trkpt>
      <trkpt lat="46.53051" lon="7.92651">
        <ele>2074.05</ele>
        <time>2022-09-21T07:49:15Z</time>
      </trkpt>
      <trkpt lat="46.53053" lon="7.92651">
        <ele>2074.97</ele>
        <time>2022-09-21T07:49:16Z</time>
      </trkpt>
      <trkpt lat="46.53054" lon="7.92651">
        <ele>2074.51</ele>
        <time>2022-09-21T07:49:17Z</time>
      </trkpt>
      <trkpt lat="46.53055" lon="7.92651">
        <ele>2074.55</ele>
        <time>2022-09-21T07:49:18Z</time>
      </trkpt>
      <trkpt lat="46.53056" lon="7.9265">
        <ele>2074.21</ele>
        <time>2022-09-21T07:49:19Z</time>
      </trkpt>
      <trkpt lat="46.53057" lon="7.9265">
        <ele>2074.37</ele>
        <time>2022-09-21T07:49:20Z</time>
      </trkpt>
      <trkpt lat="46.53058" lon="7.92649">
        <ele>2074.49</ele>
        <time>2022-09-21T07:49:21Z</time>
      </trkpt>
      <trkpt lat="46.53059" lon="7.92649">
        <ele>2074.56</ele>
        <time>2022-09-21T07:49:22Z</time>
      </trkpt>
      <trkpt lat="46.53059" lon="7.92648">
        <ele>2074</ele>
        <time>2022-09-21T07:49:23Z</time>
      </trkpt>
      <trkpt lat="46.5306" lon="7.92647">
        <ele>2074.18</ele>
        <time>2022-09-21T07:49:24Z</time>
      </trkpt>
      <trkpt lat="46.53061" lon="7.92647">
        <ele>2074.07</ele>
        <time>2022-09-21T07:49:26Z</time>
      </trkpt>
      <trkpt lat="46.53062" lon="7.92648">
        <ele>2075.53</ele>
        <time>2022-09-21T07:49:33Z</time>
      </trkpt>
      <trkpt lat="46.53063" lon="7.92648">
        <ele>2076.44</ele>
        <time>2022-09-21T07:49:50Z</time>
      </trkpt>
      <trkpt lat="46.53064" lon="7.92648">
        <ele>2075.72</ele>
        <time>2022-09-21T07:49:52Z</time>
      </trkpt>
      <trkpt lat="46.53066" lon="7.92648">
        <ele>2075.43</ele>
        <time>2022-09-21T07:49:54Z</time>
      </trkpt>
      <trkpt lat="46.53067" lon="7.92649">
        <ele>2075.69</ele>
        <time>2022-09-21T07:49:55Z</time>
      </trkpt>
      <trkpt lat="46.53067" lon="7.9265">
        <ele>2075.56</ele>
        <time>2022-09-21T07:49:56Z</time>
      </trkpt>
      <trkpt lat="46.53068" lon="7.92651">
        <ele>2073.88</ele>
        <time>2022-09-21T07:49:57Z</time>
      </trkpt>
      <trkpt lat="46.53069" lon="7.92652">
        <ele>2074.47</ele>
        <time>2022-09-21T07:49:58Z</time>
      </trkpt>
      <trkpt lat="46.5307" lon="7.92653">
        <ele>2075.75</ele>
        <time>2022-09-21T07:49:59Z</time>
      </trkpt>
      <trkpt lat="46.53071" lon="7.92654">
        <ele>2075.39</ele>
        <time>2022-09-21T07:50:00Z</time>
      </trkpt>
      <trkpt lat="46.53072" lon="7.92655">
        <ele>2075.75</ele>
        <time>2022-09-21T07:50:01Z</time>
      </trkpt>
      <trkpt lat="46.53073" lon="7.92656">
        <ele>2075.56</ele>
        <time>2022-09-21T07:50:02Z</time>
      </trkpt>
      <trkpt lat="46.53074" lon="7.92656">
        <ele>2075.39</ele>
        <time>2022-09-21T07:50:03Z</time>
      </trkpt>
      <trkpt lat="46.53075" lon="7.92657">
        <ele>2075.13</ele>
        <time>2022-09-21T07:50:04Z</time>
      </trkpt>
      <trkpt lat="46.53076" lon="7.92657">
        <ele>2075.05</ele>
        <time>2022-09-21T07:50:05Z</time>
      </trkpt>
      <trkpt lat="46.53078" lon="7.92657">
        <ele>2075.31</ele>
        <time>2022-09-21T07:50:06Z</time>
      </trkpt>
      <trkpt lat="46.53079" lon="7.92658">
        <ele>2074.78</ele>
        <time>2022-09-21T07:50:07Z</time>
      </trkpt>
      <trkpt lat="46.5308" lon="7.92658">
        <ele>2074.6</ele>
        <time>2022-09-21T07:50:08Z</time>
      </trkpt>
      <trkpt lat="46.53081" lon="7.92658">
        <ele>2074.5</ele>
        <time>2022-09-21T07:50:09Z</time>
      </trkpt>
      <trkpt lat="46.53082" lon="7.92659">
        <ele>2074.1</ele>
        <time>2022-09-21T07:50:10Z</time>
      </trkpt>
      <trkpt lat="46.53083" lon="7.92659">
        <ele>2073.96</ele>
        <time>2022-09-21T07:50:11Z</time>
      </trkpt>
      <trkpt lat="46.53085" lon="7.92659">
        <ele>2074.97</ele>
        <time>2022-09-21T07:50:12Z</time>
      </trkpt>
      <trkpt lat="46.53086" lon="7.9266">
        <ele>2074.86</ele>
        <time>2022-09-21T07:50:13Z</time>
      </trkpt>
      <trkpt lat="46.53086" lon="7.92661">
        <ele>2074.53</ele>
        <time>2022-09-21T07:50:14Z</time>
      </trkpt>
      <trkpt lat="46.53087" lon="7.92662">
        <ele>2074.11</ele>
        <time>2022-09-21T07:50:15Z</time>
      </trkpt>
      <trkpt lat="46.53088" lon="7.92663">
        <ele>2073.73</ele>
        <time>2022-09-21T07:50:16Z</time>
      </trkpt>
      <trkpt lat="46.53088" lon="7.92664">
        <ele>2072.79</ele>
        <time>2022-09-21T07:50:17Z</time>
      </trkpt>
      <trkpt lat="46.53089" lon="7.92665">
        <ele>2072.48</ele>
        <time>2022-09-21T07:50:18Z</time>
      </trkpt>
      <trkpt lat="46.53091" lon="7.92665">
        <ele>2072.97</ele>
        <time>2022-09-21T07:50:19Z</time>
      </trkpt>
      <trkpt lat="46.53092" lon="7.92666">
        <ele>2072.92</ele>
        <time>2022-09-21T07:50:20Z</time>
      </trkpt>
      <trkpt lat="46.53093" lon="7.92667">
        <ele>2073</ele>
        <time>2022-09-21T07:50:21Z</time>
      </trkpt>
      <trkpt lat="46.53094" lon="7.92668">
        <ele>2073.07</ele>
        <time>2022-09-21T07:50:22Z</time>
      </trkpt>
      <trkpt lat="46.53095" lon="7.92669">
        <ele>2073.1</ele>
        <time>2022-09-21T07:50:23Z</time>
      </trkpt>
      <trkpt lat="46.53096" lon="7.92671">
        <ele>2072.8</ele>
        <time>2022-09-21T07:50:24Z</time>
      </trkpt>
      <trkpt lat="46.53097" lon="7.92672">
        <ele>2073.27</ele>
        <time>2022-09-21T07:50:25Z</time>
      </trkpt>
      <trkpt lat="46.53098" lon="7.92674">
        <ele>2073.61</ele>
        <time>2022-09-21T07:50:26Z</time>
      </trkpt>
      <trkpt lat="46.531" lon="7.92675">
        <ele>2073.3</ele>
        <time>2022-09-21T07:50:27Z</time>
      </trkpt>
      <trkpt lat="46.53101" lon="7.92676">
        <ele>2073.47</ele>
        <time>2022-09-21T07:50:28Z</time>
      </trkpt>
      <trkpt lat="46.53102" lon="7.92677">
        <ele>2073.6</ele>
        <time>2022-09-21T07:50:29Z</time>
      </trkpt>
      <trkpt lat="46.53103" lon="7.92678">
        <ele>2073.47</ele>
        <time>2022-09-21T07:50:30Z</time>
      </trkpt>
      <trkpt lat="46.53104" lon="7.92679">
        <ele>2072.24</ele>
        <time>2022-09-21T07:50:31Z</time>
      </trkpt>
      <trkpt lat="46.53105" lon="7.92679">
        <ele>2072.13</ele>
        <time>2022-09-21T07:50:32Z</time>
      </trkpt>
      <trkpt lat="46.53106" lon="7.9268">
        <ele>2072.76</ele>
        <time>2022-09-21T07:50:33Z</time>
      </trkpt>
      <trkpt lat="46.53108" lon="7.92681">
        <ele>2072.58</ele>
        <time>2022-09-21T07:50:34Z</time>
      </trkpt>
      <trkpt lat="46.53109" lon="7.92682">
        <ele>2073.66</ele>
        <time>2022-09-21T07:50:35Z</time>
      </trkpt>
      <trkpt lat="46.5311" lon="7.92683">
        <ele>2074.55</ele>
        <time>2022-09-21T07:50:36Z</time>
      </trkpt>
      <trkpt lat="46.53111" lon="7.92684">
        <ele>2074.58</ele>
        <time>2022-09-21T07:50:37Z</time>
      </trkpt>
      <trkpt lat="46.53113" lon="7.92685">
        <ele>2073.93</ele>
        <time>2022-09-21T07:50:38Z</time>
      </trkpt>
      <trkpt lat="46.53114" lon="7.92686">
        <ele>2073.47</ele>
        <time>2022-09-21T07:50:39Z</time>
      </trkpt>
      <trkpt lat="46.53115" lon="7.92687">
        <ele>2072.68</ele>
        <time>2022-09-21T07:50:40Z</time>
      </trkpt>
      <trkpt lat="46.53116" lon="7.92688">
        <ele>2073.41</ele>
        <time>2022-09-21T07:50:42Z</time>
      </trkpt>
      <trkpt lat="46.53118" lon="7.92688">
        <ele>2074.09</ele>
        <time>2022-09-21T07:50:43Z</time>
      </trkpt>
      <trkpt lat="46.53119" lon="7.92689">
        <ele>2072.85</ele>
        <time>2022-09-21T07:50:44Z</time>
      </trkpt>
      <trkpt lat="46.5312" lon="7.92689">
        <ele>2072.35</ele>
        <time>2022-09-21T07:50:45Z</time>
      </trkpt>
      <trkpt lat="46.5312" lon="7.92691">
        <ele>2072.29</ele>
        <time>2022-09-21T07:50:46Z</time>
      </trkpt>
      <trkpt lat="46.53121" lon="7.92692">
        <ele>2071.99</ele>
        <time>2022-09-21T07:50:47Z</time>
      </trkpt>
      <trkpt lat="46.53122" lon="7.92694">
        <ele>2070.6</ele>
        <time>2022-09-21T07:50:49Z</time>
      </trkpt>
      <trkpt lat="46.53122" lon="7.92695">
        <ele>2069.38</ele>
        <time>2022-09-21T07:50:51Z</time>
      </trkpt>
      <trkpt lat="46.53124" lon="7.92695">
        <ele>2070.29</ele>
        <time>2022-09-21T07:50:52Z</time>
      </trkpt>
      <trkpt lat="46.53125" lon="7.92695">
        <ele>2070.65</ele>
        <time>2022-09-21T07:50:53Z</time>
      </trkpt>
      <trkpt lat="46.53126" lon="7.92695">
        <ele>2070.89</ele>
        <time>2022-09-21T07:50:54Z</time>
      </trkpt>
      <trkpt lat="46.53127" lon="7.92694">
        <ele>2070.58</ele>
        <time>2022-09-21T07:50:55Z</time>
      </trkpt>
      <trkpt lat="46.53128" lon="7.92694">
        <ele>2070.45</ele>
        <time>2022-09-21T07:50:56Z</time>
      </trkpt>
      <trkpt lat="46.5313" lon="7.92694">
        <ele>2070.57</ele>
        <time>2022-09-21T07:50:57Z</time>
      </trkpt>
      <trkpt lat="46.53131" lon="7.92694">
        <ele>2070.57</ele>
        <time>2022-09-21T07:50:58Z</time>
      </trkpt>
      <trkpt lat="46.53132" lon="7.92694">
        <ele>2070.66</ele>
        <time>2022-09-21T07:50:59Z</time>
      </trkpt>
      <trkpt lat="46.53133" lon="7.92694">
        <ele>2070.47</ele>
        <time>2022-09-21T07:51:00Z</time>
      </trkpt>
      <trkpt lat="46.53134" lon="7.92694">
        <ele>2070.15</ele>
        <time>2022-09-21T07:51:01Z</time>
      </trkpt>
      <trkpt lat="46.53136" lon="7.92694">
        <ele>2070.15</ele>
        <time>2022-09-21T07:51:02Z</time>
      </trkpt>
      <trkpt lat="46.53137" lon="7.92695">
        <ele>2070.66</ele>
        <time>2022-09-21T07:51:03Z</time>
      </trkpt>
      <trkpt lat="46.53138" lon="7.92695">
        <ele>2070.41</ele>
        <time>2022-09-21T07:51:04Z</time>
      </trkpt>
      <trkpt lat="46.53139" lon="7.92693">
        <ele>2070.02</ele>
        <time>2022-09-21T07:51:06Z</time>
      </trkpt>
      <trkpt lat="46.5314" lon="7.92691">
        <ele>2070.4</ele>
        <time>2022-09-21T07:51:08Z</time>
      </trkpt>
      <trkpt lat="46.53141" lon="7.92689">
        <ele>2069.35</ele>
        <time>2022-09-21T07:51:10Z</time>
      </trkpt>
      <trkpt lat="46.53142" lon="7.92688">
        <ele>2069.18</ele>
        <time>2022-09-21T07:51:12Z</time>
      </trkpt>
      <trkpt lat="46.53143" lon="7.92687">
        <ele>2068.27</ele>
        <time>2022-09-21T07:51:13Z</time>
      </trkpt>
      <trkpt lat="46.53144" lon="7.92687">
        <ele>2067.65</ele>
        <time>2022-09-21T07:51:14Z</time>
      </trkpt>
      <trkpt lat="46.53146" lon="7.92687">
        <ele>2066.92</ele>
        <time>2022-09-21T07:51:15Z</time>
      </trkpt>
      <trkpt lat="46.53147" lon="7.92687">
        <ele>2066.83</ele>
        <time>2022-09-21T07:51:16Z</time>
      </trkpt>
      <trkpt lat="46.53148" lon="7.92686">
        <ele>2066.01</ele>
        <time>2022-09-21T07:51:17Z</time>
      </trkpt>
      <trkpt lat="46.53149" lon="7.92685">
        <ele>2065.97</ele>
        <time>2022-09-21T07:51:18Z</time>
      </trkpt>
      <trkpt lat="46.5315" lon="7.92684">
        <ele>2066.19</ele>
        <time>2022-09-21T07:51:19Z</time>
      </trkpt>
      <trkpt lat="46.53152" lon="7.92683">
        <ele>2066.2</ele>
        <time>2022-09-21T07:51:20Z</time>
      </trkpt>
      <trkpt lat="46.53153" lon="7.92683">
        <ele>2066.19</ele>
        <time>2022-09-21T07:51:21Z</time>
      </trkpt>
      <trkpt lat="46.53154" lon="7.92683">
        <ele>2065.77</ele>
        <time>2022-09-21T07:51:22Z</time>
      </trkpt>
      <trkpt lat="46.53155" lon="7.92684">
        <ele>2065.6</ele>
        <time>2022-09-21T07:51:23Z</time>
      </trkpt>
      <trkpt lat="46.53157" lon="7.92685">
        <ele>2066.54</ele>
        <time>2022-09-21T07:51:24Z</time>
      </trkpt>
      <trkpt lat="46.53158" lon="7.92685">
        <ele>2066.46</ele>
        <time>2022-09-21T07:51:25Z</time>
      </trkpt>
      <trkpt lat="46.5316" lon="7.92685">
        <ele>2067.01</ele>
        <time>2022-09-21T07:51:26Z</time>
      </trkpt>
      <trkpt lat="46.53161" lon="7.92684">
        <ele>2067.17</ele>
        <time>2022-09-21T07:51:27Z</time>
      </trkpt>
      <trkpt lat="46.53162" lon="7.92683">
        <ele>2067.55</ele>
        <time>2022-09-21T07:51:28Z</time>
      </trkpt>
      <trkpt lat="46.53163" lon="7.92683">
        <ele>2068.06</ele>
        <time>2022-09-21T07:51:29Z</time>
      </trkpt>
      <trkpt lat="46.53164" lon="7.92682">
        <ele>2067.41</ele>
        <time>2022-09-21T07:51:30Z</time>
      </trkpt>
      <trkpt lat="46.53165" lon="7.92682">
        <ele>2068.57</ele>
        <time>2022-09-21T07:51:32Z</time>
      </trkpt>
      <trkpt lat="46.53166" lon="7.92681">
        <ele>2068.29</ele>
        <time>2022-09-21T07:51:33Z</time>
      </trkpt>
      <trkpt lat="46.53168" lon="7.92681">
        <ele>2068.28</ele>
        <time>2022-09-21T07:51:34Z</time>
      </trkpt>
      <trkpt lat="46.53169" lon="7.92681">
        <ele>2068.28</ele>
        <time>2022-09-21T07:51:35Z</time>
      </trkpt>
      <trkpt lat="46.5317" lon="7.92681">
        <ele>2068.48</ele>
        <time>2022-09-21T07:51:36Z</time>
      </trkpt>
      <trkpt lat="46.53171" lon="7.9268">
        <ele>2068.09</ele>
        <time>2022-09-21T07:51:37Z</time>
      </trkpt>
      <trkpt lat="46.53172" lon="7.9268">
        <ele>2068.71</ele>
        <time>2022-09-21T07:51:38Z</time>
      </trkpt>
      <trkpt lat="46.53173" lon="7.9268">
        <ele>2068.59</ele>
        <time>2022-09-21T07:51:40Z</time>
      </trkpt>
      <trkpt lat="46.53174" lon="7.9268">
        <ele>2069.65</ele>
        <time>2022-09-21T07:51:43Z</time>
      </trkpt>
      <trkpt lat="46.53176" lon="7.92679">
        <ele>2069.34</ele>
        <time>2022-09-21T07:51:49Z</time>
      </trkpt>
      <trkpt lat="46.53177" lon="7.92679">
        <ele>2068.8</ele>
        <time>2022-09-21T07:51:50Z</time>
      </trkpt>
      <trkpt lat="46.53178" lon="7.9268">
        <ele>2068.46</ele>
        <time>2022-09-21T07:51:51Z</time>
      </trkpt>
      <trkpt lat="46.53179" lon="7.9268">
        <ele>2069.37</ele>
        <time>2022-09-21T07:51:53Z</time>
      </trkpt>
      <trkpt lat="46.5318" lon="7.92681">
        <ele>2071.82</ele>
        <time>2022-09-21T07:52:00Z</time>
      </trkpt>
      <trkpt lat="46.53181" lon="7.92682">
        <ele>2071.51</ele>
        <time>2022-09-21T07:52:02Z</time>
      </trkpt>
      <trkpt lat="46.53182" lon="7.92683">
        <ele>2071.67</ele>
        <time>2022-09-21T07:52:04Z</time>
      </trkpt>
      <trkpt lat="46.53182" lon="7.92684">
        <ele>2071.53</ele>
        <time>2022-09-21T07:52:06Z</time>
      </trkpt>
      <trkpt lat="46.53183" lon="7.92685">
        <ele>2071.18</ele>
        <time>2022-09-21T07:52:08Z</time>
      </trkpt>
      <trkpt lat="46.53184" lon="7.92687">
        <ele>2071.5</ele>
        <time>2022-09-21T07:52:10Z</time>
      </trkpt>
      <trkpt lat="46.53184" lon="7.92688">
        <ele>2071.86</ele>
        <time>2022-09-21T07:52:12Z</time>
      </trkpt>
      <trkpt lat="46.53184" lon="7.9269">
        <ele>2071.85</ele>
        <time>2022-09-21T07:52:14Z</time>
      </trkpt>
      <trkpt lat="46.53185" lon="7.92692">
        <ele>2071.32</ele>
        <time>2022-09-21T07:52:17Z</time>
      </trkpt>
      <trkpt lat="46.53186" lon="7.92694">
        <ele>2070.13</ele>
        <time>2022-09-21T07:52:21Z</time>
      </trkpt>
      <trkpt lat="46.53186" lon="7.92696">
        <ele>2071.65</ele>
        <time>2022-09-21T07:52:24Z</time>
      </trkpt>
      <trkpt lat="46.53187" lon="7.92698">
        <ele>2072.91</ele>
        <time>2022-09-21T07:52:27Z</time>
      </trkpt>
      <trkpt lat="46.53188" lon="7.92698">
        <ele>2073.12</ele>
        <time>2022-09-21T07:52:29Z</time>
      </trkpt>
      <trkpt lat="46.53189" lon="7.92697">
        <ele>2073.42</ele>
        <time>2022-09-21T07:52:31Z</time>
      </trkpt>
      <trkpt lat="46.53191" lon="7.92697">
        <ele>2074.39</ele>
        <time>2022-09-21T07:52:33Z</time>
      </trkpt>
      <trkpt lat="46.53192" lon="7.92697">
        <ele>2074.64</ele>
        <time>2022-09-21T07:52:35Z</time>
      </trkpt>
      <trkpt lat="46.53194" lon="7.92697">
        <ele>2076.38</ele>
        <time>2022-09-21T07:52:36Z</time>
      </trkpt>
      <trkpt lat="46.53195" lon="7.92696">
        <ele>2076.55</ele>
        <time>2022-09-21T07:52:38Z</time>
      </trkpt>
      <trkpt lat="46.53196" lon="7.92695">
        <ele>2076.55</ele>
        <time>2022-09-21T07:52:39Z</time>
      </trkpt>
      <trkpt lat="46.53198" lon="7.92695">
        <ele>2075.6</ele>
        <time>2022-09-21T07:52:41Z</time>
      </trkpt>
      <trkpt lat="46.53199" lon="7.92695">
        <ele>2075.85</ele>
        <time>2022-09-21T07:52:43Z</time>
      </trkpt>
      <trkpt lat="46.53201" lon="7.92696">
        <ele>2077.52</ele>
        <time>2022-09-21T07:52:45Z</time>
      </trkpt>
      <trkpt lat="46.53202" lon="7.92696">
        <ele>2078.01</ele>
        <time>2022-09-21T07:52:47Z</time>
      </trkpt>
      <trkpt lat="46.53203" lon="7.92696">
        <ele>2077.89</ele>
        <time>2022-09-21T07:52:48Z</time>
      </trkpt>
      <trkpt lat="46.53204" lon="7.92696">
        <ele>2079.13</ele>
        <time>2022-09-21T07:52:49Z</time>
      </trkpt>
      <trkpt lat="46.53206" lon="7.92695">
        <ele>2080.45</ele>
        <time>2022-09-21T07:52:51Z</time>
      </trkpt>
      <trkpt lat="46.53207" lon="7.92695">
        <ele>2080.98</ele>
        <time>2022-09-21T07:52:52Z</time>
      </trkpt>
      <trkpt lat="46.53209" lon="7.92694">
        <ele>2081.93</ele>
        <time>2022-09-21T07:52:54Z</time>
      </trkpt>
      <trkpt lat="46.5321" lon="7.92694">
        <ele>2082.63</ele>
        <time>2022-09-21T07:52:55Z</time>
      </trkpt>
      <trkpt lat="46.53211" lon="7.92693">
        <ele>2083.04</ele>
        <time>2022-09-21T07:52:56Z</time>
      </trkpt>
      <trkpt lat="46.53212" lon="7.92693">
        <ele>2083.96</ele>
        <time>2022-09-21T07:52:58Z</time>
      </trkpt>
      <trkpt lat="46.53213" lon="7.92692">
        <ele>2083.34</ele>
        <time>2022-09-21T07:53:00Z</time>
      </trkpt>
      <trkpt lat="46.53214" lon="7.92693">
        <ele>2083.38</ele>
        <time>2022-09-21T07:53:03Z</time>
      </trkpt>
      <trkpt lat="46.53216" lon="7.92693">
        <ele>2083.77</ele>
        <time>2022-09-21T07:53:05Z</time>
      </trkpt>
      <trkpt lat="46.53217" lon="7.92693">
        <ele>2084.31</ele>
        <time>2022-09-21T07:53:07Z</time>
      </trkpt>
      <trkpt lat="46.53219" lon="7.92694">
        <ele>2085.2</ele>
        <time>2022-09-21T07:53:09Z</time>
      </trkpt>
      <trkpt lat="46.5322" lon="7.92694">
        <ele>2086.09</ele>
        <time>2022-09-21T07:53:11Z</time>
      </trkpt>
      <trkpt lat="46.53222" lon="7.92693">
        <ele>2087.19</ele>
        <time>2022-09-21T07:53:13Z</time>
      </trkpt>
      <trkpt lat="46.53223" lon="7.92692">
        <ele>2087.08</ele>
        <time>2022-09-21T07:53:15Z</time>
      </trkpt>
      <trkpt lat="46.53224" lon="7.9269">
        <ele>2088.15</ele>
        <time>2022-09-21T07:53:18Z</time>
      </trkpt>
      <trkpt lat="46.53225" lon="7.9269">
        <ele>2088.43</ele>
        <time>2022-09-21T07:53:20Z</time>
      </trkpt>
      <trkpt lat="46.53226" lon="7.92688">
        <ele>2087.3</ele>
        <time>2022-09-21T07:53:22Z</time>
      </trkpt>
      <trkpt lat="46.53227" lon="7.92687">
        <ele>2086.73</ele>
        <time>2022-09-21T07:53:23Z</time>
      </trkpt>
      <trkpt lat="46.53228" lon="7.92686">
        <ele>2086.05</ele>
        <time>2022-09-21T07:53:25Z</time>
      </trkpt>
      <trkpt lat="46.53229" lon="7.92685">
        <ele>2086.3</ele>
        <time>2022-09-21T07:53:26Z</time>
      </trkpt>
      <trkpt lat="46.5323" lon="7.92684">
        <ele>2087.01</ele>
        <time>2022-09-21T07:53:27Z</time>
      </trkpt>
      <trkpt lat="46.53231" lon="7.92683">
        <ele>2087.66</ele>
        <time>2022-09-21T07:53:29Z</time>
      </trkpt>
      <trkpt lat="46.53233" lon="7.92681">
        <ele>2088.01</ele>
        <time>2022-09-21T07:53:31Z</time>
      </trkpt>
      <trkpt lat="46.53234" lon="7.92681">
        <ele>2088.21</ele>
        <time>2022-09-21T07:53:32Z</time>
      </trkpt>
      <trkpt lat="46.53235" lon="7.92681">
        <ele>2090.28</ele>
        <time>2022-09-21T07:53:34Z</time>
      </trkpt>
      <trkpt lat="46.53237" lon="7.9268">
        <ele>2091.45</ele>
        <time>2022-09-21T07:53:36Z</time>
      </trkpt>
      <trkpt lat="46.53238" lon="7.92679">
        <ele>2091.06</ele>
        <time>2022-09-21T07:53:38Z</time>
      </trkpt>
      <trkpt lat="46.53239" lon="7.92678">
        <ele>2091.48</ele>
        <time>2022-09-21T07:53:40Z</time>
      </trkpt>
      <trkpt lat="46.5324" lon="7.92677">
        <ele>2092.17</ele>
        <time>2022-09-21T07:53:42Z</time>
      </trkpt>
      <trkpt lat="46.53241" lon="7.92676">
        <ele>2093.92</ele>
        <time>2022-09-21T07:53:44Z</time>
      </trkpt>
      <trkpt lat="46.53243" lon="7.92675">
        <ele>2094.77</ele>
        <time>2022-09-21T07:53:46Z</time>
      </trkpt>
      <trkpt lat="46.53244" lon="7.92674">
        <ele>2094.71</ele>
        <time>2022-09-21T07:53:48Z</time>
      </trkpt>
      <trkpt lat="46.53245" lon="7.92673">
        <ele>2094.47</ele>
        <time>2022-09-21T07:53:50Z</time>
      </trkpt>
      <trkpt lat="46.53246" lon="7.92672">
        <ele>2095.03</ele>
        <time>2022-09-21T07:53:52Z</time>
      </trkpt>
      <trkpt lat="46.53247" lon="7.92671">
        <ele>2095.89</ele>
        <time>2022-09-21T07:53:54Z</time>
      </trkpt>
      <trkpt lat="46.53249" lon="7.92671">
        <ele>2097.98</ele>
        <time>2022-09-21T07:53:56Z</time>
      </trkpt>
      <trkpt lat="46.5325" lon="7.9267">
        <ele>2099.29</ele>
        <time>2022-09-21T07:53:58Z</time>
      </trkpt>
      <trkpt lat="46.53251" lon="7.92668">
        <ele>2097.33</ele>
        <time>2022-09-21T07:54:00Z</time>
      </trkpt>
      <trkpt lat="46.53251" lon="7.92667">
        <ele>2097.98</ele>
        <time>2022-09-21T07:54:01Z</time>
      </trkpt>
      <trkpt lat="46.53251" lon="7.92665">
        <ele>2098.01</ele>
        <time>2022-09-21T07:54:02Z</time>
      </trkpt>
      <trkpt lat="46.53252" lon="7.92664">
        <ele>2097.06</ele>
        <time>2022-09-21T07:54:03Z</time>
      </trkpt>
      <trkpt lat="46.53253" lon="7.92663">
        <ele>2097.96</ele>
        <time>2022-09-21T07:54:05Z</time>
      </trkpt>
      <trkpt lat="46.53255" lon="7.92662">
        <ele>2097.84</ele>
        <time>2022-09-21T07:54:07Z</time>
      </trkpt>
      <trkpt lat="46.53256" lon="7.9266">
        <ele>2097.96</ele>
        <time>2022-09-21T07:54:09Z</time>
      </trkpt>
      <trkpt lat="46.53258" lon="7.92659">
        <ele>2098.85</ele>
        <time>2022-09-21T07:54:11Z</time>
      </trkpt>
      <trkpt lat="46.53258" lon="7.92657">
        <ele>2098.79</ele>
        <time>2022-09-21T07:54:13Z</time>
      </trkpt>
      <trkpt lat="46.53258" lon="7.92656">
        <ele>2098.62</ele>
        <time>2022-09-21T07:54:15Z</time>
      </trkpt>
      <trkpt lat="46.53258" lon="7.92655">
        <ele>2099.13</ele>
        <time>2022-09-21T07:54:17Z</time>
      </trkpt>
      <trkpt lat="46.53259" lon="7.92653">
        <ele>2100.45</ele>
        <time>2022-09-21T07:54:20Z</time>
      </trkpt>
      <trkpt lat="46.53259" lon="7.92652">
        <ele>2099.69</ele>
        <time>2022-09-21T07:54:22Z</time>
      </trkpt>
      <trkpt lat="46.5326" lon="7.92651">
        <ele>2098.41</ele>
        <time>2022-09-21T07:54:24Z</time>
      </trkpt>
      <trkpt lat="46.53261" lon="7.92649">
        <ele>2097.46</ele>
        <time>2022-09-21T07:54:26Z</time>
      </trkpt>
      <trkpt lat="46.53262" lon="7.92648">
        <ele>2096.09</ele>
        <time>2022-09-21T07:54:28Z</time>
      </trkpt>
      <trkpt lat="46.53262" lon="7.92647">
        <ele>2095.1</ele>
        <time>2022-09-21T07:54:32Z</time>
      </trkpt>
      <trkpt lat="46.53262" lon="7.92645">
        <ele>2093.98</ele>
        <time>2022-09-21T07:54:34Z</time>
      </trkpt>
      <trkpt lat="46.53263" lon="7.92645">
        <ele>2096.7</ele>
        <time>2022-09-21T07:54:37Z</time>
      </trkpt>
      <trkpt lat="46.53265" lon="7.92645">
        <ele>2097.92</ele>
        <time>2022-09-21T07:54:39Z</time>
      </trkpt>
      <trkpt lat="46.53266" lon="7.92645">
        <ele>2098.94</ele>
        <time>2022-09-21T07:54:40Z</time>
      </trkpt>
      <trkpt lat="46.53265" lon="7.92643">
        <ele>2101.21</ele>
        <time>2022-09-21T07:54:43Z</time>
      </trkpt>
      <trkpt lat="46.53265" lon="7.92641">
        <ele>2101.5</ele>
        <time>2022-09-21T07:54:45Z</time>
      </trkpt>
      <trkpt lat="46.53264" lon="7.92639">
        <ele>2101.45</ele>
        <time>2022-09-21T07:54:47Z</time>
      </trkpt>
      <trkpt lat="46.53264" lon="7.92637">
        <ele>2100.26</ele>
        <time>2022-09-21T07:54:49Z</time>
      </trkpt>
      <trkpt lat="46.53264" lon="7.92634">
        <ele>2100.31</ele>
        <time>2022-09-21T07:54:51Z</time>
      </trkpt>
      <trkpt lat="46.53265" lon="7.92632">
        <ele>2100.06</ele>
        <time>2022-09-21T07:54:53Z</time>
      </trkpt>
      <trkpt lat="46.53266" lon="7.92631">
        <ele>2100.94</ele>
        <time>2022-09-21T07:54:54Z</time>
      </trkpt>
      <trkpt lat="46.53267" lon="7.9263">
        <ele>2100.96</ele>
        <time>2022-09-21T07:54:55Z</time>
      </trkpt>
      <trkpt lat="46.53267" lon="7.92629">
        <ele>2101.65</ele>
        <time>2022-09-21T07:54:56Z</time>
      </trkpt>
      <trkpt lat="46.53268" lon="7.92629">
        <ele>2101.85</ele>
        <time>2022-09-21T07:54:57Z</time>
      </trkpt>
      <trkpt lat="46.53269" lon="7.92628">
        <ele>2102.28</ele>
        <time>2022-09-21T07:54:59Z</time>
      </trkpt>
      <trkpt lat="46.5327" lon="7.92626">
        <ele>2102.11</ele>
        <time>2022-09-21T07:55:01Z</time>
      </trkpt>
      <trkpt lat="46.53271" lon="7.92626">
        <ele>2102.91</ele>
        <time>2022-09-21T07:55:03Z</time>
      </trkpt>
      <trkpt lat="46.53273" lon="7.92626">
        <ele>2104.1</ele>
        <time>2022-09-21T07:55:05Z</time>
      </trkpt>
      <trkpt lat="46.53274" lon="7.92626">
        <ele>2105.37</ele>
        <time>2022-09-21T07:55:07Z</time>
      </trkpt>
      <trkpt lat="46.53276" lon="7.92626">
        <ele>2106.08</ele>
        <time>2022-09-21T07:55:09Z</time>
      </trkpt>
      <trkpt lat="46.53277" lon="7.92627">
        <ele>2106.68</ele>
        <time>2022-09-21T07:55:11Z</time>
      </trkpt>
      <trkpt lat="46.53278" lon="7.92628">
        <ele>2106.41</ele>
        <time>2022-09-21T07:55:13Z</time>
      </trkpt>
      <trkpt lat="46.53279" lon="7.92629">
        <ele>2107.1</ele>
        <time>2022-09-21T07:55:15Z</time>
      </trkpt>
      <trkpt lat="46.5328" lon="7.92629">
        <ele>2106.95</ele>
        <time>2022-09-21T07:55:16Z</time>
      </trkpt>
      <trkpt lat="46.53281" lon="7.92629">
        <ele>2107.02</ele>
        <time>2022-09-21T07:55:17Z</time>
      </trkpt>
      <trkpt lat="46.53282" lon="7.92629">
        <ele>2107.05</ele>
        <time>2022-09-21T07:55:18Z</time>
      </trkpt>
      <trkpt lat="46.53283" lon="7.92629">
        <ele>2107.37</ele>
        <time>2022-09-21T07:55:19Z</time>
      </trkpt>
      <trkpt lat="46.53284" lon="7.92628">
        <ele>2107.71</ele>
        <time>2022-09-21T07:55:20Z</time>
      </trkpt>
      <trkpt lat="46.53285" lon="7.92628">
        <ele>2107.65</ele>
        <time>2022-09-21T07:55:21Z</time>
      </trkpt>
      <trkpt lat="46.53286" lon="7.92628">
        <ele>2108.64</ele>
        <time>2022-09-21T07:55:22Z</time>
      </trkpt>
      <trkpt lat="46.53288" lon="7.92629">
        <ele>2107.88</ele>
        <time>2022-09-21T07:55:23Z</time>
      </trkpt>
      <trkpt lat="46.53289" lon="7.9263">
        <ele>2107.79</ele>
        <time>2022-09-21T07:55:25Z</time>
      </trkpt>
      <trkpt lat="46.5329" lon="7.92631">
        <ele>2107.88</ele>
        <time>2022-09-21T07:55:27Z</time>
      </trkpt>
      <trkpt lat="46.5329" lon="7.92632">
        <ele>2109.08</ele>
        <time>2022-09-21T07:55:29Z</time>
      </trkpt>
      <trkpt lat="46.53292" lon="7.92633">
        <ele>2111.09</ele>
        <time>2022-09-21T07:55:31Z</time>
      </trkpt>
      <trkpt lat="46.53292" lon="7.92634">
        <ele>2111.3</ele>
        <time>2022-09-21T07:55:33Z</time>
      </trkpt>
      <trkpt lat="46.53293" lon="7.92635">
        <ele>2111.59</ele>
        <time>2022-09-21T07:55:35Z</time>
      </trkpt>
      <trkpt lat="46.53294" lon="7.92637">
        <ele>2111.75</ele>
        <time>2022-09-21T07:55:37Z</time>
      </trkpt>
      <trkpt lat="46.53296" lon="7.92638">
        <ele>2111.17</ele>
        <time>2022-09-21T07:55:39Z</time>
      </trkpt>
      <trkpt lat="46.53297" lon="7.92639">
        <ele>2112.49</ele>
        <time>2022-09-21T07:55:40Z</time>
      </trkpt>
      <trkpt lat="46.53298" lon="7.9264">
        <ele>2113.64</ele>
        <time>2022-09-21T07:55:41Z</time>
      </trkpt>
      <trkpt lat="46.53299" lon="7.92641">
        <ele>2113.22</ele>
        <time>2022-09-21T07:55:42Z</time>
      </trkpt>
      <trkpt lat="46.533" lon="7.92642">
        <ele>2113.31</ele>
        <time>2022-09-21T07:55:43Z</time>
      </trkpt>
      <trkpt lat="46.53301" lon="7.92643">
        <ele>2113.25</ele>
        <time>2022-09-21T07:55:44Z</time>
      </trkpt>
      <trkpt lat="46.53302" lon="7.92644">
        <ele>2113.02</ele>
        <time>2022-09-21T07:55:45Z</time>
      </trkpt>
      <trkpt lat="46.53303" lon="7.92645">
        <ele>2114.42</ele>
        <time>2022-09-21T07:55:47Z</time>
      </trkpt>
      <trkpt lat="46.53304" lon="7.92646">
        <ele>2114.79</ele>
        <time>2022-09-21T07:55:48Z</time>
      </trkpt>
      <trkpt lat="46.53305" lon="7.92646">
        <ele>2115.6</ele>
        <time>2022-09-21T07:55:49Z</time>
      </trkpt>
      <trkpt lat="46.53306" lon="7.92648">
        <ele>2116.84</ele>
        <time>2022-09-21T07:55:51Z</time>
      </trkpt>
      <trkpt lat="46.53307" lon="7.92649">
        <ele>2116.68</ele>
        <time>2022-09-21T07:55:52Z</time>
      </trkpt>
      <trkpt lat="46.53308" lon="7.92649">
        <ele>2116.02</ele>
        <time>2022-09-21T07:55:53Z</time>
      </trkpt>
      <trkpt lat="46.53309" lon="7.9265">
        <ele>2115.83</ele>
        <time>2022-09-21T07:55:55Z</time>
      </trkpt>
      <trkpt lat="46.5331" lon="7.92651">
        <ele>2115.51</ele>
        <time>2022-09-21T07:55:57Z</time>
      </trkpt>
      <trkpt lat="46.53312" lon="7.92652">
        <ele>2115.16</ele>
        <time>2022-09-21T07:55:59Z</time>
      </trkpt>
      <trkpt lat="46.53313" lon="7.92653">
        <ele>2114.05</ele>
        <time>2022-09-21T07:56:00Z</time>
      </trkpt>
      <trkpt lat="46.53314" lon="7.92653">
        <ele>2114.62</ele>
        <time>2022-09-21T07:56:01Z</time>
      </trkpt>
      <trkpt lat="46.53315" lon="7.92654">
        <ele>2115.7</ele>
        <time>2022-09-21T07:56:02Z</time>
      </trkpt>
      <trkpt lat="46.53316" lon="7.92655">
        <ele>2115.07</ele>
        <time>2022-09-21T07:56:03Z</time>
      </trkpt>
      <trkpt lat="46.53317" lon="7.92657">
        <ele>2114.93</ele>
        <time>2022-09-21T07:56:04Z</time>
      </trkpt>
      <trkpt lat="46.53318" lon="7.92658">
        <ele>2114.33</ele>
        <time>2022-09-21T07:56:05Z</time>
      </trkpt>
      <trkpt lat="46.53319" lon="7.92659">
        <ele>2114.34</ele>
        <time>2022-09-21T07:56:06Z</time>
      </trkpt>
      <trkpt lat="46.53319" lon="7.9266">
        <ele>2114.59</ele>
        <time>2022-09-21T07:56:07Z</time>
      </trkpt>
      <trkpt lat="46.5332" lon="7.92661">
        <ele>2113.47</ele>
        <time>2022-09-21T07:56:08Z</time>
      </trkpt>
      <trkpt lat="46.53321" lon="7.92662">
        <ele>2113.24</ele>
        <time>2022-09-21T07:56:09Z</time>
      </trkpt>
      <trkpt lat="46.53322" lon="7.92662">
        <ele>2112.33</ele>
        <time>2022-09-21T07:56:10Z</time>
      </trkpt>
      <trkpt lat="46.53323" lon="7.92663">
        <ele>2112.93</ele>
        <time>2022-09-21T07:56:11Z</time>
      </trkpt>
      <trkpt lat="46.53324" lon="7.92664">
        <ele>2113.56</ele>
        <time>2022-09-21T07:56:12Z</time>
      </trkpt>
      <trkpt lat="46.53326" lon="7.92664">
        <ele>2114.04</ele>
        <time>2022-09-21T07:56:13Z</time>
      </trkpt>
      <trkpt lat="46.53327" lon="7.92664">
        <ele>2114.14</ele>
        <time>2022-09-21T07:56:14Z</time>
      </trkpt>
      <trkpt lat="46.53328" lon="7.92665">
        <ele>2114.03</ele>
        <time>2022-09-21T07:56:15Z</time>
      </trkpt>
      <trkpt lat="46.5333" lon="7.92666">
        <ele>2114.25</ele>
        <time>2022-09-21T07:56:16Z</time>
      </trkpt>
      <trkpt lat="46.53331" lon="7.92666">
        <ele>2114.16</ele>
        <time>2022-09-21T07:56:17Z</time>
      </trkpt>
      <trkpt lat="46.53332" lon="7.92667">
        <ele>2114.29</ele>
        <time>2022-09-21T07:56:18Z</time>
      </trkpt>
      <trkpt lat="46.53334" lon="7.92667">
        <ele>2114.77</ele>
        <time>2022-09-21T07:56:19Z</time>
      </trkpt>
      <trkpt lat="46.53335" lon="7.92668">
        <ele>2114.88</ele>
        <time>2022-09-21T07:56:20Z</time>
      </trkpt>
      <trkpt lat="46.53336" lon="7.92669">
        <ele>2113.85</ele>
        <time>2022-09-21T07:56:21Z</time>
      </trkpt>
      <trkpt lat="46.53338" lon="7.92669">
        <ele>2113.53</ele>
        <time>2022-09-21T07:56:22Z</time>
      </trkpt>
      <trkpt lat="46.5334" lon="7.9267">
        <ele>2113.51</ele>
        <time>2022-09-21T07:56:23Z</time>
      </trkpt>
      <trkpt lat="46.53341" lon="7.92671">
        <ele>1939.45</ele>
        <time>2022-09-21T07:56:24Z</time>
      </trkpt>
      <trkpt lat="46.53343" lon="7.92671">
        <ele>1976.01</ele>
        <time>2022-09-21T07:56:25Z</time>
      </trkpt>
      <trkpt lat="46.53344" lon="7.92672">
        <ele>2006.96</ele>
        <time>2022-09-21T07:56:26Z</time>
      </trkpt>
      <trkpt lat="46.53345" lon="7.92673">
        <ele>2025.99</ele>
        <time>2022-09-21T07:56:27Z</time>
      </trkpt>
      <trkpt lat="46.53346" lon="7.92673">
        <ele>2046.77</ele>
        <time>2022-09-21T07:56:28Z</time>
      </trkpt>
      <trkpt lat="46.53347" lon="7.92674">
        <ele>2049.85</ele>
        <time>2022-09-21T07:56:29Z</time>
      </trkpt>
      <trkpt lat="46.53348" lon="7.92674">
        <ele>2058.51</ele>
        <time>2022-09-21T07:56:30Z</time>
      </trkpt>
      <trkpt lat="46.53352" lon="7.9268">
        <ele>2071.05</ele>
        <time>2022-09-21T07:56:35Z</time>
      </trkpt>
      <trkpt lat="46.5335" lon="7.9268">
        <ele>2081.1</ele>
        <time>2022-09-21T07:56:37Z</time>
      </trkpt>
      <trkpt lat="46.53351" lon="7.9268">
        <ele>2080.61</ele>
        <time>2022-09-21T07:56:39Z</time>
      </trkpt>
      <trkpt lat="46.53351" lon="7.92678">
        <ele>2080.17</ele>
        <time>2022-09-21T07:56:40Z</time>
      </trkpt>
      <trkpt lat="46.53351" lon="7.92677">
        <ele>2080.13</ele>
        <time>2022-09-21T07:56:41Z</time>
      </trkpt>
      <trkpt lat="46.5335" lon="7.92675">
        <ele>2082.9</ele>
        <time>2022-09-21T07:56:42Z</time>
      </trkpt>
      <trkpt lat="46.5335" lon="7.92673">
        <ele>2083.45</ele>
        <time>2022-09-21T07:56:43Z</time>
      </trkpt>
      <trkpt lat="46.5335" lon="7.92675">
        <ele>2092.44</ele>
        <time>2022-09-21T07:56:45Z</time>
      </trkpt>
      <trkpt lat="46.53348" lon="7.92676">
        <ele>2099.44</ele>
        <time>2022-09-21T07:56:47Z</time>
      </trkpt>
      <trkpt lat="46.53346" lon="7.92677">
        <ele>2101.37</ele>
        <time>2022-09-21T07:56:48Z</time>
      </trkpt>
      <trkpt lat="46.53344" lon="7.92677">
        <ele>2103.23</ele>
        <time>2022-09-21T07:56:49Z</time>
      </trkpt>
      <trkpt lat="46.53343" lon="7.92677">
        <ele>2103.86</ele>
        <time>2022-09-21T07:56:50Z</time>
      </trkpt>
      <trkpt lat="46.53344" lon="7.92679">
        <ele>2108.57</ele>
        <time>2022-09-21T07:56:54Z</time>
      </trkpt>
      <trkpt lat="46.53345" lon="7.9268">
        <ele>2112.46</ele>
        <time>2022-09-21T07:57:02Z</time>
      </trkpt>
      <trkpt lat="46.53345" lon="7.92681">
        <ele>2113.89</ele>
        <time>2022-09-21T07:57:04Z</time>
      </trkpt>
      <trkpt lat="46.53346" lon="7.92683">
        <ele>2113.63</ele>
        <time>2022-09-21T07:57:06Z</time>
      </trkpt>
      <trkpt lat="46.53348" lon="7.92683">
        <ele>2111.44</ele>
        <time>2022-09-21T07:57:08Z</time>
      </trkpt>
      <trkpt lat="46.53348" lon="7.92684">
        <ele>2111.68</ele>
        <time>2022-09-21T07:57:09Z</time>
      </trkpt>
      <trkpt lat="46.53349" lon="7.92685">
        <ele>2110.88</ele>
        <time>2022-09-21T07:57:11Z</time>
      </trkpt>
      <trkpt lat="46.53351" lon="7.92685">
        <ele>2109.85</ele>
        <time>2022-09-21T07:57:13Z</time>
      </trkpt>
      <trkpt lat="46.53353" lon="7.92684">
        <ele>2109.03</ele>
        <time>2022-09-21T07:57:15Z</time>
      </trkpt>
      <trkpt lat="46.53354" lon="7.92683">
        <ele>2109.73</ele>
        <time>2022-09-21T07:57:16Z</time>
      </trkpt>
      <trkpt lat="46.53354" lon="7.92682">
        <ele>2111.48</ele>
        <time>2022-09-21T07:57:18Z</time>
      </trkpt>
      <trkpt lat="46.53355" lon="7.9268">
        <ele>2113.56</ele>
        <time>2022-09-21T07:57:21Z</time>
      </trkpt>
      <trkpt lat="46.53354" lon="7.92678">
        <ele>2115.1</ele>
        <time>2022-09-21T07:57:23Z</time>
      </trkpt>
      <trkpt lat="46.53354" lon="7.92676">
        <ele>2116.73</ele>
        <time>2022-09-21T07:57:25Z</time>
      </trkpt>
      <trkpt lat="46.53354" lon="7.92674">
        <ele>2118.79</ele>
        <time>2022-09-21T07:57:27Z</time>
      </trkpt>
      <trkpt lat="46.53355" lon="7.92674">
        <ele>2121.6</ele>
        <time>2022-09-21T07:57:33Z</time>
      </trkpt>
      <trkpt lat="46.53357" lon="7.92674">
        <ele>2120.65</ele>
        <time>2022-09-21T07:57:35Z</time>
      </trkpt>
      <trkpt lat="46.53359" lon="7.92674">
        <ele>2119.39</ele>
        <time>2022-09-21T07:57:37Z</time>
      </trkpt>
      <trkpt lat="46.5336" lon="7.92673">
        <ele>2120.58</ele>
        <time>2022-09-21T07:57:38Z</time>
      </trkpt>
      <trkpt lat="46.53361" lon="7.92673">
        <ele>2120.29</ele>
        <time>2022-09-21T07:57:40Z</time>
      </trkpt>
      <trkpt lat="46.53362" lon="7.92672">
        <ele>2121.28</ele>
        <time>2022-09-21T07:57:44Z</time>
      </trkpt>
      <trkpt lat="46.53361" lon="7.92671">
        <ele>2123.98</ele>
        <time>2022-09-21T07:57:47Z</time>
      </trkpt>
      <trkpt lat="46.53362" lon="7.92671">
        <ele>2123.32</ele>
        <time>2022-09-21T07:57:51Z</time>
      </trkpt>
      <trkpt lat="46.53363" lon="7.9267">
        <ele>2121.75</ele>
        <time>2022-09-21T07:57:53Z</time>
      </trkpt>
      <trkpt lat="46.53363" lon="7.92669">
        <ele>2123.04</ele>
        <time>2022-09-21T07:57:56Z</time>
      </trkpt>
      <trkpt lat="46.53362" lon="7.92668">
        <ele>2123.71</ele>
        <time>2022-09-21T07:57:58Z</time>
      </trkpt>
      <trkpt lat="46.53363" lon="7.92668">
        <ele>2124.15</ele>
        <time>2022-09-21T07:58:01Z</time>
      </trkpt>
      <trkpt lat="46.53364" lon="7.92669">
        <ele>2120.99</ele>
        <time>2022-09-21T07:58:14Z</time>
      </trkpt>
      <trkpt lat="46.53365" lon="7.9267">
        <ele>2120.75</ele>
        <time>2022-09-21T07:58:17Z</time>
      </trkpt>
      <trkpt lat="46.53366" lon="7.92669">
        <ele>2120.58</ele>
        <time>2022-09-21T07:58:22Z</time>
      </trkpt>
      <trkpt lat="46.53366" lon="7.92668">
        <ele>2122.78</ele>
        <time>2022-09-21T07:58:24Z</time>
      </trkpt>
      <trkpt lat="46.53365" lon="7.92667">
        <ele>2120.31</ele>
        <time>2022-09-21T07:58:35Z</time>
      </trkpt>
      <trkpt lat="46.53366" lon="7.92664">
        <ele>2120.37</ele>
        <time>2022-09-21T07:58:37Z</time>
      </trkpt>
      <trkpt lat="46.53366" lon="7.92662">
        <ele>2120.23</ele>
        <time>2022-09-21T07:58:39Z</time>
      </trkpt>
      <trkpt lat="46.53367" lon="7.92661">
        <ele>2120.88</ele>
        <time>2022-09-21T07:58:41Z</time>
      </trkpt>
      <trkpt lat="46.53368" lon="7.92659">
        <ele>2120.86</ele>
        <time>2022-09-21T07:58:43Z</time>
      </trkpt>
      <trkpt lat="46.53369" lon="7.92658">
        <ele>2121.1</ele>
        <time>2022-09-21T07:58:44Z</time>
      </trkpt>
      <trkpt lat="46.53369" lon="7.92656">
        <ele>2121.26</ele>
        <time>2022-09-21T07:58:46Z</time>
      </trkpt>
      <trkpt lat="46.53369" lon="7.92655">
        <ele>2120.41</ele>
        <time>2022-09-21T07:58:49Z</time>
      </trkpt>
      <trkpt lat="46.5337" lon="7.92653">
        <ele>2120.14</ele>
        <time>2022-09-21T07:58:51Z</time>
      </trkpt>
      <trkpt lat="46.53371" lon="7.92652">
        <ele>2120.07</ele>
        <time>2022-09-21T07:58:52Z</time>
      </trkpt>
      <trkpt lat="46.53371" lon="7.92651">
        <ele>2119.82</ele>
        <time>2022-09-21T07:58:53Z</time>
      </trkpt>
      <trkpt lat="46.53372" lon="7.92649">
        <ele>2119.23</ele>
        <time>2022-09-21T07:58:55Z</time>
      </trkpt>
      <trkpt lat="46.53374" lon="7.92648">
        <ele>2118.17</ele>
        <time>2022-09-21T07:58:57Z</time>
      </trkpt>
      <trkpt lat="46.53375" lon="7.92648">
        <ele>2118.57</ele>
        <time>2022-09-21T07:58:58Z</time>
      </trkpt>
      <trkpt lat="46.53376" lon="7.92648">
        <ele>2118.66</ele>
        <time>2022-09-21T07:58:59Z</time>
      </trkpt>
      <trkpt lat="46.53377" lon="7.92648">
        <ele>2118.63</ele>
        <time>2022-09-21T07:59:00Z</time>
      </trkpt>
      <trkpt lat="46.53378" lon="7.92648">
        <ele>2118.65</ele>
        <time>2022-09-21T07:59:01Z</time>
      </trkpt>
      <trkpt lat="46.5338" lon="7.92648">
        <ele>2119</ele>
        <time>2022-09-21T07:59:03Z</time>
      </trkpt>
      <trkpt lat="46.53381" lon="7.92648">
        <ele>2119.3</ele>
        <time>2022-09-21T07:59:04Z</time>
      </trkpt>
      <trkpt lat="46.53382" lon="7.92647">
        <ele>2118.58</ele>
        <time>2022-09-21T07:59:05Z</time>
      </trkpt>
      <trkpt lat="46.53383" lon="7.92646">
        <ele>2117.82</ele>
        <time>2022-09-21T07:59:06Z</time>
      </trkpt>
      <trkpt lat="46.53385" lon="7.92644">
        <ele>2116.34</ele>
        <time>2022-09-21T07:59:08Z</time>
      </trkpt>
      <trkpt lat="46.53386" lon="7.92643">
        <ele>2116.1</ele>
        <time>2022-09-21T07:59:10Z</time>
      </trkpt>
      <trkpt lat="46.53386" lon="7.92642">
        <ele>2116.21</ele>
        <time>2022-09-21T07:59:11Z</time>
      </trkpt>
      <trkpt lat="46.53388" lon="7.92641">
        <ele>2116.33</ele>
        <time>2022-09-21T07:59:14Z</time>
      </trkpt>
      <trkpt lat="46.53388" lon="7.9264">
        <ele>2115.92</ele>
        <time>2022-09-21T07:59:16Z</time>
      </trkpt>
      <trkpt lat="46.53389" lon="7.92638">
        <ele>2116.47</ele>
        <time>2022-09-21T07:59:18Z</time>
      </trkpt>
      <trkpt lat="46.5339" lon="7.92638">
        <ele>2115.94</ele>
        <time>2022-09-21T07:59:21Z</time>
      </trkpt>
      <trkpt lat="46.5339" lon="7.92636">
        <ele>2117.6</ele>
        <time>2022-09-21T07:59:29Z</time>
      </trkpt>
      <trkpt lat="46.53389" lon="7.92635">
        <ele>2118.69</ele>
        <time>2022-09-21T07:59:30Z</time>
      </trkpt>
      <trkpt lat="46.53388" lon="7.92634">
        <ele>2118.68</ele>
        <time>2022-09-21T07:59:32Z</time>
      </trkpt>
      <trkpt lat="46.53387" lon="7.92634">
        <ele>2120.31</ele>
        <time>2022-09-21T07:59:36Z</time>
      </trkpt>
      <trkpt lat="46.53386" lon="7.92634">
        <ele>2119.04</ele>
        <time>2022-09-21T07:59:39Z</time>
      </trkpt>
      <trkpt lat="46.53385" lon="7.92634">
        <ele>2119.35</ele>
        <time>2022-09-21T07:59:53Z</time>
      </trkpt>
      <trkpt lat="46.53383" lon="7.92633">
        <ele>2120.59</ele>
        <time>2022-09-21T07:59:54Z</time>
      </trkpt>
      <trkpt lat="46.53382" lon="7.92633">
        <ele>2121.23</ele>
        <time>2022-09-21T07:59:55Z</time>
      </trkpt>
      <trkpt lat="46.53382" lon="7.92632">
        <ele>2121.43</ele>
        <time>2022-09-21T07:59:58Z</time>
      </trkpt>
      <trkpt lat="46.53383" lon="7.92631">
        <ele>2122.37</ele>
        <time>2022-09-21T07:59:59Z</time>
      </trkpt>
      <trkpt lat="46.53384" lon="7.92631">
        <ele>2122.69</ele>
        <time>2022-09-21T08:00:00Z</time>
      </trkpt>
      <trkpt lat="46.53385" lon="7.92629">
        <ele>2123.32</ele>
        <time>2022-09-21T08:00:03Z</time>
      </trkpt>
      <trkpt lat="46.53384" lon="7.92628">
        <ele>2123.83</ele>
        <time>2022-09-21T08:00:04Z</time>
      </trkpt>
      <trkpt lat="46.53384" lon="7.92626">
        <ele>2124.42</ele>
        <time>2022-09-21T08:00:05Z</time>
      </trkpt>
      <trkpt lat="46.53384" lon="7.92623">
        <ele>2124.77</ele>
        <time>2022-09-21T08:00:06Z</time>
      </trkpt>
      <trkpt lat="46.53384" lon="7.92621">
        <ele>2124.91</ele>
        <time>2022-09-21T08:00:07Z</time>
      </trkpt>
      <trkpt lat="46.53384" lon="7.9262">
        <ele>2124.91</ele>
        <time>2022-09-21T08:00:08Z</time>
      </trkpt>
      <trkpt lat="46.53384" lon="7.92618">
        <ele>2125.19</ele>
        <time>2022-09-21T08:00:09Z</time>
      </trkpt>
      <trkpt lat="46.53384" lon="7.92617">
        <ele>2125.54</ele>
        <time>2022-09-21T08:00:10Z</time>
      </trkpt>
      <trkpt lat="46.53384" lon="7.92615">
        <ele>2124.92</ele>
        <time>2022-09-21T08:00:11Z</time>
      </trkpt>
      <trkpt lat="46.53385" lon="7.92614">
        <ele>2124.06</ele>
        <time>2022-09-21T08:00:12Z</time>
      </trkpt>
      <trkpt lat="46.53386" lon="7.92613">
        <ele>2123.49</ele>
        <time>2022-09-21T08:00:13Z</time>
      </trkpt>
      <trkpt lat="46.53386" lon="7.92612">
        <ele>2122.73</ele>
        <time>2022-09-21T08:00:14Z</time>
      </trkpt>
      <trkpt lat="46.53387" lon="7.9261">
        <ele>2122.87</ele>
        <time>2022-09-21T08:00:15Z</time>
      </trkpt>
      <trkpt lat="46.53387" lon="7.92609">
        <ele>2124.14</ele>
        <time>2022-09-21T08:00:16Z</time>
      </trkpt>
      <trkpt lat="46.53387" lon="7.92607">
        <ele>2123.48</ele>
        <time>2022-09-21T08:00:17Z</time>
      </trkpt>
      <trkpt lat="46.53386" lon="7.92606">
        <ele>2123.1</ele>
        <time>2022-09-21T08:00:18Z</time>
      </trkpt>
      <trkpt lat="46.53386" lon="7.92605">
        <ele>2123.54</ele>
        <time>2022-09-21T08:00:19Z</time>
      </trkpt>
      <trkpt lat="46.53386" lon="7.92602">
        <ele>2124.79</ele>
        <time>2022-09-21T08:00:21Z</time>
      </trkpt>
      <trkpt lat="46.53386" lon="7.92601">
        <ele>2125.2</ele>
        <time>2022-09-21T08:00:22Z</time>
      </trkpt>
      <trkpt lat="46.53387" lon="7.926">
        <ele>2124.56</ele>
        <time>2022-09-21T08:00:23Z</time>
      </trkpt>
      <trkpt lat="46.53387" lon="7.92598">
        <ele>2125.32</ele>
        <time>2022-09-21T08:00:24Z</time>
      </trkpt>
      <trkpt lat="46.53387" lon="7.92597">
        <ele>2125.92</ele>
        <time>2022-09-21T08:00:25Z</time>
      </trkpt>
      <trkpt lat="46.53388" lon="7.92595">
        <ele>2126.2</ele>
        <time>2022-09-21T08:00:26Z</time>
      </trkpt>
      <trkpt lat="46.53388" lon="7.92593">
        <ele>2125.91</ele>
        <time>2022-09-21T08:00:27Z</time>
      </trkpt>
      <trkpt lat="46.53388" lon="7.92591">
        <ele>2125.65</ele>
        <time>2022-09-21T08:00:28Z</time>
      </trkpt>
      <trkpt lat="46.53388" lon="7.92589">
        <ele>2125.25</ele>
        <time>2022-09-21T08:00:29Z</time>
      </trkpt>
      <trkpt lat="46.53388" lon="7.92587">
        <ele>2124.88</ele>
        <time>2022-09-21T08:00:30Z</time>
      </trkpt>
      <trkpt lat="46.53388" lon="7.92585">
        <ele>2125.44</ele>
        <time>2022-09-21T08:00:31Z</time>
      </trkpt>
      <trkpt lat="46.53388" lon="7.92583">
        <ele>2125.37</ele>
        <time>2022-09-21T08:00:32Z</time>
      </trkpt>
      <trkpt lat="46.53388" lon="7.92582">
        <ele>2125.14</ele>
        <time>2022-09-21T08:00:33Z</time>
      </trkpt>
      <trkpt lat="46.53389" lon="7.9258">
        <ele>2124.91</ele>
        <time>2022-09-21T08:00:34Z</time>
      </trkpt>
      <trkpt lat="46.53389" lon="7.92578">
        <ele>2125.42</ele>
        <time>2022-09-21T08:00:35Z</time>
      </trkpt>
      <trkpt lat="46.5339" lon="7.92576">
        <ele>2124.58</ele>
        <time>2022-09-21T08:00:36Z</time>
      </trkpt>
      <trkpt lat="46.5339" lon="7.92574">
        <ele>2124.79</ele>
        <time>2022-09-21T08:00:37Z</time>
      </trkpt>
      <trkpt lat="46.53391" lon="7.92576">
        <ele>2124.39</ele>
        <time>2022-09-21T08:00:42Z</time>
      </trkpt>
      <trkpt lat="46.5339" lon="7.92577">
        <ele>2124.6</ele>
        <time>2022-09-21T08:00:49Z</time>
      </trkpt>
      <trkpt lat="46.53389" lon="7.92577">
        <ele>2126.4</ele>
        <time>2022-09-21T08:00:50Z</time>
      </trkpt>
      <trkpt lat="46.53388" lon="7.92577">
        <ele>2127.75</ele>
        <time>2022-09-21T08:00:51Z</time>
      </trkpt>
      <trkpt lat="46.53387" lon="7.92577">
        <ele>2127.89</ele>
        <time>2022-09-21T08:00:52Z</time>
      </trkpt>
      <trkpt lat="46.53387" lon="7.92576">
        <ele>2128.11</ele>
        <time>2022-09-21T08:00:55Z</time>
      </trkpt>
      <trkpt lat="46.53387" lon="7.92574">
        <ele>2127.85</ele>
        <time>2022-09-21T08:00:56Z</time>
      </trkpt>
      <trkpt lat="46.53387" lon="7.92572">
        <ele>2127.37</ele>
        <time>2022-09-21T08:00:57Z</time>
      </trkpt>
      <trkpt lat="46.53387" lon="7.9257">
        <ele>2127.05</ele>
        <time>2022-09-21T08:00:59Z</time>
      </trkpt>
      <trkpt lat="46.53388" lon="7.92571">
        <ele>2126.03</ele>
        <time>2022-09-21T08:01:03Z</time>
      </trkpt>
      <trkpt lat="46.5339" lon="7.92569">
        <ele>2126.68</ele>
        <time>2022-09-21T08:01:15Z</time>
      </trkpt>
      <trkpt lat="46.53392" lon="7.92569">
        <ele>2127.24</ele>
        <time>2022-09-21T08:01:16Z</time>
      </trkpt>
      <trkpt lat="46.53393" lon="7.92567">
        <ele>2127.56</ele>
        <time>2022-09-21T08:01:18Z</time>
      </trkpt>
      <trkpt lat="46.53394" lon="7.92567">
        <ele>2127.46</ele>
        <time>2022-09-21T08:01:19Z</time>
      </trkpt>
      <trkpt lat="46.53396" lon="7.92566">
        <ele>2128.04</ele>
        <time>2022-09-21T08:01:20Z</time>
      </trkpt>
      <trkpt lat="46.53397" lon="7.92566">
        <ele>2128.66</ele>
        <time>2022-09-21T08:01:21Z</time>
      </trkpt>
      <trkpt lat="46.53398" lon="7.92565">
        <ele>2128.4</ele>
        <time>2022-09-21T08:01:22Z</time>
      </trkpt>
      <trkpt lat="46.534" lon="7.92564">
        <ele>2128.41</ele>
        <time>2022-09-21T08:01:23Z</time>
      </trkpt>
      <trkpt lat="46.53401" lon="7.92563">
        <ele>2127.9</ele>
        <time>2022-09-21T08:01:24Z</time>
      </trkpt>
      <trkpt lat="46.53401" lon="7.92562">
        <ele>2127.79</ele>
        <time>2022-09-21T08:01:25Z</time>
      </trkpt>
      <trkpt lat="46.53403" lon="7.92561">
        <ele>2128.46</ele>
        <time>2022-09-21T08:01:26Z</time>
      </trkpt>
      <trkpt lat="46.53404" lon="7.92559">
        <ele>2128.71</ele>
        <time>2022-09-21T08:01:27Z</time>
      </trkpt>
      <trkpt lat="46.53405" lon="7.92558">
        <ele>2128.28</ele>
        <time>2022-09-21T08:01:28Z</time>
      </trkpt>
      <trkpt lat="46.53407" lon="7.92557">
        <ele>2127.92</ele>
        <time>2022-09-21T08:01:29Z</time>
      </trkpt>
      <trkpt lat="46.53408" lon="7.92556">
        <ele>2128.21</ele>
        <time>2022-09-21T08:01:30Z</time>
      </trkpt>
      <trkpt lat="46.53409" lon="7.92555">
        <ele>2127.91</ele>
        <time>2022-09-21T08:01:31Z</time>
      </trkpt>
      <trkpt lat="46.53409" lon="7.92553">
        <ele>2128.4</ele>
        <time>2022-09-21T08:01:32Z</time>
      </trkpt>
      <trkpt lat="46.5341" lon="7.92552">
        <ele>2127.93</ele>
        <time>2022-09-21T08:01:33Z</time>
      </trkpt>
      <trkpt lat="46.53411" lon="7.92551">
        <ele>2127.36</ele>
        <time>2022-09-21T08:01:34Z</time>
      </trkpt>
      <trkpt lat="46.53411" lon="7.9255">
        <ele>2127.28</ele>
        <time>2022-09-21T08:01:35Z</time>
      </trkpt>
      <trkpt lat="46.53412" lon="7.92549">
        <ele>2127.28</ele>
        <time>2022-09-21T08:01:36Z</time>
      </trkpt>
      <trkpt lat="46.53413" lon="7.92548">
        <ele>2126.53</ele>
        <time>2022-09-21T08:01:37Z</time>
      </trkpt>
      <trkpt lat="46.53414" lon="7.92546">
        <ele>2126.34</ele>
        <time>2022-09-21T08:01:38Z</time>
      </trkpt>
      <trkpt lat="46.53414" lon="7.92544">
        <ele>2125.77</ele>
        <time>2022-09-21T08:01:39Z</time>
      </trkpt>
      <trkpt lat="46.53415" lon="7.92543">
        <ele>2125.8</ele>
        <time>2022-09-21T08:01:40Z</time>
      </trkpt>
      <trkpt lat="46.53416" lon="7.92541">
        <ele>2125.78</ele>
        <time>2022-09-21T08:01:41Z</time>
      </trkpt>
      <trkpt lat="46.53417" lon="7.9254">
        <ele>2125.48</ele>
        <time>2022-09-21T08:01:42Z</time>
      </trkpt>
      <trkpt lat="46.53417" lon="7.92539">
        <ele>2126.26</ele>
        <time>2022-09-21T08:01:43Z</time>
      </trkpt>
      <trkpt lat="46.53418" lon="7.92537">
        <ele>2126.64</ele>
        <time>2022-09-21T08:01:44Z</time>
      </trkpt>
      <trkpt lat="46.53418" lon="7.92535">
        <ele>2126.51</ele>
        <time>2022-09-21T08:01:45Z</time>
      </trkpt>
      <trkpt lat="46.53418" lon="7.92533">
        <ele>2125.34</ele>
        <time>2022-09-21T08:01:46Z</time>
      </trkpt>
      <trkpt lat="46.53418" lon="7.92531">
        <ele>2124.75</ele>
        <time>2022-09-21T08:01:47Z</time>
      </trkpt>
      <trkpt lat="46.53418" lon="7.92529">
        <ele>2124.63</ele>
        <time>2022-09-21T08:01:48Z</time>
      </trkpt>
      <trkpt lat="46.53418" lon="7.92527">
        <ele>2124.82</ele>
        <time>2022-09-21T08:01:49Z</time>
      </trkpt>
      <trkpt lat="46.53418" lon="7.92525">
        <ele>2126.09</ele>
        <time>2022-09-21T08:01:50Z</time>
      </trkpt>
      <trkpt lat="46.53418" lon="7.92523">
        <ele>2126.3</ele>
        <time>2022-09-21T08:01:51Z</time>
      </trkpt>
      <trkpt lat="46.53418" lon="7.92521">
        <ele>2126.93</ele>
        <time>2022-09-21T08:01:52Z</time>
      </trkpt>
      <trkpt lat="46.53419" lon="7.92519">
        <ele>2126.75</ele>
        <time>2022-09-21T08:01:53Z</time>
      </trkpt>
      <trkpt lat="46.5342" lon="7.92518">
        <ele>2126.51</ele>
        <time>2022-09-21T08:01:54Z</time>
      </trkpt>
      <trkpt lat="46.53421" lon="7.92517">
        <ele>2127.42</ele>
        <time>2022-09-21T08:01:55Z</time>
      </trkpt>
      <trkpt lat="46.53422" lon="7.92516">
        <ele>2127.28</ele>
        <time>2022-09-21T08:01:56Z</time>
      </trkpt>
      <trkpt lat="46.53423" lon="7.92514">
        <ele>2127.2</ele>
        <time>2022-09-21T08:01:57Z</time>
      </trkpt>
      <trkpt lat="46.53423" lon="7.92513">
        <ele>2127.55</ele>
        <time>2022-09-21T08:01:58Z</time>
      </trkpt>
      <trkpt lat="46.53424" lon="7.92509">
        <ele>2127.8</ele>
        <time>2022-09-21T08:02:00Z</time>
      </trkpt>
      <trkpt lat="46.53425" lon="7.92507">
        <ele>2127.23</ele>
        <time>2022-09-21T08:02:01Z</time>
      </trkpt>
      <trkpt lat="46.53425" lon="7.92505">
        <ele>2127.91</ele>
        <time>2022-09-21T08:02:02Z</time>
      </trkpt>
      <trkpt lat="46.53426" lon="7.92503">
        <ele>2128.26</ele>
        <time>2022-09-21T08:02:03Z</time>
      </trkpt>
      <trkpt lat="46.53426" lon="7.92501">
        <ele>2128.68</ele>
        <time>2022-09-21T08:02:04Z</time>
      </trkpt>
      <trkpt lat="46.53427" lon="7.925">
        <ele>2128.78</ele>
        <time>2022-09-21T08:02:05Z</time>
      </trkpt>
      <trkpt lat="46.53426" lon="7.92501">
        <ele>2128.62</ele>
        <time>2022-09-21T08:02:09Z</time>
      </trkpt>
      <trkpt lat="46.53427" lon="7.925">
        <ele>2130.46</ele>
        <time>2022-09-21T08:02:13Z</time>
      </trkpt>
      <trkpt lat="46.53427" lon="7.92499">
        <ele>2130.23</ele>
        <time>2022-09-21T08:02:14Z</time>
      </trkpt>
      <trkpt lat="46.53428" lon="7.92497">
        <ele>2131.25</ele>
        <time>2022-09-21T08:02:15Z</time>
      </trkpt>
      <trkpt lat="46.53428" lon="7.92496">
        <ele>2130.99</ele>
        <time>2022-09-21T08:02:16Z</time>
      </trkpt>
      <trkpt lat="46.53429" lon="7.92495">
        <ele>2130.73</ele>
        <time>2022-09-21T08:02:17Z</time>
      </trkpt>
      <trkpt lat="46.53429" lon="7.92494">
        <ele>2129.92</ele>
        <time>2022-09-21T08:02:18Z</time>
      </trkpt>
      <trkpt lat="46.5343" lon="7.92493">
        <ele>2129.56</ele>
        <time>2022-09-21T08:02:19Z</time>
      </trkpt>
      <trkpt lat="46.53431" lon="7.92492">
        <ele>2129.39</ele>
        <time>2022-09-21T08:02:20Z</time>
      </trkpt>
      <trkpt lat="46.53432" lon="7.92491">
        <ele>2129.02</ele>
        <time>2022-09-21T08:02:21Z</time>
      </trkpt>
      <trkpt lat="46.53433" lon="7.92489">
        <ele>2129.15</ele>
        <time>2022-09-21T08:02:23Z</time>
      </trkpt>
      <trkpt lat="46.53434" lon="7.92488">
        <ele>2130.17</ele>
        <time>2022-09-21T08:02:24Z</time>
      </trkpt>
      <trkpt lat="46.53435" lon="7.92487">
        <ele>2130.57</ele>
        <time>2022-09-21T08:02:25Z</time>
      </trkpt>
      <trkpt lat="46.53436" lon="7.92486">
        <ele>2131.38</ele>
        <time>2022-09-21T08:02:26Z</time>
      </trkpt>
      <trkpt lat="46.53437" lon="7.92485">
        <ele>2131.1</ele>
        <time>2022-09-21T08:02:27Z</time>
      </trkpt>
      <trkpt lat="46.53438" lon="7.92484">
        <ele>2131.05</ele>
        <time>2022-09-21T08:02:28Z</time>
      </trkpt>
      <trkpt lat="46.53438" lon="7.92482">
        <ele>2131.4</ele>
        <time>2022-09-21T08:02:29Z</time>
      </trkpt>
      <trkpt lat="46.53439" lon="7.92481">
        <ele>2131.53</ele>
        <time>2022-09-21T08:02:30Z</time>
      </trkpt>
      <trkpt lat="46.53439" lon="7.92479">
        <ele>2131</ele>
        <time>2022-09-21T08:02:31Z</time>
      </trkpt>
      <trkpt lat="46.5344" lon="7.92477">
        <ele>2130.05</ele>
        <time>2022-09-21T08:02:32Z</time>
      </trkpt>
      <trkpt lat="46.5344" lon="7.92475">
        <ele>2131.26</ele>
        <time>2022-09-21T08:02:33Z</time>
      </trkpt>
      <trkpt lat="46.53441" lon="7.92473">
        <ele>2131.12</ele>
        <time>2022-09-21T08:02:34Z</time>
      </trkpt>
      <trkpt lat="46.53442" lon="7.92471">
        <ele>2131</ele>
        <time>2022-09-21T08:02:35Z</time>
      </trkpt>
      <trkpt lat="46.53443" lon="7.9247">
        <ele>2130.89</ele>
        <time>2022-09-21T08:02:36Z</time>
      </trkpt>
      <trkpt lat="46.53444" lon="7.92468">
        <ele>2130.81</ele>
        <time>2022-09-21T08:02:37Z</time>
      </trkpt>
      <trkpt lat="46.53444" lon="7.92467">
        <ele>2130.42</ele>
        <time>2022-09-21T08:02:38Z</time>
      </trkpt>
      <trkpt lat="46.53444" lon="7.92465">
        <ele>2130.39</ele>
        <time>2022-09-21T08:02:39Z</time>
      </trkpt>
      <trkpt lat="46.53445" lon="7.92463">
        <ele>2129.26</ele>
        <time>2022-09-21T08:02:40Z</time>
      </trkpt>
      <trkpt lat="46.53446" lon="7.92461">
        <ele>2128.08</ele>
        <time>2022-09-21T08:02:41Z</time>
      </trkpt>
      <trkpt lat="46.53447" lon="7.9246">
        <ele>2128.36</ele>
        <time>2022-09-21T08:02:42Z</time>
      </trkpt>
      <trkpt lat="46.53447" lon="7.92458">
        <ele>2127.33</ele>
        <time>2022-09-21T08:02:43Z</time>
      </trkpt>
      <trkpt lat="46.53448" lon="7.92456">
        <ele>2127.15</ele>
        <time>2022-09-21T08:02:44Z</time>
      </trkpt>
      <trkpt lat="46.53449" lon="7.92454">
        <ele>2126.88</ele>
        <time>2022-09-21T08:02:45Z</time>
      </trkpt>
      <trkpt lat="46.5345" lon="7.92452">
        <ele>2126.18</ele>
        <time>2022-09-21T08:02:46Z</time>
      </trkpt>
      <trkpt lat="46.5345" lon="7.9245">
        <ele>2125.87</ele>
        <time>2022-09-21T08:02:47Z</time>
      </trkpt>
      <trkpt lat="46.53451" lon="7.92448">
        <ele>2125.58</ele>
        <time>2022-09-21T08:02:48Z</time>
      </trkpt>
      <trkpt lat="46.53451" lon="7.92446">
        <ele>2124.49</ele>
        <time>2022-09-21T08:02:49Z</time>
      </trkpt>
      <trkpt lat="46.53452" lon="7.92443">
        <ele>2122.96</ele>
        <time>2022-09-21T08:02:50Z</time>
      </trkpt>
      <trkpt lat="46.53453" lon="7.92441">
        <ele>2123.07</ele>
        <time>2022-09-21T08:02:51Z</time>
      </trkpt>
      <trkpt lat="46.53454" lon="7.92439">
        <ele>2121.18</ele>
        <time>2022-09-21T08:02:52Z</time>
      </trkpt>
      <trkpt lat="46.53455" lon="7.92437">
        <ele>2121.69</ele>
        <time>2022-09-21T08:02:53Z</time>
      </trkpt>
      <trkpt lat="46.53457" lon="7.92436">
        <ele>2121.12</ele>
        <time>2022-09-21T08:02:54Z</time>
      </trkpt>
      <trkpt lat="46.53459" lon="7.92434">
        <ele>2120.3</ele>
        <time>2022-09-21T08:02:55Z</time>
      </trkpt>
      <trkpt lat="46.5346" lon="7.92433">
        <ele>2121.64</ele>
        <time>2022-09-21T08:02:56Z</time>
      </trkpt>
      <trkpt lat="46.53462" lon="7.92432">
        <ele>2121.07</ele>
        <time>2022-09-21T08:02:57Z</time>
      </trkpt>
      <trkpt lat="46.53463" lon="7.92431">
        <ele>2119.93</ele>
        <time>2022-09-21T08:02:58Z</time>
      </trkpt>
      <trkpt lat="46.53465" lon="7.9243">
        <ele>2120.57</ele>
        <time>2022-09-21T08:02:59Z</time>
      </trkpt>
      <trkpt lat="46.53466" lon="7.92429">
        <ele>2121.13</ele>
        <time>2022-09-21T08:03:00Z</time>
      </trkpt>
      <trkpt lat="46.53467" lon="7.92427">
        <ele>2119.95</ele>
        <time>2022-09-21T08:03:01Z</time>
      </trkpt>
      <trkpt lat="46.53468" lon="7.92425">
        <ele>2119.3</ele>
        <time>2022-09-21T08:03:02Z</time>
      </trkpt>
      <trkpt lat="46.53468" lon="7.92423">
        <ele>2119.98</ele>
        <time>2022-09-21T08:03:03Z</time>
      </trkpt>
      <trkpt lat="46.53469" lon="7.92421">
        <ele>2119.6</ele>
        <time>2022-09-21T08:03:04Z</time>
      </trkpt>
      <trkpt lat="46.5347" lon="7.9242">
        <ele>2119.78</ele>
        <time>2022-09-21T08:03:05Z</time>
      </trkpt>
      <trkpt lat="46.53471" lon="7.92418">
        <ele>2119.07</ele>
        <time>2022-09-21T08:03:06Z</time>
      </trkpt>
      <trkpt lat="46.53472" lon="7.92417">
        <ele>2118.46</ele>
        <time>2022-09-21T08:03:07Z</time>
      </trkpt>
      <trkpt lat="46.53473" lon="7.92415">
        <ele>2118.51</ele>
        <time>2022-09-21T08:03:08Z</time>
      </trkpt>
      <trkpt lat="46.53473" lon="7.92413">
        <ele>2119.81</ele>
        <time>2022-09-21T08:03:09Z</time>
      </trkpt>
      <trkpt lat="46.53473" lon="7.92411">
        <ele>2118.75</ele>
        <time>2022-09-21T08:03:10Z</time>
      </trkpt>
      <trkpt lat="46.53471" lon="7.92411">
        <ele>2118.07</ele>
        <time>2022-09-21T08:03:11Z</time>
      </trkpt>
      <trkpt lat="46.5347" lon="7.9241">
        <ele>2118.82</ele>
        <time>2022-09-21T08:03:12Z</time>
      </trkpt>
      <trkpt lat="46.53469" lon="7.92409">
        <ele>2119.77</ele>
        <time>2022-09-21T08:03:13Z</time>
      </trkpt>
      <trkpt lat="46.53468" lon="7.92408">
        <ele>2119.31</ele>
        <time>2022-09-21T08:03:14Z</time>
      </trkpt>
      <trkpt lat="46.53467" lon="7.92407">
        <ele>2119.2</ele>
        <time>2022-09-21T08:03:15Z</time>
      </trkpt>
      <trkpt lat="46.53466" lon="7.92406">
        <ele>2119.08</ele>
        <time>2022-09-21T08:03:16Z</time>
      </trkpt>
      <trkpt lat="46.53465" lon="7.92405">
        <ele>2120.04</ele>
        <time>2022-09-21T08:03:17Z</time>
      </trkpt>
      <trkpt lat="46.53465" lon="7.92404">
        <ele>2118.93</ele>
        <time>2022-09-21T08:03:18Z</time>
      </trkpt>
      <trkpt lat="46.53464" lon="7.92402">
        <ele>2118.36</ele>
        <time>2022-09-21T08:03:20Z</time>
      </trkpt>
      <trkpt lat="46.53464" lon="7.924">
        <ele>2119.17</ele>
        <time>2022-09-21T08:03:22Z</time>
      </trkpt>
      <trkpt lat="46.53464" lon="7.92398">
        <ele>2119.24</ele>
        <time>2022-09-21T08:03:24Z</time>
      </trkpt>
      <trkpt lat="46.53463" lon="7.92396">
        <ele>2120.49</ele>
        <time>2022-09-21T08:03:26Z</time>
      </trkpt>
      <trkpt lat="46.53461" lon="7.92394">
        <ele>2121.18</ele>
        <time>2022-09-21T08:03:28Z</time>
      </trkpt>
      <trkpt lat="46.53461" lon="7.92392">
        <ele>2122.97</ele>
        <time>2022-09-21T08:03:30Z</time>
      </trkpt>
      <trkpt lat="46.5346" lon="7.9239">
        <ele>2124.99</ele>
        <time>2022-09-21T08:03:31Z</time>
      </trkpt>
      <trkpt lat="46.5346" lon="7.92389">
        <ele>2125.04</ele>
        <time>2022-09-21T08:03:32Z</time>
      </trkpt>
      <trkpt lat="46.53459" lon="7.92388">
        <ele>2126.22</ele>
        <time>2022-09-21T08:03:33Z</time>
      </trkpt>
      <trkpt lat="46.53458" lon="7.92386">
        <ele>2126.4</ele>
        <time>2022-09-21T08:03:34Z</time>
      </trkpt>
      <trkpt lat="46.53458" lon="7.92386">
        <ele>2127.88</ele>
        <time>2022-09-21T08:03:35Z</time>
      </trkpt>
      <trkpt lat="46.53457" lon="7.92384">
        <ele>2130.78</ele>
        <time>2022-09-21T08:03:37Z</time>
      </trkpt>
      <trkpt lat="46.53456" lon="7.92382">
        <ele>2129.01</ele>
        <time>2022-09-21T08:03:39Z</time>
      </trkpt>
      <trkpt lat="46.53455" lon="7.9238">
        <ele>2128.66</ele>
        <time>2022-09-21T08:03:41Z</time>
      </trkpt>
      <trkpt lat="46.53455" lon="7.92378">
        <ele>2132.12</ele>
        <time>2022-09-21T08:03:43Z</time>
      </trkpt>
      <trkpt lat="46.53453" lon="7.92379">
        <ele>2133.6</ele>
        <time>2022-09-21T08:03:46Z</time>
      </trkpt>
      <trkpt lat="46.53452" lon="7.92377">
        <ele>2134.79</ele>
        <time>2022-09-21T08:03:48Z</time>
      </trkpt>
      <trkpt lat="46.53451" lon="7.92375">
        <ele>2134.81</ele>
        <time>2022-09-21T08:03:49Z</time>
      </trkpt>
      <trkpt lat="46.53451" lon="7.92374">
        <ele>2133.5</ele>
        <time>2022-09-21T08:03:50Z</time>
      </trkpt>
      <trkpt lat="46.53451" lon="7.92371">
        <ele>2134.27</ele>
        <time>2022-09-21T08:03:52Z</time>
      </trkpt>
      <trkpt lat="46.53451" lon="7.92369">
        <ele>2136.53</ele>
        <time>2022-09-21T08:03:54Z</time>
      </trkpt>
      <trkpt lat="46.53452" lon="7.92368">
        <ele>2135.87</ele>
        <time>2022-09-21T08:03:55Z</time>
      </trkpt>
      <trkpt lat="46.53451" lon="7.92365">
        <ele>2138.32</ele>
        <time>2022-09-21T08:03:57Z</time>
      </trkpt>
      <trkpt lat="46.5345" lon="7.92364">
        <ele>2140.04</ele>
        <time>2022-09-21T08:03:59Z</time>
      </trkpt>
      <trkpt lat="46.53451" lon="7.92363">
        <ele>2139.13</ele>
        <time>2022-09-21T08:04:01Z</time>
      </trkpt>
      <trkpt lat="46.53451" lon="7.92362">
        <ele>2139.9</ele>
        <time>2022-09-21T08:04:02Z</time>
      </trkpt>
      <trkpt lat="46.5345" lon="7.9236">
        <ele>2136.28</ele>
        <time>2022-09-21T08:04:05Z</time>
      </trkpt>
      <trkpt lat="46.53451" lon="7.92358">
        <ele>2133.67</ele>
        <time>2022-09-21T08:04:08Z</time>
      </trkpt>
      <trkpt lat="46.53452" lon="7.92357">
        <ele>2134.04</ele>
        <time>2022-09-21T08:04:10Z</time>
      </trkpt>
      <trkpt lat="46.53451" lon="7.92356">
        <ele>2132.2</ele>
        <time>2022-09-21T08:04:12Z</time>
      </trkpt>
      <trkpt lat="46.5345" lon="7.92356">
        <ele>2130.13</ele>
        <time>2022-09-21T08:04:13Z</time>
      </trkpt>
      <trkpt lat="46.5345" lon="7.92353">
        <ele>2129.09</ele>
        <time>2022-09-21T08:04:15Z</time>
      </trkpt>
      <trkpt lat="46.53451" lon="7.92352">
        <ele>2128.69</ele>
        <time>2022-09-21T08:04:17Z</time>
      </trkpt>
      <trkpt lat="46.5345" lon="7.92352">
        <ele>2125.8</ele>
        <time>2022-09-21T08:04:24Z</time>
      </trkpt>
      <trkpt lat="46.5345" lon="7.9235">
        <ele>2126.12</ele>
        <time>2022-09-21T08:04:26Z</time>
      </trkpt>
      <trkpt lat="46.53448" lon="7.92349">
        <ele>2127.16</ele>
        <time>2022-09-21T08:04:29Z</time>
      </trkpt>
      <trkpt lat="46.53448" lon="7.92347">
        <ele>2127.15</ele>
        <time>2022-09-21T08:04:31Z</time>
      </trkpt>
      <trkpt lat="46.53447" lon="7.92346">
        <ele>2126.89</ele>
        <time>2022-09-21T08:04:33Z</time>
      </trkpt>
      <trkpt lat="46.53447" lon="7.92344">
        <ele>2126.18</ele>
        <time>2022-09-21T08:04:35Z</time>
      </trkpt>
      <trkpt lat="46.53447" lon="7.92343">
        <ele>2126.01</ele>
        <time>2022-09-21T08:04:37Z</time>
      </trkpt>
      <trkpt lat="46.53447" lon="7.92341">
        <ele>2129.81</ele>
        <time>2022-09-21T08:04:40Z</time>
      </trkpt>
      <trkpt lat="46.53447" lon="7.92339">
        <ele>2130.77</ele>
        <time>2022-09-21T08:04:42Z</time>
      </trkpt>
      <trkpt lat="46.53447" lon="7.92338">
        <ele>2128.76</ele>
        <time>2022-09-21T08:04:44Z</time>
      </trkpt>
      <trkpt lat="46.53447" lon="7.92336">
        <ele>2127.41</ele>
        <time>2022-09-21T08:04:46Z</time>
      </trkpt>
      <trkpt lat="46.53447" lon="7.92334">
        <ele>2128.86</ele>
        <time>2022-09-21T08:04:48Z</time>
      </trkpt>
      <trkpt lat="46.53446" lon="7.92332">
        <ele>2128.86</ele>
        <time>2022-09-21T08:04:50Z</time>
      </trkpt>
      <trkpt lat="46.53446" lon="7.92331">
        <ele>2128.94</ele>
        <time>2022-09-21T08:04:52Z</time>
      </trkpt>
      <trkpt lat="46.53447" lon="7.92331">
        <ele>2129.93</ele>
        <time>2022-09-21T08:05:02Z</time>
      </trkpt>
      <trkpt lat="46.53448" lon="7.92331">
        <ele>2130.03</ele>
        <time>2022-09-21T08:05:10Z</time>
      </trkpt>
      <trkpt lat="46.53449" lon="7.92331">
        <ele>2129.39</ele>
        <time>2022-09-21T08:05:13Z</time>
      </trkpt>
      <trkpt lat="46.5345" lon="7.9233">
        <ele>2129.47</ele>
        <time>2022-09-21T08:05:15Z</time>
      </trkpt>
      <trkpt lat="46.5345" lon="7.92329">
        <ele>2131.02</ele>
        <time>2022-09-21T08:05:20Z</time>
      </trkpt>
      <trkpt lat="46.5345" lon="7.92327">
        <ele>2131.21</ele>
        <time>2022-09-21T08:05:23Z</time>
      </trkpt>
      <trkpt lat="46.5345" lon="7.92326">
        <ele>2131.42</ele>
        <time>2022-09-21T08:05:25Z</time>
      </trkpt>
      <trkpt lat="46.5345" lon="7.92324">
        <ele>2130.21</ele>
        <time>2022-09-21T08:05:28Z</time>
      </trkpt>
      <trkpt lat="46.5345" lon="7.92323">
        <ele>2130.9</ele>
        <time>2022-09-21T08:05:33Z</time>
      </trkpt>
      <trkpt lat="46.5345" lon="7.92321">
        <ele>2130.9</ele>
        <time>2022-09-21T08:05:35Z</time>
      </trkpt>
      <trkpt lat="46.53449" lon="7.92321">
        <ele>2129.37</ele>
        <time>2022-09-21T08:05:41Z</time>
      </trkpt>
      <trkpt lat="46.53449" lon="7.9232">
        <ele>2129.83</ele>
        <time>2022-09-21T08:05:49Z</time>
      </trkpt>
      <trkpt lat="46.53449" lon="7.92319">
        <ele>2128.84</ele>
        <time>2022-09-21T08:05:56Z</time>
      </trkpt>
      <trkpt lat="46.5345" lon="7.92317">
        <ele>2129.67</ele>
        <time>2022-09-21T08:05:59Z</time>
      </trkpt>
      <trkpt lat="46.53451" lon="7.92316">
        <ele>2128.52</ele>
        <time>2022-09-21T08:06:03Z</time>
      </trkpt>
      <trkpt lat="46.53451" lon="7.92315">
        <ele>2127.97</ele>
        <time>2022-09-21T08:06:06Z</time>
      </trkpt>
      <trkpt lat="46.53452" lon="7.92314">
        <ele>2126.73</ele>
        <time>2022-09-21T08:06:13Z</time>
      </trkpt>
      <trkpt lat="46.53452" lon="7.92312">
        <ele>2126.23</ele>
        <time>2022-09-21T08:06:17Z</time>
      </trkpt>
      <trkpt lat="46.53453" lon="7.92311">
        <ele>2126.66</ele>
        <time>2022-09-21T08:06:20Z</time>
      </trkpt>
      <trkpt lat="46.53453" lon="7.92309">
        <ele>2125.92</ele>
        <time>2022-09-21T08:06:23Z</time>
      </trkpt>
      <trkpt lat="46.53453" lon="7.92306">
        <ele>2125.77</ele>
        <time>2022-09-21T08:06:27Z</time>
      </trkpt>
      <trkpt lat="46.53453" lon="7.92304">
        <ele>2125.43</ele>
        <time>2022-09-21T08:06:29Z</time>
      </trkpt>
      <trkpt lat="46.53454" lon="7.92302">
        <ele>2126.4</ele>
        <time>2022-09-21T08:06:30Z</time>
      </trkpt>
      <trkpt lat="46.53454" lon="7.92301">
        <ele>2125.29</ele>
        <time>2022-09-21T08:06:31Z</time>
      </trkpt>
      <trkpt lat="46.53454" lon="7.92299">
        <ele>2124.64</ele>
        <time>2022-09-21T08:06:33Z</time>
      </trkpt>
      <trkpt lat="46.53454" lon="7.92298">
        <ele>2123.43</ele>
        <time>2022-09-21T08:06:35Z</time>
      </trkpt>
      <trkpt lat="46.53454" lon="7.92297">
        <ele>2125.14</ele>
        <time>2022-09-21T08:06:45Z</time>
      </trkpt>
      <trkpt lat="46.53454" lon="7.92295">
        <ele>2125.1</ele>
        <time>2022-09-21T08:06:47Z</time>
      </trkpt>
      <trkpt lat="46.53453" lon="7.92294">
        <ele>2126.38</ele>
        <time>2022-09-21T08:06:49Z</time>
      </trkpt>
      <trkpt lat="46.53452" lon="7.92291">
        <ele>2125.77</ele>
        <time>2022-09-21T08:06:51Z</time>
      </trkpt>
      <trkpt lat="46.53452" lon="7.92289">
        <ele>2125.09</ele>
        <time>2022-09-21T08:06:53Z</time>
      </trkpt>
      <trkpt lat="46.53451" lon="7.92287">
        <ele>2124.6</ele>
        <time>2022-09-21T08:06:56Z</time>
      </trkpt>
      <trkpt lat="46.5345" lon="7.92286">
        <ele>2124.49</ele>
        <time>2022-09-21T08:06:58Z</time>
      </trkpt>
      <trkpt lat="46.53449" lon="7.92285">
        <ele>2124.12</ele>
        <time>2022-09-21T08:07:01Z</time>
      </trkpt>
      <trkpt lat="46.53448" lon="7.92283">
        <ele>2121.67</ele>
        <time>2022-09-21T08:07:08Z</time>
      </trkpt>
      <trkpt lat="46.53447" lon="7.92283">
        <ele>2123.27</ele>
        <time>2022-09-21T08:07:10Z</time>
      </trkpt>
      <trkpt lat="46.53446" lon="7.92281">
        <ele>2126.36</ele>
        <time>2022-09-21T08:07:12Z</time>
      </trkpt>
      <trkpt lat="46.53445" lon="7.92279">
        <ele>2126.03</ele>
        <time>2022-09-21T08:07:14Z</time>
      </trkpt>
      <trkpt lat="46.53444" lon="7.92278">
        <ele>2125.58</ele>
        <time>2022-09-21T08:07:18Z</time>
      </trkpt>
      <trkpt lat="46.53444" lon="7.92276">
        <ele>2125.25</ele>
        <time>2022-09-21T08:07:20Z</time>
      </trkpt>
      <trkpt lat="46.53443" lon="7.92275">
        <ele>2125.95</ele>
        <time>2022-09-21T08:07:22Z</time>
      </trkpt>
      <trkpt lat="46.53443" lon="7.92273">
        <ele>2124.72</ele>
        <time>2022-09-21T08:07:28Z</time>
      </trkpt>
      <trkpt lat="46.53442" lon="7.92273">
        <ele>2125.16</ele>
        <time>2022-09-21T08:07:32Z</time>
      </trkpt>
      <trkpt lat="46.53442" lon="7.92272">
        <ele>2124.65</ele>
        <time>2022-09-21T08:07:37Z</time>
      </trkpt>
      <trkpt lat="46.53442" lon="7.92271">
        <ele>2126.12</ele>
        <time>2022-09-21T08:07:39Z</time>
      </trkpt>
      <trkpt lat="46.53442" lon="7.92268">
        <ele>2125.92</ele>
        <time>2022-09-21T08:07:41Z</time>
      </trkpt>
      <trkpt lat="46.53441" lon="7.92267">
        <ele>2127.72</ele>
        <time>2022-09-21T08:07:44Z</time>
      </trkpt>
      <trkpt lat="46.53441" lon="7.92265">
        <ele>2127.05</ele>
        <time>2022-09-21T08:07:46Z</time>
      </trkpt>
      <trkpt lat="46.53439" lon="7.92267">
        <ele>2128.2</ele>
        <time>2022-09-21T08:07:52Z</time>
      </trkpt>
      <trkpt lat="46.53439" lon="7.92266">
        <ele>2128.62</ele>
        <time>2022-09-21T08:07:56Z</time>
      </trkpt>
      <trkpt lat="46.5344" lon="7.92263">
        <ele>2126.7</ele>
        <time>2022-09-21T08:08:00Z</time>
      </trkpt>
      <trkpt lat="46.53439" lon="7.92262">
        <ele>2128.84</ele>
        <time>2022-09-21T08:08:02Z</time>
      </trkpt>
      <trkpt lat="46.53439" lon="7.92259">
        <ele>2128.46</ele>
        <time>2022-09-21T08:08:04Z</time>
      </trkpt>
      <trkpt lat="46.5344" lon="7.92257">
        <ele>2126.93</ele>
        <time>2022-09-21T08:08:06Z</time>
      </trkpt>
      <trkpt lat="46.53441" lon="7.92256">
        <ele>2127.64</ele>
        <time>2022-09-21T08:08:08Z</time>
      </trkpt>
      <trkpt lat="46.53442" lon="7.92255">
        <ele>2126.21</ele>
        <time>2022-09-21T08:08:11Z</time>
      </trkpt>
      <trkpt lat="46.53442" lon="7.92253">
        <ele>2126.72</ele>
        <time>2022-09-21T08:08:13Z</time>
      </trkpt>
      <trkpt lat="46.53443" lon="7.92255">
        <ele>2125</ele>
        <time>2022-09-21T08:08:18Z</time>
      </trkpt>
      <trkpt lat="46.53443" lon="7.92256">
        <ele>2124.58</ele>
        <time>2022-09-21T08:08:21Z</time>
      </trkpt>
      <trkpt lat="46.53444" lon="7.92256">
        <ele>2122.99</ele>
        <time>2022-09-21T08:08:25Z</time>
      </trkpt>
      <trkpt lat="46.53444" lon="7.92254">
        <ele>2128.67</ele>
        <time>2022-09-21T08:08:29Z</time>
      </trkpt>
      <trkpt lat="46.53443" lon="7.92255">
        <ele>2128.55</ele>
        <time>2022-09-21T08:08:33Z</time>
      </trkpt>
      <trkpt lat="46.53444" lon="7.92256">
        <ele>2127.85</ele>
        <time>2022-09-21T08:08:36Z</time>
      </trkpt>
      <trkpt lat="46.53444" lon="7.92255">
        <ele>2128.19</ele>
        <time>2022-09-21T08:08:42Z</time>
      </trkpt>
      <trkpt lat="46.53445" lon="7.92254">
        <ele>2129.72</ele>
        <time>2022-09-21T08:08:44Z</time>
      </trkpt>
      <trkpt lat="46.53447" lon="7.92253">
        <ele>2128.43</ele>
        <time>2022-09-21T08:08:46Z</time>
      </trkpt>
      <trkpt lat="46.53448" lon="7.92253">
        <ele>2129.91</ele>
        <time>2022-09-21T08:08:48Z</time>
      </trkpt>
      <trkpt lat="46.53449" lon="7.92253">
        <ele>2129.71</ele>
        <time>2022-09-21T08:08:50Z</time>
      </trkpt>
      <trkpt lat="46.53449" lon="7.9225">
        <ele>2135.03</ele>
        <time>2022-09-21T08:08:59Z</time>
      </trkpt>
      <trkpt lat="46.5345" lon="7.92249">
        <ele>2135.53</ele>
        <time>2022-09-21T08:09:01Z</time>
      </trkpt>
      <trkpt lat="46.5345" lon="7.92248">
        <ele>2136.58</ele>
        <time>2022-09-21T08:09:03Z</time>
      </trkpt>
      <trkpt lat="46.53451" lon="7.92247">
        <ele>2137.06</ele>
        <time>2022-09-21T08:09:06Z</time>
      </trkpt>
      <trkpt lat="46.53452" lon="7.92247">
        <ele>2137.42</ele>
        <time>2022-09-21T08:09:08Z</time>
      </trkpt>
      <trkpt lat="46.53453" lon="7.92247">
        <ele>2136.71</ele>
        <time>2022-09-21T08:09:13Z</time>
      </trkpt>
      <trkpt lat="46.53454" lon="7.92245">
        <ele>2136.79</ele>
        <time>2022-09-21T08:09:15Z</time>
      </trkpt>
      <trkpt lat="46.53454" lon="7.92243">
        <ele>2136.32</ele>
        <time>2022-09-21T08:09:19Z</time>
      </trkpt>
      <trkpt lat="46.53453" lon="7.92243">
        <ele>2136.17</ele>
        <time>2022-09-21T08:09:28Z</time>
      </trkpt>
      <trkpt lat="46.53454" lon="7.92242">
        <ele>2137.66</ele>
        <time>2022-09-21T08:09:34Z</time>
      </trkpt>
      <trkpt lat="46.53454" lon="7.9224">
        <ele>2139.53</ele>
        <time>2022-09-21T08:09:40Z</time>
      </trkpt>
      <trkpt lat="46.53453" lon="7.92242">
        <ele>2139.06</ele>
        <time>2022-09-21T08:09:43Z</time>
      </trkpt>
      <trkpt lat="46.53453" lon="7.92243">
        <ele>2138.39</ele>
        <time>2022-09-21T08:09:48Z</time>
      </trkpt>
      <trkpt lat="46.53455" lon="7.92243">
        <ele>2137.36</ele>
        <time>2022-09-21T08:09:57Z</time>
      </trkpt>
      <trkpt lat="46.53456" lon="7.92243">
        <ele>2137.37</ele>
        <time>2022-09-21T08:09:59Z</time>
      </trkpt>
      <trkpt lat="46.53457" lon="7.92242">
        <ele>2138.02</ele>
        <time>2022-09-21T08:10:02Z</time>
      </trkpt>
      <trkpt lat="46.53456" lon="7.92243">
        <ele>2137.02</ele>
        <time>2022-09-21T08:10:09Z</time>
      </trkpt>
      <trkpt lat="46.53457" lon="7.92244">
        <ele>2137.69</ele>
        <time>2022-09-21T08:10:12Z</time>
      </trkpt>
      <trkpt lat="46.53456" lon="7.92243">
        <ele>2139.73</ele>
        <time>2022-09-21T08:10:13Z</time>
      </trkpt>
      <trkpt lat="46.53456" lon="7.92241">
        <ele>2140.83</ele>
        <time>2022-09-21T08:10:25Z</time>
      </trkpt>
      <trkpt lat="46.53455" lon="7.92241">
        <ele>2141.21</ele>
        <time>2022-09-21T08:10:29Z</time>
      </trkpt>
      <trkpt lat="46.53455" lon="7.9224">
        <ele>2143.26</ele>
        <time>2022-09-21T08:10:33Z</time>
      </trkpt>
      <trkpt lat="46.53455" lon="7.92238">
        <ele>2143.76</ele>
        <time>2022-09-21T08:10:39Z</time>
      </trkpt>
      <trkpt lat="46.53456" lon="7.92237">
        <ele>2146.02</ele>
        <time>2022-09-21T08:10:40Z</time>
      </trkpt>
      <trkpt lat="46.53457" lon="7.92237">
        <ele>2147.81</ele>
        <time>2022-09-21T08:10:42Z</time>
      </trkpt>
      <trkpt lat="46.53459" lon="7.92237">
        <ele>2148.35</ele>
        <time>2022-09-21T08:10:45Z</time>
      </trkpt>
      <trkpt lat="46.53459" lon="7.92239">
        <ele>2147.44</ele>
        <time>2022-09-21T08:10:53Z</time>
      </trkpt>
      <trkpt lat="46.5346" lon="7.9224">
        <ele>2151.35</ele>
        <time>2022-09-21T08:11:04Z</time>
      </trkpt>
      <trkpt lat="46.53461" lon="7.92241">
        <ele>2151.38</ele>
        <time>2022-09-21T08:11:07Z</time>
      </trkpt>
      <trkpt lat="46.53462" lon="7.9224">
        <ele>2153.78</ele>
        <time>2022-09-21T08:11:13Z</time>
      </trkpt>
      <trkpt lat="46.53463" lon="7.92241">
        <ele>2153.76</ele>
        <time>2022-09-21T08:11:15Z</time>
      </trkpt>
      <trkpt lat="46.53464" lon="7.9224">
        <ele>2154.19</ele>
        <time>2022-09-21T08:11:17Z</time>
      </trkpt>
      <trkpt lat="46.53465" lon="7.92239">
        <ele>2153.48</ele>
        <time>2022-09-21T08:11:22Z</time>
      </trkpt>
      <trkpt lat="46.53465" lon="7.92237">
        <ele>2153.47</ele>
        <time>2022-09-21T08:11:25Z</time>
      </trkpt>
      <trkpt lat="46.53466" lon="7.92236">
        <ele>2153.12</ele>
        <time>2022-09-21T08:11:29Z</time>
      </trkpt>
      <trkpt lat="46.53467" lon="7.92236">
        <ele>2151.88</ele>
        <time>2022-09-21T08:11:31Z</time>
      </trkpt>
      <trkpt lat="46.53468" lon="7.92235">
        <ele>2152.48</ele>
        <time>2022-09-21T08:11:34Z</time>
      </trkpt>
      <trkpt lat="46.53469" lon="7.92234">
        <ele>2153.43</ele>
        <time>2022-09-21T08:11:36Z</time>
      </trkpt>
      <trkpt lat="46.5347" lon="7.92232">
        <ele>2153.5</ele>
        <time>2022-09-21T08:11:38Z</time>
      </trkpt>
      <trkpt lat="46.53471" lon="7.92231">
        <ele>2154.19</ele>
        <time>2022-09-21T08:11:40Z</time>
      </trkpt>
      <trkpt lat="46.53472" lon="7.92229">
        <ele>2154.15</ele>
        <time>2022-09-21T08:11:42Z</time>
      </trkpt>
      <trkpt lat="46.53472" lon="7.92227">
        <ele>2153.51</ele>
        <time>2022-09-21T08:11:44Z</time>
      </trkpt>
      <trkpt lat="46.53472" lon="7.92225">
        <ele>2155.01</ele>
        <time>2022-09-21T08:11:48Z</time>
      </trkpt>
      <trkpt lat="46.53473" lon="7.92224">
        <ele>2155.56</ele>
        <time>2022-09-21T08:11:52Z</time>
      </trkpt>
      <trkpt lat="46.53474" lon="7.92224">
        <ele>2155.36</ele>
        <time>2022-09-21T08:11:54Z</time>
      </trkpt>
      <trkpt lat="46.53475" lon="7.92226">
        <ele>2154.63</ele>
        <time>2022-09-21T08:11:56Z</time>
      </trkpt>
      <trkpt lat="46.53476" lon="7.92226">
        <ele>2155.54</ele>
        <time>2022-09-21T08:11:58Z</time>
      </trkpt>
      <trkpt lat="46.53476" lon="7.92224">
        <ele>2156.72</ele>
        <time>2022-09-21T08:12:00Z</time>
      </trkpt>
      <trkpt lat="46.53477" lon="7.92222">
        <ele>2159.09</ele>
        <time>2022-09-21T08:12:02Z</time>
      </trkpt>
      <trkpt lat="46.53477" lon="7.9222">
        <ele>2158.28</ele>
        <time>2022-09-21T08:12:04Z</time>
      </trkpt>
      <trkpt lat="46.53478" lon="7.92219">
        <ele>2158.13</ele>
        <time>2022-09-21T08:12:06Z</time>
      </trkpt>
      <trkpt lat="46.53477" lon="7.92217">
        <ele>2159.58</ele>
        <time>2022-09-21T08:12:08Z</time>
      </trkpt>
      <trkpt lat="46.53478" lon="7.92216">
        <ele>2158.93</ele>
        <time>2022-09-21T08:12:17Z</time>
      </trkpt>
      <trkpt lat="46.53479" lon="7.92216">
        <ele>2158.34</ele>
        <time>2022-09-21T08:12:19Z</time>
      </trkpt>
      <trkpt lat="46.5348" lon="7.92216">
        <ele>2157.83</ele>
        <time>2022-09-21T08:12:22Z</time>
      </trkpt>
      <trkpt lat="46.53481" lon="7.92216">
        <ele>2158.01</ele>
        <time>2022-09-21T08:12:25Z</time>
      </trkpt>
      <trkpt lat="46.5348" lon="7.92215">
        <ele>2158.08</ele>
        <time>2022-09-21T08:12:29Z</time>
      </trkpt>
      <trkpt lat="46.53479" lon="7.92214">
        <ele>2160.69</ele>
        <time>2022-09-21T08:12:31Z</time>
      </trkpt>
      <trkpt lat="46.53478" lon="7.92213">
        <ele>2162.57</ele>
        <time>2022-09-21T08:12:33Z</time>
      </trkpt>
      <trkpt lat="46.53479" lon="7.92212">
        <ele>2161.42</ele>
        <time>2022-09-21T08:12:35Z</time>
      </trkpt>
      <trkpt lat="46.5348" lon="7.9221">
        <ele>2162.62</ele>
        <time>2022-09-21T08:12:37Z</time>
      </trkpt>
      <trkpt lat="46.53481" lon="7.92209">
        <ele>2162.13</ele>
        <time>2022-09-21T08:12:39Z</time>
      </trkpt>
      <trkpt lat="46.53482" lon="7.92207">
        <ele>2162.28</ele>
        <time>2022-09-21T08:12:41Z</time>
      </trkpt>
      <trkpt lat="46.53483" lon="7.92205">
        <ele>2163.05</ele>
        <time>2022-09-21T08:12:43Z</time>
      </trkpt>
      <trkpt lat="46.53483" lon="7.92203">
        <ele>2163.48</ele>
        <time>2022-09-21T08:12:45Z</time>
      </trkpt>
      <trkpt lat="46.53483" lon="7.92201">
        <ele>2162.65</ele>
        <time>2022-09-21T08:12:47Z</time>
      </trkpt>
      <trkpt lat="46.53483" lon="7.922">
        <ele>2155.54</ele>
        <time>2022-09-21T08:12:49Z</time>
      </trkpt>
      <trkpt lat="46.53484" lon="7.922">
        <ele>2158.23</ele>
        <time>2022-09-21T08:12:51Z</time>
      </trkpt>
      <trkpt lat="46.53485" lon="7.92201">
        <ele>2160.26</ele>
        <time>2022-09-21T08:12:53Z</time>
      </trkpt>
      <trkpt lat="46.53487" lon="7.92201">
        <ele>2161.46</ele>
        <time>2022-09-21T08:12:55Z</time>
      </trkpt>
      <trkpt lat="46.53488" lon="7.92201">
        <ele>2162.58</ele>
        <time>2022-09-21T08:12:59Z</time>
      </trkpt>
      <trkpt lat="46.53488" lon="7.92199">
        <ele>2163.39</ele>
        <time>2022-09-21T08:13:09Z</time>
      </trkpt>
      <trkpt lat="46.53489" lon="7.92199">
        <ele>2164.36</ele>
        <time>2022-09-21T08:13:12Z</time>
      </trkpt>
      <trkpt lat="46.53491" lon="7.92199">
        <ele>2162.65</ele>
        <time>2022-09-21T08:13:21Z</time>
      </trkpt>
      <trkpt lat="46.53492" lon="7.92199">
        <ele>2161.4</ele>
        <time>2022-09-21T08:13:31Z</time>
      </trkpt>
      <trkpt lat="46.53493" lon="7.92199">
        <ele>2162.33</ele>
        <time>2022-09-21T08:13:33Z</time>
      </trkpt>
      <trkpt lat="46.53494" lon="7.92198">
        <ele>2162.24</ele>
        <time>2022-09-21T08:13:35Z</time>
      </trkpt>
      <trkpt lat="46.53495" lon="7.922">
        <ele>2162.66</ele>
        <time>2022-09-21T08:13:38Z</time>
      </trkpt>
      <trkpt lat="46.53496" lon="7.92198">
        <ele>2161.24</ele>
        <time>2022-09-21T08:14:10Z</time>
      </trkpt>
      <trkpt lat="46.53495" lon="7.92197">
        <ele>2161.47</ele>
        <time>2022-09-21T08:14:18Z</time>
      </trkpt>
      <trkpt lat="46.53496" lon="7.92198">
        <ele>2160.78</ele>
        <time>2022-09-21T08:14:34Z</time>
      </trkpt>
      <trkpt lat="46.53496" lon="7.92199">
        <ele>2161.07</ele>
        <time>2022-09-21T08:14:51Z</time>
      </trkpt>
      <trkpt lat="46.53497" lon="7.92198">
        <ele>2162.36</ele>
        <time>2022-09-21T08:14:55Z</time>
      </trkpt>
      <trkpt lat="46.53498" lon="7.92198">
        <ele>2163.97</ele>
        <time>2022-09-21T08:14:59Z</time>
      </trkpt>
      <trkpt lat="46.53499" lon="7.92198">
        <ele>2164.23</ele>
        <time>2022-09-21T08:15:03Z</time>
      </trkpt>
      <trkpt lat="46.535" lon="7.922">
        <ele>2164.5</ele>
        <time>2022-09-21T08:15:15Z</time>
      </trkpt>
      <trkpt lat="46.535" lon="7.92202">
        <ele>2164.93</ele>
        <time>2022-09-21T08:15:24Z</time>
      </trkpt>
      <trkpt lat="46.53499" lon="7.92204">
        <ele>2166.03</ele>
        <time>2022-09-21T08:15:27Z</time>
      </trkpt>
      <trkpt lat="46.535" lon="7.92205">
        <ele>2165.43</ele>
        <time>2022-09-21T08:15:31Z</time>
      </trkpt>
      <trkpt lat="46.53501" lon="7.92203">
        <ele>2166.35</ele>
        <time>2022-09-21T08:15:34Z</time>
      </trkpt>
      <trkpt lat="46.53502" lon="7.92202">
        <ele>2166.34</ele>
        <time>2022-09-21T08:15:36Z</time>
      </trkpt>
      <trkpt lat="46.53503" lon="7.92201">
        <ele>2166.94</ele>
        <time>2022-09-21T08:15:40Z</time>
      </trkpt>
      <trkpt lat="46.53504" lon="7.92199">
        <ele>2167.68</ele>
        <time>2022-09-21T08:15:42Z</time>
      </trkpt>
      <trkpt lat="46.53503" lon="7.92195">
        <ele>2168.74</ele>
        <time>2022-09-21T08:15:43Z</time>
      </trkpt>
      <trkpt lat="46.53504" lon="7.92194">
        <ele>2168.92</ele>
        <time>2022-09-21T08:15:45Z</time>
      </trkpt>
      <trkpt lat="46.53505" lon="7.92194">
        <ele>2168.91</ele>
        <time>2022-09-21T08:15:47Z</time>
      </trkpt>
      <trkpt lat="46.53506" lon="7.92193">
        <ele>2169.68</ele>
        <time>2022-09-21T08:15:48Z</time>
      </trkpt>
      <trkpt lat="46.53507" lon="7.92192">
        <ele>2169.92</ele>
        <time>2022-09-21T08:15:50Z</time>
      </trkpt>
      <trkpt lat="46.53507" lon="7.92193">
        <ele>2168.86</ele>
        <time>2022-09-21T08:15:52Z</time>
      </trkpt>
      <trkpt lat="46.53508" lon="7.92195">
        <ele>2169.25</ele>
        <time>2022-09-21T08:15:53Z</time>
      </trkpt>
      <trkpt lat="46.53508" lon="7.92196">
        <ele>2169.55</ele>
        <time>2022-09-21T08:15:54Z</time>
      </trkpt>
      <trkpt lat="46.53507" lon="7.92201">
        <ele>2169.09</ele>
        <time>2022-09-21T08:15:55Z</time>
      </trkpt>
      <trkpt lat="46.53507" lon="7.92203">
        <ele>2169.18</ele>
        <time>2022-09-21T08:15:56Z</time>
      </trkpt>
      <trkpt lat="46.53507" lon="7.92206">
        <ele>2169.6</ele>
        <time>2022-09-21T08:15:57Z</time>
      </trkpt>
      <trkpt lat="46.53508" lon="7.92207">
        <ele>2167.9</ele>
        <time>2022-09-21T08:15:59Z</time>
      </trkpt>
      <trkpt lat="46.53509" lon="7.92207">
        <ele>2168.61</ele>
        <time>2022-09-21T08:16:03Z</time>
      </trkpt>
      <trkpt lat="46.5351" lon="7.92206">
        <ele>2170.04</ele>
        <time>2022-09-21T08:16:05Z</time>
      </trkpt>
      <trkpt lat="46.53511" lon="7.92206">
        <ele>2170.03</ele>
        <time>2022-09-21T08:16:10Z</time>
      </trkpt>
      <trkpt lat="46.53511" lon="7.92208">
        <ele>2170.95</ele>
        <time>2022-09-21T08:16:12Z</time>
      </trkpt>
      <trkpt lat="46.53511" lon="7.92209">
        <ele>2170.82</ele>
        <time>2022-09-21T08:16:14Z</time>
      </trkpt>
      <trkpt lat="46.53511" lon="7.92211">
        <ele>2172.83</ele>
        <time>2022-09-21T08:16:17Z</time>
      </trkpt>
      <trkpt lat="46.53511" lon="7.92209">
        <ele>2180.08</ele>
        <time>2022-09-21T08:16:27Z</time>
      </trkpt>
      <trkpt lat="46.5351" lon="7.92208">
        <ele>2179.54</ele>
        <time>2022-09-21T08:16:29Z</time>
      </trkpt>
      <trkpt lat="46.5351" lon="7.92208">
        <ele>2179.39</ele>
        <time>2022-09-21T08:16:31Z</time>
      </trkpt>
      <trkpt lat="46.53509" lon="7.92208">
        <ele>2180.22</ele>
        <time>2022-09-21T08:16:41Z</time>
      </trkpt>
      <trkpt lat="46.53508" lon="7.92208">
        <ele>2181.71</ele>
        <time>2022-09-21T08:16:54Z</time>
      </trkpt>
      <trkpt lat="46.53507" lon="7.92208">
        <ele>2183.04</ele>
        <time>2022-09-21T08:17:05Z</time>
      </trkpt>
      <trkpt lat="46.53506" lon="7.92208">
        <ele>2184.08</ele>
        <time>2022-09-21T08:17:15Z</time>
      </trkpt>
      <trkpt lat="46.53507" lon="7.92209">
        <ele>2183.8</ele>
        <time>2022-09-21T08:17:32Z</time>
      </trkpt>
      <trkpt lat="46.53507" lon="7.9221">
        <ele>2183.66</ele>
        <time>2022-09-21T08:18:03Z</time>
      </trkpt>
      <trkpt lat="46.53508" lon="7.92212">
        <ele>2184.19</ele>
        <time>2022-09-21T08:18:04Z</time>
      </trkpt>
      <trkpt lat="46.53508" lon="7.92213">
        <ele>2184.31</ele>
        <time>2022-09-21T08:18:06Z</time>
      </trkpt>
      <trkpt lat="46.53508" lon="7.92215">
        <ele>2185.17</ele>
        <time>2022-09-21T08:18:08Z</time>
      </trkpt>
      <trkpt lat="46.53507" lon="7.92217">
        <ele>2186.19</ele>
        <time>2022-09-21T08:18:10Z</time>
      </trkpt>
      <trkpt lat="46.53506" lon="7.92218">
        <ele>2186.33</ele>
        <time>2022-09-21T08:18:12Z</time>
      </trkpt>
      <trkpt lat="46.53505" lon="7.9222">
        <ele>2186.49</ele>
        <time>2022-09-21T08:18:14Z</time>
      </trkpt>
      <trkpt lat="46.53504" lon="7.92221">
        <ele>2187.85</ele>
        <time>2022-09-21T08:18:16Z</time>
      </trkpt>
      <trkpt lat="46.53503" lon="7.92222">
        <ele>2189.29</ele>
        <time>2022-09-21T08:18:18Z</time>
      </trkpt>
      <trkpt lat="46.53505" lon="7.92223">
        <ele>2189.78</ele>
        <time>2022-09-21T08:18:23Z</time>
      </trkpt>
      <trkpt lat="46.53506" lon="7.92223">
        <ele>2189.51</ele>
        <time>2022-09-21T08:18:25Z</time>
      </trkpt>
      <trkpt lat="46.53507" lon="7.92224">
        <ele>2190.62</ele>
        <time>2022-09-21T08:18:28Z</time>
      </trkpt>
      <trkpt lat="46.53508" lon="7.92224">
        <ele>2191.4</ele>
        <time>2022-09-21T08:18:31Z</time>
      </trkpt>
      <trkpt lat="46.53507" lon="7.92226">
        <ele>2191.8</ele>
        <time>2022-09-21T08:18:35Z</time>
      </trkpt>
      <trkpt lat="46.53507" lon="7.92227">
        <ele>2193.56</ele>
        <time>2022-09-21T08:18:38Z</time>
      </trkpt>
      <trkpt lat="46.53507" lon="7.92228">
        <ele>2195.72</ele>
        <time>2022-09-21T08:18:41Z</time>
      </trkpt>
      <trkpt lat="46.53509" lon="7.92228">
        <ele>2195.4</ele>
        <time>2022-09-21T08:18:43Z</time>
      </trkpt>
      <trkpt lat="46.5351" lon="7.92228">
        <ele>2195.18</ele>
        <time>2022-09-21T08:18:45Z</time>
      </trkpt>
      <trkpt lat="46.53511" lon="7.92227">
        <ele>2196.15</ele>
        <time>2022-09-21T08:18:50Z</time>
      </trkpt>
      <trkpt lat="46.53511" lon="7.92228">
        <ele>2196.64</ele>
        <time>2022-09-21T08:19:02Z</time>
      </trkpt>
      <trkpt lat="46.53514" lon="7.92228">
        <ele>2194.35</ele>
        <time>2022-09-21T08:19:05Z</time>
      </trkpt>
      <trkpt lat="46.53515" lon="7.92228">
        <ele>2193.09</ele>
        <time>2022-09-21T08:19:06Z</time>
      </trkpt>
      <trkpt lat="46.53516" lon="7.92229">
        <ele>2192.86</ele>
        <time>2022-09-21T08:19:07Z</time>
      </trkpt>
      <trkpt lat="46.53517" lon="7.9223">
        <ele>2191.88</ele>
        <time>2022-09-21T08:19:08Z</time>
      </trkpt>
      <trkpt lat="46.53518" lon="7.9223">
        <ele>2191.54</ele>
        <time>2022-09-21T08:19:09Z</time>
      </trkpt>
      <trkpt lat="46.53519" lon="7.92231">
        <ele>2191.15</ele>
        <time>2022-09-21T08:19:10Z</time>
      </trkpt>
      <trkpt lat="46.5352" lon="7.92232">
        <ele>2191.97</ele>
        <time>2022-09-21T08:19:11Z</time>
      </trkpt>
      <trkpt lat="46.5352" lon="7.92232">
        <ele>2192</ele>
        <time>2022-09-21T08:19:12Z</time>
      </trkpt>
      <trkpt lat="46.53521" lon="7.92233">
        <ele>2191.88</ele>
        <time>2022-09-21T08:19:13Z</time>
      </trkpt>
      <trkpt lat="46.53522" lon="7.92234">
        <ele>2192.11</ele>
        <time>2022-09-21T08:19:14Z</time>
      </trkpt>
      <trkpt lat="46.53522" lon="7.92236">
        <ele>2193.09</ele>
        <time>2022-09-21T08:19:15Z</time>
      </trkpt>
      <trkpt lat="46.53522" lon="7.92237">
        <ele>2194.26</ele>
        <time>2022-09-21T08:19:17Z</time>
      </trkpt>
      <trkpt lat="46.53522" lon="7.92238">
        <ele>2193.89</ele>
        <time>2022-09-21T08:19:21Z</time>
      </trkpt>
      <trkpt lat="46.53523" lon="7.9224">
        <ele>2193.68</ele>
        <time>2022-09-21T08:19:23Z</time>
      </trkpt>
      <trkpt lat="46.53524" lon="7.92242">
        <ele>2193.31</ele>
        <time>2022-09-21T08:19:25Z</time>
      </trkpt>
      <trkpt lat="46.53525" lon="7.92244">
        <ele>2192.94</ele>
        <time>2022-09-21T08:19:27Z</time>
      </trkpt>
      <trkpt lat="46.53526" lon="7.92246">
        <ele>2193.56</ele>
        <time>2022-09-21T08:19:29Z</time>
      </trkpt>
      <trkpt lat="46.53526" lon="7.92248">
        <ele>2193.49</ele>
        <time>2022-09-21T08:19:31Z</time>
      </trkpt>
      <trkpt lat="46.53527" lon="7.9225">
        <ele>2194.79</ele>
        <time>2022-09-21T08:19:33Z</time>
      </trkpt>
      <trkpt lat="46.53527" lon="7.92251">
        <ele>2193.97</ele>
        <time>2022-09-21T08:19:35Z</time>
      </trkpt>
      <trkpt lat="46.53528" lon="7.92253">
        <ele>2195.16</ele>
        <time>2022-09-21T08:19:37Z</time>
      </trkpt>
      <trkpt lat="46.53529" lon="7.92254">
        <ele>2194.67</ele>
        <time>2022-09-21T08:19:39Z</time>
      </trkpt>
      <trkpt lat="46.5353" lon="7.92256">
        <ele>2196.2</ele>
        <time>2022-09-21T08:19:41Z</time>
      </trkpt>
      <trkpt lat="46.53531" lon="7.92258">
        <ele>2196.23</ele>
        <time>2022-09-21T08:19:43Z</time>
      </trkpt>
      <trkpt lat="46.53532" lon="7.92259">
        <ele>2196.03</ele>
        <time>2022-09-21T08:19:44Z</time>
      </trkpt>
      <trkpt lat="46.53533" lon="7.9226">
        <ele>2196.54</ele>
        <time>2022-09-21T08:19:45Z</time>
      </trkpt>
      <trkpt lat="46.53533" lon="7.92261">
        <ele>2195.91</ele>
        <time>2022-09-21T08:19:46Z</time>
      </trkpt>
      <trkpt lat="46.53534" lon="7.92263">
        <ele>2195.06</ele>
        <time>2022-09-21T08:19:47Z</time>
      </trkpt>
      <trkpt lat="46.53535" lon="7.92264">
        <ele>2195.69</ele>
        <time>2022-09-21T08:19:48Z</time>
      </trkpt>
      <trkpt lat="46.53535" lon="7.92265">
        <ele>2194.91</ele>
        <time>2022-09-21T08:19:49Z</time>
      </trkpt>
      <trkpt lat="46.53536" lon="7.92267">
        <ele>2195.25</ele>
        <time>2022-09-21T08:19:50Z</time>
      </trkpt>
      <trkpt lat="46.53536" lon="7.92268">
        <ele>2195.45</ele>
        <time>2022-09-21T08:19:51Z</time>
      </trkpt>
      <trkpt lat="46.53537" lon="7.9227">
        <ele>2195.12</ele>
        <time>2022-09-21T08:19:52Z</time>
      </trkpt>
      <trkpt lat="46.53537" lon="7.92271">
        <ele>2194.75</ele>
        <time>2022-09-21T08:19:53Z</time>
      </trkpt>
      <trkpt lat="46.53538" lon="7.92273">
        <ele>2195.39</ele>
        <time>2022-09-21T08:19:54Z</time>
      </trkpt>
      <trkpt lat="46.53539" lon="7.92275">
        <ele>2196.87</ele>
        <time>2022-09-21T08:19:56Z</time>
      </trkpt>
      <trkpt lat="46.53539" lon="7.92277">
        <ele>2196.59</ele>
        <time>2022-09-21T08:19:58Z</time>
      </trkpt>
      <trkpt lat="46.5354" lon="7.92279">
        <ele>2196.68</ele>
        <time>2022-09-21T08:20:00Z</time>
      </trkpt>
      <trkpt lat="46.53541" lon="7.9228">
        <ele>2197.55</ele>
        <time>2022-09-21T08:20:02Z</time>
      </trkpt>
      <trkpt lat="46.53542" lon="7.92282">
        <ele>2196.96</ele>
        <time>2022-09-21T08:20:04Z</time>
      </trkpt>
      <trkpt lat="46.53543" lon="7.92284">
        <ele>2196.57</ele>
        <time>2022-09-21T08:20:05Z</time>
      </trkpt>
      <trkpt lat="46.53543" lon="7.92285">
        <ele>2197.86</ele>
        <time>2022-09-21T08:20:06Z</time>
      </trkpt>
      <trkpt lat="46.53544" lon="7.92287">
        <ele>2198.71</ele>
        <time>2022-09-21T08:20:07Z</time>
      </trkpt>
      <trkpt lat="46.53544" lon="7.92288">
        <ele>2198.19</ele>
        <time>2022-09-21T08:20:08Z</time>
      </trkpt>
      <trkpt lat="46.53545" lon="7.92289">
        <ele>2198.57</ele>
        <time>2022-09-21T08:20:09Z</time>
      </trkpt>
      <trkpt lat="46.53545" lon="7.92292">
        <ele>2199.72</ele>
        <time>2022-09-21T08:20:11Z</time>
      </trkpt>
      <trkpt lat="46.53545" lon="7.92294">
        <ele>2198.97</ele>
        <time>2022-09-21T08:20:13Z</time>
      </trkpt>
      <trkpt lat="46.53546" lon="7.92296">
        <ele>2198.97</ele>
        <time>2022-09-21T08:20:14Z</time>
      </trkpt>
      <trkpt lat="46.53546" lon="7.92298">
        <ele>2198.81</ele>
        <time>2022-09-21T08:20:15Z</time>
      </trkpt>
      <trkpt lat="46.53546" lon="7.923">
        <ele>2198.2</ele>
        <time>2022-09-21T08:20:16Z</time>
      </trkpt>
      <trkpt lat="46.53546" lon="7.92301">
        <ele>2197.66</ele>
        <time>2022-09-21T08:20:17Z</time>
      </trkpt>
      <trkpt lat="46.53547" lon="7.92304">
        <ele>2198.76</ele>
        <time>2022-09-21T08:20:19Z</time>
      </trkpt>
      <trkpt lat="46.53548" lon="7.92306">
        <ele>2198.99</ele>
        <time>2022-09-21T08:20:20Z</time>
      </trkpt>
      <trkpt lat="46.53548" lon="7.92308">
        <ele>2199.88</ele>
        <time>2022-09-21T08:20:22Z</time>
      </trkpt>
      <trkpt lat="46.53549" lon="7.9231">
        <ele>2200.34</ele>
        <time>2022-09-21T08:20:25Z</time>
      </trkpt>
      <trkpt lat="46.5355" lon="7.92312">
        <ele>2199.84</ele>
        <time>2022-09-21T08:20:27Z</time>
      </trkpt>
      <trkpt lat="46.5355" lon="7.92314">
        <ele>2202.26</ele>
        <time>2022-09-21T08:20:29Z</time>
      </trkpt>
      <trkpt lat="46.53551" lon="7.92316">
        <ele>2201.9</ele>
        <time>2022-09-21T08:20:31Z</time>
      </trkpt>
      <trkpt lat="46.53551" lon="7.92318">
        <ele>2202.3</ele>
        <time>2022-09-21T08:20:33Z</time>
      </trkpt>
      <trkpt lat="46.53552" lon="7.92319">
        <ele>2201.97</ele>
        <time>2022-09-21T08:20:35Z</time>
      </trkpt>
      <trkpt lat="46.53551" lon="7.92319">
        <ele>2202.19</ele>
        <time>2022-09-21T08:20:36Z</time>
      </trkpt>
      <trkpt lat="46.5355" lon="7.92316">
        <ele>2203.48</ele>
        <time>2022-09-21T08:20:41Z</time>
      </trkpt>
      <trkpt lat="46.53551" lon="7.92318">
        <ele>2203.07</ele>
        <time>2022-09-21T08:20:48Z</time>
      </trkpt>
      <trkpt lat="46.53552" lon="7.9232">
        <ele>2205.08</ele>
        <time>2022-09-21T08:20:50Z</time>
      </trkpt>
      <trkpt lat="46.53553" lon="7.9232">
        <ele>2204.98</ele>
        <time>2022-09-21T08:20:51Z</time>
      </trkpt>
      <trkpt lat="46.53554" lon="7.9232">
        <ele>2204.9</ele>
        <time>2022-09-21T08:20:52Z</time>
      </trkpt>
      <trkpt lat="46.53555" lon="7.9232">
        <ele>2203.82</ele>
        <time>2022-09-21T08:20:53Z</time>
      </trkpt>
      <trkpt lat="46.53556" lon="7.92319">
        <ele>2203.86</ele>
        <time>2022-09-21T08:20:55Z</time>
      </trkpt>
      <trkpt lat="46.53558" lon="7.92319">
        <ele>2204.22</ele>
        <time>2022-09-21T08:20:57Z</time>
      </trkpt>
      <trkpt lat="46.53559" lon="7.92319">
        <ele>2204.08</ele>
        <time>2022-09-21T08:20:58Z</time>
      </trkpt>
      <trkpt lat="46.5356" lon="7.9232">
        <ele>2202.47</ele>
        <time>2022-09-21T08:21:00Z</time>
      </trkpt>
      <trkpt lat="46.5356" lon="7.92322">
        <ele>2204.13</ele>
        <time>2022-09-21T08:21:02Z</time>
      </trkpt>
      <trkpt lat="46.53561" lon="7.92323">
        <ele>2205.97</ele>
        <time>2022-09-21T08:21:04Z</time>
      </trkpt>
      <trkpt lat="46.53562" lon="7.92323">
        <ele>2205.88</ele>
        <time>2022-09-21T08:21:06Z</time>
      </trkpt>
      <trkpt lat="46.53563" lon="7.92323">
        <ele>2206.29</ele>
        <time>2022-09-21T08:21:08Z</time>
      </trkpt>
      <trkpt lat="46.53564" lon="7.92324">
        <ele>2207.04</ele>
        <time>2022-09-21T08:21:10Z</time>
      </trkpt>
      <trkpt lat="46.53566" lon="7.92325">
        <ele>2207.41</ele>
        <time>2022-09-21T08:21:12Z</time>
      </trkpt>
      <trkpt lat="46.53567" lon="7.92326">
        <ele>2207.51</ele>
        <time>2022-09-21T08:21:14Z</time>
      </trkpt>
      <trkpt lat="46.53568" lon="7.92327">
        <ele>2206.96</ele>
        <time>2022-09-21T08:21:16Z</time>
      </trkpt>
      <trkpt lat="46.5357" lon="7.92327">
        <ele>2208.48</ele>
        <time>2022-09-21T08:21:18Z</time>
      </trkpt>
      <trkpt lat="46.5357" lon="7.92328">
        <ele>2208.11</ele>
        <time>2022-09-21T08:21:19Z</time>
      </trkpt>
      <trkpt lat="46.53571" lon="7.92329">
        <ele>2206.93</ele>
        <time>2022-09-21T08:21:20Z</time>
      </trkpt>
      <trkpt lat="46.53572" lon="7.92331">
        <ele>2206.75</ele>
        <time>2022-09-21T08:21:22Z</time>
      </trkpt>
      <trkpt lat="46.53573" lon="7.92332">
        <ele>2207.28</ele>
        <time>2022-09-21T08:21:23Z</time>
      </trkpt>
      <trkpt lat="46.53574" lon="7.92333">
        <ele>2207.7</ele>
        <time>2022-09-21T08:21:25Z</time>
      </trkpt>
      <trkpt lat="46.53576" lon="7.92334">
        <ele>2207.33</ele>
        <time>2022-09-21T08:21:27Z</time>
      </trkpt>
      <trkpt lat="46.53577" lon="7.92334">
        <ele>2208.85</ele>
        <time>2022-09-21T08:21:29Z</time>
      </trkpt>
      <trkpt lat="46.53578" lon="7.92336">
        <ele>2208</ele>
        <time>2022-09-21T08:21:31Z</time>
      </trkpt>
      <trkpt lat="46.53577" lon="7.92337">
        <ele>2207.97</ele>
        <time>2022-09-21T08:21:37Z</time>
      </trkpt>
      <trkpt lat="46.53576" lon="7.92336">
        <ele>2207.12</ele>
        <time>2022-09-21T08:21:39Z</time>
      </trkpt>
      <trkpt lat="46.53576" lon="7.92338">
        <ele>2208.63</ele>
        <time>2022-09-21T08:21:47Z</time>
      </trkpt>
      <trkpt lat="46.53576" lon="7.92339">
        <ele>2208.89</ele>
        <time>2022-09-21T08:21:49Z</time>
      </trkpt>
      <trkpt lat="46.53576" lon="7.92341">
        <ele>2207.78</ele>
        <time>2022-09-21T08:21:51Z</time>
      </trkpt>
      <trkpt lat="46.53576" lon="7.92342">
        <ele>2207.98</ele>
        <time>2022-09-21T08:21:53Z</time>
      </trkpt>
      <trkpt lat="46.53575" lon="7.92343">
        <ele>2208.93</ele>
        <time>2022-09-21T08:21:55Z</time>
      </trkpt>
      <trkpt lat="46.53574" lon="7.92343">
        <ele>2208.63</ele>
        <time>2022-09-21T08:21:57Z</time>
      </trkpt>
      <trkpt lat="46.53573" lon="7.92344">
        <ele>2206.99</ele>
        <time>2022-09-21T08:21:59Z</time>
      </trkpt>
      <trkpt lat="46.53574" lon="7.92345">
        <ele>2208.49</ele>
        <time>2022-09-21T08:22:03Z</time>
      </trkpt>
      <trkpt lat="46.53575" lon="7.92346">
        <ele>2208.52</ele>
        <time>2022-09-21T08:22:06Z</time>
      </trkpt>
      <trkpt lat="46.53575" lon="7.92348">
        <ele>2208.44</ele>
        <time>2022-09-21T08:22:08Z</time>
      </trkpt>
      <trkpt lat="46.53576" lon="7.92349">
        <ele>2208.51</ele>
        <time>2022-09-21T08:22:11Z</time>
      </trkpt>
      <trkpt lat="46.53577" lon="7.92351">
        <ele>2211.53</ele>
        <time>2022-09-21T08:22:15Z</time>
      </trkpt>
      <trkpt lat="46.53579" lon="7.92351">
        <ele>2213.34</ele>
        <time>2022-09-21T08:22:18Z</time>
      </trkpt>
      <trkpt lat="46.5358" lon="7.92352">
        <ele>2214.83</ele>
        <time>2022-09-21T08:22:20Z</time>
      </trkpt>
      <trkpt lat="46.5358" lon="7.92354">
        <ele>2214.01</ele>
        <time>2022-09-21T08:22:24Z</time>
      </trkpt>
      <trkpt lat="46.5358" lon="7.92355">
        <ele>2215.1</ele>
        <time>2022-09-21T08:22:27Z</time>
      </trkpt>
      <trkpt lat="46.5358" lon="7.92357">
        <ele>2216.43</ele>
        <time>2022-09-21T08:22:30Z</time>
      </trkpt>
      <trkpt lat="46.5358" lon="7.92359">
        <ele>2215.11</ele>
        <time>2022-09-21T08:22:33Z</time>
      </trkpt>
      <trkpt lat="46.53581" lon="7.92361">
        <ele>2214.69</ele>
        <time>2022-09-21T08:22:35Z</time>
      </trkpt>
      <trkpt lat="46.53581" lon="7.92362">
        <ele>2215.31</ele>
        <time>2022-09-21T08:22:37Z</time>
      </trkpt>
      <trkpt lat="46.53581" lon="7.92364">
        <ele>2215.72</ele>
        <time>2022-09-21T08:22:43Z</time>
      </trkpt>
      <trkpt lat="46.53581" lon="7.92365">
        <ele>2214.61</ele>
        <time>2022-09-21T08:22:45Z</time>
      </trkpt>
      <trkpt lat="46.53582" lon="7.92368">
        <ele>2216.02</ele>
        <time>2022-09-21T08:22:48Z</time>
      </trkpt>
      <trkpt lat="46.53583" lon="7.92369">
        <ele>2216.29</ele>
        <time>2022-09-21T08:22:50Z</time>
      </trkpt>
      <trkpt lat="46.53583" lon="7.92371">
        <ele>2217.41</ele>
        <time>2022-09-21T08:22:52Z</time>
      </trkpt>
      <trkpt lat="46.53584" lon="7.92373">
        <ele>2217.65</ele>
        <time>2022-09-21T08:22:54Z</time>
      </trkpt>
      <trkpt lat="46.53585" lon="7.92374">
        <ele>2218.04</ele>
        <time>2022-09-21T08:22:56Z</time>
      </trkpt>
      <trkpt lat="46.53585" lon="7.92375">
        <ele>2219.69</ele>
        <time>2022-09-21T08:22:59Z</time>
      </trkpt>
      <trkpt lat="46.53585" lon="7.92377">
        <ele>2221.21</ele>
        <time>2022-09-21T08:23:04Z</time>
      </trkpt>
      <trkpt lat="46.53584" lon="7.92379">
        <ele>2220.62</ele>
        <time>2022-09-21T08:23:07Z</time>
      </trkpt>
      <trkpt lat="46.53584" lon="7.9238">
        <ele>2221.21</ele>
        <time>2022-09-21T08:23:09Z</time>
      </trkpt>
      <trkpt lat="46.53585" lon="7.92381">
        <ele>2223.2</ele>
        <time>2022-09-21T08:23:12Z</time>
      </trkpt>
      <trkpt lat="46.53586" lon="7.92383">
        <ele>2223.24</ele>
        <time>2022-09-21T08:23:14Z</time>
      </trkpt>
      <trkpt lat="46.53587" lon="7.92384">
        <ele>2224.65</ele>
        <time>2022-09-21T08:23:17Z</time>
      </trkpt>
      <trkpt lat="46.53587" lon="7.92386">
        <ele>2224.53</ele>
        <time>2022-09-21T08:23:20Z</time>
      </trkpt>
      <trkpt lat="46.53588" lon="7.92387">
        <ele>2227.66</ele>
        <time>2022-09-21T08:23:22Z</time>
      </trkpt>
      <trkpt lat="46.53589" lon="7.92388">
        <ele>2227.37</ele>
        <time>2022-09-21T08:23:24Z</time>
      </trkpt>
      <trkpt lat="46.53589" lon="7.9239">
        <ele>2227.84</ele>
        <time>2022-09-21T08:23:27Z</time>
      </trkpt>
      <trkpt lat="46.53589" lon="7.92392">
        <ele>2226.92</ele>
        <time>2022-09-21T08:23:30Z</time>
      </trkpt>
      <trkpt lat="46.53589" lon="7.92394">
        <ele>2228.12</ele>
        <time>2022-09-21T08:23:33Z</time>
      </trkpt>
      <trkpt lat="46.5359" lon="7.92395">
        <ele>2228.09</ele>
        <time>2022-09-21T08:23:36Z</time>
      </trkpt>
      <trkpt lat="46.53589" lon="7.92397">
        <ele>2228.79</ele>
        <time>2022-09-21T08:23:41Z</time>
      </trkpt>
      <trkpt lat="46.5359" lon="7.92398">
        <ele>2229.31</ele>
        <time>2022-09-21T08:23:44Z</time>
      </trkpt>
      <trkpt lat="46.53591" lon="7.924">
        <ele>2230.02</ele>
        <time>2022-09-21T08:23:46Z</time>
      </trkpt>
      <trkpt lat="46.53592" lon="7.92401">
        <ele>2229.81</ele>
        <time>2022-09-21T08:23:48Z</time>
      </trkpt>
      <trkpt lat="46.53593" lon="7.92402">
        <ele>2230.16</ele>
        <time>2022-09-21T08:23:50Z</time>
      </trkpt>
      <trkpt lat="46.53594" lon="7.92403">
        <ele>2228.92</ele>
        <time>2022-09-21T08:23:52Z</time>
      </trkpt>
      <trkpt lat="46.53594" lon="7.92405">
        <ele>2229.9</ele>
        <time>2022-09-21T08:23:54Z</time>
      </trkpt>
      <trkpt lat="46.53594" lon="7.92407">
        <ele>2231.12</ele>
        <time>2022-09-21T08:23:58Z</time>
      </trkpt>
      <trkpt lat="46.53595" lon="7.92408">
        <ele>2232.36</ele>
        <time>2022-09-21T08:24:00Z</time>
      </trkpt>
      <trkpt lat="46.53596" lon="7.92408">
        <ele>2232.93</ele>
        <time>2022-09-21T08:24:04Z</time>
      </trkpt>
      <trkpt lat="46.53597" lon="7.92409">
        <ele>2235.05</ele>
        <time>2022-09-21T08:24:09Z</time>
      </trkpt>
      <trkpt lat="46.53599" lon="7.92409">
        <ele>2234.72</ele>
        <time>2022-09-21T08:24:11Z</time>
      </trkpt>
      <trkpt lat="46.536" lon="7.9241">
        <ele>2234.86</ele>
        <time>2022-09-21T08:24:14Z</time>
      </trkpt>
      <trkpt lat="46.53601" lon="7.92411">
        <ele>2235.55</ele>
        <time>2022-09-21T08:24:15Z</time>
      </trkpt>
      <trkpt lat="46.53602" lon="7.92412">
        <ele>2236.06</ele>
        <time>2022-09-21T08:24:16Z</time>
      </trkpt>
      <trkpt lat="46.53603" lon="7.92413">
        <ele>2236.92</ele>
        <time>2022-09-21T08:24:17Z</time>
      </trkpt>
      <trkpt lat="46.53604" lon="7.92414">
        <ele>2238.08</ele>
        <time>2022-09-21T08:24:18Z</time>
      </trkpt>
      <trkpt lat="46.53605" lon="7.92414">
        <ele>2238.12</ele>
        <time>2022-09-21T08:24:19Z</time>
      </trkpt>
      <trkpt lat="46.53606" lon="7.92414">
        <ele>2237.17</ele>
        <time>2022-09-21T08:24:20Z</time>
      </trkpt>
      <trkpt lat="46.53607" lon="7.92415">
        <ele>2237.05</ele>
        <time>2022-09-21T08:24:21Z</time>
      </trkpt>
      <trkpt lat="46.53608" lon="7.92415">
        <ele>2238.49</ele>
        <time>2022-09-21T08:24:22Z</time>
      </trkpt>
      <trkpt lat="46.53609" lon="7.92416">
        <ele>2237.12</ele>
        <time>2022-09-21T08:24:24Z</time>
      </trkpt>
      <trkpt lat="46.5361" lon="7.92416">
        <ele>2236.3</ele>
        <time>2022-09-21T08:24:26Z</time>
      </trkpt>
      <trkpt lat="46.53611" lon="7.92416">
        <ele>2237.73</ele>
        <time>2022-09-21T08:24:31Z</time>
      </trkpt>
      <trkpt lat="46.53611" lon="7.92414">
        <ele>2238.21</ele>
        <time>2022-09-21T08:24:34Z</time>
      </trkpt>
      <trkpt lat="46.53612" lon="7.92415">
        <ele>2240.47</ele>
        <time>2022-09-21T08:24:41Z</time>
      </trkpt>
      <trkpt lat="46.53614" lon="7.92417">
        <ele>2239.96</ele>
        <time>2022-09-21T08:24:43Z</time>
      </trkpt>
      <trkpt lat="46.53614" lon="7.92417">
        <ele>2240.18</ele>
        <time>2022-09-21T08:24:52Z</time>
      </trkpt>
      <trkpt lat="46.53615" lon="7.92418">
        <ele>2241.22</ele>
        <time>2022-09-21T08:24:54Z</time>
      </trkpt>
      <trkpt lat="46.53614" lon="7.92418">
        <ele>2244.93</ele>
        <time>2022-09-21T08:25:01Z</time>
      </trkpt>
      <trkpt lat="46.53613" lon="7.92419">
        <ele>2245.55</ele>
        <time>2022-09-21T08:25:03Z</time>
      </trkpt>
      <trkpt lat="46.53613" lon="7.92421">
        <ele>2246.8</ele>
        <time>2022-09-21T08:25:06Z</time>
      </trkpt>
      <trkpt lat="46.53614" lon="7.92421">
        <ele>2248.59</ele>
        <time>2022-09-21T08:25:09Z</time>
      </trkpt>
      <trkpt lat="46.53615" lon="7.9242">
        <ele>2248.75</ele>
        <time>2022-09-21T08:25:11Z</time>
      </trkpt>
      <trkpt lat="46.53617" lon="7.92419">
        <ele>2248.79</ele>
        <time>2022-09-21T08:25:14Z</time>
      </trkpt>
      <trkpt lat="46.53617" lon="7.92418">
        <ele>2252.96</ele>
        <time>2022-09-21T08:25:18Z</time>
      </trkpt>
      <trkpt lat="46.53616" lon="7.92417">
        <ele>2253.65</ele>
        <time>2022-09-21T08:25:21Z</time>
      </trkpt>
      <trkpt lat="46.53617" lon="7.92416">
        <ele>2252.66</ele>
        <time>2022-09-21T08:25:30Z</time>
      </trkpt>
      <trkpt lat="46.53616" lon="7.92415">
        <ele>2253.04</ele>
        <time>2022-09-21T08:25:33Z</time>
      </trkpt>
      <trkpt lat="46.53617" lon="7.92414">
        <ele>2251.7</ele>
        <time>2022-09-21T08:25:38Z</time>
      </trkpt>
      <trkpt lat="46.53619" lon="7.92414">
        <ele>2251.29</ele>
        <time>2022-09-21T08:25:40Z</time>
      </trkpt>
      <trkpt lat="46.5362" lon="7.92414">
        <ele>2251.15</ele>
        <time>2022-09-21T08:25:42Z</time>
      </trkpt>
      <trkpt lat="46.53621" lon="7.92414">
        <ele>2251.39</ele>
        <time>2022-09-21T08:25:43Z</time>
      </trkpt>
      <trkpt lat="46.53622" lon="7.92414">
        <ele>2252.27</ele>
        <time>2022-09-21T08:25:44Z</time>
      </trkpt>
      <trkpt lat="46.53623" lon="7.92414">
        <ele>2253.52</ele>
        <time>2022-09-21T08:25:45Z</time>
      </trkpt>
      <trkpt lat="46.53625" lon="7.92415">
        <ele>2254</ele>
        <time>2022-09-21T08:25:46Z</time>
      </trkpt>
      <trkpt lat="46.53626" lon="7.92416">
        <ele>2253.87</ele>
        <time>2022-09-21T08:25:48Z</time>
      </trkpt>
      <trkpt lat="46.53627" lon="7.92416">
        <ele>2253.47</ele>
        <time>2022-09-21T08:25:50Z</time>
      </trkpt>
      <trkpt lat="46.53629" lon="7.92417">
        <ele>2254.26</ele>
        <time>2022-09-21T08:25:52Z</time>
      </trkpt>
      <trkpt lat="46.5363" lon="7.92417">
        <ele>2253.97</ele>
        <time>2022-09-21T08:25:54Z</time>
      </trkpt>
      <trkpt lat="46.53632" lon="7.92416">
        <ele>2253.93</ele>
        <time>2022-09-21T08:25:56Z</time>
      </trkpt>
      <trkpt lat="46.53634" lon="7.92416">
        <ele>2253.63</ele>
        <time>2022-09-21T08:25:58Z</time>
      </trkpt>
      <trkpt lat="46.53635" lon="7.92416">
        <ele>2253.26</ele>
        <time>2022-09-21T08:25:59Z</time>
      </trkpt>
      <trkpt lat="46.53636" lon="7.92415">
        <ele>2252.44</ele>
        <time>2022-09-21T08:26:01Z</time>
      </trkpt>
      <trkpt lat="46.53638" lon="7.92415">
        <ele>2251.9</ele>
        <time>2022-09-21T08:26:03Z</time>
      </trkpt>
      <trkpt lat="46.53639" lon="7.92415">
        <ele>2251.98</ele>
        <time>2022-09-21T08:26:04Z</time>
      </trkpt>
      <trkpt lat="46.5364" lon="7.92414">
        <ele>2252.22</ele>
        <time>2022-09-21T08:26:05Z</time>
      </trkpt>
      <trkpt lat="46.53641" lon="7.92414">
        <ele>2252.58</ele>
        <time>2022-09-21T08:26:06Z</time>
      </trkpt>
      <trkpt lat="46.53642" lon="7.92413">
        <ele>2253.46</ele>
        <time>2022-09-21T08:26:08Z</time>
      </trkpt>
      <trkpt lat="46.53643" lon="7.92412">
        <ele>2252.61</ele>
        <time>2022-09-21T08:26:09Z</time>
      </trkpt>
      <trkpt lat="46.53644" lon="7.92411">
        <ele>2252.73</ele>
        <time>2022-09-21T08:26:11Z</time>
      </trkpt>
      <trkpt lat="46.53646" lon="7.92411">
        <ele>2252.36</ele>
        <time>2022-09-21T08:26:13Z</time>
      </trkpt>
      <trkpt lat="46.53647" lon="7.92411">
        <ele>2251.2</ele>
        <time>2022-09-21T08:26:15Z</time>
      </trkpt>
      <trkpt lat="46.53648" lon="7.9241">
        <ele>2250.95</ele>
        <time>2022-09-21T08:26:17Z</time>
      </trkpt>
      <trkpt lat="46.53648" lon="7.92412">
        <ele>2250.37</ele>
        <time>2022-09-21T08:26:27Z</time>
      </trkpt>
      <trkpt lat="46.53649" lon="7.92414">
        <ele>2252.32</ele>
        <time>2022-09-21T08:26:34Z</time>
      </trkpt>
      <trkpt lat="46.5365" lon="7.92415">
        <ele>2251.62</ele>
        <time>2022-09-21T08:26:38Z</time>
      </trkpt>
      <trkpt lat="46.5365" lon="7.92416">
        <ele>2250.83</ele>
        <time>2022-09-21T08:26:41Z</time>
      </trkpt>
      <trkpt lat="46.53652" lon="7.92417">
        <ele>2250.18</ele>
        <time>2022-09-21T08:26:43Z</time>
      </trkpt>
      <trkpt lat="46.53653" lon="7.92418">
        <ele>2249.82</ele>
        <time>2022-09-21T08:26:45Z</time>
      </trkpt>
      <trkpt lat="46.53654" lon="7.92418">
        <ele>2249.06</ele>
        <time>2022-09-21T08:26:48Z</time>
      </trkpt>
      <trkpt lat="46.53655" lon="7.92418">
        <ele>2248.74</ele>
        <time>2022-09-21T08:26:50Z</time>
      </trkpt>
      <trkpt lat="46.53656" lon="7.9242">
        <ele>2248.57</ele>
        <time>2022-09-21T08:26:52Z</time>
      </trkpt>
      <trkpt lat="46.53657" lon="7.9242">
        <ele>2249.38</ele>
        <time>2022-09-21T08:26:56Z</time>
      </trkpt>
      <trkpt lat="46.53658" lon="7.9242">
        <ele>2251.18</ele>
        <time>2022-09-21T08:27:00Z</time>
      </trkpt>
      <trkpt lat="46.53659" lon="7.9242">
        <ele>2250.8</ele>
        <time>2022-09-21T08:27:02Z</time>
      </trkpt>
      <trkpt lat="46.5366" lon="7.92421">
        <ele>2252.28</ele>
        <time>2022-09-21T08:27:04Z</time>
      </trkpt>
      <trkpt lat="46.53661" lon="7.92422">
        <ele>2251.85</ele>
        <time>2022-09-21T08:27:06Z</time>
      </trkpt>
      <trkpt lat="46.53663" lon="7.92423">
        <ele>2252.3</ele>
        <time>2022-09-21T08:27:08Z</time>
      </trkpt>
      <trkpt lat="46.53663" lon="7.92424">
        <ele>2252.18</ele>
        <time>2022-09-21T08:27:11Z</time>
      </trkpt>
      <trkpt lat="46.53664" lon="7.92425">
        <ele>2253.04</ele>
        <time>2022-09-21T08:27:15Z</time>
      </trkpt>
      <trkpt lat="46.53665" lon="7.92425">
        <ele>2253.2</ele>
        <time>2022-09-21T08:27:17Z</time>
      </trkpt>
      <trkpt lat="46.53666" lon="7.92424">
        <ele>2253.19</ele>
        <time>2022-09-21T08:27:21Z</time>
      </trkpt>
      <trkpt lat="46.53668" lon="7.92425">
        <ele>2253.57</ele>
        <time>2022-09-21T08:27:23Z</time>
      </trkpt>
      <trkpt lat="46.53669" lon="7.92426">
        <ele>2254.11</ele>
        <time>2022-09-21T08:27:25Z</time>
      </trkpt>
      <trkpt lat="46.5367" lon="7.92425">
        <ele>2255.04</ele>
        <time>2022-09-21T08:27:27Z</time>
      </trkpt>
      <trkpt lat="46.53671" lon="7.92425">
        <ele>2253.36</ele>
        <time>2022-09-21T08:27:29Z</time>
      </trkpt>
      <trkpt lat="46.53671" lon="7.92423">
        <ele>2253.17</ele>
        <time>2022-09-21T08:27:31Z</time>
      </trkpt>
      <trkpt lat="46.53672" lon="7.92421">
        <ele>2252.98</ele>
        <time>2022-09-21T08:27:33Z</time>
      </trkpt>
      <trkpt lat="46.53673" lon="7.9242">
        <ele>2252.45</ele>
        <time>2022-09-21T08:27:35Z</time>
      </trkpt>
      <trkpt lat="46.53674" lon="7.9242">
        <ele>2253.4</ele>
        <time>2022-09-21T08:27:37Z</time>
      </trkpt>
      <trkpt lat="46.53675" lon="7.9242">
        <ele>2252.27</ele>
        <time>2022-09-21T08:27:39Z</time>
      </trkpt>
      <trkpt lat="46.53676" lon="7.9242">
        <ele>2251.11</ele>
        <time>2022-09-21T08:27:41Z</time>
      </trkpt>
      <trkpt lat="46.53678" lon="7.9242">
        <ele>2252.99</ele>
        <time>2022-09-21T08:27:43Z</time>
      </trkpt>
      <trkpt lat="46.53679" lon="7.92421">
        <ele>2253.91</ele>
        <time>2022-09-21T08:27:45Z</time>
      </trkpt>
      <trkpt lat="46.5368" lon="7.92421">
        <ele>2253.22</ele>
        <time>2022-09-21T08:27:47Z</time>
      </trkpt>
      <trkpt lat="46.53682" lon="7.92421">
        <ele>2253.27</ele>
        <time>2022-09-21T08:27:49Z</time>
      </trkpt>
      <trkpt lat="46.53683" lon="7.92422">
        <ele>2254.15</ele>
        <time>2022-09-21T08:27:51Z</time>
      </trkpt>
      <trkpt lat="46.53684" lon="7.92422">
        <ele>2253.27</ele>
        <time>2022-09-21T08:27:53Z</time>
      </trkpt>
      <trkpt lat="46.53685" lon="7.92423">
        <ele>2252.87</ele>
        <time>2022-09-21T08:27:55Z</time>
      </trkpt>
      <trkpt lat="46.53687" lon="7.92424">
        <ele>2254.16</ele>
        <time>2022-09-21T08:27:57Z</time>
      </trkpt>
      <trkpt lat="46.53688" lon="7.92424">
        <ele>2254.92</ele>
        <time>2022-09-21T08:28:00Z</time>
      </trkpt>
      <trkpt lat="46.53688" lon="7.92425">
        <ele>2257.27</ele>
        <time>2022-09-21T08:28:04Z</time>
      </trkpt>
      <trkpt lat="46.5369" lon="7.92425">
        <ele>2257.3</ele>
        <time>2022-09-21T08:28:07Z</time>
      </trkpt>
      <trkpt lat="46.5369" lon="7.92427">
        <ele>2259.63</ele>
        <time>2022-09-21T08:28:11Z</time>
      </trkpt>
      <trkpt lat="46.53689" lon="7.92428">
        <ele>2263.94</ele>
        <time>2022-09-21T08:28:18Z</time>
      </trkpt>
      <trkpt lat="46.5369" lon="7.92428">
        <ele>2264.84</ele>
        <time>2022-09-21T08:28:24Z</time>
      </trkpt>
      <trkpt lat="46.53691" lon="7.92429">
        <ele>2263.93</ele>
        <time>2022-09-21T08:28:30Z</time>
      </trkpt>
      <trkpt lat="46.53691" lon="7.92431">
        <ele>2263.9</ele>
        <time>2022-09-21T08:28:33Z</time>
      </trkpt>
      <trkpt lat="46.5369" lon="7.92431">
        <ele>2264.73</ele>
        <time>2022-09-21T08:28:36Z</time>
      </trkpt>
      <trkpt lat="46.53691" lon="7.92432">
        <ele>2265.59</ele>
        <time>2022-09-21T08:28:39Z</time>
      </trkpt>
      <trkpt lat="46.53692" lon="7.92432">
        <ele>2266.99</ele>
        <time>2022-09-21T08:28:41Z</time>
      </trkpt>
      <trkpt lat="46.53693" lon="7.92433">
        <ele>2265.22</ele>
        <time>2022-09-21T08:28:47Z</time>
      </trkpt>
      <trkpt lat="46.53695" lon="7.92433">
        <ele>2266.65</ele>
        <time>2022-09-21T08:28:49Z</time>
      </trkpt>
      <trkpt lat="46.53695" lon="7.92434">
        <ele>2266.11</ele>
        <time>2022-09-21T08:28:51Z</time>
      </trkpt>
      <trkpt lat="46.53696" lon="7.92436">
        <ele>2266.08</ele>
        <time>2022-09-21T08:28:53Z</time>
      </trkpt>
      <trkpt lat="46.53697" lon="7.92437">
        <ele>2267</ele>
        <time>2022-09-21T08:28:56Z</time>
      </trkpt>
      <trkpt lat="46.53698" lon="7.92438">
        <ele>2266.87</ele>
        <time>2022-09-21T08:29:00Z</time>
      </trkpt>
      <trkpt lat="46.53698" lon="7.92439">
        <ele>2270.11</ele>
        <time>2022-09-21T08:29:06Z</time>
      </trkpt>
      <trkpt lat="46.53699" lon="7.9244">
        <ele>2271.02</ele>
        <time>2022-09-21T08:29:08Z</time>
      </trkpt>
      <trkpt lat="46.537" lon="7.92441">
        <ele>2270.93</ele>
        <time>2022-09-21T08:29:11Z</time>
      </trkpt>
      <trkpt lat="46.53701" lon="7.92443">
        <ele>2270.15</ele>
        <time>2022-09-21T08:29:13Z</time>
      </trkpt>
      <trkpt lat="46.53702" lon="7.92443">
        <ele>2271</ele>
        <time>2022-09-21T08:29:15Z</time>
      </trkpt>
      <trkpt lat="46.53703" lon="7.92444">
        <ele>2271.76</ele>
        <time>2022-09-21T08:29:17Z</time>
      </trkpt>
      <trkpt lat="46.53704" lon="7.92445">
        <ele>2272.53</ele>
        <time>2022-09-21T08:29:20Z</time>
      </trkpt>
      <trkpt lat="46.53705" lon="7.92446">
        <ele>2272.31</ele>
        <time>2022-09-21T08:29:22Z</time>
      </trkpt>
      <trkpt lat="46.53706" lon="7.92447">
        <ele>2272.12</ele>
        <time>2022-09-21T08:29:26Z</time>
      </trkpt>
      <trkpt lat="46.53707" lon="7.92447">
        <ele>2272.17</ele>
        <time>2022-09-21T08:29:32Z</time>
      </trkpt>
      <trkpt lat="46.53707" lon="7.92448">
        <ele>2273.36</ele>
        <time>2022-09-21T08:29:36Z</time>
      </trkpt>
      <trkpt lat="46.53707" lon="7.92449">
        <ele>2277.19</ele>
        <time>2022-09-21T08:29:38Z</time>
      </trkpt>
      <trkpt lat="46.53706" lon="7.92449">
        <ele>2278.38</ele>
        <time>2022-09-21T08:29:40Z</time>
      </trkpt>
      <trkpt lat="46.53705" lon="7.92449">
        <ele>2280.59</ele>
        <time>2022-09-21T08:29:42Z</time>
      </trkpt>
      <trkpt lat="46.53703" lon="7.92449">
        <ele>2281.79</ele>
        <time>2022-09-21T08:29:44Z</time>
      </trkpt>
      <trkpt lat="46.53702" lon="7.9245">
        <ele>2284.42</ele>
        <time>2022-09-21T08:29:46Z</time>
      </trkpt>
      <trkpt lat="46.53701" lon="7.9245">
        <ele>2285.45</ele>
        <time>2022-09-21T08:29:48Z</time>
      </trkpt>
      <trkpt lat="46.537" lon="7.92451">
        <ele>2285.14</ele>
        <time>2022-09-21T08:29:50Z</time>
      </trkpt>
      <trkpt lat="46.53699" lon="7.92453">
        <ele>2283.9</ele>
        <time>2022-09-21T08:29:53Z</time>
      </trkpt>
      <trkpt lat="46.53698" lon="7.92454">
        <ele>2284.1</ele>
        <time>2022-09-21T08:29:55Z</time>
      </trkpt>
      <trkpt lat="46.53698" lon="7.92455">
        <ele>2282.95</ele>
        <time>2022-09-21T08:29:57Z</time>
      </trkpt>
      <trkpt lat="46.53696" lon="7.92455">
        <ele>2282.3</ele>
        <time>2022-09-21T08:29:59Z</time>
      </trkpt>
      <trkpt lat="46.53695" lon="7.92455">
        <ele>2283.23</ele>
        <time>2022-09-21T08:30:01Z</time>
      </trkpt>
      <trkpt lat="46.53694" lon="7.92455">
        <ele>2283.08</ele>
        <time>2022-09-21T08:30:03Z</time>
      </trkpt>
      <trkpt lat="46.53693" lon="7.92456">
        <ele>2283.47</ele>
        <time>2022-09-21T08:30:06Z</time>
      </trkpt>
      <trkpt lat="46.53692" lon="7.92456">
        <ele>2284.17</ele>
        <time>2022-09-21T08:30:10Z</time>
      </trkpt>
      <trkpt lat="46.53692" lon="7.92457">
        <ele>2285.04</ele>
        <time>2022-09-21T08:30:15Z</time>
      </trkpt>
      <trkpt lat="46.53691" lon="7.92458">
        <ele>2285.35</ele>
        <time>2022-09-21T08:30:23Z</time>
      </trkpt>
      <trkpt lat="46.53689" lon="7.92457">
        <ele>2284.92</ele>
        <time>2022-09-21T08:30:26Z</time>
      </trkpt>
      <trkpt lat="46.53688" lon="7.92458">
        <ele>2285.26</ele>
        <time>2022-09-21T08:30:28Z</time>
      </trkpt>
      <trkpt lat="46.53687" lon="7.92458">
        <ele>2286.26</ele>
        <time>2022-09-21T08:30:30Z</time>
      </trkpt>
      <trkpt lat="46.53686" lon="7.92458">
        <ele>2286.81</ele>
        <time>2022-09-21T08:30:32Z</time>
      </trkpt>
      <trkpt lat="46.53685" lon="7.92459">
        <ele>2286.9</ele>
        <time>2022-09-21T08:30:34Z</time>
      </trkpt>
      <trkpt lat="46.53684" lon="7.92459">
        <ele>2288.04</ele>
        <time>2022-09-21T08:30:36Z</time>
      </trkpt>
      <trkpt lat="46.53683" lon="7.9246">
        <ele>2287.77</ele>
        <time>2022-09-21T08:30:39Z</time>
      </trkpt>
      <trkpt lat="46.53683" lon="7.92461">
        <ele>2286.39</ele>
        <time>2022-09-21T08:30:43Z</time>
      </trkpt>
      <trkpt lat="46.53682" lon="7.92462">
        <ele>2285.09</ele>
        <time>2022-09-21T08:30:59Z</time>
      </trkpt>
      <trkpt lat="46.53681" lon="7.92462">
        <ele>2285.08</ele>
        <time>2022-09-21T08:31:02Z</time>
      </trkpt>
      <trkpt lat="46.5368" lon="7.92462">
        <ele>2285.76</ele>
        <time>2022-09-21T08:31:05Z</time>
      </trkpt>
      <trkpt lat="46.5368" lon="7.92464">
        <ele>2287.12</ele>
        <time>2022-09-21T08:31:12Z</time>
      </trkpt>
      <trkpt lat="46.53681" lon="7.92463">
        <ele>2286.11</ele>
        <time>2022-09-21T08:31:18Z</time>
      </trkpt>
      <trkpt lat="46.5368" lon="7.92465">
        <ele>2288.23</ele>
        <time>2022-09-21T08:31:22Z</time>
      </trkpt>
      <trkpt lat="46.5368" lon="7.92466">
        <ele>2291.85</ele>
        <time>2022-09-21T08:31:35Z</time>
      </trkpt>
      <trkpt lat="46.53679" lon="7.92467">
        <ele>2292.99</ele>
        <time>2022-09-21T08:31:39Z</time>
      </trkpt>
      <trkpt lat="46.53678" lon="7.92468">
        <ele>2293.62</ele>
        <time>2022-09-21T08:31:41Z</time>
      </trkpt>
      <trkpt lat="46.53677" lon="7.92467">
        <ele>2294.24</ele>
        <time>2022-09-21T08:31:44Z</time>
      </trkpt>
      <trkpt lat="46.53676" lon="7.92469">
        <ele>2294.79</ele>
        <time>2022-09-21T08:31:51Z</time>
      </trkpt>
      <trkpt lat="46.53676" lon="7.9247">
        <ele>2295.16</ele>
        <time>2022-09-21T08:31:55Z</time>
      </trkpt>
      <trkpt lat="46.53677" lon="7.92472">
        <ele>2295.98</ele>
        <time>2022-09-21T08:31:58Z</time>
      </trkpt>
      <trkpt lat="46.53678" lon="7.92473">
        <ele>2295.78</ele>
        <time>2022-09-21T08:32:04Z</time>
      </trkpt>
      <trkpt lat="46.53678" lon="7.92471">
        <ele>2296.98</ele>
        <time>2022-09-21T08:32:08Z</time>
      </trkpt>
      <trkpt lat="46.5368" lon="7.92473">
        <ele>2298.01</ele>
        <time>2022-09-21T08:32:17Z</time>
      </trkpt>
      <trkpt lat="46.53681" lon="7.92473">
        <ele>2298.36</ele>
        <time>2022-09-21T08:32:19Z</time>
      </trkpt>
      <trkpt lat="46.53682" lon="7.92474">
        <ele>2298.83</ele>
        <time>2022-09-21T08:32:21Z</time>
      </trkpt>
      <trkpt lat="46.53683" lon="7.92474">
        <ele>2297.76</ele>
        <time>2022-09-21T08:32:23Z</time>
      </trkpt>
      <trkpt lat="46.53684" lon="7.92473">
        <ele>2300.15</ele>
        <time>2022-09-21T08:32:25Z</time>
      </trkpt>
      <trkpt lat="46.53685" lon="7.92474">
        <ele>2300.12</ele>
        <time>2022-09-21T08:32:27Z</time>
      </trkpt>
      <trkpt lat="46.53686" lon="7.92475">
        <ele>2299</ele>
        <time>2022-09-21T08:32:30Z</time>
      </trkpt>
      <trkpt lat="46.53687" lon="7.92476">
        <ele>2298.56</ele>
        <time>2022-09-21T08:32:32Z</time>
      </trkpt>
      <trkpt lat="46.53688" lon="7.92477">
        <ele>2298.52</ele>
        <time>2022-09-21T08:32:33Z</time>
      </trkpt>
      <trkpt lat="46.53689" lon="7.92477">
        <ele>2299.3</ele>
        <time>2022-09-21T08:32:34Z</time>
      </trkpt>
      <trkpt lat="46.5369" lon="7.92478">
        <ele>2299.44</ele>
        <time>2022-09-21T08:32:36Z</time>
      </trkpt>
      <trkpt lat="46.53691" lon="7.92479">
        <ele>2300.23</ele>
        <time>2022-09-21T08:32:38Z</time>
      </trkpt>
      <trkpt lat="46.53692" lon="7.92479">
        <ele>2301.47</ele>
        <time>2022-09-21T08:32:40Z</time>
      </trkpt>
      <trkpt lat="46.53694" lon="7.92479">
        <ele>2301.58</ele>
        <time>2022-09-21T08:32:42Z</time>
      </trkpt>
      <trkpt lat="46.53695" lon="7.9248">
        <ele>2301.23</ele>
        <time>2022-09-21T08:32:44Z</time>
      </trkpt>
      <trkpt lat="46.53696" lon="7.9248">
        <ele>2301.5</ele>
        <time>2022-09-21T08:32:46Z</time>
      </trkpt>
      <trkpt lat="46.53697" lon="7.92481">
        <ele>2301.59</ele>
        <time>2022-09-21T08:32:48Z</time>
      </trkpt>
      <trkpt lat="46.53698" lon="7.92481">
        <ele>2300.9</ele>
        <time>2022-09-21T08:32:50Z</time>
      </trkpt>
      <trkpt lat="46.53699" lon="7.92482">
        <ele>2302.23</ele>
        <time>2022-09-21T08:32:52Z</time>
      </trkpt>
      <trkpt lat="46.537" lon="7.92483">
        <ele>2302.47</ele>
        <time>2022-09-21T08:32:54Z</time>
      </trkpt>
      <trkpt lat="46.53701" lon="7.92484">
        <ele>2302.77</ele>
        <time>2022-09-21T08:32:57Z</time>
      </trkpt>
      <trkpt lat="46.53702" lon="7.92485">
        <ele>2302.15</ele>
        <time>2022-09-21T08:32:59Z</time>
      </trkpt>
      <trkpt lat="46.53702" lon="7.92486">
        <ele>2302.75</ele>
        <time>2022-09-21T08:33:01Z</time>
      </trkpt>
      <trkpt lat="46.53704" lon="7.92486">
        <ele>2304.46</ele>
        <time>2022-09-21T08:33:04Z</time>
      </trkpt>
      <trkpt lat="46.53705" lon="7.92486">
        <ele>2305.53</ele>
        <time>2022-09-21T08:33:06Z</time>
      </trkpt>
      <trkpt lat="46.53705" lon="7.92487">
        <ele>2305.67</ele>
        <time>2022-09-21T08:33:09Z</time>
      </trkpt>
      <trkpt lat="46.53706" lon="7.92488">
        <ele>2306.25</ele>
        <time>2022-09-21T08:33:12Z</time>
      </trkpt>
      <trkpt lat="46.53707" lon="7.92489">
        <ele>2307.31</ele>
        <time>2022-09-21T08:33:14Z</time>
      </trkpt>
      <trkpt lat="46.53709" lon="7.92489">
        <ele>2307.14</ele>
        <time>2022-09-21T08:33:16Z</time>
      </trkpt>
      <trkpt lat="46.5371" lon="7.9249">
        <ele>2306.85</ele>
        <time>2022-09-21T08:33:18Z</time>
      </trkpt>
      <trkpt lat="46.53711" lon="7.92491">
        <ele>2306.34</ele>
        <time>2022-09-21T08:33:20Z</time>
      </trkpt>
      <trkpt lat="46.53712" lon="7.92492">
        <ele>2307.11</ele>
        <time>2022-09-21T08:33:22Z</time>
      </trkpt>
      <trkpt lat="46.53713" lon="7.92492">
        <ele>2308.33</ele>
        <time>2022-09-21T08:33:24Z</time>
      </trkpt>
      <trkpt lat="46.53714" lon="7.92492">
        <ele>2309.71</ele>
        <time>2022-09-21T08:33:27Z</time>
      </trkpt>
      <trkpt lat="46.53715" lon="7.92493">
        <ele>2310.5</ele>
        <time>2022-09-21T08:33:29Z</time>
      </trkpt>
      <trkpt lat="46.53715" lon="7.92494">
        <ele>2311.03</ele>
        <time>2022-09-21T08:33:31Z</time>
      </trkpt>
      <trkpt lat="46.53716" lon="7.92494">
        <ele>2311.28</ele>
        <time>2022-09-21T08:33:33Z</time>
      </trkpt>
      <trkpt lat="46.53717" lon="7.92494">
        <ele>2311.41</ele>
        <time>2022-09-21T08:33:36Z</time>
      </trkpt>
      <trkpt lat="46.53718" lon="7.92493">
        <ele>2310.9</ele>
        <time>2022-09-21T08:33:38Z</time>
      </trkpt>
      <trkpt lat="46.53719" lon="7.92494">
        <ele>2311.72</ele>
        <time>2022-09-21T08:33:42Z</time>
      </trkpt>
      <trkpt lat="46.5372" lon="7.92494">
        <ele>2312.44</ele>
        <time>2022-09-21T08:33:44Z</time>
      </trkpt>
      <trkpt lat="46.53721" lon="7.92495">
        <ele>2312.93</ele>
        <time>2022-09-21T08:33:48Z</time>
      </trkpt>
      <trkpt lat="46.53722" lon="7.92494">
        <ele>2313.71</ele>
        <time>2022-09-21T08:33:52Z</time>
      </trkpt>
      <trkpt lat="46.53723" lon="7.92495">
        <ele>2313.54</ele>
        <time>2022-09-21T08:33:54Z</time>
      </trkpt>
      <trkpt lat="46.53725" lon="7.92495">
        <ele>2314.78</ele>
        <time>2022-09-21T08:33:56Z</time>
      </trkpt>
      <trkpt lat="46.53726" lon="7.92496">
        <ele>2314.39</ele>
        <time>2022-09-21T08:33:58Z</time>
      </trkpt>
      <trkpt lat="46.53727" lon="7.92495">
        <ele>2316.06</ele>
        <time>2022-09-21T08:34:00Z</time>
      </trkpt>
      <trkpt lat="46.53728" lon="7.92495">
        <ele>2318.26</ele>
        <time>2022-09-21T08:34:02Z</time>
      </trkpt>
      <trkpt lat="46.53729" lon="7.92495">
        <ele>2233.76</ele>
        <time>2022-09-21T08:34:04Z</time>
      </trkpt>
      <trkpt lat="46.5373" lon="7.92496">
        <ele>2275.1</ele>
        <time>2022-09-21T08:34:06Z</time>
      </trkpt>
      <trkpt lat="46.53731" lon="7.92496">
        <ele>2319.63</ele>
        <time>2022-09-21T08:34:08Z</time>
      </trkpt>
      <trkpt lat="46.53732" lon="7.92497">
        <ele>2318.98</ele>
        <time>2022-09-21T08:34:11Z</time>
      </trkpt>
      <trkpt lat="46.53734" lon="7.92498">
        <ele>2320.39</ele>
        <time>2022-09-21T08:34:16Z</time>
      </trkpt>
      <trkpt lat="46.53735" lon="7.92498">
        <ele>2319.81</ele>
        <time>2022-09-21T08:34:20Z</time>
      </trkpt>
      <trkpt lat="46.53735" lon="7.92499">
        <ele>2320.39</ele>
        <time>2022-09-21T08:34:24Z</time>
      </trkpt>
      <trkpt lat="46.53735" lon="7.92501">
        <ele>2320.57</ele>
        <time>2022-09-21T08:34:27Z</time>
      </trkpt>
      <trkpt lat="46.53735" lon="7.92502">
        <ele>2321.55</ele>
        <time>2022-09-21T08:34:30Z</time>
      </trkpt>
      <trkpt lat="46.53735" lon="7.92504">
        <ele>2322.69</ele>
        <time>2022-09-21T08:34:33Z</time>
      </trkpt>
      <trkpt lat="46.53734" lon="7.92505">
        <ele>2323.63</ele>
        <time>2022-09-21T08:34:37Z</time>
      </trkpt>
      <trkpt lat="46.53734" lon="7.92507">
        <ele>2324.48</ele>
        <time>2022-09-21T08:34:42Z</time>
      </trkpt>
      <trkpt lat="46.53734" lon="7.92509">
        <ele>2325.7</ele>
        <time>2022-09-21T08:34:45Z</time>
      </trkpt>
      <trkpt lat="46.53735" lon="7.9251">
        <ele>2325.06</ele>
        <time>2022-09-21T08:34:48Z</time>
      </trkpt>
      <trkpt lat="46.53735" lon="7.92511">
        <ele>2327.5</ele>
        <time>2022-09-21T08:34:50Z</time>
      </trkpt>
      <trkpt lat="46.53736" lon="7.92511">
        <ele>2326.99</ele>
        <time>2022-09-21T08:34:52Z</time>
      </trkpt>
      <trkpt lat="46.53736" lon="7.92513">
        <ele>2325.67</ele>
        <time>2022-09-21T08:34:57Z</time>
      </trkpt>
      <trkpt lat="46.53736" lon="7.92514">
        <ele>2325.49</ele>
        <time>2022-09-21T08:34:59Z</time>
      </trkpt>
      <trkpt lat="46.53735" lon="7.92515">
        <ele>2326.42</ele>
        <time>2022-09-21T08:35:03Z</time>
      </trkpt>
      <trkpt lat="46.53735" lon="7.92517">
        <ele>2327.49</ele>
        <time>2022-09-21T08:35:06Z</time>
      </trkpt>
      <trkpt lat="46.53735" lon="7.92519">
        <ele>2328.07</ele>
        <time>2022-09-21T08:35:08Z</time>
      </trkpt>
      <trkpt lat="46.53736" lon="7.9252">
        <ele>2327.04</ele>
        <time>2022-09-21T08:35:10Z</time>
      </trkpt>
      <trkpt lat="46.53736" lon="7.92521">
        <ele>2326.14</ele>
        <time>2022-09-21T08:35:12Z</time>
      </trkpt>
      <trkpt lat="46.53737" lon="7.92522">
        <ele>2325.74</ele>
        <time>2022-09-21T08:35:14Z</time>
      </trkpt>
      <trkpt lat="46.53738" lon="7.92524">
        <ele>2326.65</ele>
        <time>2022-09-21T08:35:16Z</time>
      </trkpt>
      <trkpt lat="46.53738" lon="7.92526">
        <ele>2327.85</ele>
        <time>2022-09-21T08:35:19Z</time>
      </trkpt>
      <trkpt lat="46.53738" lon="7.92527">
        <ele>2328.64</ele>
        <time>2022-09-21T08:35:22Z</time>
      </trkpt>
      <trkpt lat="46.53739" lon="7.92528">
        <ele>2329.01</ele>
        <time>2022-09-21T08:35:24Z</time>
      </trkpt>
      <trkpt lat="46.53739" lon="7.9253">
        <ele>2329.92</ele>
        <time>2022-09-21T08:35:27Z</time>
      </trkpt>
      <trkpt lat="46.5374" lon="7.9253">
        <ele>2329.81</ele>
        <time>2022-09-21T08:35:30Z</time>
      </trkpt>
      <trkpt lat="46.53739" lon="7.92532">
        <ele>2332.87</ele>
        <time>2022-09-21T08:35:36Z</time>
      </trkpt>
      <trkpt lat="46.53739" lon="7.92533">
        <ele>2334.39</ele>
        <time>2022-09-21T08:35:41Z</time>
      </trkpt>
      <trkpt lat="46.53739" lon="7.92534">
        <ele>2332.52</ele>
        <time>2022-09-21T08:35:45Z</time>
      </trkpt>
      <trkpt lat="46.53739" lon="7.92536">
        <ele>2334.8</ele>
        <time>2022-09-21T08:35:50Z</time>
      </trkpt>
      <trkpt lat="46.53739" lon="7.92537">
        <ele>2335.72</ele>
        <time>2022-09-21T08:35:52Z</time>
      </trkpt>
      <trkpt lat="46.53739" lon="7.92538">
        <ele>2335.04</ele>
        <time>2022-09-21T08:35:54Z</time>
      </trkpt>
      <trkpt lat="46.53738" lon="7.9254">
        <ele>2334.03</ele>
        <time>2022-09-21T08:35:57Z</time>
      </trkpt>
      <trkpt lat="46.53739" lon="7.92542">
        <ele>2333.65</ele>
        <time>2022-09-21T08:36:00Z</time>
      </trkpt>
      <trkpt lat="46.53738" lon="7.92543">
        <ele>2334.15</ele>
        <time>2022-09-21T08:36:03Z</time>
      </trkpt>
      <trkpt lat="46.53738" lon="7.92545">
        <ele>2335.37</ele>
        <time>2022-09-21T08:36:06Z</time>
      </trkpt>
      <trkpt lat="46.53737" lon="7.92546">
        <ele>2335.2</ele>
        <time>2022-09-21T08:36:09Z</time>
      </trkpt>
      <trkpt lat="46.53736" lon="7.92547">
        <ele>2336.03</ele>
        <time>2022-09-21T08:36:13Z</time>
      </trkpt>
      <trkpt lat="46.53737" lon="7.92548">
        <ele>2335.21</ele>
        <time>2022-09-21T08:36:18Z</time>
      </trkpt>
      <trkpt lat="46.53738" lon="7.92549">
        <ele>2335.16</ele>
        <time>2022-09-21T08:36:20Z</time>
      </trkpt>
      <trkpt lat="46.53738" lon="7.9255">
        <ele>2336.84</ele>
        <time>2022-09-21T08:36:23Z</time>
      </trkpt>
      <trkpt lat="46.53738" lon="7.92551">
        <ele>2337.17</ele>
        <time>2022-09-21T08:36:24Z</time>
      </trkpt>
      <trkpt lat="46.53737" lon="7.92552">
        <ele>2339.03</ele>
        <time>2022-09-21T08:36:26Z</time>
      </trkpt>
      <trkpt lat="46.53736" lon="7.92553">
        <ele>2343.16</ele>
        <time>2022-09-21T08:36:29Z</time>
      </trkpt>
      <trkpt lat="46.53737" lon="7.92555">
        <ele>2344.53</ele>
        <time>2022-09-21T08:36:33Z</time>
      </trkpt>
      <trkpt lat="46.53738" lon="7.92555">
        <ele>2345.85</ele>
        <time>2022-09-21T08:36:39Z</time>
      </trkpt>
      <trkpt lat="46.53739" lon="7.92557">
        <ele>2345.26</ele>
        <time>2022-09-21T08:36:45Z</time>
      </trkpt>
      <trkpt lat="46.53739" lon="7.92557">
        <ele>2345.29</ele>
        <time>2022-09-21T08:36:48Z</time>
      </trkpt>
      <trkpt lat="46.5374" lon="7.92558">
        <ele>2344.88</ele>
        <time>2022-09-21T08:36:52Z</time>
      </trkpt>
      <trkpt lat="46.53741" lon="7.92559">
        <ele>2346.1</ele>
        <time>2022-09-21T08:36:55Z</time>
      </trkpt>
      <trkpt lat="46.53741" lon="7.92561">
        <ele>2347.44</ele>
        <time>2022-09-21T08:36:57Z</time>
      </trkpt>
      <trkpt lat="46.5374" lon="7.92562">
        <ele>2347.35</ele>
        <time>2022-09-21T08:37:00Z</time>
      </trkpt>
      <trkpt lat="46.5374" lon="7.92564">
        <ele>2347.44</ele>
        <time>2022-09-21T08:37:03Z</time>
      </trkpt>
      <trkpt lat="46.5374" lon="7.92565">
        <ele>2348.64</ele>
        <time>2022-09-21T08:37:06Z</time>
      </trkpt>
      <trkpt lat="46.5374" lon="7.92567">
        <ele>2348.99</ele>
        <time>2022-09-21T08:37:10Z</time>
      </trkpt>
      <trkpt lat="46.53739" lon="7.92567">
        <ele>2350.56</ele>
        <time>2022-09-21T08:37:13Z</time>
      </trkpt>
      <trkpt lat="46.53738" lon="7.92568">
        <ele>2349.9</ele>
        <time>2022-09-21T08:37:17Z</time>
      </trkpt>
      <trkpt lat="46.53737" lon="7.92569">
        <ele>2351.11</ele>
        <time>2022-09-21T08:37:20Z</time>
      </trkpt>
      <trkpt lat="46.53736" lon="7.92569">
        <ele>2352.56</ele>
        <time>2022-09-21T08:37:22Z</time>
      </trkpt>
      <trkpt lat="46.53735" lon="7.9257">
        <ele>2353.36</ele>
        <time>2022-09-21T08:37:24Z</time>
      </trkpt>
      <trkpt lat="46.53734" lon="7.9257">
        <ele>2354.1</ele>
        <time>2022-09-21T08:37:26Z</time>
      </trkpt>
      <trkpt lat="46.53733" lon="7.9257">
        <ele>2354.04</ele>
        <time>2022-09-21T08:37:28Z</time>
      </trkpt>
      <trkpt lat="46.53732" lon="7.92571">
        <ele>2354.76</ele>
        <time>2022-09-21T08:37:30Z</time>
      </trkpt>
      <trkpt lat="46.53731" lon="7.92571">
        <ele>2355.08</ele>
        <time>2022-09-21T08:37:32Z</time>
      </trkpt>
      <trkpt lat="46.5373" lon="7.92572">
        <ele>2354.53</ele>
        <time>2022-09-21T08:37:34Z</time>
      </trkpt>
      <trkpt lat="46.53729" lon="7.92573">
        <ele>2355.59</ele>
        <time>2022-09-21T08:37:36Z</time>
      </trkpt>
      <trkpt lat="46.53728" lon="7.92574">
        <ele>2356.45</ele>
        <time>2022-09-21T08:37:38Z</time>
      </trkpt>
      <trkpt lat="46.53727" lon="7.92574">
        <ele>2357.23</ele>
        <time>2022-09-21T08:37:41Z</time>
      </trkpt>
      <trkpt lat="46.53726" lon="7.92575">
        <ele>2357.98</ele>
        <time>2022-09-21T08:37:43Z</time>
      </trkpt>
      <trkpt lat="46.53725" lon="7.92576">
        <ele>2357.88</ele>
        <time>2022-09-21T08:37:45Z</time>
      </trkpt>
      <trkpt lat="46.53724" lon="7.92577">
        <ele>2357.68</ele>
        <time>2022-09-21T08:37:48Z</time>
      </trkpt>
      <trkpt lat="46.53723" lon="7.92578">
        <ele>2360.16</ele>
        <time>2022-09-21T08:37:51Z</time>
      </trkpt>
      <trkpt lat="46.53724" lon="7.9258">
        <ele>2359.43</ele>
        <time>2022-09-21T08:37:54Z</time>
      </trkpt>
      <trkpt lat="46.53723" lon="7.92581">
        <ele>2358.85</ele>
        <time>2022-09-21T08:37:57Z</time>
      </trkpt>
      <trkpt lat="46.53722" lon="7.92582">
        <ele>2359.6</ele>
        <time>2022-09-21T08:37:59Z</time>
      </trkpt>
      <trkpt lat="46.53722" lon="7.92583">
        <ele>2358.74</ele>
        <time>2022-09-21T08:38:01Z</time>
      </trkpt>
      <trkpt lat="46.53721" lon="7.92584">
        <ele>2359.12</ele>
        <time>2022-09-21T08:38:03Z</time>
      </trkpt>
      <trkpt lat="46.5372" lon="7.92584">
        <ele>2359.61</ele>
        <time>2022-09-21T08:38:05Z</time>
      </trkpt>
      <trkpt lat="46.53719" lon="7.92585">
        <ele>2360.51</ele>
        <time>2022-09-21T08:38:07Z</time>
      </trkpt>
      <trkpt lat="46.53718" lon="7.92585">
        <ele>2361.28</ele>
        <time>2022-09-21T08:38:09Z</time>
      </trkpt>
      <trkpt lat="46.53717" lon="7.92586">
        <ele>2361.6</ele>
        <time>2022-09-21T08:38:11Z</time>
      </trkpt>
      <trkpt lat="46.53716" lon="7.92587">
        <ele>2361.84</ele>
        <time>2022-09-21T08:38:13Z</time>
      </trkpt>
      <trkpt lat="46.53715" lon="7.92588">
        <ele>2362.76</ele>
        <time>2022-09-21T08:38:16Z</time>
      </trkpt>
      <trkpt lat="46.53715" lon="7.9259">
        <ele>2362.55</ele>
        <time>2022-09-21T08:38:19Z</time>
      </trkpt>
      <trkpt lat="46.53714" lon="7.92591">
        <ele>2362.88</ele>
        <time>2022-09-21T08:38:22Z</time>
      </trkpt>
      <trkpt lat="46.53713" lon="7.92593">
        <ele>2362.81</ele>
        <time>2022-09-21T08:38:24Z</time>
      </trkpt>
      <trkpt lat="46.53713" lon="7.92594">
        <ele>2363.46</ele>
        <time>2022-09-21T08:38:26Z</time>
      </trkpt>
      <trkpt lat="46.53712" lon="7.92595">
        <ele>2363.79</ele>
        <time>2022-09-21T08:38:28Z</time>
      </trkpt>
      <trkpt lat="46.53712" lon="7.92596">
        <ele>2362.87</ele>
        <time>2022-09-21T08:38:30Z</time>
      </trkpt>
      <trkpt lat="46.53712" lon="7.92598">
        <ele>2363.17</ele>
        <time>2022-09-21T08:38:33Z</time>
      </trkpt>
      <trkpt lat="46.53712" lon="7.92599">
        <ele>2365.73</ele>
        <time>2022-09-21T08:38:40Z</time>
      </trkpt>
      <trkpt lat="46.53711" lon="7.926">
        <ele>2366.21</ele>
        <time>2022-09-21T08:38:43Z</time>
      </trkpt>
      <trkpt lat="46.53711" lon="7.92602">
        <ele>2366.28</ele>
        <time>2022-09-21T08:38:45Z</time>
      </trkpt>
      <trkpt lat="46.53712" lon="7.92603">
        <ele>2365.89</ele>
        <time>2022-09-21T08:38:50Z</time>
      </trkpt>
      <trkpt lat="46.53711" lon="7.92604">
        <ele>2366.74</ele>
        <time>2022-09-21T08:38:55Z</time>
      </trkpt>
      <trkpt lat="46.5371" lon="7.92605">
        <ele>2366.25</ele>
        <time>2022-09-21T08:39:03Z</time>
      </trkpt>
      <trkpt lat="46.53711" lon="7.92606">
        <ele>2366.75</ele>
        <time>2022-09-21T08:39:08Z</time>
      </trkpt>
      <trkpt lat="46.53709" lon="7.92606">
        <ele>2366.18</ele>
        <time>2022-09-21T08:39:13Z</time>
      </trkpt>
      <trkpt lat="46.53708" lon="7.92607">
        <ele>2366.42</ele>
        <time>2022-09-21T08:39:15Z</time>
      </trkpt>
      <trkpt lat="46.53706" lon="7.92607">
        <ele>2366.24</ele>
        <time>2022-09-21T08:39:17Z</time>
      </trkpt>
      <trkpt lat="46.53705" lon="7.92606">
        <ele>2366.67</ele>
        <time>2022-09-21T08:39:19Z</time>
      </trkpt>
      <trkpt lat="46.53704" lon="7.92607">
        <ele>2366.8</ele>
        <time>2022-09-21T08:39:21Z</time>
      </trkpt>
      <trkpt lat="46.53703" lon="7.92608">
        <ele>2366.31</ele>
        <time>2022-09-21T08:39:23Z</time>
      </trkpt>
      <trkpt lat="46.53702" lon="7.92608">
        <ele>2366.08</ele>
        <time>2022-09-21T08:39:25Z</time>
      </trkpt>
      <trkpt lat="46.53701" lon="7.92609">
        <ele>2368.02</ele>
        <time>2022-09-21T08:39:28Z</time>
      </trkpt>
      <trkpt lat="46.537" lon="7.9261">
        <ele>2368.04</ele>
        <time>2022-09-21T08:39:31Z</time>
      </trkpt>
      <trkpt lat="46.53699" lon="7.92611">
        <ele>2369.35</ele>
        <time>2022-09-21T08:39:33Z</time>
      </trkpt>
      <trkpt lat="46.53698" lon="7.92612">
        <ele>2368.84</ele>
        <time>2022-09-21T08:39:35Z</time>
      </trkpt>
      <trkpt lat="46.53697" lon="7.92612">
        <ele>2368.9</ele>
        <time>2022-09-21T08:39:37Z</time>
      </trkpt>
      <trkpt lat="46.53695" lon="7.92612">
        <ele>2369.71</ele>
        <time>2022-09-21T08:39:40Z</time>
      </trkpt>
      <trkpt lat="46.53695" lon="7.92613">
        <ele>2370.17</ele>
        <time>2022-09-21T08:39:42Z</time>
      </trkpt>
      <trkpt lat="46.53694" lon="7.92614">
        <ele>2371.63</ele>
        <time>2022-09-21T08:39:44Z</time>
      </trkpt>
      <trkpt lat="46.53693" lon="7.92614">
        <ele>2373.22</ele>
        <time>2022-09-21T08:39:46Z</time>
      </trkpt>
      <trkpt lat="46.53692" lon="7.92615">
        <ele>2373.74</ele>
        <time>2022-09-21T08:39:48Z</time>
      </trkpt>
      <trkpt lat="46.5369" lon="7.92616">
        <ele>2375.19</ele>
        <time>2022-09-21T08:39:51Z</time>
      </trkpt>
      <trkpt lat="46.53689" lon="7.92616">
        <ele>2374.95</ele>
        <time>2022-09-21T08:39:53Z</time>
      </trkpt>
      <trkpt lat="46.53688" lon="7.92617">
        <ele>2375.14</ele>
        <time>2022-09-21T08:39:55Z</time>
      </trkpt>
      <trkpt lat="46.53687" lon="7.92616">
        <ele>2373.39</ele>
        <time>2022-09-21T08:39:58Z</time>
      </trkpt>
      <trkpt lat="46.53686" lon="7.92617">
        <ele>2373.28</ele>
        <time>2022-09-21T08:40:05Z</time>
      </trkpt>
      <trkpt lat="46.53685" lon="7.92619">
        <ele>2373.38</ele>
        <time>2022-09-21T08:40:08Z</time>
      </trkpt>
      <trkpt lat="46.53685" lon="7.9262">
        <ele>2374.41</ele>
        <time>2022-09-21T08:40:10Z</time>
      </trkpt>
      <trkpt lat="46.53684" lon="7.92621">
        <ele>2376.11</ele>
        <time>2022-09-21T08:40:13Z</time>
      </trkpt>
      <trkpt lat="46.53684" lon="7.92622">
        <ele>2375.74</ele>
        <time>2022-09-21T08:40:17Z</time>
      </trkpt>
      <trkpt lat="46.53683" lon="7.92624">
        <ele>2374.6</ele>
        <time>2022-09-21T08:40:19Z</time>
      </trkpt>
      <trkpt lat="46.53684" lon="7.92626">
        <ele>2375.23</ele>
        <time>2022-09-21T08:40:22Z</time>
      </trkpt>
      <trkpt lat="46.53684" lon="7.92627">
        <ele>2376.28</ele>
        <time>2022-09-21T08:40:25Z</time>
      </trkpt>
      <trkpt lat="46.53684" lon="7.92629">
        <ele>2377.26</ele>
        <time>2022-09-21T08:40:28Z</time>
      </trkpt>
      <trkpt lat="46.53683" lon="7.9263">
        <ele>2377.47</ele>
        <time>2022-09-21T08:40:30Z</time>
      </trkpt>
      <trkpt lat="46.53682" lon="7.9263">
        <ele>2377.89</ele>
        <time>2022-09-21T08:40:32Z</time>
      </trkpt>
      <trkpt lat="46.53681" lon="7.9263">
        <ele>2378.09</ele>
        <time>2022-09-21T08:40:34Z</time>
      </trkpt>
      <trkpt lat="46.5368" lon="7.92631">
        <ele>2378.8</ele>
        <time>2022-09-21T08:40:36Z</time>
      </trkpt>
      <trkpt lat="46.53679" lon="7.92631">
        <ele>2377.5</ele>
        <time>2022-09-21T08:40:38Z</time>
      </trkpt>
      <trkpt lat="46.53678" lon="7.92632">
        <ele>2378.9</ele>
        <time>2022-09-21T08:40:40Z</time>
      </trkpt>
      <trkpt lat="46.53678" lon="7.92631">
        <ele>2379.16</ele>
        <time>2022-09-21T08:40:48Z</time>
      </trkpt>
      <trkpt lat="46.53677" lon="7.92631">
        <ele>2379.83</ele>
        <time>2022-09-21T08:40:59Z</time>
      </trkpt>
      <trkpt lat="46.53676" lon="7.92631">
        <ele>2379.48</ele>
        <time>2022-09-21T08:41:01Z</time>
      </trkpt>
      <trkpt lat="46.53675" lon="7.92631">
        <ele>2380.02</ele>
        <time>2022-09-21T08:41:03Z</time>
      </trkpt>
      <trkpt lat="46.53674" lon="7.92631">
        <ele>2381.47</ele>
        <time>2022-09-21T08:41:13Z</time>
      </trkpt>
      <trkpt lat="46.53673" lon="7.9263">
        <ele>2382.33</ele>
        <time>2022-09-21T08:41:17Z</time>
      </trkpt>
      <trkpt lat="46.53672" lon="7.92628">
        <ele>2383.65</ele>
        <time>2022-09-21T08:41:19Z</time>
      </trkpt>
      <trkpt lat="46.53671" lon="7.92628">
        <ele>2383.91</ele>
        <time>2022-09-21T08:41:21Z</time>
      </trkpt>
      <trkpt lat="46.5367" lon="7.92629">
        <ele>2383.14</ele>
        <time>2022-09-21T08:41:24Z</time>
      </trkpt>
      <trkpt lat="46.53669" lon="7.9263">
        <ele>2384.22</ele>
        <time>2022-09-21T08:41:27Z</time>
      </trkpt>
      <trkpt lat="46.53668" lon="7.92631">
        <ele>2384.49</ele>
        <time>2022-09-21T08:41:29Z</time>
      </trkpt>
      <trkpt lat="46.53667" lon="7.92633">
        <ele>2384.12</ele>
        <time>2022-09-21T08:41:32Z</time>
      </trkpt>
      <trkpt lat="46.53666" lon="7.92634">
        <ele>2384.43</ele>
        <time>2022-09-21T08:41:36Z</time>
      </trkpt>
      <trkpt lat="46.53665" lon="7.92634">
        <ele>2385.58</ele>
        <time>2022-09-21T08:41:39Z</time>
      </trkpt>
      <trkpt lat="46.53664" lon="7.92634">
        <ele>2385.81</ele>
        <time>2022-09-21T08:41:42Z</time>
      </trkpt>
      <trkpt lat="46.53663" lon="7.92635">
        <ele>2387.4</ele>
        <time>2022-09-21T08:41:44Z</time>
      </trkpt>
      <trkpt lat="46.53662" lon="7.92635">
        <ele>2387.37</ele>
        <time>2022-09-21T08:41:46Z</time>
      </trkpt>
      <trkpt lat="46.53661" lon="7.92635">
        <ele>2387.63</ele>
        <time>2022-09-21T08:41:48Z</time>
      </trkpt>
      <trkpt lat="46.5366" lon="7.92635">
        <ele>2388.33</ele>
        <time>2022-09-21T08:41:50Z</time>
      </trkpt>
      <trkpt lat="46.53659" lon="7.92636">
        <ele>2389.1</ele>
        <time>2022-09-21T08:41:52Z</time>
      </trkpt>
      <trkpt lat="46.53658" lon="7.92636">
        <ele>2389.95</ele>
        <time>2022-09-21T08:41:55Z</time>
      </trkpt>
      <trkpt lat="46.53657" lon="7.92637">
        <ele>2389.36</ele>
        <time>2022-09-21T08:41:58Z</time>
      </trkpt>
      <trkpt lat="46.53655" lon="7.92638">
        <ele>2390.48</ele>
        <time>2022-09-21T08:42:01Z</time>
      </trkpt>
      <trkpt lat="46.53654" lon="7.92639">
        <ele>2389.77</ele>
        <time>2022-09-21T08:42:04Z</time>
      </trkpt>
      <trkpt lat="46.53654" lon="7.9264">
        <ele>2389.91</ele>
        <time>2022-09-21T08:42:06Z</time>
      </trkpt>
      <trkpt lat="46.53653" lon="7.92641">
        <ele>2390.37</ele>
        <time>2022-09-21T08:42:08Z</time>
      </trkpt>
      <trkpt lat="46.53652" lon="7.92641">
        <ele>2391.22</ele>
        <time>2022-09-21T08:42:10Z</time>
      </trkpt>
      <trkpt lat="46.53651" lon="7.92641">
        <ele>2391.71</ele>
        <time>2022-09-21T08:42:12Z</time>
      </trkpt>
      <trkpt lat="46.5365" lon="7.92641">
        <ele>2391.98</ele>
        <time>2022-09-21T08:42:15Z</time>
      </trkpt>
      <trkpt lat="46.53649" lon="7.92641">
        <ele>2392.4</ele>
        <time>2022-09-21T08:42:18Z</time>
      </trkpt>
      <trkpt lat="46.53647" lon="7.92642">
        <ele>2392.63</ele>
        <time>2022-09-21T08:42:20Z</time>
      </trkpt>
      <trkpt lat="46.53647" lon="7.92644">
        <ele>2392.55</ele>
        <time>2022-09-21T08:42:24Z</time>
      </trkpt>
      <trkpt lat="46.53646" lon="7.92645">
        <ele>2392.88</ele>
        <time>2022-09-21T08:42:26Z</time>
      </trkpt>
      <trkpt lat="46.53645" lon="7.92646">
        <ele>2393.7</ele>
        <time>2022-09-21T08:42:29Z</time>
      </trkpt>
      <trkpt lat="46.53645" lon="7.92646">
        <ele>2395.55</ele>
        <time>2022-09-21T08:42:31Z</time>
      </trkpt>
      <trkpt lat="46.53643" lon="7.92646">
        <ele>2396</ele>
        <time>2022-09-21T08:42:34Z</time>
      </trkpt>
      <trkpt lat="46.53642" lon="7.92645">
        <ele>2396.17</ele>
        <time>2022-09-21T08:42:36Z</time>
      </trkpt>
      <trkpt lat="46.53641" lon="7.92646">
        <ele>2396.82</ele>
        <time>2022-09-21T08:42:39Z</time>
      </trkpt>
      <trkpt lat="46.5364" lon="7.92646">
        <ele>2396.85</ele>
        <time>2022-09-21T08:42:41Z</time>
      </trkpt>
      <trkpt lat="46.53638" lon="7.92646">
        <ele>2398.15</ele>
        <time>2022-09-21T08:42:43Z</time>
      </trkpt>
      <trkpt lat="46.53637" lon="7.92647">
        <ele>2400.39</ele>
        <time>2022-09-21T08:42:45Z</time>
      </trkpt>
      <trkpt lat="46.53636" lon="7.92647">
        <ele>2402.07</ele>
        <time>2022-09-21T08:42:48Z</time>
      </trkpt>
      <trkpt lat="46.53635" lon="7.92647">
        <ele>2402.28</ele>
        <time>2022-09-21T08:42:50Z</time>
      </trkpt>
      <trkpt lat="46.53634" lon="7.92648">
        <ele>2403.29</ele>
        <time>2022-09-21T08:42:53Z</time>
      </trkpt>
      <trkpt lat="46.53634" lon="7.9265">
        <ele>2401.83</ele>
        <time>2022-09-21T08:42:56Z</time>
      </trkpt>
      <trkpt lat="46.53633" lon="7.92651">
        <ele>2401.55</ele>
        <time>2022-09-21T08:42:59Z</time>
      </trkpt>
      <trkpt lat="46.53632" lon="7.92652">
        <ele>2401.07</ele>
        <time>2022-09-21T08:43:03Z</time>
      </trkpt>
      <trkpt lat="46.53631" lon="7.92653">
        <ele>2401.02</ele>
        <time>2022-09-21T08:43:06Z</time>
      </trkpt>
      <trkpt lat="46.5363" lon="7.92654">
        <ele>2401.18</ele>
        <time>2022-09-21T08:43:08Z</time>
      </trkpt>
      <trkpt lat="46.5363" lon="7.92655">
        <ele>2400.21</ele>
        <time>2022-09-21T08:43:11Z</time>
      </trkpt>
      <trkpt lat="46.5363" lon="7.92657">
        <ele>2400.54</ele>
        <time>2022-09-21T08:43:15Z</time>
      </trkpt>
      <trkpt lat="46.53631" lon="7.92658">
        <ele>2401.49</ele>
        <time>2022-09-21T08:43:19Z</time>
      </trkpt>
      <trkpt lat="46.53632" lon="7.92659">
        <ele>2402.61</ele>
        <time>2022-09-21T08:43:22Z</time>
      </trkpt>
      <trkpt lat="46.53633" lon="7.9266">
        <ele>2403.29</ele>
        <time>2022-09-21T08:43:25Z</time>
      </trkpt>
      <trkpt lat="46.53634" lon="7.92661">
        <ele>2403.93</ele>
        <time>2022-09-21T08:43:28Z</time>
      </trkpt>
      <trkpt lat="46.53633" lon="7.92662">
        <ele>2404.51</ele>
        <time>2022-09-21T08:43:30Z</time>
      </trkpt>
      <trkpt lat="46.53633" lon="7.92663">
        <ele>2404.54</ele>
        <time>2022-09-21T08:43:33Z</time>
      </trkpt>
      <trkpt lat="46.53631" lon="7.92664">
        <ele>2405.37</ele>
        <time>2022-09-21T08:43:36Z</time>
      </trkpt>
      <trkpt lat="46.5363" lon="7.92665">
        <ele>2407.74</ele>
        <time>2022-09-21T08:43:38Z</time>
      </trkpt>
      <trkpt lat="46.53629" lon="7.92666">
        <ele>2407.6</ele>
        <time>2022-09-21T08:43:40Z</time>
      </trkpt>
      <trkpt lat="46.53628" lon="7.92666">
        <ele>2407.41</ele>
        <time>2022-09-21T08:43:43Z</time>
      </trkpt>
      <trkpt lat="46.53627" lon="7.92667">
        <ele>2407.57</ele>
        <time>2022-09-21T08:43:45Z</time>
      </trkpt>
      <trkpt lat="46.53626" lon="7.92668">
        <ele>2407.87</ele>
        <time>2022-09-21T08:43:47Z</time>
      </trkpt>
      <trkpt lat="46.53624" lon="7.92669">
        <ele>2407.78</ele>
        <time>2022-09-21T08:43:49Z</time>
      </trkpt>
      <trkpt lat="46.53624" lon="7.92669">
        <ele>2408.82</ele>
        <time>2022-09-21T08:43:51Z</time>
      </trkpt>
      <trkpt lat="46.53623" lon="7.9267">
        <ele>2409.32</ele>
        <time>2022-09-21T08:43:53Z</time>
      </trkpt>
      <trkpt lat="46.53622" lon="7.92671">
        <ele>2409.33</ele>
        <time>2022-09-21T08:43:55Z</time>
      </trkpt>
      <trkpt lat="46.53621" lon="7.92672">
        <ele>2409.95</ele>
        <time>2022-09-21T08:43:58Z</time>
      </trkpt>
      <trkpt lat="46.5362" lon="7.92672">
        <ele>2413.04</ele>
        <time>2022-09-21T08:44:00Z</time>
      </trkpt>
      <trkpt lat="46.53619" lon="7.92673">
        <ele>2412.5</ele>
        <time>2022-09-21T08:44:03Z</time>
      </trkpt>
      <trkpt lat="46.53618" lon="7.92674">
        <ele>2412.92</ele>
        <time>2022-09-21T08:44:05Z</time>
      </trkpt>
      <trkpt lat="46.53617" lon="7.92675">
        <ele>2412.99</ele>
        <time>2022-09-21T08:44:08Z</time>
      </trkpt>
      <trkpt lat="46.53616" lon="7.92676">
        <ele>2413.34</ele>
        <time>2022-09-21T08:44:14Z</time>
      </trkpt>
      <trkpt lat="46.53615" lon="7.92676">
        <ele>2413.34</ele>
        <time>2022-09-21T08:44:17Z</time>
      </trkpt>
      <trkpt lat="46.53614" lon="7.92676">
        <ele>2414.79</ele>
        <time>2022-09-21T08:44:19Z</time>
      </trkpt>
      <trkpt lat="46.53613" lon="7.92677">
        <ele>2414.03</ele>
        <time>2022-09-21T08:44:22Z</time>
      </trkpt>
      <trkpt lat="46.53612" lon="7.92677">
        <ele>2414.05</ele>
        <time>2022-09-21T08:44:24Z</time>
      </trkpt>
      <trkpt lat="46.53611" lon="7.92677">
        <ele>2413.89</ele>
        <time>2022-09-21T08:44:27Z</time>
      </trkpt>
      <trkpt lat="46.5361" lon="7.92678">
        <ele>2415.37</ele>
        <time>2022-09-21T08:44:29Z</time>
      </trkpt>
      <trkpt lat="46.5361" lon="7.92679">
        <ele>2416.51</ele>
        <time>2022-09-21T08:44:32Z</time>
      </trkpt>
      <trkpt lat="46.53608" lon="7.9268">
        <ele>2418.4</ele>
        <time>2022-09-21T08:44:35Z</time>
      </trkpt>
      <trkpt lat="46.53607" lon="7.9268">
        <ele>2418.68</ele>
        <time>2022-09-21T08:44:38Z</time>
      </trkpt>
      <trkpt lat="46.53607" lon="7.92682">
        <ele>2417.22</ele>
        <time>2022-09-21T08:44:40Z</time>
      </trkpt>
      <trkpt lat="46.53607" lon="7.92683">
        <ele>2417.2</ele>
        <time>2022-09-21T08:44:42Z</time>
      </trkpt>
      <trkpt lat="46.53606" lon="7.92685">
        <ele>2417.11</ele>
        <time>2022-09-21T08:44:45Z</time>
      </trkpt>
      <trkpt lat="46.53605" lon="7.92686">
        <ele>2417.59</ele>
        <time>2022-09-21T08:44:47Z</time>
      </trkpt>
      <trkpt lat="46.53604" lon="7.92686">
        <ele>2417.8</ele>
        <time>2022-09-21T08:44:49Z</time>
      </trkpt>
      <trkpt lat="46.53604" lon="7.92687">
        <ele>2416.82</ele>
        <time>2022-09-21T08:44:51Z</time>
      </trkpt>
      <trkpt lat="46.53603" lon="7.92689">
        <ele>2419.17</ele>
        <time>2022-09-21T08:44:54Z</time>
      </trkpt>
      <trkpt lat="46.53602" lon="7.92691">
        <ele>2419.81</ele>
        <time>2022-09-21T08:44:58Z</time>
      </trkpt>
      <trkpt lat="46.53602" lon="7.92692">
        <ele>2421.57</ele>
        <time>2022-09-21T08:45:02Z</time>
      </trkpt>
      <trkpt lat="46.53603" lon="7.92694">
        <ele>2421.25</ele>
        <time>2022-09-21T08:45:04Z</time>
      </trkpt>
      <trkpt lat="46.53603" lon="7.92695">
        <ele>2344.52</ele>
        <time>2022-09-21T08:45:07Z</time>
      </trkpt>
      <trkpt lat="46.53602" lon="7.92696">
        <ele>2391.95</ele>
        <time>2022-09-21T08:45:11Z</time>
      </trkpt>
      <trkpt lat="46.53601" lon="7.92696">
        <ele>2402.71</ele>
        <time>2022-09-21T08:45:13Z</time>
      </trkpt>
      <trkpt lat="46.53601" lon="7.92697">
        <ele>2409.28</ele>
        <time>2022-09-21T08:45:16Z</time>
      </trkpt>
      <trkpt lat="46.536" lon="7.92699">
        <ele>2415.42</ele>
        <time>2022-09-21T08:45:18Z</time>
      </trkpt>
      <trkpt lat="46.536" lon="7.927">
        <ele>2418.77</ele>
        <time>2022-09-21T08:45:20Z</time>
      </trkpt>
      <trkpt lat="46.53599" lon="7.92701">
        <ele>2424.9</ele>
        <time>2022-09-21T08:45:23Z</time>
      </trkpt>
      <trkpt lat="46.53598" lon="7.92703">
        <ele>2428.26</ele>
        <time>2022-09-21T08:45:26Z</time>
      </trkpt>
      <trkpt lat="46.53597" lon="7.92704">
        <ele>2428.42</ele>
        <time>2022-09-21T08:45:28Z</time>
      </trkpt>
      <trkpt lat="46.53596" lon="7.92704">
        <ele>2429.67</ele>
        <time>2022-09-21T08:45:30Z</time>
      </trkpt>
      <trkpt lat="46.53595" lon="7.92705">
        <ele>2429.82</ele>
        <time>2022-09-21T08:45:32Z</time>
      </trkpt>
      <trkpt lat="46.53594" lon="7.92706">
        <ele>2428.96</ele>
        <time>2022-09-21T08:45:34Z</time>
      </trkpt>
      <trkpt lat="46.53593" lon="7.92707">
        <ele>2429</ele>
        <time>2022-09-21T08:45:36Z</time>
      </trkpt>
      <trkpt lat="46.53593" lon="7.92709">
        <ele>2430.3</ele>
        <time>2022-09-21T08:45:38Z</time>
      </trkpt>
      <trkpt lat="46.53594" lon="7.9271">
        <ele>2391.73</ele>
        <time>2022-09-21T08:45:47Z</time>
      </trkpt>
      <trkpt lat="46.53595" lon="7.9271">
        <ele>2423.62</ele>
        <time>2022-09-21T08:45:57Z</time>
      </trkpt>
      <trkpt lat="46.53594" lon="7.92709">
        <ele>2429.62</ele>
        <time>2022-09-21T08:46:11Z</time>
      </trkpt>
      <trkpt lat="46.53593" lon="7.92709">
        <ele>2429.91</ele>
        <time>2022-09-21T08:46:12Z</time>
      </trkpt>
      <trkpt lat="46.53591" lon="7.92709">
        <ele>2429.56</ele>
        <time>2022-09-21T08:46:14Z</time>
      </trkpt>
      <trkpt lat="46.53591" lon="7.9271">
        <ele>2430.17</ele>
        <time>2022-09-21T08:46:16Z</time>
      </trkpt>
      <trkpt lat="46.5359" lon="7.92711">
        <ele>2432.32</ele>
        <time>2022-09-21T08:46:19Z</time>
      </trkpt>
      <trkpt lat="46.53589" lon="7.92713">
        <ele>2433.02</ele>
        <time>2022-09-21T08:46:21Z</time>
      </trkpt>
      <trkpt lat="46.53588" lon="7.92714">
        <ele>2434.55</ele>
        <time>2022-09-21T08:46:24Z</time>
      </trkpt>
      <trkpt lat="46.53587" lon="7.92715">
        <ele>2434.44</ele>
        <time>2022-09-21T08:46:26Z</time>
      </trkpt>
      <trkpt lat="46.53586" lon="7.92715">
        <ele>2435.18</ele>
        <time>2022-09-21T08:46:28Z</time>
      </trkpt>
      <trkpt lat="46.53585" lon="7.92715">
        <ele>2436.47</ele>
        <time>2022-09-21T08:46:30Z</time>
      </trkpt>
      <trkpt lat="46.53584" lon="7.92716">
        <ele>2437.42</ele>
        <time>2022-09-21T08:46:32Z</time>
      </trkpt>
      <trkpt lat="46.53582" lon="7.92717">
        <ele>2437.62</ele>
        <time>2022-09-21T08:46:35Z</time>
      </trkpt>
      <trkpt lat="46.53581" lon="7.92718">
        <ele>2437.64</ele>
        <time>2022-09-21T08:46:37Z</time>
      </trkpt>
      <trkpt lat="46.53579" lon="7.92718">
        <ele>2438.04</ele>
        <time>2022-09-21T08:46:39Z</time>
      </trkpt>
      <trkpt lat="46.53578" lon="7.92719">
        <ele>2437.79</ele>
        <time>2022-09-21T08:46:41Z</time>
      </trkpt>
      <trkpt lat="46.53577" lon="7.92719">
        <ele>2438.4</ele>
        <time>2022-09-21T08:46:43Z</time>
      </trkpt>
      <trkpt lat="46.53576" lon="7.9272">
        <ele>2438.47</ele>
        <time>2022-09-21T08:46:45Z</time>
      </trkpt>
      <trkpt lat="46.53576" lon="7.92721">
        <ele>2439.73</ele>
        <time>2022-09-21T08:46:47Z</time>
      </trkpt>
      <trkpt lat="46.53574" lon="7.92722">
        <ele>2440.23</ele>
        <time>2022-09-21T08:46:50Z</time>
      </trkpt>
      <trkpt lat="46.53573" lon="7.92722">
        <ele>2441.67</ele>
        <time>2022-09-21T08:46:52Z</time>
      </trkpt>
      <trkpt lat="46.53572" lon="7.92722">
        <ele>2441.14</ele>
        <time>2022-09-21T08:46:59Z</time>
      </trkpt>
      <trkpt lat="46.53571" lon="7.92723">
        <ele>2441.05</ele>
        <time>2022-09-21T08:47:01Z</time>
      </trkpt>
      <trkpt lat="46.53569" lon="7.92723">
        <ele>2442.17</ele>
        <time>2022-09-21T08:47:04Z</time>
      </trkpt>
      <trkpt lat="46.53568" lon="7.92724">
        <ele>2442.41</ele>
        <time>2022-09-21T08:47:06Z</time>
      </trkpt>
      <trkpt lat="46.53567" lon="7.92724">
        <ele>2443.54</ele>
        <time>2022-09-21T08:47:08Z</time>
      </trkpt>
      <trkpt lat="46.53566" lon="7.92723">
        <ele>2444.42</ele>
        <time>2022-09-21T08:47:11Z</time>
      </trkpt>
      <trkpt lat="46.53565" lon="7.92723">
        <ele>2445.14</ele>
        <time>2022-09-21T08:47:14Z</time>
      </trkpt>
      <trkpt lat="46.53564" lon="7.92722">
        <ele>2446.33</ele>
        <time>2022-09-21T08:47:16Z</time>
      </trkpt>
      <trkpt lat="46.53562" lon="7.92723">
        <ele>2445.61</ele>
        <time>2022-09-21T08:47:18Z</time>
      </trkpt>
      <trkpt lat="46.53561" lon="7.92724">
        <ele>2444.78</ele>
        <time>2022-09-21T08:47:20Z</time>
      </trkpt>
      <trkpt lat="46.5356" lon="7.92724">
        <ele>2445.52</ele>
        <time>2022-09-21T08:47:22Z</time>
      </trkpt>
      <trkpt lat="46.5356" lon="7.92725">
        <ele>2445.69</ele>
        <time>2022-09-21T08:47:23Z</time>
      </trkpt>
      <trkpt lat="46.53559" lon="7.92726">
        <ele>2446.1</ele>
        <time>2022-09-21T08:47:25Z</time>
      </trkpt>
      <trkpt lat="46.53557" lon="7.92727">
        <ele>2446.46</ele>
        <time>2022-09-21T08:47:27Z</time>
      </trkpt>
      <trkpt lat="46.53556" lon="7.92728">
        <ele>2445.67</ele>
        <time>2022-09-21T08:47:28Z</time>
      </trkpt>
      <trkpt lat="46.53555" lon="7.92728">
        <ele>2444.97</ele>
        <time>2022-09-21T08:47:29Z</time>
      </trkpt>
      <trkpt lat="46.53553" lon="7.92728">
        <ele>2445.99</ele>
        <time>2022-09-21T08:47:31Z</time>
      </trkpt>
      <trkpt lat="46.53552" lon="7.92729">
        <ele>2447.52</ele>
        <time>2022-09-21T08:47:33Z</time>
      </trkpt>
      <trkpt lat="46.53551" lon="7.92731">
        <ele>2446.64</ele>
        <time>2022-09-21T08:47:35Z</time>
      </trkpt>
      <trkpt lat="46.53552" lon="7.92733">
        <ele>2447.08</ele>
        <time>2022-09-21T08:47:38Z</time>
      </trkpt>
      <trkpt lat="46.53552" lon="7.92734">
        <ele>2447.47</ele>
        <time>2022-09-21T08:47:40Z</time>
      </trkpt>
      <trkpt lat="46.53551" lon="7.92735">
        <ele>2448.15</ele>
        <time>2022-09-21T08:47:42Z</time>
      </trkpt>
      <trkpt lat="46.5355" lon="7.92736">
        <ele>2448.44</ele>
        <time>2022-09-21T08:47:44Z</time>
      </trkpt>
      <trkpt lat="46.53548" lon="7.92736">
        <ele>2448.18</ele>
        <time>2022-09-21T08:47:46Z</time>
      </trkpt>
      <trkpt lat="46.53547" lon="7.92737">
        <ele>2449.63</ele>
        <time>2022-09-21T08:47:48Z</time>
      </trkpt>
      <trkpt lat="46.53546" lon="7.92738">
        <ele>2448.76</ele>
        <time>2022-09-21T08:47:50Z</time>
      </trkpt>
      <trkpt lat="46.53544" lon="7.92738">
        <ele>2450.02</ele>
        <time>2022-09-21T08:47:52Z</time>
      </trkpt>
      <trkpt lat="46.53542" lon="7.92739">
        <ele>2450.39</ele>
        <time>2022-09-21T08:47:54Z</time>
      </trkpt>
      <trkpt lat="46.53541" lon="7.92739">
        <ele>2451.29</ele>
        <time>2022-09-21T08:47:56Z</time>
      </trkpt>
      <trkpt lat="46.5354" lon="7.9274">
        <ele>2450.96</ele>
        <time>2022-09-21T08:47:58Z</time>
      </trkpt>
      <trkpt lat="46.53539" lon="7.9274">
        <ele>2451.29</ele>
        <time>2022-09-21T08:48:00Z</time>
      </trkpt>
      <trkpt lat="46.53537" lon="7.92741">
        <ele>2453.78</ele>
        <time>2022-09-21T08:48:03Z</time>
      </trkpt>
      <trkpt lat="46.53536" lon="7.92742">
        <ele>2454.45</ele>
        <time>2022-09-21T08:48:05Z</time>
      </trkpt>
      <trkpt lat="46.53536" lon="7.92742">
        <ele>2454.41</ele>
        <time>2022-09-21T08:48:07Z</time>
      </trkpt>
      <trkpt lat="46.53535" lon="7.92743">
        <ele>2454.64</ele>
        <time>2022-09-21T08:48:09Z</time>
      </trkpt>
      <trkpt lat="46.53533" lon="7.92744">
        <ele>2455.87</ele>
        <time>2022-09-21T08:48:12Z</time>
      </trkpt>
      <trkpt lat="46.53532" lon="7.92745">
        <ele>2456.32</ele>
        <time>2022-09-21T08:48:14Z</time>
      </trkpt>
      <trkpt lat="46.53532" lon="7.92747">
        <ele>2456.47</ele>
        <time>2022-09-21T08:48:16Z</time>
      </trkpt>
      <trkpt lat="46.53532" lon="7.92748">
        <ele>2456.34</ele>
        <time>2022-09-21T08:48:18Z</time>
      </trkpt>
      <trkpt lat="46.53534" lon="7.92748">
        <ele>2372.3</ele>
        <time>2022-09-21T08:48:20Z</time>
      </trkpt>
      <trkpt lat="46.53535" lon="7.92749">
        <ele>2405.67</ele>
        <time>2022-09-21T08:48:22Z</time>
      </trkpt>
      <trkpt lat="46.53536" lon="7.92751">
        <ele>2437.86</ele>
        <time>2022-09-21T08:48:25Z</time>
      </trkpt>
      <trkpt lat="46.53537" lon="7.92752">
        <ele>2443.85</ele>
        <time>2022-09-21T08:48:28Z</time>
      </trkpt>
      <trkpt lat="46.53538" lon="7.92753">
        <ele>2451.07</ele>
        <time>2022-09-21T08:48:31Z</time>
      </trkpt>
      <trkpt lat="46.53538" lon="7.92755">
        <ele>2454.75</ele>
        <time>2022-09-21T08:48:34Z</time>
      </trkpt>
      <trkpt lat="46.53539" lon="7.92756">
        <ele>2454.67</ele>
        <time>2022-09-21T08:48:36Z</time>
      </trkpt>
      <trkpt lat="46.5354" lon="7.92758">
        <ele>2455.39</ele>
        <time>2022-09-21T08:48:38Z</time>
      </trkpt>
      <trkpt lat="46.5354" lon="7.9276">
        <ele>2456.82</ele>
        <time>2022-09-21T08:48:40Z</time>
      </trkpt>
      <trkpt lat="46.53541" lon="7.92763">
        <ele>2457.86</ele>
        <time>2022-09-21T08:48:43Z</time>
      </trkpt>
      <trkpt lat="46.53541" lon="7.92765">
        <ele>2459.79</ele>
        <time>2022-09-21T08:48:45Z</time>
      </trkpt>
      <trkpt lat="46.53541" lon="7.92767">
        <ele>2461.1</ele>
        <time>2022-09-21T08:48:47Z</time>
      </trkpt>
      <trkpt lat="46.53542" lon="7.92769">
        <ele>2461.43</ele>
        <time>2022-09-21T08:48:49Z</time>
      </trkpt>
      <trkpt lat="46.53542" lon="7.92772">
        <ele>2462.16</ele>
        <time>2022-09-21T08:48:52Z</time>
      </trkpt>
      <trkpt lat="46.53542" lon="7.92774">
        <ele>2462.47</ele>
        <time>2022-09-21T08:48:54Z</time>
      </trkpt>
      <trkpt lat="46.53542" lon="7.92775">
        <ele>2336.59</ele>
        <time>2022-09-21T08:48:56Z</time>
      </trkpt>
      <trkpt lat="46.53542" lon="7.92777">
        <ele>2403.66</ele>
        <time>2022-09-21T08:48:58Z</time>
      </trkpt>
      <trkpt lat="46.53542" lon="7.92779">
        <ele>2423.59</ele>
        <time>2022-09-21T08:49:00Z</time>
      </trkpt>
      <trkpt lat="46.53543" lon="7.92781">
        <ele>2436.3</ele>
        <time>2022-09-21T08:49:02Z</time>
      </trkpt>
      <trkpt lat="46.53544" lon="7.92781">
        <ele>2442.38</ele>
        <time>2022-09-21T08:49:04Z</time>
      </trkpt>
      <trkpt lat="46.53545" lon="7.92782">
        <ele>2447.69</ele>
        <time>2022-09-21T08:49:06Z</time>
      </trkpt>
      <trkpt lat="46.53545" lon="7.92784">
        <ele>2455.89</ele>
        <time>2022-09-21T08:49:08Z</time>
      </trkpt>
      <trkpt lat="46.53544" lon="7.92786">
        <ele>2459.12</ele>
        <time>2022-09-21T08:49:10Z</time>
      </trkpt>
      <trkpt lat="46.53544" lon="7.92787">
        <ele>2459.7</ele>
        <time>2022-09-21T08:49:11Z</time>
      </trkpt>
      <trkpt lat="46.53543" lon="7.92787">
        <ele>2460.82</ele>
        <time>2022-09-21T08:49:12Z</time>
      </trkpt>
      <trkpt lat="46.53542" lon="7.92788">
        <ele>2462.92</ele>
        <time>2022-09-21T08:49:13Z</time>
      </trkpt>
      <trkpt lat="46.53541" lon="7.9279">
        <ele>2463.67</ele>
        <time>2022-09-21T08:49:15Z</time>
      </trkpt>
      <trkpt lat="46.53542" lon="7.92791">
        <ele>2463.03</ele>
        <time>2022-09-21T08:49:18Z</time>
      </trkpt>
      <trkpt lat="46.53544" lon="7.92791">
        <ele>2462.18</ele>
        <time>2022-09-21T08:49:20Z</time>
      </trkpt>
      <trkpt lat="46.53545" lon="7.92793">
        <ele>2460.77</ele>
        <time>2022-09-21T08:49:22Z</time>
      </trkpt>
      <trkpt lat="46.53545" lon="7.92795">
        <ele>2461.76</ele>
        <time>2022-09-21T08:49:24Z</time>
      </trkpt>
      <trkpt lat="46.53545" lon="7.92796">
        <ele>2462.26</ele>
        <time>2022-09-21T08:49:26Z</time>
      </trkpt>
      <trkpt lat="46.53544" lon="7.92798">
        <ele>2464.26</ele>
        <time>2022-09-21T08:49:28Z</time>
      </trkpt>
      <trkpt lat="46.53545" lon="7.928">
        <ele>2466.37</ele>
        <time>2022-09-21T08:49:30Z</time>
      </trkpt>
      <trkpt lat="46.53545" lon="7.92801">
        <ele>2467.89</ele>
        <time>2022-09-21T08:49:32Z</time>
      </trkpt>
      <trkpt lat="46.53545" lon="7.92803">
        <ele>2469.01</ele>
        <time>2022-09-21T08:49:34Z</time>
      </trkpt>
      <trkpt lat="46.53545" lon="7.92804">
        <ele>2469.12</ele>
        <time>2022-09-21T08:49:36Z</time>
      </trkpt>
      <trkpt lat="46.53545" lon="7.92806">
        <ele>2467.53</ele>
        <time>2022-09-21T08:49:39Z</time>
      </trkpt>
      <trkpt lat="46.53545" lon="7.92807">
        <ele>2467.39</ele>
        <time>2022-09-21T08:49:41Z</time>
      </trkpt>
      <trkpt lat="46.53545" lon="7.92809">
        <ele>2468.47</ele>
        <time>2022-09-21T08:49:43Z</time>
      </trkpt>
      <trkpt lat="46.53545" lon="7.92812">
        <ele>2468.81</ele>
        <time>2022-09-21T08:49:45Z</time>
      </trkpt>
      <trkpt lat="46.53544" lon="7.92814">
        <ele>2467.86</ele>
        <time>2022-09-21T08:49:47Z</time>
      </trkpt>
      <trkpt lat="46.53545" lon="7.92816">
        <ele>2468.67</ele>
        <time>2022-09-21T08:49:49Z</time>
      </trkpt>
      <trkpt lat="46.53545" lon="7.92818">
        <ele>2468.72</ele>
        <time>2022-09-21T08:49:51Z</time>
      </trkpt>
      <trkpt lat="46.53545" lon="7.9282">
        <ele>2469.04</ele>
        <time>2022-09-21T08:49:53Z</time>
      </trkpt>
      <trkpt lat="46.53545" lon="7.92821">
        <ele>2470.14</ele>
        <time>2022-09-21T08:49:55Z</time>
      </trkpt>
      <trkpt lat="46.53545" lon="7.92823">
        <ele>2472.26</ele>
        <time>2022-09-21T08:49:58Z</time>
      </trkpt>
      <trkpt lat="46.53545" lon="7.92825">
        <ele>2473.34</ele>
        <time>2022-09-21T08:50:01Z</time>
      </trkpt>
      <trkpt lat="46.53545" lon="7.92826">
        <ele>2476.38</ele>
        <time>2022-09-21T08:50:03Z</time>
      </trkpt>
      <trkpt lat="46.53545" lon="7.92828">
        <ele>2476.55</ele>
        <time>2022-09-21T08:50:05Z</time>
      </trkpt>
      <trkpt lat="46.53544" lon="7.92829">
        <ele>2477.65</ele>
        <time>2022-09-21T08:50:07Z</time>
      </trkpt>
      <trkpt lat="46.53543" lon="7.9283">
        <ele>2478.33</ele>
        <time>2022-09-21T08:50:09Z</time>
      </trkpt>
      <trkpt lat="46.53543" lon="7.92832">
        <ele>2478.33</ele>
        <time>2022-09-21T08:50:11Z</time>
      </trkpt>
      <trkpt lat="46.53543" lon="7.92833">
        <ele>2479.67</ele>
        <time>2022-09-21T08:50:13Z</time>
      </trkpt>
      <trkpt lat="46.53544" lon="7.92835">
        <ele>2481.89</ele>
        <time>2022-09-21T08:50:16Z</time>
      </trkpt>
      <trkpt lat="46.53544" lon="7.92836">
        <ele>2482.48</ele>
        <time>2022-09-21T08:50:19Z</time>
      </trkpt>
      <trkpt lat="46.53545" lon="7.92838">
        <ele>2482.94</ele>
        <time>2022-09-21T08:50:21Z</time>
      </trkpt>
      <trkpt lat="46.53544" lon="7.9284">
        <ele>2483.98</ele>
        <time>2022-09-21T08:50:23Z</time>
      </trkpt>
      <trkpt lat="46.53544" lon="7.92841">
        <ele>2484.03</ele>
        <time>2022-09-21T08:50:25Z</time>
      </trkpt>
      <trkpt lat="46.53544" lon="7.92843">
        <ele>2483.04</ele>
        <time>2022-09-21T08:50:27Z</time>
      </trkpt>
      <trkpt lat="46.53545" lon="7.92845">
        <ele>2481.79</ele>
        <time>2022-09-21T08:50:29Z</time>
      </trkpt>
      <trkpt lat="46.53545" lon="7.92846">
        <ele>2482.25</ele>
        <time>2022-09-21T08:50:31Z</time>
      </trkpt>
      <trkpt lat="46.53545" lon="7.92848">
        <ele>2482.25</ele>
        <time>2022-09-21T08:50:36Z</time>
      </trkpt>
      <trkpt lat="46.53545" lon="7.9285">
        <ele>2481.78</ele>
        <time>2022-09-21T08:50:38Z</time>
      </trkpt>
      <trkpt lat="46.53545" lon="7.92852">
        <ele>2482.68</ele>
        <time>2022-09-21T08:50:41Z</time>
      </trkpt>
      <trkpt lat="46.53545" lon="7.92853">
        <ele>2483.68</ele>
        <time>2022-09-21T08:50:43Z</time>
      </trkpt>
      <trkpt lat="46.53544" lon="7.92855">
        <ele>2484.48</ele>
        <time>2022-09-21T08:50:46Z</time>
      </trkpt>
      <trkpt lat="46.53543" lon="7.92857">
        <ele>2486.63</ele>
        <time>2022-09-21T08:50:48Z</time>
      </trkpt>
      <trkpt lat="46.53543" lon="7.92858">
        <ele>2487.73</ele>
        <time>2022-09-21T08:50:50Z</time>
      </trkpt>
      <trkpt lat="46.53543" lon="7.9286">
        <ele>2487.84</ele>
        <time>2022-09-21T08:50:52Z</time>
      </trkpt>
      <trkpt lat="46.53542" lon="7.92862">
        <ele>2488.69</ele>
        <time>2022-09-21T08:50:54Z</time>
      </trkpt>
      <trkpt lat="46.53542" lon="7.92864">
        <ele>2488.26</ele>
        <time>2022-09-21T08:50:56Z</time>
      </trkpt>
      <trkpt lat="46.53542" lon="7.92866">
        <ele>2488.49</ele>
        <time>2022-09-21T08:50:58Z</time>
      </trkpt>
      <trkpt lat="46.53541" lon="7.92869">
        <ele>2489.92</ele>
        <time>2022-09-21T08:51:00Z</time>
      </trkpt>
      <trkpt lat="46.53541" lon="7.92871">
        <ele>2491.75</ele>
        <time>2022-09-21T08:51:02Z</time>
      </trkpt>
      <trkpt lat="46.5354" lon="7.92873">
        <ele>2490.12</ele>
        <time>2022-09-21T08:51:04Z</time>
      </trkpt>
      <trkpt lat="46.5354" lon="7.92875">
        <ele>2492.08</ele>
        <time>2022-09-21T08:51:06Z</time>
      </trkpt>
      <trkpt lat="46.5354" lon="7.92876">
        <ele>2493.24</ele>
        <time>2022-09-21T08:51:08Z</time>
      </trkpt>
      <trkpt lat="46.5354" lon="7.92878">
        <ele>2492.91</ele>
        <time>2022-09-21T08:51:10Z</time>
      </trkpt>
      <trkpt lat="46.5354" lon="7.9288">
        <ele>2493.76</ele>
        <time>2022-09-21T08:51:13Z</time>
      </trkpt>
      <trkpt lat="46.5354" lon="7.92881">
        <ele>2494.39</ele>
        <time>2022-09-21T08:51:15Z</time>
      </trkpt>
      <trkpt lat="46.53539" lon="7.92883">
        <ele>2495.5</ele>
        <time>2022-09-21T08:51:16Z</time>
      </trkpt>
      <trkpt lat="46.53539" lon="7.92884">
        <ele>2496.01</ele>
        <time>2022-09-21T08:51:17Z</time>
      </trkpt>
      <trkpt lat="46.53539" lon="7.92886">
        <ele>2496.06</ele>
        <time>2022-09-21T08:51:19Z</time>
      </trkpt>
      <trkpt lat="46.53538" lon="7.92888">
        <ele>2495.04</ele>
        <time>2022-09-21T08:51:21Z</time>
      </trkpt>
      <trkpt lat="46.53538" lon="7.92889">
        <ele>2365.42</ele>
        <time>2022-09-21T08:51:24Z</time>
      </trkpt>
      <trkpt lat="46.53537" lon="7.9289">
        <ele>2413.14</ele>
        <time>2022-09-21T08:51:26Z</time>
      </trkpt>
      <trkpt lat="46.53536" lon="7.92891">
        <ele>2422.71</ele>
        <time>2022-09-21T08:51:28Z</time>
      </trkpt>
      <trkpt lat="46.53535" lon="7.92892">
        <ele>2441.96</ele>
        <time>2022-09-21T08:51:30Z</time>
      </trkpt>
      <trkpt lat="46.53534" lon="7.92893">
        <ele>2469.76</ele>
        <time>2022-09-21T08:51:33Z</time>
      </trkpt>
      <trkpt lat="46.53533" lon="7.92894">
        <ele>2481.02</ele>
        <time>2022-09-21T08:51:35Z</time>
      </trkpt>
      <trkpt lat="46.53532" lon="7.92896">
        <ele>2485.98</ele>
        <time>2022-09-21T08:51:37Z</time>
      </trkpt>
      <trkpt lat="46.53532" lon="7.92898">
        <ele>2489.54</ele>
        <time>2022-09-21T08:51:39Z</time>
      </trkpt>
      <trkpt lat="46.53531" lon="7.929">
        <ele>2490.44</ele>
        <time>2022-09-21T08:51:41Z</time>
      </trkpt>
      <trkpt lat="46.53531" lon="7.92902">
        <ele>2492.48</ele>
        <time>2022-09-21T08:51:43Z</time>
      </trkpt>
      <trkpt lat="46.5353" lon="7.92904">
        <ele>2493.23</ele>
        <time>2022-09-21T08:51:45Z</time>
      </trkpt>
      <trkpt lat="46.5353" lon="7.92906">
        <ele>2495.13</ele>
        <time>2022-09-21T08:51:47Z</time>
      </trkpt>
      <trkpt lat="46.53529" lon="7.92909">
        <ele>2496.6</ele>
        <time>2022-09-21T08:51:49Z</time>
      </trkpt>
      <trkpt lat="46.53529" lon="7.92911">
        <ele>2495.96</ele>
        <time>2022-09-21T08:51:51Z</time>
      </trkpt>
      <trkpt lat="46.53528" lon="7.92912">
        <ele>2496.11</ele>
        <time>2022-09-21T08:51:53Z</time>
      </trkpt>
      <trkpt lat="46.53528" lon="7.92914">
        <ele>2496.81</ele>
        <time>2022-09-21T08:51:55Z</time>
      </trkpt>
      <trkpt lat="46.53527" lon="7.92916">
        <ele>2498.34</ele>
        <time>2022-09-21T08:51:57Z</time>
      </trkpt>
      <trkpt lat="46.53526" lon="7.92917">
        <ele>2498.97</ele>
        <time>2022-09-21T08:51:58Z</time>
      </trkpt>
      <trkpt lat="46.53526" lon="7.92918">
        <ele>2499.55</ele>
        <time>2022-09-21T08:51:59Z</time>
      </trkpt>
      <trkpt lat="46.53525" lon="7.92919">
        <ele>2500.46</ele>
        <time>2022-09-21T08:52:01Z</time>
      </trkpt>
      <trkpt lat="46.53524" lon="7.92918">
        <ele>2504.49</ele>
        <time>2022-09-21T08:52:20Z</time>
      </trkpt>
      <trkpt lat="46.53524" lon="7.92919">
        <ele>2504.42</ele>
        <time>2022-09-21T08:52:23Z</time>
      </trkpt>
      <trkpt lat="46.53525" lon="7.9292">
        <ele>2504.44</ele>
        <time>2022-09-21T08:52:25Z</time>
      </trkpt>
      <trkpt lat="46.53525" lon="7.92919">
        <ele>2505.45</ele>
        <time>2022-09-21T08:52:28Z</time>
      </trkpt>
      <trkpt lat="46.53525" lon="7.92918">
        <ele>2505.92</ele>
        <time>2022-09-21T08:53:04Z</time>
      </trkpt>
      <trkpt lat="46.53526" lon="7.92917">
        <ele>2507.66</ele>
        <time>2022-09-21T08:53:20Z</time>
      </trkpt>
    </trkseg>
  </trk>
</gpx>